<?xml version="1.0" encoding="UTF-8" standalone="no" ?>
<gpx xmlns="http://www.topografix.com/GPX/1/1" xmlns:xsi="http://www.w3.org/2001/XMLSchema-instance" xsi:schemaLocation="http://www.topografix.com/GPX/1/1 http://www.topografix.com/GPX/1/1/gpx.xsd" version="1.1" creator="VisuGPX - https://www.visugpx.com">
  <metadata>
    <name>Pyrénées J3 Pins Justaret - Artigue 2018-07-27 06:36</name>
    <desc><![CDATA[Voyage en Pyrénnées depuis Grenoble en moto par les petites routes virolantes]]></desc>
  </metadata>
  <wpt lat="43.48548" lon="1.40224">
    <ele>154.13</ele>
    <name><![CDATA[0000173]]></name>
    <type><![CDATA[Point de départ]]></type>
  </wpt>
  <wpt lat="42.83343" lon="0.61971">
    <ele>1219.99</ele>
    <name><![CDATA[0000174]]></name>
    <desc><![CDATA[<p><br /><h3>Nom: Segment: 1</h3><br />Heure de départ: 07/27/2018 06:36<br/>Heure d'arrivée: 07/27/2018 08:56<br/>Distance: 146km (02:20)<br/>Temps déplacement: 01:34<br/>Vitesse moyenne: 62,4 km/h<br/>Vitesse moyenne mouv.: 92,15 km/h<br/>Vitesse Max.: 143,03 km/h<br/>Altitude minimale: 151 m<br/>Altitude maximale: 1219 m<br/>Vitesse de montée: 1110,6 m/h<br/>Vitesse de descente: -829,6 m/h<br/>Gain d'altitude: 1533 m<br/>Perte d'altitude: -488 m<br/>Temps de montée: 01:22<br/>Temps de descente: 00:35<br/></p>]]></desc>
    <type><![CDATA[Point d'arrivée]]></type>
  </wpt>
  <trk>
    <name><![CDATA[2018-07-27 06:36]]></name>
    <desc><![CDATA[<p>Heure de départ: 07/27/2018 06:36<br/>Heure d'arrivée: 07/27/2018 08:56<br/>Distance: 146 km (02:20)<br/>Temps déplacement: 01:34<br/>Vitesse moyenne: 62,4 km/h<br/>Vitesse moyenne mouv.: 92,38 km/h<br/>Vitesse Max.: 143,03 km/h<br/>Altitude minimale: 151 m<br/>Altitude maximale: 1219 m<br/>Vitesse de montée: 655,8 m/h<br/>Vitesse de descente: -679,7 m/h<br/>Gain d'altitude: 1231 m<br/>Perte d'altitude: -185 m<br/>Temps de montée: 01:52<br/>Temps de descente: 00:16<br/></p><hr align="center" width="480" style="height: 2px; width: 517px"/>]]></desc>
    <trkseg>
      <trkpt lat="43.48548" lon="1.40224">
        <ele>154.13</ele>
        <time>2018-07-27T04:36:31Z</time>
      </trkpt>
      <trkpt lat="43.48537" lon="1.402">
        <ele>158.1</ele>
        <time>2018-07-27T04:55:27Z</time>
      </trkpt>
      <trkpt lat="43.48519" lon="1.40181">
        <ele>157.22</ele>
        <time>2018-07-27T04:55:29Z</time>
      </trkpt>
      <trkpt lat="43.48501" lon="1.40158">
        <ele>155.53</ele>
        <time>2018-07-27T04:55:31Z</time>
      </trkpt>
      <trkpt lat="43.48481" lon="1.40143">
        <ele>156.08</ele>
        <time>2018-07-27T04:55:33Z</time>
      </trkpt>
      <trkpt lat="43.48461" lon="1.40146">
        <ele>156.13</ele>
        <time>2018-07-27T04:55:35Z</time>
      </trkpt>
      <trkpt lat="43.48443" lon="1.40155">
        <ele>155.22</ele>
        <time>2018-07-27T04:55:37Z</time>
      </trkpt>
      <trkpt lat="43.48425" lon="1.40155">
        <ele>154.93</ele>
        <time>2018-07-27T04:55:39Z</time>
      </trkpt>
      <trkpt lat="43.48409" lon="1.40139">
        <ele>156.06</ele>
        <time>2018-07-27T04:55:43Z</time>
      </trkpt>
      <trkpt lat="43.48417" lon="1.40107">
        <ele>157.13</ele>
        <time>2018-07-27T04:55:48Z</time>
      </trkpt>
      <trkpt lat="43.48428" lon="1.40086">
        <ele>157.13</ele>
        <time>2018-07-27T04:55:50Z</time>
      </trkpt>
      <trkpt lat="43.48452" lon="1.40072">
        <ele>157.83</ele>
        <time>2018-07-27T04:55:52Z</time>
      </trkpt>
      <trkpt lat="43.4848" lon="1.40057">
        <ele>157.2</ele>
        <time>2018-07-27T04:55:54Z</time>
      </trkpt>
      <trkpt lat="43.48509" lon="1.40042">
        <ele>156.23</ele>
        <time>2018-07-27T04:55:56Z</time>
      </trkpt>
      <trkpt lat="43.48543" lon="1.40026">
        <ele>156.14</ele>
        <time>2018-07-27T04:55:58Z</time>
      </trkpt>
      <trkpt lat="43.4856" lon="1.40017">
        <ele>156.14</ele>
        <time>2018-07-27T04:55:59Z</time>
      </trkpt>
      <trkpt lat="43.48594" lon="1.39999">
        <ele>155.22</ele>
        <time>2018-07-27T04:56:01Z</time>
      </trkpt>
      <trkpt lat="43.48627" lon="1.39982">
        <ele>156.05</ele>
        <time>2018-07-27T04:56:03Z</time>
      </trkpt>
      <trkpt lat="43.48658" lon="1.39965">
        <ele>155.22</ele>
        <time>2018-07-27T04:56:05Z</time>
      </trkpt>
      <trkpt lat="43.48687" lon="1.39949">
        <ele>155.35</ele>
        <time>2018-07-27T04:56:07Z</time>
      </trkpt>
      <trkpt lat="43.48713" lon="1.39934">
        <ele>155.15</ele>
        <time>2018-07-27T04:56:09Z</time>
      </trkpt>
      <trkpt lat="43.4874" lon="1.3992">
        <ele>155.13</ele>
        <time>2018-07-27T04:56:11Z</time>
      </trkpt>
      <trkpt lat="43.48765" lon="1.39906">
        <ele>155.13</ele>
        <time>2018-07-27T04:56:13Z</time>
      </trkpt>
      <trkpt lat="43.48786" lon="1.39897">
        <ele>155.13</ele>
        <time>2018-07-27T04:56:15Z</time>
      </trkpt>
      <trkpt lat="43.48811" lon="1.39889">
        <ele>155.13</ele>
        <time>2018-07-27T04:56:18Z</time>
      </trkpt>
      <trkpt lat="43.48832" lon="1.39896">
        <ele>155.13</ele>
        <time>2018-07-27T04:56:21Z</time>
      </trkpt>
      <trkpt lat="43.48849" lon="1.39885">
        <ele>154.86</ele>
        <time>2018-07-27T04:56:24Z</time>
      </trkpt>
      <trkpt lat="43.48869" lon="1.39863">
        <ele>156.04</ele>
        <time>2018-07-27T04:56:27Z</time>
      </trkpt>
      <trkpt lat="43.4889" lon="1.39853">
        <ele>155.21</ele>
        <time>2018-07-27T04:56:29Z</time>
      </trkpt>
      <trkpt lat="43.48919" lon="1.39844">
        <ele>154.44</ele>
        <time>2018-07-27T04:56:31Z</time>
      </trkpt>
      <trkpt lat="43.48952" lon="1.39835">
        <ele>153.25</ele>
        <time>2018-07-27T04:56:33Z</time>
      </trkpt>
      <trkpt lat="43.48986" lon="1.39825">
        <ele>153.84</ele>
        <time>2018-07-27T04:56:35Z</time>
      </trkpt>
      <trkpt lat="43.49004" lon="1.3982">
        <ele>154.05</ele>
        <time>2018-07-27T04:56:36Z</time>
      </trkpt>
      <trkpt lat="43.49023" lon="1.39814">
        <ele>154.11</ele>
        <time>2018-07-27T04:56:37Z</time>
      </trkpt>
      <trkpt lat="43.49043" lon="1.39809">
        <ele>154.13</ele>
        <time>2018-07-27T04:56:38Z</time>
      </trkpt>
      <trkpt lat="43.49062" lon="1.39802">
        <ele>154.83</ele>
        <time>2018-07-27T04:56:39Z</time>
      </trkpt>
      <trkpt lat="43.49083" lon="1.39795">
        <ele>155.04</ele>
        <time>2018-07-27T04:56:40Z</time>
      </trkpt>
      <trkpt lat="43.49103" lon="1.39788">
        <ele>155.11</ele>
        <time>2018-07-27T04:56:41Z</time>
      </trkpt>
      <trkpt lat="43.49124" lon="1.3978">
        <ele>155.12</ele>
        <time>2018-07-27T04:56:42Z</time>
      </trkpt>
      <trkpt lat="43.49145" lon="1.3977">
        <ele>155.13</ele>
        <time>2018-07-27T04:56:43Z</time>
      </trkpt>
      <trkpt lat="43.49165" lon="1.39757">
        <ele>155.83</ele>
        <time>2018-07-27T04:56:44Z</time>
      </trkpt>
      <trkpt lat="43.49185" lon="1.39743">
        <ele>156.04</ele>
        <time>2018-07-27T04:56:45Z</time>
      </trkpt>
      <trkpt lat="43.49204" lon="1.39728">
        <ele>156.11</ele>
        <time>2018-07-27T04:56:46Z</time>
      </trkpt>
      <trkpt lat="43.49223" lon="1.39711">
        <ele>156.12</ele>
        <time>2018-07-27T04:56:47Z</time>
      </trkpt>
      <trkpt lat="43.4924" lon="1.39692">
        <ele>156.13</ele>
        <time>2018-07-27T04:56:48Z</time>
      </trkpt>
      <trkpt lat="43.49257" lon="1.39672">
        <ele>156.13</ele>
        <time>2018-07-27T04:56:49Z</time>
      </trkpt>
      <trkpt lat="43.49272" lon="1.3965">
        <ele>156.13</ele>
        <time>2018-07-27T04:56:50Z</time>
      </trkpt>
      <trkpt lat="43.49287" lon="1.39627">
        <ele>156.83</ele>
        <time>2018-07-27T04:56:51Z</time>
      </trkpt>
      <trkpt lat="43.493" lon="1.39603">
        <ele>157.04</ele>
        <time>2018-07-27T04:56:52Z</time>
      </trkpt>
      <trkpt lat="43.49312" lon="1.39577">
        <ele>157.11</ele>
        <time>2018-07-27T04:56:53Z</time>
      </trkpt>
      <trkpt lat="43.49324" lon="1.39553">
        <ele>157.82</ele>
        <time>2018-07-27T04:56:54Z</time>
      </trkpt>
      <trkpt lat="43.49338" lon="1.39527">
        <ele>158.74</ele>
        <time>2018-07-27T04:56:55Z</time>
      </trkpt>
      <trkpt lat="43.49351" lon="1.395">
        <ele>159.72</ele>
        <time>2018-07-27T04:56:56Z</time>
      </trkpt>
      <trkpt lat="43.49365" lon="1.39473">
        <ele>160.01</ele>
        <time>2018-07-27T04:56:57Z</time>
      </trkpt>
      <trkpt lat="43.49379" lon="1.39444">
        <ele>160.8</ele>
        <time>2018-07-27T04:56:58Z</time>
      </trkpt>
      <trkpt lat="43.49393" lon="1.39414">
        <ele>162.43</ele>
        <time>2018-07-27T04:56:59Z</time>
      </trkpt>
      <trkpt lat="43.49408" lon="1.39385">
        <ele>162.92</ele>
        <time>2018-07-27T04:57:00Z</time>
      </trkpt>
      <trkpt lat="43.49422" lon="1.39355">
        <ele>163.07</ele>
        <time>2018-07-27T04:57:01Z</time>
      </trkpt>
      <trkpt lat="43.49436" lon="1.39326">
        <ele>163.11</ele>
        <time>2018-07-27T04:57:02Z</time>
      </trkpt>
      <trkpt lat="43.4945" lon="1.39297">
        <ele>163.83</ele>
        <time>2018-07-27T04:57:03Z</time>
      </trkpt>
      <trkpt lat="43.49465" lon="1.39268">
        <ele>164.04</ele>
        <time>2018-07-27T04:57:04Z</time>
      </trkpt>
      <trkpt lat="43.49479" lon="1.39239">
        <ele>164.11</ele>
        <time>2018-07-27T04:57:05Z</time>
      </trkpt>
      <trkpt lat="43.49493" lon="1.39209">
        <ele>164.12</ele>
        <time>2018-07-27T04:57:06Z</time>
      </trkpt>
      <trkpt lat="43.49507" lon="1.39181">
        <ele>164.13</ele>
        <time>2018-07-27T04:57:07Z</time>
      </trkpt>
      <trkpt lat="43.49522" lon="1.39152">
        <ele>164.13</ele>
        <time>2018-07-27T04:57:08Z</time>
      </trkpt>
      <trkpt lat="43.49537" lon="1.39123">
        <ele>163.43</ele>
        <time>2018-07-27T04:57:09Z</time>
      </trkpt>
      <trkpt lat="43.49553" lon="1.39095">
        <ele>163.92</ele>
        <time>2018-07-27T04:57:10Z</time>
      </trkpt>
      <trkpt lat="43.4957" lon="1.39067">
        <ele>164.07</ele>
        <time>2018-07-27T04:57:11Z</time>
      </trkpt>
      <trkpt lat="43.49588" lon="1.39041">
        <ele>163.41</ele>
        <time>2018-07-27T04:57:12Z</time>
      </trkpt>
      <trkpt lat="43.49606" lon="1.39015">
        <ele>163.22</ele>
        <time>2018-07-27T04:57:13Z</time>
      </trkpt>
      <trkpt lat="43.49625" lon="1.38991">
        <ele>162.46</ele>
        <time>2018-07-27T04:57:14Z</time>
      </trkpt>
      <trkpt lat="43.49645" lon="1.38967">
        <ele>162.23</ele>
        <time>2018-07-27T04:57:15Z</time>
      </trkpt>
      <trkpt lat="43.49665" lon="1.38945">
        <ele>161.46</ele>
        <time>2018-07-27T04:57:16Z</time>
      </trkpt>
      <trkpt lat="43.49686" lon="1.38923">
        <ele>161.23</ele>
        <time>2018-07-27T04:57:17Z</time>
      </trkpt>
      <trkpt lat="43.49708" lon="1.38903">
        <ele>161.16</ele>
        <time>2018-07-27T04:57:18Z</time>
      </trkpt>
      <trkpt lat="43.49731" lon="1.38884">
        <ele>160.44</ele>
        <time>2018-07-27T04:57:19Z</time>
      </trkpt>
      <trkpt lat="43.49754" lon="1.38868">
        <ele>160.23</ele>
        <time>2018-07-27T04:57:20Z</time>
      </trkpt>
      <trkpt lat="43.49778" lon="1.38851">
        <ele>159.46</ele>
        <time>2018-07-27T04:57:21Z</time>
      </trkpt>
      <trkpt lat="43.49802" lon="1.38837">
        <ele>159.23</ele>
        <time>2018-07-27T04:57:22Z</time>
      </trkpt>
      <trkpt lat="43.49827" lon="1.38824">
        <ele>158.46</ele>
        <time>2018-07-27T04:57:23Z</time>
      </trkpt>
      <trkpt lat="43.49852" lon="1.38812">
        <ele>158.23</ele>
        <time>2018-07-27T04:57:24Z</time>
      </trkpt>
      <trkpt lat="43.49877" lon="1.38801">
        <ele>157.46</ele>
        <time>2018-07-27T04:57:25Z</time>
      </trkpt>
      <trkpt lat="43.49902" lon="1.3879">
        <ele>157.23</ele>
        <time>2018-07-27T04:57:26Z</time>
      </trkpt>
      <trkpt lat="43.49927" lon="1.3878">
        <ele>157.16</ele>
        <time>2018-07-27T04:57:27Z</time>
      </trkpt>
      <trkpt lat="43.49953" lon="1.38769">
        <ele>156.44</ele>
        <time>2018-07-27T04:57:28Z</time>
      </trkpt>
      <trkpt lat="43.49978" lon="1.38759">
        <ele>156.93</ele>
        <time>2018-07-27T04:57:29Z</time>
      </trkpt>
      <trkpt lat="43.50003" lon="1.38748">
        <ele>156.37</ele>
        <time>2018-07-27T04:57:30Z</time>
      </trkpt>
      <trkpt lat="43.50028" lon="1.38737">
        <ele>156.2</ele>
        <time>2018-07-27T04:57:31Z</time>
      </trkpt>
      <trkpt lat="43.50053" lon="1.38727">
        <ele>155.45</ele>
        <time>2018-07-27T04:57:32Z</time>
      </trkpt>
      <trkpt lat="43.50078" lon="1.38716">
        <ele>155.23</ele>
        <time>2018-07-27T04:57:33Z</time>
      </trkpt>
      <trkpt lat="43.50103" lon="1.38706">
        <ele>155.16</ele>
        <time>2018-07-27T04:57:34Z</time>
      </trkpt>
      <trkpt lat="43.50128" lon="1.38696">
        <ele>154.44</ele>
        <time>2018-07-27T04:57:35Z</time>
      </trkpt>
      <trkpt lat="43.50154" lon="1.38686">
        <ele>154.23</ele>
        <time>2018-07-27T04:57:36Z</time>
      </trkpt>
      <trkpt lat="43.50178" lon="1.38676">
        <ele>153.46</ele>
        <time>2018-07-27T04:57:37Z</time>
      </trkpt>
      <trkpt lat="43.50202" lon="1.38665">
        <ele>153.93</ele>
        <time>2018-07-27T04:57:38Z</time>
      </trkpt>
      <trkpt lat="43.50227" lon="1.38654">
        <ele>153.37</ele>
        <time>2018-07-27T04:57:39Z</time>
      </trkpt>
      <trkpt lat="43.50251" lon="1.38645">
        <ele>153.2</ele>
        <time>2018-07-27T04:57:40Z</time>
      </trkpt>
      <trkpt lat="43.50276" lon="1.38635">
        <ele>153.15</ele>
        <time>2018-07-27T04:57:41Z</time>
      </trkpt>
      <trkpt lat="43.503" lon="1.38624">
        <ele>153.14</ele>
        <time>2018-07-27T04:57:42Z</time>
      </trkpt>
      <trkpt lat="43.50324" lon="1.38614">
        <ele>153.13</ele>
        <time>2018-07-27T04:57:43Z</time>
      </trkpt>
      <trkpt lat="43.50349" lon="1.38602">
        <ele>152.43</ele>
        <time>2018-07-27T04:57:44Z</time>
      </trkpt>
      <trkpt lat="43.50374" lon="1.38592">
        <ele>151.52</ele>
        <time>2018-07-27T04:57:45Z</time>
      </trkpt>
      <trkpt lat="43.50398" lon="1.38582">
        <ele>151.25</ele>
        <time>2018-07-27T04:57:46Z</time>
      </trkpt>
      <trkpt lat="43.50422" lon="1.38572">
        <ele>151.87</ele>
        <time>2018-07-27T04:57:47Z</time>
      </trkpt>
      <trkpt lat="43.50448" lon="1.38562">
        <ele>152.05</ele>
        <time>2018-07-27T04:57:48Z</time>
      </trkpt>
      <trkpt lat="43.50496" lon="1.3854">
        <ele>152.11</ele>
        <time>2018-07-27T04:57:50Z</time>
      </trkpt>
      <trkpt lat="43.5052" lon="1.38528">
        <ele>152.13</ele>
        <time>2018-07-27T04:57:51Z</time>
      </trkpt>
      <trkpt lat="43.50543" lon="1.38515">
        <ele>152.13</ele>
        <time>2018-07-27T04:57:52Z</time>
      </trkpt>
      <trkpt lat="43.50567" lon="1.38503">
        <ele>152.13</ele>
        <time>2018-07-27T04:57:53Z</time>
      </trkpt>
      <trkpt lat="43.5059" lon="1.38489">
        <ele>152.13</ele>
        <time>2018-07-27T04:57:54Z</time>
      </trkpt>
      <trkpt lat="43.50614" lon="1.38476">
        <ele>152.13</ele>
        <time>2018-07-27T04:57:55Z</time>
      </trkpt>
      <trkpt lat="43.50637" lon="1.38464">
        <ele>152.13</ele>
        <time>2018-07-27T04:57:56Z</time>
      </trkpt>
      <trkpt lat="43.5066" lon="1.38452">
        <ele>152.83</ele>
        <time>2018-07-27T04:57:57Z</time>
      </trkpt>
      <trkpt lat="43.50683" lon="1.38441">
        <ele>153.04</ele>
        <time>2018-07-27T04:57:58Z</time>
      </trkpt>
      <trkpt lat="43.50706" lon="1.38429">
        <ele>153.81</ele>
        <time>2018-07-27T04:57:59Z</time>
      </trkpt>
      <trkpt lat="43.50729" lon="1.38417">
        <ele>153.33</ele>
        <time>2018-07-27T04:58:00Z</time>
      </trkpt>
      <trkpt lat="43.50752" lon="1.38404">
        <ele>153.89</ele>
        <time>2018-07-27T04:58:01Z</time>
      </trkpt>
      <trkpt lat="43.50774" lon="1.3839">
        <ele>153.36</ele>
        <time>2018-07-27T04:58:02Z</time>
      </trkpt>
      <trkpt lat="43.50797" lon="1.38377">
        <ele>153.9</ele>
        <time>2018-07-27T04:58:03Z</time>
      </trkpt>
      <trkpt lat="43.50819" lon="1.38363">
        <ele>154.06</ele>
        <time>2018-07-27T04:58:04Z</time>
      </trkpt>
      <trkpt lat="43.50841" lon="1.3835">
        <ele>154.81</ele>
        <time>2018-07-27T04:58:05Z</time>
      </trkpt>
      <trkpt lat="43.50863" lon="1.38337">
        <ele>154.34</ele>
        <time>2018-07-27T04:58:06Z</time>
      </trkpt>
      <trkpt lat="43.50885" lon="1.38323">
        <ele>154.19</ele>
        <time>2018-07-27T04:58:07Z</time>
      </trkpt>
      <trkpt lat="43.50907" lon="1.3831">
        <ele>154.85</ele>
        <time>2018-07-27T04:58:08Z</time>
      </trkpt>
      <trkpt lat="43.50929" lon="1.38297">
        <ele>155.05</ele>
        <time>2018-07-27T04:58:09Z</time>
      </trkpt>
      <trkpt lat="43.50951" lon="1.38284">
        <ele>155.11</ele>
        <time>2018-07-27T04:58:10Z</time>
      </trkpt>
      <trkpt lat="43.50973" lon="1.38272">
        <ele>155.83</ele>
        <time>2018-07-27T04:58:11Z</time>
      </trkpt>
      <trkpt lat="43.50994" lon="1.3826">
        <ele>156.74</ele>
        <time>2018-07-27T04:58:12Z</time>
      </trkpt>
      <trkpt lat="43.51016" lon="1.38246">
        <ele>157.02</ele>
        <time>2018-07-27T04:58:13Z</time>
      </trkpt>
      <trkpt lat="43.51038" lon="1.38233">
        <ele>157.8</ele>
        <time>2018-07-27T04:58:14Z</time>
      </trkpt>
      <trkpt lat="43.51059" lon="1.3822">
        <ele>158.03</ele>
        <time>2018-07-27T04:58:15Z</time>
      </trkpt>
      <trkpt lat="43.51081" lon="1.38207">
        <ele>158.8</ele>
        <time>2018-07-27T04:58:16Z</time>
      </trkpt>
      <trkpt lat="43.51104" lon="1.38194">
        <ele>158.33</ele>
        <time>2018-07-27T04:58:17Z</time>
      </trkpt>
      <trkpt lat="43.51125" lon="1.38181">
        <ele>158.89</ele>
        <time>2018-07-27T04:58:18Z</time>
      </trkpt>
      <trkpt lat="43.51147" lon="1.3817">
        <ele>159.06</ele>
        <time>2018-07-27T04:58:19Z</time>
      </trkpt>
      <trkpt lat="43.51168" lon="1.38158">
        <ele>158.41</ele>
        <time>2018-07-27T04:58:20Z</time>
      </trkpt>
      <trkpt lat="43.51188" lon="1.38146">
        <ele>158.92</ele>
        <time>2018-07-27T04:58:21Z</time>
      </trkpt>
      <trkpt lat="43.51209" lon="1.38135">
        <ele>159.07</ele>
        <time>2018-07-27T04:58:22Z</time>
      </trkpt>
      <trkpt lat="43.51231" lon="1.38121">
        <ele>159.11</ele>
        <time>2018-07-27T04:58:23Z</time>
      </trkpt>
      <trkpt lat="43.51253" lon="1.3811">
        <ele>159.83</ele>
        <time>2018-07-27T04:58:24Z</time>
      </trkpt>
      <trkpt lat="43.51274" lon="1.38098">
        <ele>160.74</ele>
        <time>2018-07-27T04:58:25Z</time>
      </trkpt>
      <trkpt lat="43.51295" lon="1.38087">
        <ele>161.02</ele>
        <time>2018-07-27T04:58:26Z</time>
      </trkpt>
      <trkpt lat="43.51316" lon="1.38076">
        <ele>161.8</ele>
        <time>2018-07-27T04:58:27Z</time>
      </trkpt>
      <trkpt lat="43.51337" lon="1.38065">
        <ele>162.73</ele>
        <time>2018-07-27T04:58:28Z</time>
      </trkpt>
      <trkpt lat="43.51355" lon="1.38055">
        <ele>163.01</ele>
        <time>2018-07-27T04:58:29Z</time>
      </trkpt>
      <trkpt lat="43.51372" lon="1.38044">
        <ele>163.1</ele>
        <time>2018-07-27T04:58:30Z</time>
      </trkpt>
      <trkpt lat="43.51405" lon="1.38029">
        <ele>162.43</ele>
        <time>2018-07-27T04:58:32Z</time>
      </trkpt>
      <trkpt lat="43.51433" lon="1.38025">
        <ele>161.25</ele>
        <time>2018-07-27T04:58:34Z</time>
      </trkpt>
      <trkpt lat="43.51459" lon="1.38039">
        <ele>160.23</ele>
        <time>2018-07-27T04:58:36Z</time>
      </trkpt>
      <trkpt lat="43.51483" lon="1.3806">
        <ele>161.05</ele>
        <time>2018-07-27T04:58:38Z</time>
      </trkpt>
      <trkpt lat="43.51508" lon="1.38072">
        <ele>160.43</ele>
        <time>2018-07-27T04:58:40Z</time>
      </trkpt>
      <trkpt lat="43.51532" lon="1.38067">
        <ele>158.55</ele>
        <time>2018-07-27T04:58:42Z</time>
      </trkpt>
      <trkpt lat="43.51555" lon="1.38046">
        <ele>158.17</ele>
        <time>2018-07-27T04:58:44Z</time>
      </trkpt>
      <trkpt lat="43.51578" lon="1.38018">
        <ele>157.23</ele>
        <time>2018-07-27T04:58:46Z</time>
      </trkpt>
      <trkpt lat="43.51602" lon="1.3799">
        <ele>156.23</ele>
        <time>2018-07-27T04:58:48Z</time>
      </trkpt>
      <trkpt lat="43.51623" lon="1.37976">
        <ele>156.14</ele>
        <time>2018-07-27T04:58:50Z</time>
      </trkpt>
      <trkpt lat="43.51644" lon="1.3797">
        <ele>156.13</ele>
        <time>2018-07-27T04:58:52Z</time>
      </trkpt>
      <trkpt lat="43.51663" lon="1.3796">
        <ele>156.13</ele>
        <time>2018-07-27T04:58:54Z</time>
      </trkpt>
      <trkpt lat="43.51669" lon="1.37929">
        <ele>156.13</ele>
        <time>2018-07-27T04:58:57Z</time>
      </trkpt>
      <trkpt lat="43.51659" lon="1.37904">
        <ele>156.83</ele>
        <time>2018-07-27T04:58:59Z</time>
      </trkpt>
      <trkpt lat="43.51647" lon="1.37872">
        <ele>155.5</ele>
        <time>2018-07-27T04:59:01Z</time>
      </trkpt>
      <trkpt lat="43.51638" lon="1.3783">
        <ele>156.08</ele>
        <time>2018-07-27T04:59:03Z</time>
      </trkpt>
      <trkpt lat="43.51625" lon="1.37783">
        <ele>155.22</ele>
        <time>2018-07-27T04:59:05Z</time>
      </trkpt>
      <trkpt lat="43.51618" lon="1.37758">
        <ele>155.16</ele>
        <time>2018-07-27T04:59:06Z</time>
      </trkpt>
      <trkpt lat="43.51611" lon="1.37734">
        <ele>155.84</ele>
        <time>2018-07-27T04:59:07Z</time>
      </trkpt>
      <trkpt lat="43.51597" lon="1.37692">
        <ele>157.72</ele>
        <time>2018-07-27T04:59:09Z</time>
      </trkpt>
      <trkpt lat="43.51584" lon="1.37652">
        <ele>158.1</ele>
        <time>2018-07-27T04:59:11Z</time>
      </trkpt>
      <trkpt lat="43.51565" lon="1.37609">
        <ele>158.83</ele>
        <time>2018-07-27T04:59:13Z</time>
      </trkpt>
      <trkpt lat="43.51556" lon="1.37588">
        <ele>159.04</ele>
        <time>2018-07-27T04:59:14Z</time>
      </trkpt>
      <trkpt lat="43.51544" lon="1.37566">
        <ele>158.41</ele>
        <time>2018-07-27T04:59:15Z</time>
      </trkpt>
      <trkpt lat="43.51533" lon="1.37544">
        <ele>158.21</ele>
        <time>2018-07-27T04:59:16Z</time>
      </trkpt>
      <trkpt lat="43.51521" lon="1.37524">
        <ele>158.16</ele>
        <time>2018-07-27T04:59:17Z</time>
      </trkpt>
      <trkpt lat="43.51503" lon="1.37493">
        <ele>158.14</ele>
        <time>2018-07-27T04:59:19Z</time>
      </trkpt>
      <trkpt lat="43.51497" lon="1.37463">
        <ele>159.04</ele>
        <time>2018-07-27T04:59:21Z</time>
      </trkpt>
      <trkpt lat="43.51487" lon="1.37431">
        <ele>159.12</ele>
        <time>2018-07-27T04:59:23Z</time>
      </trkpt>
      <trkpt lat="43.51469" lon="1.37407">
        <ele>159.83</ele>
        <time>2018-07-27T04:59:25Z</time>
      </trkpt>
      <trkpt lat="43.51438" lon="1.37393">
        <ele>158.5</ele>
        <time>2018-07-27T04:59:27Z</time>
      </trkpt>
      <trkpt lat="43.51411" lon="1.3736">
        <ele>158.38</ele>
        <time>2018-07-27T04:59:29Z</time>
      </trkpt>
      <trkpt lat="43.51399" lon="1.3734">
        <ele>158.21</ele>
        <time>2018-07-27T04:59:30Z</time>
      </trkpt>
      <trkpt lat="43.51384" lon="1.37318">
        <ele>158.85</ele>
        <time>2018-07-27T04:59:31Z</time>
      </trkpt>
      <trkpt lat="43.51369" lon="1.37295">
        <ele>159.05</ele>
        <time>2018-07-27T04:59:32Z</time>
      </trkpt>
      <trkpt lat="43.51352" lon="1.37272">
        <ele>159.11</ele>
        <time>2018-07-27T04:59:33Z</time>
      </trkpt>
      <trkpt lat="43.51335" lon="1.37245">
        <ele>159.13</ele>
        <time>2018-07-27T04:59:34Z</time>
      </trkpt>
      <trkpt lat="43.51316" lon="1.37219">
        <ele>159.13</ele>
        <time>2018-07-27T04:59:35Z</time>
      </trkpt>
      <trkpt lat="43.51298" lon="1.37192">
        <ele>159.13</ele>
        <time>2018-07-27T04:59:36Z</time>
      </trkpt>
      <trkpt lat="43.51279" lon="1.37165">
        <ele>159.13</ele>
        <time>2018-07-27T04:59:37Z</time>
      </trkpt>
      <trkpt lat="43.5126" lon="1.37137">
        <ele>159.13</ele>
        <time>2018-07-27T04:59:38Z</time>
      </trkpt>
      <trkpt lat="43.5124" lon="1.37109">
        <ele>159.13</ele>
        <time>2018-07-27T04:59:39Z</time>
      </trkpt>
      <trkpt lat="43.51222" lon="1.37082">
        <ele>159.13</ele>
        <time>2018-07-27T04:59:40Z</time>
      </trkpt>
      <trkpt lat="43.51203" lon="1.37055">
        <ele>159.13</ele>
        <time>2018-07-27T04:59:41Z</time>
      </trkpt>
      <trkpt lat="43.51184" lon="1.37028">
        <ele>158.43</ele>
        <time>2018-07-27T04:59:42Z</time>
      </trkpt>
      <trkpt lat="43.51165" lon="1.37002">
        <ele>158.22</ele>
        <time>2018-07-27T04:59:43Z</time>
      </trkpt>
      <trkpt lat="43.51146" lon="1.36975">
        <ele>158.16</ele>
        <time>2018-07-27T04:59:44Z</time>
      </trkpt>
      <trkpt lat="43.51128" lon="1.36948">
        <ele>158.14</ele>
        <time>2018-07-27T04:59:45Z</time>
      </trkpt>
      <trkpt lat="43.51111" lon="1.36921">
        <ele>158.14</ele>
        <time>2018-07-27T04:59:46Z</time>
      </trkpt>
      <trkpt lat="43.51093" lon="1.36894">
        <ele>158.83</ele>
        <time>2018-07-27T04:59:47Z</time>
      </trkpt>
      <trkpt lat="43.51074" lon="1.36868">
        <ele>158.34</ele>
        <time>2018-07-27T04:59:48Z</time>
      </trkpt>
      <trkpt lat="43.51056" lon="1.36841">
        <ele>158.2</ele>
        <time>2018-07-27T04:59:49Z</time>
      </trkpt>
      <trkpt lat="43.51038" lon="1.36815">
        <ele>158.15</ele>
        <time>2018-07-27T04:59:50Z</time>
      </trkpt>
      <trkpt lat="43.51019" lon="1.36788">
        <ele>158.84</ele>
        <time>2018-07-27T04:59:51Z</time>
      </trkpt>
      <trkpt lat="43.51" lon="1.36761">
        <ele>158.34</ele>
        <time>2018-07-27T04:59:52Z</time>
      </trkpt>
      <trkpt lat="43.50982" lon="1.36734">
        <ele>158.9</ele>
        <time>2018-07-27T04:59:53Z</time>
      </trkpt>
      <trkpt lat="43.50963" lon="1.36707">
        <ele>159.06</ele>
        <time>2018-07-27T04:59:54Z</time>
      </trkpt>
      <trkpt lat="43.50945" lon="1.3668">
        <ele>159.11</ele>
        <time>2018-07-27T04:59:55Z</time>
      </trkpt>
      <trkpt lat="43.50926" lon="1.36653">
        <ele>159.13</ele>
        <time>2018-07-27T04:59:56Z</time>
      </trkpt>
      <trkpt lat="43.50907" lon="1.36625">
        <ele>159.13</ele>
        <time>2018-07-27T04:59:57Z</time>
      </trkpt>
      <trkpt lat="43.50888" lon="1.36598">
        <ele>158.43</ele>
        <time>2018-07-27T04:59:58Z</time>
      </trkpt>
      <trkpt lat="43.5087" lon="1.36572">
        <ele>158.92</ele>
        <time>2018-07-27T04:59:59Z</time>
      </trkpt>
      <trkpt lat="43.50851" lon="1.36545">
        <ele>159.07</ele>
        <time>2018-07-27T05:00:00Z</time>
      </trkpt>
      <trkpt lat="43.50832" lon="1.36518">
        <ele>159.11</ele>
        <time>2018-07-27T05:00:01Z</time>
      </trkpt>
      <trkpt lat="43.50814" lon="1.36491">
        <ele>158.43</ele>
        <time>2018-07-27T05:00:02Z</time>
      </trkpt>
      <trkpt lat="43.50795" lon="1.36464">
        <ele>158.22</ele>
        <time>2018-07-27T05:00:03Z</time>
      </trkpt>
      <trkpt lat="43.50777" lon="1.36437">
        <ele>158.86</ele>
        <time>2018-07-27T05:00:04Z</time>
      </trkpt>
      <trkpt lat="43.50759" lon="1.3641">
        <ele>159.05</ele>
        <time>2018-07-27T05:00:05Z</time>
      </trkpt>
      <trkpt lat="43.50742" lon="1.36384">
        <ele>159.11</ele>
        <time>2018-07-27T05:00:06Z</time>
      </trkpt>
      <trkpt lat="43.50724" lon="1.36359">
        <ele>159.13</ele>
        <time>2018-07-27T05:00:07Z</time>
      </trkpt>
      <trkpt lat="43.50708" lon="1.36335">
        <ele>159.13</ele>
        <time>2018-07-27T05:00:08Z</time>
      </trkpt>
      <trkpt lat="43.50692" lon="1.36312">
        <ele>159.13</ele>
        <time>2018-07-27T05:00:09Z</time>
      </trkpt>
      <trkpt lat="43.50677" lon="1.36289">
        <ele>159.83</ele>
        <time>2018-07-27T05:00:10Z</time>
      </trkpt>
      <trkpt lat="43.50662" lon="1.36268">
        <ele>160.04</ele>
        <time>2018-07-27T05:00:11Z</time>
      </trkpt>
      <trkpt lat="43.50648" lon="1.36247">
        <ele>159.41</ele>
        <time>2018-07-27T05:00:12Z</time>
      </trkpt>
      <trkpt lat="43.50626" lon="1.36216">
        <ele>158.46</ele>
        <time>2018-07-27T05:00:14Z</time>
      </trkpt>
      <trkpt lat="43.50612" lon="1.36193">
        <ele>158.86</ele>
        <time>2018-07-27T05:00:16Z</time>
      </trkpt>
      <trkpt lat="43.50603" lon="1.36155">
        <ele>159.13</ele>
        <time>2018-07-27T05:00:19Z</time>
      </trkpt>
      <trkpt lat="43.50591" lon="1.36135">
        <ele>159.13</ele>
        <time>2018-07-27T05:00:21Z</time>
      </trkpt>
      <trkpt lat="43.50572" lon="1.36127">
        <ele>158.43</ele>
        <time>2018-07-27T05:00:23Z</time>
      </trkpt>
      <trkpt lat="43.5055" lon="1.36108">
        <ele>158.16</ele>
        <time>2018-07-27T05:00:25Z</time>
      </trkpt>
      <trkpt lat="43.50524" lon="1.36067">
        <ele>158.14</ele>
        <time>2018-07-27T05:00:27Z</time>
      </trkpt>
      <trkpt lat="43.50506" lon="1.36044">
        <ele>158.13</ele>
        <time>2018-07-27T05:00:28Z</time>
      </trkpt>
      <trkpt lat="43.50489" lon="1.36017">
        <ele>158.13</ele>
        <time>2018-07-27T05:00:29Z</time>
      </trkpt>
      <trkpt lat="43.5047" lon="1.3599">
        <ele>158.13</ele>
        <time>2018-07-27T05:00:30Z</time>
      </trkpt>
      <trkpt lat="43.50449" lon="1.35961">
        <ele>158.13</ele>
        <time>2018-07-27T05:00:31Z</time>
      </trkpt>
      <trkpt lat="43.50429" lon="1.35929">
        <ele>157.43</ele>
        <time>2018-07-27T05:00:32Z</time>
      </trkpt>
      <trkpt lat="43.50408" lon="1.35899">
        <ele>157.22</ele>
        <time>2018-07-27T05:00:33Z</time>
      </trkpt>
      <trkpt lat="43.50387" lon="1.35868">
        <ele>157.16</ele>
        <time>2018-07-27T05:00:34Z</time>
      </trkpt>
      <trkpt lat="43.50367" lon="1.35839">
        <ele>157.14</ele>
        <time>2018-07-27T05:00:35Z</time>
      </trkpt>
      <trkpt lat="43.50347" lon="1.35811">
        <ele>157.14</ele>
        <time>2018-07-27T05:00:36Z</time>
      </trkpt>
      <trkpt lat="43.50328" lon="1.35782">
        <ele>157.13</ele>
        <time>2018-07-27T05:00:37Z</time>
      </trkpt>
      <trkpt lat="43.5031" lon="1.35754">
        <ele>157.13</ele>
        <time>2018-07-27T05:00:38Z</time>
      </trkpt>
      <trkpt lat="43.50291" lon="1.35726">
        <ele>157.13</ele>
        <time>2018-07-27T05:00:39Z</time>
      </trkpt>
      <trkpt lat="43.50273" lon="1.35699">
        <ele>157.83</ele>
        <time>2018-07-27T05:00:40Z</time>
      </trkpt>
      <trkpt lat="43.50255" lon="1.35672">
        <ele>158.04</ele>
        <time>2018-07-27T05:00:41Z</time>
      </trkpt>
      <trkpt lat="43.50236" lon="1.35644">
        <ele>158.11</ele>
        <time>2018-07-27T05:00:42Z</time>
      </trkpt>
      <trkpt lat="43.50216" lon="1.35616">
        <ele>158.12</ele>
        <time>2018-07-27T05:00:43Z</time>
      </trkpt>
      <trkpt lat="43.50197" lon="1.35589">
        <ele>158.13</ele>
        <time>2018-07-27T05:00:44Z</time>
      </trkpt>
      <trkpt lat="43.50178" lon="1.3556">
        <ele>158.83</ele>
        <time>2018-07-27T05:00:45Z</time>
      </trkpt>
      <trkpt lat="43.50159" lon="1.35531">
        <ele>159.04</ele>
        <time>2018-07-27T05:00:46Z</time>
      </trkpt>
      <trkpt lat="43.5014" lon="1.35502">
        <ele>159.11</ele>
        <time>2018-07-27T05:00:47Z</time>
      </trkpt>
      <trkpt lat="43.50121" lon="1.35474">
        <ele>159.82</ele>
        <time>2018-07-27T05:00:48Z</time>
      </trkpt>
      <trkpt lat="43.50102" lon="1.35446">
        <ele>159.34</ele>
        <time>2018-07-27T05:00:49Z</time>
      </trkpt>
      <trkpt lat="43.50083" lon="1.35417">
        <ele>159.9</ele>
        <time>2018-07-27T05:00:50Z</time>
      </trkpt>
      <trkpt lat="43.50064" lon="1.3539">
        <ele>160.06</ele>
        <time>2018-07-27T05:00:51Z</time>
      </trkpt>
      <trkpt lat="43.50045" lon="1.35362">
        <ele>160.11</ele>
        <time>2018-07-27T05:00:52Z</time>
      </trkpt>
      <trkpt lat="43.50025" lon="1.35334">
        <ele>160.13</ele>
        <time>2018-07-27T05:00:53Z</time>
      </trkpt>
      <trkpt lat="43.50006" lon="1.35306">
        <ele>160.13</ele>
        <time>2018-07-27T05:00:54Z</time>
      </trkpt>
      <trkpt lat="43.49987" lon="1.35278">
        <ele>160.13</ele>
        <time>2018-07-27T05:00:55Z</time>
      </trkpt>
      <trkpt lat="43.49968" lon="1.35249">
        <ele>160.83</ele>
        <time>2018-07-27T05:00:56Z</time>
      </trkpt>
      <trkpt lat="43.49948" lon="1.35221">
        <ele>161.04</ele>
        <time>2018-07-27T05:00:57Z</time>
      </trkpt>
      <trkpt lat="43.49929" lon="1.35192">
        <ele>161.11</ele>
        <time>2018-07-27T05:00:58Z</time>
      </trkpt>
      <trkpt lat="43.49909" lon="1.35163">
        <ele>161.82</ele>
        <time>2018-07-27T05:00:59Z</time>
      </trkpt>
      <trkpt lat="43.49889" lon="1.35136">
        <ele>162.04</ele>
        <time>2018-07-27T05:01:00Z</time>
      </trkpt>
      <trkpt lat="43.4987" lon="1.35107">
        <ele>162.11</ele>
        <time>2018-07-27T05:01:01Z</time>
      </trkpt>
      <trkpt lat="43.49851" lon="1.35079">
        <ele>162.12</ele>
        <time>2018-07-27T05:01:02Z</time>
      </trkpt>
      <trkpt lat="43.49831" lon="1.3505">
        <ele>162.13</ele>
        <time>2018-07-27T05:01:03Z</time>
      </trkpt>
      <trkpt lat="43.49812" lon="1.35022">
        <ele>162.13</ele>
        <time>2018-07-27T05:01:04Z</time>
      </trkpt>
      <trkpt lat="43.49793" lon="1.34993">
        <ele>162.13</ele>
        <time>2018-07-27T05:01:05Z</time>
      </trkpt>
      <trkpt lat="43.49773" lon="1.34965">
        <ele>162.13</ele>
        <time>2018-07-27T05:01:06Z</time>
      </trkpt>
      <trkpt lat="43.49754" lon="1.34937">
        <ele>162.83</ele>
        <time>2018-07-27T05:01:07Z</time>
      </trkpt>
      <trkpt lat="43.49735" lon="1.34909">
        <ele>162.34</ele>
        <time>2018-07-27T05:01:08Z</time>
      </trkpt>
      <trkpt lat="43.49715" lon="1.3488">
        <ele>162.2</ele>
        <time>2018-07-27T05:01:09Z</time>
      </trkpt>
      <trkpt lat="43.49696" lon="1.34852">
        <ele>162.85</ele>
        <time>2018-07-27T05:01:10Z</time>
      </trkpt>
      <trkpt lat="43.49677" lon="1.34822">
        <ele>163.05</ele>
        <time>2018-07-27T05:01:11Z</time>
      </trkpt>
      <trkpt lat="43.49658" lon="1.34794">
        <ele>163.11</ele>
        <time>2018-07-27T05:01:12Z</time>
      </trkpt>
      <trkpt lat="43.49639" lon="1.34766">
        <ele>163.13</ele>
        <time>2018-07-27T05:01:13Z</time>
      </trkpt>
      <trkpt lat="43.4962" lon="1.34738">
        <ele>163.13</ele>
        <time>2018-07-27T05:01:14Z</time>
      </trkpt>
      <trkpt lat="43.49601" lon="1.3471">
        <ele>163.13</ele>
        <time>2018-07-27T05:01:15Z</time>
      </trkpt>
      <trkpt lat="43.49581" lon="1.34682">
        <ele>163.13</ele>
        <time>2018-07-27T05:01:16Z</time>
      </trkpt>
      <trkpt lat="43.49562" lon="1.34654">
        <ele>163.13</ele>
        <time>2018-07-27T05:01:17Z</time>
      </trkpt>
      <trkpt lat="43.49542" lon="1.34627">
        <ele>162.43</ele>
        <time>2018-07-27T05:01:18Z</time>
      </trkpt>
      <trkpt lat="43.49523" lon="1.346">
        <ele>162.22</ele>
        <time>2018-07-27T05:01:19Z</time>
      </trkpt>
      <trkpt lat="43.49503" lon="1.34573">
        <ele>162.16</ele>
        <time>2018-07-27T05:01:20Z</time>
      </trkpt>
      <trkpt lat="43.49483" lon="1.34547">
        <ele>162.14</ele>
        <time>2018-07-27T05:01:21Z</time>
      </trkpt>
      <trkpt lat="43.49462" lon="1.34523">
        <ele>161.44</ele>
        <time>2018-07-27T05:01:22Z</time>
      </trkpt>
      <trkpt lat="43.49441" lon="1.345">
        <ele>161.92</ele>
        <time>2018-07-27T05:01:23Z</time>
      </trkpt>
      <trkpt lat="43.49419" lon="1.34479">
        <ele>161.37</ele>
        <time>2018-07-27T05:01:24Z</time>
      </trkpt>
      <trkpt lat="43.49397" lon="1.34459">
        <ele>161.2</ele>
        <time>2018-07-27T05:01:25Z</time>
      </trkpt>
      <trkpt lat="43.49375" lon="1.34439">
        <ele>161.85</ele>
        <time>2018-07-27T05:01:26Z</time>
      </trkpt>
      <trkpt lat="43.49353" lon="1.34422">
        <ele>162.75</ele>
        <time>2018-07-27T05:01:27Z</time>
      </trkpt>
      <trkpt lat="43.49332" lon="1.34406">
        <ele>163.02</ele>
        <time>2018-07-27T05:01:28Z</time>
      </trkpt>
      <trkpt lat="43.49312" lon="1.3439">
        <ele>163.8</ele>
        <time>2018-07-27T05:01:29Z</time>
      </trkpt>
      <trkpt lat="43.49291" lon="1.34374">
        <ele>164.03</ele>
        <time>2018-07-27T05:01:30Z</time>
      </trkpt>
      <trkpt lat="43.49269" lon="1.34359">
        <ele>164.1</ele>
        <time>2018-07-27T05:01:31Z</time>
      </trkpt>
      <trkpt lat="43.49247" lon="1.34345">
        <ele>164.82</ele>
        <time>2018-07-27T05:01:32Z</time>
      </trkpt>
      <trkpt lat="43.49227" lon="1.34333">
        <ele>165.04</ele>
        <time>2018-07-27T05:01:33Z</time>
      </trkpt>
      <trkpt lat="43.49207" lon="1.34323">
        <ele>165.11</ele>
        <time>2018-07-27T05:01:34Z</time>
      </trkpt>
      <trkpt lat="43.4918" lon="1.34307">
        <ele>165.13</ele>
        <time>2018-07-27T05:01:36Z</time>
      </trkpt>
      <trkpt lat="43.49162" lon="1.3429">
        <ele>165.83</ele>
        <time>2018-07-27T05:01:38Z</time>
      </trkpt>
      <trkpt lat="43.4915" lon="1.34266">
        <ele>165.41</ele>
        <time>2018-07-27T05:01:40Z</time>
      </trkpt>
      <trkpt lat="43.49133" lon="1.34254">
        <ele>165.16</ele>
        <time>2018-07-27T05:01:42Z</time>
      </trkpt>
      <trkpt lat="43.49112" lon="1.34258">
        <ele>165.84</ele>
        <time>2018-07-27T05:01:44Z</time>
      </trkpt>
      <trkpt lat="43.49087" lon="1.3425">
        <ele>166.11</ele>
        <time>2018-07-27T05:01:46Z</time>
      </trkpt>
      <trkpt lat="43.49058" lon="1.34231">
        <ele>166.13</ele>
        <time>2018-07-27T05:01:48Z</time>
      </trkpt>
      <trkpt lat="43.49026" lon="1.34212">
        <ele>166.13</ele>
        <time>2018-07-27T05:01:50Z</time>
      </trkpt>
      <trkpt lat="43.49009" lon="1.34202">
        <ele>166.13</ele>
        <time>2018-07-27T05:01:51Z</time>
      </trkpt>
      <trkpt lat="43.48992" lon="1.34192">
        <ele>166.13</ele>
        <time>2018-07-27T05:01:52Z</time>
      </trkpt>
      <trkpt lat="43.48973" lon="1.34181">
        <ele>166.13</ele>
        <time>2018-07-27T05:01:53Z</time>
      </trkpt>
      <trkpt lat="43.48954" lon="1.34169">
        <ele>166.13</ele>
        <time>2018-07-27T05:01:54Z</time>
      </trkpt>
      <trkpt lat="43.48933" lon="1.34156">
        <ele>166.13</ele>
        <time>2018-07-27T05:01:55Z</time>
      </trkpt>
      <trkpt lat="43.48912" lon="1.34143">
        <ele>166.13</ele>
        <time>2018-07-27T05:01:56Z</time>
      </trkpt>
      <trkpt lat="43.48891" lon="1.34128">
        <ele>166.83</ele>
        <time>2018-07-27T05:01:57Z</time>
      </trkpt>
      <trkpt lat="43.4887" lon="1.34114">
        <ele>167.04</ele>
        <time>2018-07-27T05:01:58Z</time>
      </trkpt>
      <trkpt lat="43.48848" lon="1.34101">
        <ele>167.11</ele>
        <time>2018-07-27T05:01:59Z</time>
      </trkpt>
      <trkpt lat="43.48826" lon="1.34087">
        <ele>167.12</ele>
        <time>2018-07-27T05:02:00Z</time>
      </trkpt>
      <trkpt lat="43.48805" lon="1.34073">
        <ele>167.13</ele>
        <time>2018-07-27T05:02:01Z</time>
      </trkpt>
      <trkpt lat="43.48784" lon="1.34058">
        <ele>167.83</ele>
        <time>2018-07-27T05:02:02Z</time>
      </trkpt>
      <trkpt lat="43.48763" lon="1.34045">
        <ele>168.04</ele>
        <time>2018-07-27T05:02:03Z</time>
      </trkpt>
      <trkpt lat="43.48742" lon="1.34031">
        <ele>168.11</ele>
        <time>2018-07-27T05:02:04Z</time>
      </trkpt>
      <trkpt lat="43.48721" lon="1.34016">
        <ele>168.12</ele>
        <time>2018-07-27T05:02:05Z</time>
      </trkpt>
      <trkpt lat="43.48699" lon="1.34001">
        <ele>168.13</ele>
        <time>2018-07-27T05:02:06Z</time>
      </trkpt>
      <trkpt lat="43.48678" lon="1.33986">
        <ele>168.83</ele>
        <time>2018-07-27T05:02:07Z</time>
      </trkpt>
      <trkpt lat="43.48656" lon="1.33972">
        <ele>169.04</ele>
        <time>2018-07-27T05:02:08Z</time>
      </trkpt>
      <trkpt lat="43.48634" lon="1.33958">
        <ele>169.11</ele>
        <time>2018-07-27T05:02:09Z</time>
      </trkpt>
      <trkpt lat="43.48611" lon="1.33945">
        <ele>169.12</ele>
        <time>2018-07-27T05:02:10Z</time>
      </trkpt>
      <trkpt lat="43.48589" lon="1.33932">
        <ele>169.13</ele>
        <time>2018-07-27T05:02:11Z</time>
      </trkpt>
      <trkpt lat="43.48567" lon="1.33919">
        <ele>168.43</ele>
        <time>2018-07-27T05:02:12Z</time>
      </trkpt>
      <trkpt lat="43.48544" lon="1.33906">
        <ele>168.22</ele>
        <time>2018-07-27T05:02:13Z</time>
      </trkpt>
      <trkpt lat="43.48522" lon="1.33893">
        <ele>167.46</ele>
        <time>2018-07-27T05:02:14Z</time>
      </trkpt>
      <trkpt lat="43.48501" lon="1.33879">
        <ele>167.23</ele>
        <time>2018-07-27T05:02:15Z</time>
      </trkpt>
      <trkpt lat="43.48479" lon="1.33865">
        <ele>166.46</ele>
        <time>2018-07-27T05:02:16Z</time>
      </trkpt>
      <trkpt lat="43.48457" lon="1.33851">
        <ele>166.23</ele>
        <time>2018-07-27T05:02:17Z</time>
      </trkpt>
      <trkpt lat="43.48435" lon="1.33838">
        <ele>166.16</ele>
        <time>2018-07-27T05:02:18Z</time>
      </trkpt>
      <trkpt lat="43.48413" lon="1.33826">
        <ele>166.14</ele>
        <time>2018-07-27T05:02:19Z</time>
      </trkpt>
      <trkpt lat="43.48392" lon="1.33812">
        <ele>166.84</ele>
        <time>2018-07-27T05:02:20Z</time>
      </trkpt>
      <trkpt lat="43.48371" lon="1.33798">
        <ele>167.04</ele>
        <time>2018-07-27T05:02:21Z</time>
      </trkpt>
      <trkpt lat="43.4835" lon="1.33785">
        <ele>167.11</ele>
        <time>2018-07-27T05:02:22Z</time>
      </trkpt>
      <trkpt lat="43.48328" lon="1.33773">
        <ele>167.82</ele>
        <time>2018-07-27T05:02:23Z</time>
      </trkpt>
      <trkpt lat="43.48306" lon="1.3376">
        <ele>168.04</ele>
        <time>2018-07-27T05:02:24Z</time>
      </trkpt>
      <trkpt lat="43.48284" lon="1.33747">
        <ele>168.11</ele>
        <time>2018-07-27T05:02:25Z</time>
      </trkpt>
      <trkpt lat="43.48263" lon="1.33733">
        <ele>168.82</ele>
        <time>2018-07-27T05:02:26Z</time>
      </trkpt>
      <trkpt lat="43.48242" lon="1.3372">
        <ele>169.04</ele>
        <time>2018-07-27T05:02:27Z</time>
      </trkpt>
      <trkpt lat="43.4822" lon="1.33707">
        <ele>169.81</ele>
        <time>2018-07-27T05:02:28Z</time>
      </trkpt>
      <trkpt lat="43.48199" lon="1.33694">
        <ele>170.03</ele>
        <time>2018-07-27T05:02:29Z</time>
      </trkpt>
      <trkpt lat="43.48177" lon="1.33681">
        <ele>170.1</ele>
        <time>2018-07-27T05:02:30Z</time>
      </trkpt>
      <trkpt lat="43.48155" lon="1.33668">
        <ele>170.12</ele>
        <time>2018-07-27T05:02:31Z</time>
      </trkpt>
      <trkpt lat="43.48134" lon="1.33654">
        <ele>170.13</ele>
        <time>2018-07-27T05:02:32Z</time>
      </trkpt>
      <trkpt lat="43.48112" lon="1.3364">
        <ele>170.13</ele>
        <time>2018-07-27T05:02:33Z</time>
      </trkpt>
      <trkpt lat="43.48091" lon="1.33626">
        <ele>170.13</ele>
        <time>2018-07-27T05:02:34Z</time>
      </trkpt>
      <trkpt lat="43.4807" lon="1.33613">
        <ele>170.13</ele>
        <time>2018-07-27T05:02:35Z</time>
      </trkpt>
      <trkpt lat="43.48049" lon="1.33599">
        <ele>170.13</ele>
        <time>2018-07-27T05:02:36Z</time>
      </trkpt>
      <trkpt lat="43.48027" lon="1.33586">
        <ele>170.13</ele>
        <time>2018-07-27T05:02:37Z</time>
      </trkpt>
      <trkpt lat="43.48006" lon="1.33573">
        <ele>170.83</ele>
        <time>2018-07-27T05:02:38Z</time>
      </trkpt>
      <trkpt lat="43.47988" lon="1.33561">
        <ele>171.04</ele>
        <time>2018-07-27T05:02:39Z</time>
      </trkpt>
      <trkpt lat="43.47971" lon="1.33549">
        <ele>171.81</ele>
        <time>2018-07-27T05:02:40Z</time>
      </trkpt>
      <trkpt lat="43.47942" lon="1.33527">
        <ele>171.4</ele>
        <time>2018-07-27T05:02:42Z</time>
      </trkpt>
      <trkpt lat="43.47926" lon="1.33506">
        <ele>171.86</ele>
        <time>2018-07-27T05:02:44Z</time>
      </trkpt>
      <trkpt lat="43.47918" lon="1.33481">
        <ele>171.15</ele>
        <time>2018-07-27T05:02:47Z</time>
      </trkpt>
      <trkpt lat="43.47906" lon="1.33456">
        <ele>170.43</ele>
        <time>2018-07-27T05:02:50Z</time>
      </trkpt>
      <trkpt lat="43.4788" lon="1.33451">
        <ele>170.9</ele>
        <time>2018-07-27T05:02:53Z</time>
      </trkpt>
      <trkpt lat="43.47864" lon="1.33464">
        <ele>170.41</ele>
        <time>2018-07-27T05:02:55Z</time>
      </trkpt>
      <trkpt lat="43.47843" lon="1.3347">
        <ele>169.25</ele>
        <time>2018-07-27T05:02:57Z</time>
      </trkpt>
      <trkpt lat="43.47817" lon="1.33459">
        <ele>169.84</ele>
        <time>2018-07-27T05:02:59Z</time>
      </trkpt>
      <trkpt lat="43.47786" lon="1.33437">
        <ele>170.11</ele>
        <time>2018-07-27T05:03:01Z</time>
      </trkpt>
      <trkpt lat="43.47769" lon="1.33427">
        <ele>170.13</ele>
        <time>2018-07-27T05:03:02Z</time>
      </trkpt>
      <trkpt lat="43.47752" lon="1.33416">
        <ele>170.13</ele>
        <time>2018-07-27T05:03:03Z</time>
      </trkpt>
      <trkpt lat="43.47734" lon="1.33405">
        <ele>170.13</ele>
        <time>2018-07-27T05:03:04Z</time>
      </trkpt>
      <trkpt lat="43.47716" lon="1.33391">
        <ele>170.13</ele>
        <time>2018-07-27T05:03:05Z</time>
      </trkpt>
      <trkpt lat="43.47699" lon="1.33377">
        <ele>170.13</ele>
        <time>2018-07-27T05:03:06Z</time>
      </trkpt>
      <trkpt lat="43.47681" lon="1.33362">
        <ele>170.13</ele>
        <time>2018-07-27T05:03:07Z</time>
      </trkpt>
      <trkpt lat="43.47662" lon="1.33344">
        <ele>170.13</ele>
        <time>2018-07-27T05:03:08Z</time>
      </trkpt>
      <trkpt lat="43.47641" lon="1.33324">
        <ele>170.83</ele>
        <time>2018-07-27T05:03:09Z</time>
      </trkpt>
      <trkpt lat="43.47619" lon="1.33301">
        <ele>171.04</ele>
        <time>2018-07-27T05:03:10Z</time>
      </trkpt>
      <trkpt lat="43.47598" lon="1.33273">
        <ele>171.81</ele>
        <time>2018-07-27T05:03:11Z</time>
      </trkpt>
      <trkpt lat="43.47579" lon="1.33243">
        <ele>172.73</ele>
        <time>2018-07-27T05:03:12Z</time>
      </trkpt>
      <trkpt lat="43.47561" lon="1.33211">
        <ele>173.71</ele>
        <time>2018-07-27T05:03:13Z</time>
      </trkpt>
      <trkpt lat="43.47545" lon="1.33177">
        <ele>174.71</ele>
        <time>2018-07-27T05:03:14Z</time>
      </trkpt>
      <trkpt lat="43.47532" lon="1.33143">
        <ele>175.71</ele>
        <time>2018-07-27T05:03:15Z</time>
      </trkpt>
      <trkpt lat="43.4752" lon="1.33108">
        <ele>176</ele>
        <time>2018-07-27T05:03:16Z</time>
      </trkpt>
      <trkpt lat="43.47509" lon="1.33072">
        <ele>176.09</ele>
        <time>2018-07-27T05:03:17Z</time>
      </trkpt>
      <trkpt lat="43.47501" lon="1.33035">
        <ele>176.12</ele>
        <time>2018-07-27T05:03:18Z</time>
      </trkpt>
      <trkpt lat="43.47494" lon="1.32998">
        <ele>176.83</ele>
        <time>2018-07-27T05:03:19Z</time>
      </trkpt>
      <trkpt lat="43.4749" lon="1.32961">
        <ele>177.04</ele>
        <time>2018-07-27T05:03:20Z</time>
      </trkpt>
      <trkpt lat="43.47488" lon="1.32923">
        <ele>177.11</ele>
        <time>2018-07-27T05:03:21Z</time>
      </trkpt>
      <trkpt lat="43.47487" lon="1.32887">
        <ele>177.12</ele>
        <time>2018-07-27T05:03:22Z</time>
      </trkpt>
      <trkpt lat="43.47486" lon="1.32851">
        <ele>177.13</ele>
        <time>2018-07-27T05:03:23Z</time>
      </trkpt>
      <trkpt lat="43.47486" lon="1.32815">
        <ele>176.43</ele>
        <time>2018-07-27T05:03:24Z</time>
      </trkpt>
      <trkpt lat="43.47487" lon="1.32779">
        <ele>175.52</ele>
        <time>2018-07-27T05:03:25Z</time>
      </trkpt>
      <trkpt lat="43.47488" lon="1.32743">
        <ele>174.55</ele>
        <time>2018-07-27T05:03:26Z</time>
      </trkpt>
      <trkpt lat="43.47491" lon="1.32707">
        <ele>174.26</ele>
        <time>2018-07-27T05:03:27Z</time>
      </trkpt>
      <trkpt lat="43.47493" lon="1.3267">
        <ele>173.47</ele>
        <time>2018-07-27T05:03:28Z</time>
      </trkpt>
      <trkpt lat="43.47496" lon="1.32634">
        <ele>173.23</ele>
        <time>2018-07-27T05:03:29Z</time>
      </trkpt>
      <trkpt lat="43.47497" lon="1.32599">
        <ele>172.46</ele>
        <time>2018-07-27T05:03:30Z</time>
      </trkpt>
      <trkpt lat="43.475" lon="1.32564">
        <ele>172.23</ele>
        <time>2018-07-27T05:03:31Z</time>
      </trkpt>
      <trkpt lat="43.47502" lon="1.3253">
        <ele>171.46</ele>
        <time>2018-07-27T05:03:32Z</time>
      </trkpt>
      <trkpt lat="43.47503" lon="1.32496">
        <ele>170.53</ele>
        <time>2018-07-27T05:03:33Z</time>
      </trkpt>
      <trkpt lat="43.47505" lon="1.32464">
        <ele>170.25</ele>
        <time>2018-07-27T05:03:34Z</time>
      </trkpt>
      <trkpt lat="43.47506" lon="1.32433">
        <ele>170.17</ele>
        <time>2018-07-27T05:03:35Z</time>
      </trkpt>
      <trkpt lat="43.47506" lon="1.32404">
        <ele>170.14</ele>
        <time>2018-07-27T05:03:36Z</time>
      </trkpt>
      <trkpt lat="43.47507" lon="1.32378">
        <ele>170.14</ele>
        <time>2018-07-27T05:03:37Z</time>
      </trkpt>
      <trkpt lat="43.47507" lon="1.32334">
        <ele>170.13</ele>
        <time>2018-07-27T05:03:39Z</time>
      </trkpt>
      <trkpt lat="43.47507" lon="1.32309">
        <ele>170.13</ele>
        <time>2018-07-27T05:03:41Z</time>
      </trkpt>
      <trkpt lat="43.47517" lon="1.32282">
        <ele>170.34</ele>
        <time>2018-07-27T05:03:44Z</time>
      </trkpt>
      <trkpt lat="43.47523" lon="1.32247">
        <ele>170.9</ele>
        <time>2018-07-27T05:03:47Z</time>
      </trkpt>
      <trkpt lat="43.47521" lon="1.32222">
        <ele>171.11</ele>
        <time>2018-07-27T05:03:49Z</time>
      </trkpt>
      <trkpt lat="43.47528" lon="1.32186">
        <ele>172.04</ele>
        <time>2018-07-27T05:03:51Z</time>
      </trkpt>
      <trkpt lat="43.47546" lon="1.32143">
        <ele>173.03</ele>
        <time>2018-07-27T05:03:53Z</time>
      </trkpt>
      <trkpt lat="43.47557" lon="1.32117">
        <ele>174.5</ele>
        <time>2018-07-27T05:03:54Z</time>
      </trkpt>
      <trkpt lat="43.47569" lon="1.32091">
        <ele>174.94</ele>
        <time>2018-07-27T05:03:55Z</time>
      </trkpt>
      <trkpt lat="43.4758" lon="1.32066">
        <ele>176.48</ele>
        <time>2018-07-27T05:03:56Z</time>
      </trkpt>
      <trkpt lat="43.47591" lon="1.32043">
        <ele>176.94</ele>
        <time>2018-07-27T05:03:57Z</time>
      </trkpt>
      <trkpt lat="43.47601" lon="1.32021">
        <ele>177.07</ele>
        <time>2018-07-27T05:03:58Z</time>
      </trkpt>
      <trkpt lat="43.47619" lon="1.31979">
        <ele>176.22</ele>
        <time>2018-07-27T05:04:00Z</time>
      </trkpt>
      <trkpt lat="43.47634" lon="1.31944">
        <ele>175.23</ele>
        <time>2018-07-27T05:04:02Z</time>
      </trkpt>
      <trkpt lat="43.4765" lon="1.31926">
        <ele>174.44</ele>
        <time>2018-07-27T05:04:04Z</time>
      </trkpt>
      <trkpt lat="43.47668" lon="1.31919">
        <ele>174.16</ele>
        <time>2018-07-27T05:04:06Z</time>
      </trkpt>
      <trkpt lat="43.47684" lon="1.31908">
        <ele>174.14</ele>
        <time>2018-07-27T05:04:08Z</time>
      </trkpt>
      <trkpt lat="43.47684" lon="1.31877">
        <ele>174.83</ele>
        <time>2018-07-27T05:04:10Z</time>
      </trkpt>
      <trkpt lat="43.47681" lon="1.31851">
        <ele>175.11</ele>
        <time>2018-07-27T05:04:12Z</time>
      </trkpt>
      <trkpt lat="43.47657" lon="1.31848">
        <ele>175.13</ele>
        <time>2018-07-27T05:04:14Z</time>
      </trkpt>
      <trkpt lat="43.47632" lon="1.31853">
        <ele>174.43</ele>
        <time>2018-07-27T05:04:16Z</time>
      </trkpt>
      <trkpt lat="43.47605" lon="1.31849">
        <ele>174.16</ele>
        <time>2018-07-27T05:04:18Z</time>
      </trkpt>
      <trkpt lat="43.47575" lon="1.31836">
        <ele>173.44</ele>
        <time>2018-07-27T05:04:20Z</time>
      </trkpt>
      <trkpt lat="43.47542" lon="1.31843">
        <ele>172.46</ele>
        <time>2018-07-27T05:04:22Z</time>
      </trkpt>
      <trkpt lat="43.47512" lon="1.31868">
        <ele>172.16</ele>
        <time>2018-07-27T05:04:24Z</time>
      </trkpt>
      <trkpt lat="43.47483" lon="1.31888">
        <ele>172.14</ele>
        <time>2018-07-27T05:04:26Z</time>
      </trkpt>
      <trkpt lat="43.4745" lon="1.31897">
        <ele>171.22</ele>
        <time>2018-07-27T05:04:28Z</time>
      </trkpt>
      <trkpt lat="43.47415" lon="1.31891">
        <ele>171.14</ele>
        <time>2018-07-27T05:04:30Z</time>
      </trkpt>
      <trkpt lat="43.47398" lon="1.31883">
        <ele>171.14</ele>
        <time>2018-07-27T05:04:31Z</time>
      </trkpt>
      <trkpt lat="43.4738" lon="1.31874">
        <ele>171.83</ele>
        <time>2018-07-27T05:04:32Z</time>
      </trkpt>
      <trkpt lat="43.47362" lon="1.31864">
        <ele>172.04</ele>
        <time>2018-07-27T05:04:33Z</time>
      </trkpt>
      <trkpt lat="43.47343" lon="1.31854">
        <ele>172.11</ele>
        <time>2018-07-27T05:04:34Z</time>
      </trkpt>
      <trkpt lat="43.47324" lon="1.31843">
        <ele>172.12</ele>
        <time>2018-07-27T05:04:35Z</time>
      </trkpt>
      <trkpt lat="43.47305" lon="1.31831">
        <ele>172.13</ele>
        <time>2018-07-27T05:04:36Z</time>
      </trkpt>
      <trkpt lat="43.47284" lon="1.3182">
        <ele>172.13</ele>
        <time>2018-07-27T05:04:37Z</time>
      </trkpt>
      <trkpt lat="43.47264" lon="1.31809">
        <ele>172.13</ele>
        <time>2018-07-27T05:04:38Z</time>
      </trkpt>
      <trkpt lat="43.47242" lon="1.31796">
        <ele>172.13</ele>
        <time>2018-07-27T05:04:39Z</time>
      </trkpt>
      <trkpt lat="43.47219" lon="1.31783">
        <ele>172.83</ele>
        <time>2018-07-27T05:04:40Z</time>
      </trkpt>
      <trkpt lat="43.47197" lon="1.3177">
        <ele>173.04</ele>
        <time>2018-07-27T05:04:41Z</time>
      </trkpt>
      <trkpt lat="43.47173" lon="1.31756">
        <ele>173.11</ele>
        <time>2018-07-27T05:04:42Z</time>
      </trkpt>
      <trkpt lat="43.47149" lon="1.31742">
        <ele>173.12</ele>
        <time>2018-07-27T05:04:43Z</time>
      </trkpt>
      <trkpt lat="43.47124" lon="1.31728">
        <ele>173.13</ele>
        <time>2018-07-27T05:04:44Z</time>
      </trkpt>
      <trkpt lat="43.47099" lon="1.31714">
        <ele>173.13</ele>
        <time>2018-07-27T05:04:45Z</time>
      </trkpt>
      <trkpt lat="43.47074" lon="1.317">
        <ele>173.13</ele>
        <time>2018-07-27T05:04:46Z</time>
      </trkpt>
      <trkpt lat="43.47047" lon="1.31685">
        <ele>173.83</ele>
        <time>2018-07-27T05:04:47Z</time>
      </trkpt>
      <trkpt lat="43.4702" lon="1.31669">
        <ele>174.04</ele>
        <time>2018-07-27T05:04:48Z</time>
      </trkpt>
      <trkpt lat="43.46992" lon="1.31654">
        <ele>174.11</ele>
        <time>2018-07-27T05:04:49Z</time>
      </trkpt>
      <trkpt lat="43.46963" lon="1.31639">
        <ele>174.12</ele>
        <time>2018-07-27T05:04:50Z</time>
      </trkpt>
      <trkpt lat="43.46935" lon="1.31623">
        <ele>174.13</ele>
        <time>2018-07-27T05:04:51Z</time>
      </trkpt>
      <trkpt lat="43.46905" lon="1.31606">
        <ele>174.13</ele>
        <time>2018-07-27T05:04:52Z</time>
      </trkpt>
      <trkpt lat="43.46875" lon="1.3159">
        <ele>174.83</ele>
        <time>2018-07-27T05:04:53Z</time>
      </trkpt>
      <trkpt lat="43.46845" lon="1.31572">
        <ele>175.04</ele>
        <time>2018-07-27T05:04:54Z</time>
      </trkpt>
      <trkpt lat="43.46814" lon="1.31555">
        <ele>175.11</ele>
        <time>2018-07-27T05:04:55Z</time>
      </trkpt>
      <trkpt lat="43.46783" lon="1.31538">
        <ele>175.12</ele>
        <time>2018-07-27T05:04:56Z</time>
      </trkpt>
      <trkpt lat="43.46752" lon="1.3152">
        <ele>175.13</ele>
        <time>2018-07-27T05:04:57Z</time>
      </trkpt>
      <trkpt lat="43.46721" lon="1.31502">
        <ele>175.13</ele>
        <time>2018-07-27T05:04:58Z</time>
      </trkpt>
      <trkpt lat="43.4669" lon="1.31484">
        <ele>175.13</ele>
        <time>2018-07-27T05:04:59Z</time>
      </trkpt>
      <trkpt lat="43.46659" lon="1.31466">
        <ele>175.13</ele>
        <time>2018-07-27T05:05:00Z</time>
      </trkpt>
      <trkpt lat="43.46628" lon="1.31449">
        <ele>175.83</ele>
        <time>2018-07-27T05:05:01Z</time>
      </trkpt>
      <trkpt lat="43.46597" lon="1.31431">
        <ele>176.04</ele>
        <time>2018-07-27T05:05:02Z</time>
      </trkpt>
      <trkpt lat="43.46566" lon="1.31412">
        <ele>176.11</ele>
        <time>2018-07-27T05:05:03Z</time>
      </trkpt>
      <trkpt lat="43.46536" lon="1.31394">
        <ele>176.12</ele>
        <time>2018-07-27T05:05:04Z</time>
      </trkpt>
      <trkpt lat="43.46505" lon="1.31376">
        <ele>176.13</ele>
        <time>2018-07-27T05:05:05Z</time>
      </trkpt>
      <trkpt lat="43.46474" lon="1.31358">
        <ele>175.43</ele>
        <time>2018-07-27T05:05:06Z</time>
      </trkpt>
      <trkpt lat="43.46443" lon="1.3134">
        <ele>175.22</ele>
        <time>2018-07-27T05:05:07Z</time>
      </trkpt>
      <trkpt lat="43.46412" lon="1.31323">
        <ele>175.86</ele>
        <time>2018-07-27T05:05:08Z</time>
      </trkpt>
      <trkpt lat="43.46381" lon="1.31305">
        <ele>175.35</ele>
        <time>2018-07-27T05:05:09Z</time>
      </trkpt>
      <trkpt lat="43.46351" lon="1.31286">
        <ele>175.2</ele>
        <time>2018-07-27T05:05:10Z</time>
      </trkpt>
      <trkpt lat="43.46321" lon="1.31267">
        <ele>175.15</ele>
        <time>2018-07-27T05:05:11Z</time>
      </trkpt>
      <trkpt lat="43.46291" lon="1.31247">
        <ele>175.84</ele>
        <time>2018-07-27T05:05:12Z</time>
      </trkpt>
      <trkpt lat="43.46262" lon="1.31227">
        <ele>175.34</ele>
        <time>2018-07-27T05:05:13Z</time>
      </trkpt>
      <trkpt lat="43.46233" lon="1.31205">
        <ele>175.2</ele>
        <time>2018-07-27T05:05:14Z</time>
      </trkpt>
      <trkpt lat="43.46204" lon="1.31184">
        <ele>175.85</ele>
        <time>2018-07-27T05:05:15Z</time>
      </trkpt>
      <trkpt lat="43.46175" lon="1.31162">
        <ele>176.05</ele>
        <time>2018-07-27T05:05:16Z</time>
      </trkpt>
      <trkpt lat="43.46147" lon="1.31139">
        <ele>176.11</ele>
        <time>2018-07-27T05:05:17Z</time>
      </trkpt>
      <trkpt lat="43.46119" lon="1.31115">
        <ele>176.13</ele>
        <time>2018-07-27T05:05:18Z</time>
      </trkpt>
      <trkpt lat="43.46091" lon="1.3109">
        <ele>176.13</ele>
        <time>2018-07-27T05:05:19Z</time>
      </trkpt>
      <trkpt lat="43.46064" lon="1.31064">
        <ele>176.13</ele>
        <time>2018-07-27T05:05:20Z</time>
      </trkpt>
      <trkpt lat="43.46037" lon="1.31038">
        <ele>176.83</ele>
        <time>2018-07-27T05:05:21Z</time>
      </trkpt>
      <trkpt lat="43.46009" lon="1.31012">
        <ele>177.04</ele>
        <time>2018-07-27T05:05:22Z</time>
      </trkpt>
      <trkpt lat="43.45982" lon="1.30987">
        <ele>177.11</ele>
        <time>2018-07-27T05:05:23Z</time>
      </trkpt>
      <trkpt lat="43.45954" lon="1.30961">
        <ele>177.12</ele>
        <time>2018-07-27T05:05:24Z</time>
      </trkpt>
      <trkpt lat="43.45927" lon="1.30935">
        <ele>177.13</ele>
        <time>2018-07-27T05:05:25Z</time>
      </trkpt>
      <trkpt lat="43.459" lon="1.30909">
        <ele>176.43</ele>
        <time>2018-07-27T05:05:26Z</time>
      </trkpt>
      <trkpt lat="43.45873" lon="1.30883">
        <ele>176.92</ele>
        <time>2018-07-27T05:05:27Z</time>
      </trkpt>
      <trkpt lat="43.45845" lon="1.30857">
        <ele>177.07</ele>
        <time>2018-07-27T05:05:28Z</time>
      </trkpt>
      <trkpt lat="43.45818" lon="1.30831">
        <ele>177.11</ele>
        <time>2018-07-27T05:05:29Z</time>
      </trkpt>
      <trkpt lat="43.45791" lon="1.30805">
        <ele>177.13</ele>
        <time>2018-07-27T05:05:30Z</time>
      </trkpt>
      <trkpt lat="43.45764" lon="1.30779">
        <ele>177.13</ele>
        <time>2018-07-27T05:05:31Z</time>
      </trkpt>
      <trkpt lat="43.45736" lon="1.30754">
        <ele>177.13</ele>
        <time>2018-07-27T05:05:32Z</time>
      </trkpt>
      <trkpt lat="43.45709" lon="1.30728">
        <ele>177.83</ele>
        <time>2018-07-27T05:05:33Z</time>
      </trkpt>
      <trkpt lat="43.45682" lon="1.30703">
        <ele>178.04</ele>
        <time>2018-07-27T05:05:34Z</time>
      </trkpt>
      <trkpt lat="43.45654" lon="1.30679">
        <ele>178.11</ele>
        <time>2018-07-27T05:05:35Z</time>
      </trkpt>
      <trkpt lat="43.45626" lon="1.30657">
        <ele>178.12</ele>
        <time>2018-07-27T05:05:36Z</time>
      </trkpt>
      <trkpt lat="43.45597" lon="1.30636">
        <ele>178.13</ele>
        <time>2018-07-27T05:05:37Z</time>
      </trkpt>
      <trkpt lat="43.45568" lon="1.30617">
        <ele>177.43</ele>
        <time>2018-07-27T05:05:38Z</time>
      </trkpt>
      <trkpt lat="43.45538" lon="1.30599">
        <ele>177.22</ele>
        <time>2018-07-27T05:05:39Z</time>
      </trkpt>
      <trkpt lat="43.45507" lon="1.30583">
        <ele>177.86</ele>
        <time>2018-07-27T05:05:40Z</time>
      </trkpt>
      <trkpt lat="43.45476" lon="1.30569">
        <ele>178.05</ele>
        <time>2018-07-27T05:05:41Z</time>
      </trkpt>
      <trkpt lat="43.45444" lon="1.30558">
        <ele>178.11</ele>
        <time>2018-07-27T05:05:42Z</time>
      </trkpt>
      <trkpt lat="43.45412" lon="1.30549">
        <ele>178.13</ele>
        <time>2018-07-27T05:05:43Z</time>
      </trkpt>
      <trkpt lat="43.4538" lon="1.30542">
        <ele>178.13</ele>
        <time>2018-07-27T05:05:44Z</time>
      </trkpt>
      <trkpt lat="43.45347" lon="1.30537">
        <ele>178.13</ele>
        <time>2018-07-27T05:05:45Z</time>
      </trkpt>
      <trkpt lat="43.45314" lon="1.30534">
        <ele>178.13</ele>
        <time>2018-07-27T05:05:46Z</time>
      </trkpt>
      <trkpt lat="43.45281" lon="1.30533">
        <ele>178.13</ele>
        <time>2018-07-27T05:05:47Z</time>
      </trkpt>
      <trkpt lat="43.45248" lon="1.30534">
        <ele>178.13</ele>
        <time>2018-07-27T05:05:48Z</time>
      </trkpt>
      <trkpt lat="43.45215" lon="1.30537">
        <ele>178.13</ele>
        <time>2018-07-27T05:05:49Z</time>
      </trkpt>
      <trkpt lat="43.45182" lon="1.30541">
        <ele>178.13</ele>
        <time>2018-07-27T05:05:50Z</time>
      </trkpt>
      <trkpt lat="43.45149" lon="1.30546">
        <ele>178.13</ele>
        <time>2018-07-27T05:05:51Z</time>
      </trkpt>
      <trkpt lat="43.45116" lon="1.30552">
        <ele>177.43</ele>
        <time>2018-07-27T05:05:52Z</time>
      </trkpt>
      <trkpt lat="43.45083" lon="1.30559">
        <ele>177.22</ele>
        <time>2018-07-27T05:05:53Z</time>
      </trkpt>
      <trkpt lat="43.45051" lon="1.30568">
        <ele>177.16</ele>
        <time>2018-07-27T05:05:54Z</time>
      </trkpt>
      <trkpt lat="43.45018" lon="1.30577">
        <ele>177.14</ele>
        <time>2018-07-27T05:05:55Z</time>
      </trkpt>
      <trkpt lat="43.44985" lon="1.30586">
        <ele>177.14</ele>
        <time>2018-07-27T05:05:56Z</time>
      </trkpt>
      <trkpt lat="43.44953" lon="1.30595">
        <ele>177.13</ele>
        <time>2018-07-27T05:05:57Z</time>
      </trkpt>
      <trkpt lat="43.4492" lon="1.30604">
        <ele>177.13</ele>
        <time>2018-07-27T05:05:58Z</time>
      </trkpt>
      <trkpt lat="43.44887" lon="1.30615">
        <ele>177.13</ele>
        <time>2018-07-27T05:05:59Z</time>
      </trkpt>
      <trkpt lat="43.44855" lon="1.30624">
        <ele>177.13</ele>
        <time>2018-07-27T05:06:00Z</time>
      </trkpt>
      <trkpt lat="43.44822" lon="1.30634">
        <ele>177.13</ele>
        <time>2018-07-27T05:06:01Z</time>
      </trkpt>
      <trkpt lat="43.44789" lon="1.30643">
        <ele>177.13</ele>
        <time>2018-07-27T05:06:02Z</time>
      </trkpt>
      <trkpt lat="43.44757" lon="1.30652">
        <ele>177.13</ele>
        <time>2018-07-27T05:06:03Z</time>
      </trkpt>
      <trkpt lat="43.44724" lon="1.30662">
        <ele>177.13</ele>
        <time>2018-07-27T05:06:04Z</time>
      </trkpt>
      <trkpt lat="43.44691" lon="1.30671">
        <ele>177.13</ele>
        <time>2018-07-27T05:06:05Z</time>
      </trkpt>
      <trkpt lat="43.44658" lon="1.3068">
        <ele>177.13</ele>
        <time>2018-07-27T05:06:06Z</time>
      </trkpt>
      <trkpt lat="43.44625" lon="1.30691">
        <ele>178.53</ele>
        <time>2018-07-27T05:06:07Z</time>
      </trkpt>
      <trkpt lat="43.44593" lon="1.307">
        <ele>179.65</ele>
        <time>2018-07-27T05:06:08Z</time>
      </trkpt>
      <trkpt lat="43.4456" lon="1.3071">
        <ele>179.99</ele>
        <time>2018-07-27T05:06:09Z</time>
      </trkpt>
      <trkpt lat="43.44528" lon="1.30719">
        <ele>180.09</ele>
        <time>2018-07-27T05:06:10Z</time>
      </trkpt>
      <trkpt lat="43.44495" lon="1.30728">
        <ele>180.82</ele>
        <time>2018-07-27T05:06:11Z</time>
      </trkpt>
      <trkpt lat="43.44463" lon="1.30738">
        <ele>181.04</ele>
        <time>2018-07-27T05:06:12Z</time>
      </trkpt>
      <trkpt lat="43.44431" lon="1.30747">
        <ele>181.1</ele>
        <time>2018-07-27T05:06:13Z</time>
      </trkpt>
      <trkpt lat="43.44398" lon="1.30756">
        <ele>181.12</ele>
        <time>2018-07-27T05:06:14Z</time>
      </trkpt>
      <trkpt lat="43.44365" lon="1.30766">
        <ele>181.83</ele>
        <time>2018-07-27T05:06:15Z</time>
      </trkpt>
      <trkpt lat="43.44332" lon="1.30776">
        <ele>182.04</ele>
        <time>2018-07-27T05:06:16Z</time>
      </trkpt>
      <trkpt lat="43.44299" lon="1.30785">
        <ele>181.41</ele>
        <time>2018-07-27T05:06:17Z</time>
      </trkpt>
      <trkpt lat="43.44267" lon="1.30794">
        <ele>181.21</ele>
        <time>2018-07-27T05:06:18Z</time>
      </trkpt>
      <trkpt lat="43.44234" lon="1.30804">
        <ele>181.16</ele>
        <time>2018-07-27T05:06:19Z</time>
      </trkpt>
      <trkpt lat="43.44202" lon="1.30814">
        <ele>180.44</ele>
        <time>2018-07-27T05:06:20Z</time>
      </trkpt>
      <trkpt lat="43.44169" lon="1.30823">
        <ele>180.23</ele>
        <time>2018-07-27T05:06:21Z</time>
      </trkpt>
      <trkpt lat="43.44136" lon="1.30832">
        <ele>179.46</ele>
        <time>2018-07-27T05:06:22Z</time>
      </trkpt>
      <trkpt lat="43.44103" lon="1.30841">
        <ele>179.23</ele>
        <time>2018-07-27T05:06:23Z</time>
      </trkpt>
      <trkpt lat="43.4407" lon="1.30849">
        <ele>179.16</ele>
        <time>2018-07-27T05:06:24Z</time>
      </trkpt>
      <trkpt lat="43.44037" lon="1.30857">
        <ele>178.44</ele>
        <time>2018-07-27T05:06:25Z</time>
      </trkpt>
      <trkpt lat="43.44004" lon="1.30865">
        <ele>177.53</ele>
        <time>2018-07-27T05:06:26Z</time>
      </trkpt>
      <trkpt lat="43.43971" lon="1.30874">
        <ele>177.25</ele>
        <time>2018-07-27T05:06:27Z</time>
      </trkpt>
      <trkpt lat="43.43938" lon="1.30883">
        <ele>177.17</ele>
        <time>2018-07-27T05:06:28Z</time>
      </trkpt>
      <trkpt lat="43.43905" lon="1.30891">
        <ele>176.44</ele>
        <time>2018-07-27T05:06:29Z</time>
      </trkpt>
      <trkpt lat="43.43873" lon="1.30901">
        <ele>176.93</ele>
        <time>2018-07-27T05:06:30Z</time>
      </trkpt>
      <trkpt lat="43.4384" lon="1.3091">
        <ele>177.07</ele>
        <time>2018-07-27T05:06:31Z</time>
      </trkpt>
      <trkpt lat="43.43807" lon="1.30918">
        <ele>176.41</ele>
        <time>2018-07-27T05:06:32Z</time>
      </trkpt>
      <trkpt lat="43.43774" lon="1.30925">
        <ele>176.92</ele>
        <time>2018-07-27T05:06:33Z</time>
      </trkpt>
      <trkpt lat="43.43742" lon="1.30933">
        <ele>177.07</ele>
        <time>2018-07-27T05:06:34Z</time>
      </trkpt>
      <trkpt lat="43.43709" lon="1.30939">
        <ele>177.11</ele>
        <time>2018-07-27T05:06:35Z</time>
      </trkpt>
      <trkpt lat="43.43676" lon="1.30945">
        <ele>177.13</ele>
        <time>2018-07-27T05:06:36Z</time>
      </trkpt>
      <trkpt lat="43.43642" lon="1.30949">
        <ele>177.13</ele>
        <time>2018-07-27T05:06:37Z</time>
      </trkpt>
      <trkpt lat="43.43609" lon="1.30951">
        <ele>176.43</ele>
        <time>2018-07-27T05:06:38Z</time>
      </trkpt>
      <trkpt lat="43.43576" lon="1.30951">
        <ele>176.22</ele>
        <time>2018-07-27T05:06:39Z</time>
      </trkpt>
      <trkpt lat="43.43543" lon="1.30951">
        <ele>176.86</ele>
        <time>2018-07-27T05:06:40Z</time>
      </trkpt>
      <trkpt lat="43.4351" lon="1.30947">
        <ele>177.05</ele>
        <time>2018-07-27T05:06:41Z</time>
      </trkpt>
      <trkpt lat="43.43477" lon="1.3094">
        <ele>177.81</ele>
        <time>2018-07-27T05:06:42Z</time>
      </trkpt>
      <trkpt lat="43.43445" lon="1.30931">
        <ele>178.04</ele>
        <time>2018-07-27T05:06:43Z</time>
      </trkpt>
      <trkpt lat="43.43412" lon="1.30921">
        <ele>178.1</ele>
        <time>2018-07-27T05:06:44Z</time>
      </trkpt>
      <trkpt lat="43.43381" lon="1.30909">
        <ele>177.42</ele>
        <time>2018-07-27T05:06:45Z</time>
      </trkpt>
      <trkpt lat="43.43349" lon="1.30895">
        <ele>177.22</ele>
        <time>2018-07-27T05:06:46Z</time>
      </trkpt>
      <trkpt lat="43.43318" lon="1.3088">
        <ele>177.86</ele>
        <time>2018-07-27T05:06:47Z</time>
      </trkpt>
      <trkpt lat="43.43287" lon="1.30864">
        <ele>178.05</ele>
        <time>2018-07-27T05:06:48Z</time>
      </trkpt>
      <trkpt lat="43.43257" lon="1.30848">
        <ele>178.11</ele>
        <time>2018-07-27T05:06:49Z</time>
      </trkpt>
      <trkpt lat="43.43226" lon="1.3083">
        <ele>178.13</ele>
        <time>2018-07-27T05:06:50Z</time>
      </trkpt>
      <trkpt lat="43.43196" lon="1.30812">
        <ele>177.43</ele>
        <time>2018-07-27T05:06:51Z</time>
      </trkpt>
      <trkpt lat="43.43165" lon="1.30793">
        <ele>177.92</ele>
        <time>2018-07-27T05:06:52Z</time>
      </trkpt>
      <trkpt lat="43.43134" lon="1.30774">
        <ele>177.37</ele>
        <time>2018-07-27T05:06:53Z</time>
      </trkpt>
      <trkpt lat="43.43104" lon="1.30754">
        <ele>177.9</ele>
        <time>2018-07-27T05:06:54Z</time>
      </trkpt>
      <trkpt lat="43.43073" lon="1.30735">
        <ele>178.06</ele>
        <time>2018-07-27T05:06:55Z</time>
      </trkpt>
      <trkpt lat="43.43043" lon="1.30715">
        <ele>178.11</ele>
        <time>2018-07-27T05:06:56Z</time>
      </trkpt>
      <trkpt lat="43.43013" lon="1.30696">
        <ele>178.13</ele>
        <time>2018-07-27T05:06:57Z</time>
      </trkpt>
      <trkpt lat="43.42983" lon="1.30676">
        <ele>178.13</ele>
        <time>2018-07-27T05:06:58Z</time>
      </trkpt>
      <trkpt lat="43.42953" lon="1.30657">
        <ele>178.13</ele>
        <time>2018-07-27T05:06:59Z</time>
      </trkpt>
      <trkpt lat="43.42922" lon="1.30637">
        <ele>178.13</ele>
        <time>2018-07-27T05:07:00Z</time>
      </trkpt>
      <trkpt lat="43.42891" lon="1.30618">
        <ele>178.13</ele>
        <time>2018-07-27T05:07:01Z</time>
      </trkpt>
      <trkpt lat="43.4286" lon="1.30599">
        <ele>178.83</ele>
        <time>2018-07-27T05:07:02Z</time>
      </trkpt>
      <trkpt lat="43.42829" lon="1.30579">
        <ele>178.34</ele>
        <time>2018-07-27T05:07:03Z</time>
      </trkpt>
      <trkpt lat="43.42798" lon="1.3056">
        <ele>178.9</ele>
        <time>2018-07-27T05:07:04Z</time>
      </trkpt>
      <trkpt lat="43.42767" lon="1.30541">
        <ele>179.06</ele>
        <time>2018-07-27T05:07:05Z</time>
      </trkpt>
      <trkpt lat="43.42735" lon="1.30522">
        <ele>179.11</ele>
        <time>2018-07-27T05:07:06Z</time>
      </trkpt>
      <trkpt lat="43.42704" lon="1.30504">
        <ele>178.43</ele>
        <time>2018-07-27T05:07:07Z</time>
      </trkpt>
      <trkpt lat="43.42673" lon="1.30485">
        <ele>178.22</ele>
        <time>2018-07-27T05:07:08Z</time>
      </trkpt>
      <trkpt lat="43.42642" lon="1.30466">
        <ele>178.16</ele>
        <time>2018-07-27T05:07:09Z</time>
      </trkpt>
      <trkpt lat="43.42611" lon="1.30447">
        <ele>178.84</ele>
        <time>2018-07-27T05:07:10Z</time>
      </trkpt>
      <trkpt lat="43.4258" lon="1.30428">
        <ele>179.05</ele>
        <time>2018-07-27T05:07:11Z</time>
      </trkpt>
      <trkpt lat="43.42549" lon="1.30409">
        <ele>179.11</ele>
        <time>2018-07-27T05:07:12Z</time>
      </trkpt>
      <trkpt lat="43.42518" lon="1.30389">
        <ele>179.13</ele>
        <time>2018-07-27T05:07:13Z</time>
      </trkpt>
      <trkpt lat="43.42487" lon="1.3037">
        <ele>179.83</ele>
        <time>2018-07-27T05:07:14Z</time>
      </trkpt>
      <trkpt lat="43.42456" lon="1.3035">
        <ele>180.04</ele>
        <time>2018-07-27T05:07:15Z</time>
      </trkpt>
      <trkpt lat="43.42425" lon="1.3033">
        <ele>180.11</ele>
        <time>2018-07-27T05:07:16Z</time>
      </trkpt>
      <trkpt lat="43.42395" lon="1.30311">
        <ele>180.12</ele>
        <time>2018-07-27T05:07:17Z</time>
      </trkpt>
      <trkpt lat="43.42363" lon="1.30292">
        <ele>180.13</ele>
        <time>2018-07-27T05:07:18Z</time>
      </trkpt>
      <trkpt lat="43.42332" lon="1.30272">
        <ele>180.13</ele>
        <time>2018-07-27T05:07:19Z</time>
      </trkpt>
      <trkpt lat="43.42301" lon="1.30253">
        <ele>180.13</ele>
        <time>2018-07-27T05:07:20Z</time>
      </trkpt>
      <trkpt lat="43.4227" lon="1.30233">
        <ele>180.13</ele>
        <time>2018-07-27T05:07:21Z</time>
      </trkpt>
      <trkpt lat="43.42239" lon="1.30214">
        <ele>180.83</ele>
        <time>2018-07-27T05:07:22Z</time>
      </trkpt>
      <trkpt lat="43.42208" lon="1.30195">
        <ele>181.04</ele>
        <time>2018-07-27T05:07:23Z</time>
      </trkpt>
      <trkpt lat="43.42177" lon="1.30176">
        <ele>180.41</ele>
        <time>2018-07-27T05:07:24Z</time>
      </trkpt>
      <trkpt lat="43.42146" lon="1.30156">
        <ele>180.21</ele>
        <time>2018-07-27T05:07:25Z</time>
      </trkpt>
      <trkpt lat="43.42114" lon="1.30137">
        <ele>180.16</ele>
        <time>2018-07-27T05:07:26Z</time>
      </trkpt>
      <trkpt lat="43.42083" lon="1.30118">
        <ele>180.14</ele>
        <time>2018-07-27T05:07:27Z</time>
      </trkpt>
      <trkpt lat="43.42052" lon="1.30099">
        <ele>179.44</ele>
        <time>2018-07-27T05:07:28Z</time>
      </trkpt>
      <trkpt lat="43.42021" lon="1.30079">
        <ele>178.52</ele>
        <time>2018-07-27T05:07:29Z</time>
      </trkpt>
      <trkpt lat="43.4199" lon="1.3006">
        <ele>178.95</ele>
        <time>2018-07-27T05:07:30Z</time>
      </trkpt>
      <trkpt lat="43.41959" lon="1.30041">
        <ele>178.38</ele>
        <time>2018-07-27T05:07:31Z</time>
      </trkpt>
      <trkpt lat="43.41927" lon="1.30022">
        <ele>178.21</ele>
        <time>2018-07-27T05:07:32Z</time>
      </trkpt>
      <trkpt lat="43.41896" lon="1.30003">
        <ele>178.16</ele>
        <time>2018-07-27T05:07:33Z</time>
      </trkpt>
      <trkpt lat="43.41865" lon="1.29984">
        <ele>178.84</ele>
        <time>2018-07-27T05:07:34Z</time>
      </trkpt>
      <trkpt lat="43.41834" lon="1.29965">
        <ele>179.04</ele>
        <time>2018-07-27T05:07:35Z</time>
      </trkpt>
      <trkpt lat="43.41803" lon="1.29947">
        <ele>179.11</ele>
        <time>2018-07-27T05:07:36Z</time>
      </trkpt>
      <trkpt lat="43.41771" lon="1.29929">
        <ele>179.13</ele>
        <time>2018-07-27T05:07:37Z</time>
      </trkpt>
      <trkpt lat="43.4174" lon="1.29913">
        <ele>179.13</ele>
        <time>2018-07-27T05:07:38Z</time>
      </trkpt>
      <trkpt lat="43.41709" lon="1.29896">
        <ele>179.83</ele>
        <time>2018-07-27T05:07:39Z</time>
      </trkpt>
      <trkpt lat="43.41677" lon="1.2988">
        <ele>179.34</ele>
        <time>2018-07-27T05:07:40Z</time>
      </trkpt>
      <trkpt lat="43.41646" lon="1.29863">
        <ele>179.9</ele>
        <time>2018-07-27T05:07:41Z</time>
      </trkpt>
      <trkpt lat="43.41615" lon="1.29846">
        <ele>179.36</ele>
        <time>2018-07-27T05:07:42Z</time>
      </trkpt>
      <trkpt lat="43.41585" lon="1.29828">
        <ele>179.2</ele>
        <time>2018-07-27T05:07:43Z</time>
      </trkpt>
      <trkpt lat="43.41554" lon="1.29811">
        <ele>179.15</ele>
        <time>2018-07-27T05:07:44Z</time>
      </trkpt>
      <trkpt lat="43.41524" lon="1.29792">
        <ele>179.14</ele>
        <time>2018-07-27T05:07:45Z</time>
      </trkpt>
      <trkpt lat="43.41494" lon="1.29774">
        <ele>179.13</ele>
        <time>2018-07-27T05:07:46Z</time>
      </trkpt>
      <trkpt lat="43.41465" lon="1.29755">
        <ele>179.13</ele>
        <time>2018-07-27T05:07:47Z</time>
      </trkpt>
      <trkpt lat="43.41435" lon="1.29737">
        <ele>179.13</ele>
        <time>2018-07-27T05:07:48Z</time>
      </trkpt>
      <trkpt lat="43.41405" lon="1.29718">
        <ele>179.13</ele>
        <time>2018-07-27T05:07:49Z</time>
      </trkpt>
      <trkpt lat="43.41375" lon="1.29699">
        <ele>179.13</ele>
        <time>2018-07-27T05:07:50Z</time>
      </trkpt>
      <trkpt lat="43.41345" lon="1.29679">
        <ele>179.13</ele>
        <time>2018-07-27T05:07:51Z</time>
      </trkpt>
      <trkpt lat="43.41315" lon="1.2966">
        <ele>179.83</ele>
        <time>2018-07-27T05:07:52Z</time>
      </trkpt>
      <trkpt lat="43.41285" lon="1.2964">
        <ele>180.04</ele>
        <time>2018-07-27T05:07:53Z</time>
      </trkpt>
      <trkpt lat="43.41256" lon="1.2962">
        <ele>180.11</ele>
        <time>2018-07-27T05:07:54Z</time>
      </trkpt>
      <trkpt lat="43.41226" lon="1.29599">
        <ele>180.12</ele>
        <time>2018-07-27T05:07:55Z</time>
      </trkpt>
      <trkpt lat="43.41196" lon="1.29579">
        <ele>180.13</ele>
        <time>2018-07-27T05:07:56Z</time>
      </trkpt>
      <trkpt lat="43.41166" lon="1.2956">
        <ele>180.13</ele>
        <time>2018-07-27T05:07:57Z</time>
      </trkpt>
      <trkpt lat="43.41136" lon="1.29541">
        <ele>180.13</ele>
        <time>2018-07-27T05:07:58Z</time>
      </trkpt>
      <trkpt lat="43.41105" lon="1.29522">
        <ele>180.83</ele>
        <time>2018-07-27T05:07:59Z</time>
      </trkpt>
      <trkpt lat="43.41074" lon="1.29504">
        <ele>181.04</ele>
        <time>2018-07-27T05:08:00Z</time>
      </trkpt>
      <trkpt lat="43.41042" lon="1.29485">
        <ele>181.11</ele>
        <time>2018-07-27T05:08:01Z</time>
      </trkpt>
      <trkpt lat="43.41011" lon="1.29467">
        <ele>181.12</ele>
        <time>2018-07-27T05:08:02Z</time>
      </trkpt>
      <trkpt lat="43.4098" lon="1.29449">
        <ele>181.13</ele>
        <time>2018-07-27T05:08:03Z</time>
      </trkpt>
      <trkpt lat="43.40948" lon="1.29432">
        <ele>181.83</ele>
        <time>2018-07-27T05:08:04Z</time>
      </trkpt>
      <trkpt lat="43.40916" lon="1.29417">
        <ele>182.04</ele>
        <time>2018-07-27T05:08:05Z</time>
      </trkpt>
      <trkpt lat="43.40884" lon="1.29401">
        <ele>182.11</ele>
        <time>2018-07-27T05:08:06Z</time>
      </trkpt>
      <trkpt lat="43.40852" lon="1.29385">
        <ele>182.12</ele>
        <time>2018-07-27T05:08:07Z</time>
      </trkpt>
      <trkpt lat="43.40821" lon="1.2937">
        <ele>181.43</ele>
        <time>2018-07-27T05:08:08Z</time>
      </trkpt>
      <trkpt lat="43.40789" lon="1.29356">
        <ele>181.22</ele>
        <time>2018-07-27T05:08:09Z</time>
      </trkpt>
      <trkpt lat="43.40758" lon="1.29341">
        <ele>181.16</ele>
        <time>2018-07-27T05:08:10Z</time>
      </trkpt>
      <trkpt lat="43.40726" lon="1.29326">
        <ele>181.14</ele>
        <time>2018-07-27T05:08:11Z</time>
      </trkpt>
      <trkpt lat="43.40696" lon="1.29311">
        <ele>181.14</ele>
        <time>2018-07-27T05:08:12Z</time>
      </trkpt>
      <trkpt lat="43.40665" lon="1.29297">
        <ele>181.83</ele>
        <time>2018-07-27T05:08:13Z</time>
      </trkpt>
      <trkpt lat="43.40634" lon="1.29282">
        <ele>182.04</ele>
        <time>2018-07-27T05:08:14Z</time>
      </trkpt>
      <trkpt lat="43.40604" lon="1.29267">
        <ele>182.81</ele>
        <time>2018-07-27T05:08:15Z</time>
      </trkpt>
      <trkpt lat="43.40574" lon="1.29252">
        <ele>182.33</ele>
        <time>2018-07-27T05:08:16Z</time>
      </trkpt>
      <trkpt lat="43.40544" lon="1.29236">
        <ele>182.19</ele>
        <time>2018-07-27T05:08:17Z</time>
      </trkpt>
      <trkpt lat="43.40514" lon="1.29221">
        <ele>182.15</ele>
        <time>2018-07-27T05:08:18Z</time>
      </trkpt>
      <trkpt lat="43.40484" lon="1.29204">
        <ele>182.14</ele>
        <time>2018-07-27T05:08:19Z</time>
      </trkpt>
      <trkpt lat="43.40454" lon="1.2919">
        <ele>182.83</ele>
        <time>2018-07-27T05:08:20Z</time>
      </trkpt>
      <trkpt lat="43.40423" lon="1.29175">
        <ele>183.04</ele>
        <time>2018-07-27T05:08:21Z</time>
      </trkpt>
      <trkpt lat="43.40393" lon="1.2916">
        <ele>183.11</ele>
        <time>2018-07-27T05:08:22Z</time>
      </trkpt>
      <trkpt lat="43.40362" lon="1.29146">
        <ele>183.12</ele>
        <time>2018-07-27T05:08:23Z</time>
      </trkpt>
      <trkpt lat="43.40331" lon="1.2913">
        <ele>183.83</ele>
        <time>2018-07-27T05:08:24Z</time>
      </trkpt>
      <trkpt lat="43.403" lon="1.29116">
        <ele>184.04</ele>
        <time>2018-07-27T05:08:25Z</time>
      </trkpt>
      <trkpt lat="43.40269" lon="1.29102">
        <ele>184.11</ele>
        <time>2018-07-27T05:08:26Z</time>
      </trkpt>
      <trkpt lat="43.40238" lon="1.29087">
        <ele>184.12</ele>
        <time>2018-07-27T05:08:27Z</time>
      </trkpt>
      <trkpt lat="43.40206" lon="1.29073">
        <ele>184.13</ele>
        <time>2018-07-27T05:08:28Z</time>
      </trkpt>
      <trkpt lat="43.40174" lon="1.29058">
        <ele>184.13</ele>
        <time>2018-07-27T05:08:29Z</time>
      </trkpt>
      <trkpt lat="43.40143" lon="1.29043">
        <ele>184.13</ele>
        <time>2018-07-27T05:08:30Z</time>
      </trkpt>
      <trkpt lat="43.40112" lon="1.29028">
        <ele>184.13</ele>
        <time>2018-07-27T05:08:31Z</time>
      </trkpt>
      <trkpt lat="43.40081" lon="1.29013">
        <ele>184.13</ele>
        <time>2018-07-27T05:08:32Z</time>
      </trkpt>
      <trkpt lat="43.4005" lon="1.28999">
        <ele>184.13</ele>
        <time>2018-07-27T05:08:33Z</time>
      </trkpt>
      <trkpt lat="43.40019" lon="1.28984">
        <ele>184.83</ele>
        <time>2018-07-27T05:08:34Z</time>
      </trkpt>
      <trkpt lat="43.39988" lon="1.28969">
        <ele>184.34</ele>
        <time>2018-07-27T05:08:35Z</time>
      </trkpt>
      <trkpt lat="43.39958" lon="1.28954">
        <ele>184.2</ele>
        <time>2018-07-27T05:08:36Z</time>
      </trkpt>
      <trkpt lat="43.39926" lon="1.2894">
        <ele>184.15</ele>
        <time>2018-07-27T05:08:37Z</time>
      </trkpt>
      <trkpt lat="43.39895" lon="1.28925">
        <ele>184.84</ele>
        <time>2018-07-27T05:08:38Z</time>
      </trkpt>
      <trkpt lat="43.39864" lon="1.2891">
        <ele>184.34</ele>
        <time>2018-07-27T05:08:39Z</time>
      </trkpt>
      <trkpt lat="43.39832" lon="1.28896">
        <ele>184.2</ele>
        <time>2018-07-27T05:08:40Z</time>
      </trkpt>
      <trkpt lat="43.39801" lon="1.28881">
        <ele>184.15</ele>
        <time>2018-07-27T05:08:41Z</time>
      </trkpt>
      <trkpt lat="43.39769" lon="1.28866">
        <ele>184.14</ele>
        <time>2018-07-27T05:08:42Z</time>
      </trkpt>
      <trkpt lat="43.39737" lon="1.28852">
        <ele>184.83</ele>
        <time>2018-07-27T05:08:43Z</time>
      </trkpt>
      <trkpt lat="43.39706" lon="1.28837">
        <ele>185.04</ele>
        <time>2018-07-27T05:08:44Z</time>
      </trkpt>
      <trkpt lat="43.39674" lon="1.28822">
        <ele>185.11</ele>
        <time>2018-07-27T05:08:45Z</time>
      </trkpt>
      <trkpt lat="43.39642" lon="1.28806">
        <ele>185.12</ele>
        <time>2018-07-27T05:08:46Z</time>
      </trkpt>
      <trkpt lat="43.39611" lon="1.28791">
        <ele>185.13</ele>
        <time>2018-07-27T05:08:47Z</time>
      </trkpt>
      <trkpt lat="43.39578" lon="1.28776">
        <ele>185.13</ele>
        <time>2018-07-27T05:08:48Z</time>
      </trkpt>
      <trkpt lat="43.39546" lon="1.28762">
        <ele>185.13</ele>
        <time>2018-07-27T05:08:49Z</time>
      </trkpt>
      <trkpt lat="43.39514" lon="1.28748">
        <ele>185.13</ele>
        <time>2018-07-27T05:08:50Z</time>
      </trkpt>
      <trkpt lat="43.39482" lon="1.28735">
        <ele>185.83</ele>
        <time>2018-07-27T05:08:51Z</time>
      </trkpt>
      <trkpt lat="43.3945" lon="1.2872">
        <ele>186.04</ele>
        <time>2018-07-27T05:08:52Z</time>
      </trkpt>
      <trkpt lat="43.39418" lon="1.28706">
        <ele>186.11</ele>
        <time>2018-07-27T05:08:53Z</time>
      </trkpt>
      <trkpt lat="43.39386" lon="1.2869">
        <ele>186.12</ele>
        <time>2018-07-27T05:08:54Z</time>
      </trkpt>
      <trkpt lat="43.39354" lon="1.28676">
        <ele>186.13</ele>
        <time>2018-07-27T05:08:55Z</time>
      </trkpt>
      <trkpt lat="43.39322" lon="1.28661">
        <ele>186.13</ele>
        <time>2018-07-27T05:08:56Z</time>
      </trkpt>
      <trkpt lat="43.3929" lon="1.28646">
        <ele>186.13</ele>
        <time>2018-07-27T05:08:57Z</time>
      </trkpt>
      <trkpt lat="43.39258" lon="1.28632">
        <ele>186.83</ele>
        <time>2018-07-27T05:08:58Z</time>
      </trkpt>
      <trkpt lat="43.39226" lon="1.28617">
        <ele>187.04</ele>
        <time>2018-07-27T05:08:59Z</time>
      </trkpt>
      <trkpt lat="43.39194" lon="1.28603">
        <ele>187.11</ele>
        <time>2018-07-27T05:09:00Z</time>
      </trkpt>
      <trkpt lat="43.39162" lon="1.28588">
        <ele>187.12</ele>
        <time>2018-07-27T05:09:01Z</time>
      </trkpt>
      <trkpt lat="43.39131" lon="1.28574">
        <ele>187.13</ele>
        <time>2018-07-27T05:09:02Z</time>
      </trkpt>
      <trkpt lat="43.39099" lon="1.28559">
        <ele>187.13</ele>
        <time>2018-07-27T05:09:03Z</time>
      </trkpt>
      <trkpt lat="43.39067" lon="1.28543">
        <ele>187.13</ele>
        <time>2018-07-27T05:09:04Z</time>
      </trkpt>
      <trkpt lat="43.39035" lon="1.28529">
        <ele>187.13</ele>
        <time>2018-07-27T05:09:05Z</time>
      </trkpt>
      <trkpt lat="43.39004" lon="1.28514">
        <ele>187.13</ele>
        <time>2018-07-27T05:09:06Z</time>
      </trkpt>
      <trkpt lat="43.38973" lon="1.28498">
        <ele>187.13</ele>
        <time>2018-07-27T05:09:07Z</time>
      </trkpt>
      <trkpt lat="43.3894" lon="1.28485">
        <ele>187.13</ele>
        <time>2018-07-27T05:09:08Z</time>
      </trkpt>
      <trkpt lat="43.38909" lon="1.2847">
        <ele>187.13</ele>
        <time>2018-07-27T05:09:09Z</time>
      </trkpt>
      <trkpt lat="43.38878" lon="1.28454">
        <ele>187.13</ele>
        <time>2018-07-27T05:09:10Z</time>
      </trkpt>
      <trkpt lat="43.38848" lon="1.28439">
        <ele>187.13</ele>
        <time>2018-07-27T05:09:11Z</time>
      </trkpt>
      <trkpt lat="43.38817" lon="1.28424">
        <ele>187.13</ele>
        <time>2018-07-27T05:09:12Z</time>
      </trkpt>
      <trkpt lat="43.38787" lon="1.28408">
        <ele>187.13</ele>
        <time>2018-07-27T05:09:13Z</time>
      </trkpt>
      <trkpt lat="43.38757" lon="1.28393">
        <ele>187.13</ele>
        <time>2018-07-27T05:09:14Z</time>
      </trkpt>
      <trkpt lat="43.38726" lon="1.28379">
        <ele>187.13</ele>
        <time>2018-07-27T05:09:15Z</time>
      </trkpt>
      <trkpt lat="43.38696" lon="1.28364">
        <ele>187.83</ele>
        <time>2018-07-27T05:09:16Z</time>
      </trkpt>
      <trkpt lat="43.38665" lon="1.2835">
        <ele>188.04</ele>
        <time>2018-07-27T05:09:17Z</time>
      </trkpt>
      <trkpt lat="43.38636" lon="1.28335">
        <ele>188.11</ele>
        <time>2018-07-27T05:09:18Z</time>
      </trkpt>
      <trkpt lat="43.38605" lon="1.2832">
        <ele>188.12</ele>
        <time>2018-07-27T05:09:19Z</time>
      </trkpt>
      <trkpt lat="43.38575" lon="1.28305">
        <ele>188.13</ele>
        <time>2018-07-27T05:09:20Z</time>
      </trkpt>
      <trkpt lat="43.38545" lon="1.2829">
        <ele>188.13</ele>
        <time>2018-07-27T05:09:21Z</time>
      </trkpt>
      <trkpt lat="43.38515" lon="1.28276">
        <ele>188.13</ele>
        <time>2018-07-27T05:09:22Z</time>
      </trkpt>
      <trkpt lat="43.38485" lon="1.28261">
        <ele>188.13</ele>
        <time>2018-07-27T05:09:23Z</time>
      </trkpt>
      <trkpt lat="43.38454" lon="1.28247">
        <ele>188.13</ele>
        <time>2018-07-27T05:09:24Z</time>
      </trkpt>
      <trkpt lat="43.38424" lon="1.28232">
        <ele>188.83</ele>
        <time>2018-07-27T05:09:25Z</time>
      </trkpt>
      <trkpt lat="43.38394" lon="1.28218">
        <ele>189.04</ele>
        <time>2018-07-27T05:09:26Z</time>
      </trkpt>
      <trkpt lat="43.38364" lon="1.28203">
        <ele>189.11</ele>
        <time>2018-07-27T05:09:27Z</time>
      </trkpt>
      <trkpt lat="43.38333" lon="1.28188">
        <ele>189.82</ele>
        <time>2018-07-27T05:09:28Z</time>
      </trkpt>
      <trkpt lat="43.38303" lon="1.28175">
        <ele>190.04</ele>
        <time>2018-07-27T05:09:29Z</time>
      </trkpt>
      <trkpt lat="43.38272" lon="1.2816">
        <ele>190.81</ele>
        <time>2018-07-27T05:09:30Z</time>
      </trkpt>
      <trkpt lat="43.38242" lon="1.28145">
        <ele>190.33</ele>
        <time>2018-07-27T05:09:31Z</time>
      </trkpt>
      <trkpt lat="43.38212" lon="1.28131">
        <ele>190.19</ele>
        <time>2018-07-27T05:09:32Z</time>
      </trkpt>
      <trkpt lat="43.38181" lon="1.28115">
        <ele>190.15</ele>
        <time>2018-07-27T05:09:33Z</time>
      </trkpt>
      <trkpt lat="43.38151" lon="1.281">
        <ele>190.84</ele>
        <time>2018-07-27T05:09:34Z</time>
      </trkpt>
      <trkpt lat="43.3812" lon="1.28085">
        <ele>191.04</ele>
        <time>2018-07-27T05:09:35Z</time>
      </trkpt>
      <trkpt lat="43.38089" lon="1.2807">
        <ele>191.11</ele>
        <time>2018-07-27T05:09:36Z</time>
      </trkpt>
      <trkpt lat="43.38058" lon="1.28055">
        <ele>191.13</ele>
        <time>2018-07-27T05:09:37Z</time>
      </trkpt>
      <trkpt lat="43.38027" lon="1.2804">
        <ele>191.13</ele>
        <time>2018-07-27T05:09:38Z</time>
      </trkpt>
      <trkpt lat="43.37997" lon="1.28025">
        <ele>191.83</ele>
        <time>2018-07-27T05:09:39Z</time>
      </trkpt>
      <trkpt lat="43.37966" lon="1.28011">
        <ele>192.04</ele>
        <time>2018-07-27T05:09:40Z</time>
      </trkpt>
      <trkpt lat="43.37935" lon="1.27996">
        <ele>192.11</ele>
        <time>2018-07-27T05:09:41Z</time>
      </trkpt>
      <trkpt lat="43.37904" lon="1.27981">
        <ele>192.12</ele>
        <time>2018-07-27T05:09:42Z</time>
      </trkpt>
      <trkpt lat="43.37873" lon="1.27967">
        <ele>192.13</ele>
        <time>2018-07-27T05:09:43Z</time>
      </trkpt>
      <trkpt lat="43.37843" lon="1.27953">
        <ele>192.13</ele>
        <time>2018-07-27T05:09:44Z</time>
      </trkpt>
      <trkpt lat="43.37812" lon="1.27937">
        <ele>192.13</ele>
        <time>2018-07-27T05:09:45Z</time>
      </trkpt>
      <trkpt lat="43.37781" lon="1.27923">
        <ele>192.13</ele>
        <time>2018-07-27T05:09:46Z</time>
      </trkpt>
      <trkpt lat="43.3775" lon="1.27909">
        <ele>192.13</ele>
        <time>2018-07-27T05:09:47Z</time>
      </trkpt>
      <trkpt lat="43.3772" lon="1.27895">
        <ele>192.13</ele>
        <time>2018-07-27T05:09:48Z</time>
      </trkpt>
      <trkpt lat="43.37689" lon="1.27881">
        <ele>192.13</ele>
        <time>2018-07-27T05:09:49Z</time>
      </trkpt>
      <trkpt lat="43.37658" lon="1.27867">
        <ele>192.13</ele>
        <time>2018-07-27T05:09:50Z</time>
      </trkpt>
      <trkpt lat="43.37627" lon="1.27852">
        <ele>192.83</ele>
        <time>2018-07-27T05:09:51Z</time>
      </trkpt>
      <trkpt lat="43.37597" lon="1.27838">
        <ele>193.04</ele>
        <time>2018-07-27T05:09:52Z</time>
      </trkpt>
      <trkpt lat="43.37567" lon="1.27823">
        <ele>193.11</ele>
        <time>2018-07-27T05:09:53Z</time>
      </trkpt>
      <trkpt lat="43.37536" lon="1.27808">
        <ele>193.12</ele>
        <time>2018-07-27T05:09:54Z</time>
      </trkpt>
      <trkpt lat="43.37507" lon="1.27793">
        <ele>193.13</ele>
        <time>2018-07-27T05:09:55Z</time>
      </trkpt>
      <trkpt lat="43.37476" lon="1.27778">
        <ele>193.13</ele>
        <time>2018-07-27T05:09:56Z</time>
      </trkpt>
      <trkpt lat="43.37445" lon="1.27762">
        <ele>193.13</ele>
        <time>2018-07-27T05:09:57Z</time>
      </trkpt>
      <trkpt lat="43.37415" lon="1.27747">
        <ele>193.13</ele>
        <time>2018-07-27T05:09:58Z</time>
      </trkpt>
      <trkpt lat="43.37385" lon="1.27731">
        <ele>193.13</ele>
        <time>2018-07-27T05:09:59Z</time>
      </trkpt>
      <trkpt lat="43.37355" lon="1.27715">
        <ele>192.43</ele>
        <time>2018-07-27T05:10:00Z</time>
      </trkpt>
      <trkpt lat="43.37325" lon="1.27698">
        <ele>192.22</ele>
        <time>2018-07-27T05:10:01Z</time>
      </trkpt>
      <trkpt lat="43.37296" lon="1.27682">
        <ele>192.16</ele>
        <time>2018-07-27T05:10:02Z</time>
      </trkpt>
      <trkpt lat="43.37266" lon="1.27664">
        <ele>192.14</ele>
        <time>2018-07-27T05:10:03Z</time>
      </trkpt>
      <trkpt lat="43.37237" lon="1.27647">
        <ele>192.14</ele>
        <time>2018-07-27T05:10:04Z</time>
      </trkpt>
      <trkpt lat="43.37207" lon="1.2763">
        <ele>192.13</ele>
        <time>2018-07-27T05:10:05Z</time>
      </trkpt>
      <trkpt lat="43.37177" lon="1.27613">
        <ele>192.13</ele>
        <time>2018-07-27T05:10:06Z</time>
      </trkpt>
      <trkpt lat="43.37147" lon="1.27598">
        <ele>192.83</ele>
        <time>2018-07-27T05:10:07Z</time>
      </trkpt>
      <trkpt lat="43.37117" lon="1.27582">
        <ele>193.04</ele>
        <time>2018-07-27T05:10:08Z</time>
      </trkpt>
      <trkpt lat="43.37087" lon="1.27567">
        <ele>193.11</ele>
        <time>2018-07-27T05:10:09Z</time>
      </trkpt>
      <trkpt lat="43.37056" lon="1.27552">
        <ele>193.12</ele>
        <time>2018-07-27T05:10:10Z</time>
      </trkpt>
      <trkpt lat="43.37026" lon="1.27536">
        <ele>193.13</ele>
        <time>2018-07-27T05:10:11Z</time>
      </trkpt>
      <trkpt lat="43.36996" lon="1.27519">
        <ele>193.13</ele>
        <time>2018-07-27T05:10:12Z</time>
      </trkpt>
      <trkpt lat="43.36966" lon="1.27503">
        <ele>193.83</ele>
        <time>2018-07-27T05:10:13Z</time>
      </trkpt>
      <trkpt lat="43.36936" lon="1.27488">
        <ele>194.04</ele>
        <time>2018-07-27T05:10:14Z</time>
      </trkpt>
      <trkpt lat="43.36906" lon="1.27473">
        <ele>194.11</ele>
        <time>2018-07-27T05:10:15Z</time>
      </trkpt>
      <trkpt lat="43.36875" lon="1.27458">
        <ele>194.12</ele>
        <time>2018-07-27T05:10:16Z</time>
      </trkpt>
      <trkpt lat="43.36845" lon="1.27443">
        <ele>194.13</ele>
        <time>2018-07-27T05:10:17Z</time>
      </trkpt>
      <trkpt lat="43.36815" lon="1.27428">
        <ele>194.13</ele>
        <time>2018-07-27T05:10:18Z</time>
      </trkpt>
      <trkpt lat="43.36784" lon="1.27412">
        <ele>194.13</ele>
        <time>2018-07-27T05:10:19Z</time>
      </trkpt>
      <trkpt lat="43.36753" lon="1.27397">
        <ele>194.83</ele>
        <time>2018-07-27T05:10:20Z</time>
      </trkpt>
      <trkpt lat="43.36723" lon="1.27382">
        <ele>195.04</ele>
        <time>2018-07-27T05:10:21Z</time>
      </trkpt>
      <trkpt lat="43.36692" lon="1.27366">
        <ele>195.81</ele>
        <time>2018-07-27T05:10:22Z</time>
      </trkpt>
      <trkpt lat="43.36661" lon="1.27351">
        <ele>196.03</ele>
        <time>2018-07-27T05:10:23Z</time>
      </trkpt>
      <trkpt lat="43.3663" lon="1.27337">
        <ele>196.1</ele>
        <time>2018-07-27T05:10:24Z</time>
      </trkpt>
      <trkpt lat="43.36599" lon="1.27323">
        <ele>196.12</ele>
        <time>2018-07-27T05:10:25Z</time>
      </trkpt>
      <trkpt lat="43.36568" lon="1.27308">
        <ele>196.13</ele>
        <time>2018-07-27T05:10:26Z</time>
      </trkpt>
      <trkpt lat="43.36537" lon="1.27293">
        <ele>196.83</ele>
        <time>2018-07-27T05:10:27Z</time>
      </trkpt>
      <trkpt lat="43.36506" lon="1.27278">
        <ele>197.04</ele>
        <time>2018-07-27T05:10:28Z</time>
      </trkpt>
      <trkpt lat="43.36475" lon="1.27265">
        <ele>197.11</ele>
        <time>2018-07-27T05:10:29Z</time>
      </trkpt>
      <trkpt lat="43.36444" lon="1.27252">
        <ele>197.12</ele>
        <time>2018-07-27T05:10:30Z</time>
      </trkpt>
      <trkpt lat="43.36413" lon="1.27238">
        <ele>197.13</ele>
        <time>2018-07-27T05:10:31Z</time>
      </trkpt>
      <trkpt lat="43.36382" lon="1.27225">
        <ele>197.13</ele>
        <time>2018-07-27T05:10:32Z</time>
      </trkpt>
      <trkpt lat="43.36351" lon="1.27212">
        <ele>197.13</ele>
        <time>2018-07-27T05:10:33Z</time>
      </trkpt>
      <trkpt lat="43.36319" lon="1.27199">
        <ele>197.13</ele>
        <time>2018-07-27T05:10:34Z</time>
      </trkpt>
      <trkpt lat="43.36288" lon="1.27186">
        <ele>197.13</ele>
        <time>2018-07-27T05:10:35Z</time>
      </trkpt>
      <trkpt lat="43.36257" lon="1.27173">
        <ele>197.83</ele>
        <time>2018-07-27T05:10:36Z</time>
      </trkpt>
      <trkpt lat="43.36225" lon="1.2716">
        <ele>198.04</ele>
        <time>2018-07-27T05:10:37Z</time>
      </trkpt>
      <trkpt lat="43.36194" lon="1.27147">
        <ele>198.11</ele>
        <time>2018-07-27T05:10:38Z</time>
      </trkpt>
      <trkpt lat="43.36163" lon="1.27134">
        <ele>198.12</ele>
        <time>2018-07-27T05:10:39Z</time>
      </trkpt>
      <trkpt lat="43.36131" lon="1.27121">
        <ele>198.13</ele>
        <time>2018-07-27T05:10:40Z</time>
      </trkpt>
      <trkpt lat="43.361" lon="1.27108">
        <ele>198.83</ele>
        <time>2018-07-27T05:10:41Z</time>
      </trkpt>
      <trkpt lat="43.36068" lon="1.27095">
        <ele>199.04</ele>
        <time>2018-07-27T05:10:42Z</time>
      </trkpt>
      <trkpt lat="43.36036" lon="1.27083">
        <ele>199.11</ele>
        <time>2018-07-27T05:10:43Z</time>
      </trkpt>
      <trkpt lat="43.36004" lon="1.27071">
        <ele>199.12</ele>
        <time>2018-07-27T05:10:44Z</time>
      </trkpt>
      <trkpt lat="43.35973" lon="1.27059">
        <ele>199.13</ele>
        <time>2018-07-27T05:10:45Z</time>
      </trkpt>
      <trkpt lat="43.35941" lon="1.27046">
        <ele>199.13</ele>
        <time>2018-07-27T05:10:46Z</time>
      </trkpt>
      <trkpt lat="43.35909" lon="1.27034">
        <ele>199.13</ele>
        <time>2018-07-27T05:10:47Z</time>
      </trkpt>
      <trkpt lat="43.35877" lon="1.27022">
        <ele>199.13</ele>
        <time>2018-07-27T05:10:48Z</time>
      </trkpt>
      <trkpt lat="43.35846" lon="1.2701">
        <ele>199.13</ele>
        <time>2018-07-27T05:10:49Z</time>
      </trkpt>
      <trkpt lat="43.35814" lon="1.26998">
        <ele>199.13</ele>
        <time>2018-07-27T05:10:50Z</time>
      </trkpt>
      <trkpt lat="43.35783" lon="1.26985">
        <ele>198.43</ele>
        <time>2018-07-27T05:10:51Z</time>
      </trkpt>
      <trkpt lat="43.3575" lon="1.26973">
        <ele>198.22</ele>
        <time>2018-07-27T05:10:52Z</time>
      </trkpt>
      <trkpt lat="43.35719" lon="1.26961">
        <ele>198.16</ele>
        <time>2018-07-27T05:10:53Z</time>
      </trkpt>
      <trkpt lat="43.35687" lon="1.26948">
        <ele>198.14</ele>
        <time>2018-07-27T05:10:54Z</time>
      </trkpt>
      <trkpt lat="43.35656" lon="1.26937">
        <ele>198.14</ele>
        <time>2018-07-27T05:10:55Z</time>
      </trkpt>
      <trkpt lat="43.35624" lon="1.26925">
        <ele>198.13</ele>
        <time>2018-07-27T05:10:56Z</time>
      </trkpt>
      <trkpt lat="43.35593" lon="1.26912">
        <ele>197.43</ele>
        <time>2018-07-27T05:10:57Z</time>
      </trkpt>
      <trkpt lat="43.35562" lon="1.269">
        <ele>197.22</ele>
        <time>2018-07-27T05:10:58Z</time>
      </trkpt>
      <trkpt lat="43.35531" lon="1.26888">
        <ele>197.16</ele>
        <time>2018-07-27T05:10:59Z</time>
      </trkpt>
      <trkpt lat="43.35499" lon="1.26875">
        <ele>197.14</ele>
        <time>2018-07-27T05:11:00Z</time>
      </trkpt>
      <trkpt lat="43.35468" lon="1.26863">
        <ele>197.14</ele>
        <time>2018-07-27T05:11:01Z</time>
      </trkpt>
      <trkpt lat="43.35438" lon="1.26851">
        <ele>197.13</ele>
        <time>2018-07-27T05:11:02Z</time>
      </trkpt>
      <trkpt lat="43.35406" lon="1.26839">
        <ele>197.13</ele>
        <time>2018-07-27T05:11:03Z</time>
      </trkpt>
      <trkpt lat="43.35375" lon="1.26827">
        <ele>197.13</ele>
        <time>2018-07-27T05:11:04Z</time>
      </trkpt>
      <trkpt lat="43.35344" lon="1.26815">
        <ele>197.13</ele>
        <time>2018-07-27T05:11:05Z</time>
      </trkpt>
      <trkpt lat="43.35313" lon="1.26803">
        <ele>197.13</ele>
        <time>2018-07-27T05:11:06Z</time>
      </trkpt>
      <trkpt lat="43.35283" lon="1.2679">
        <ele>197.13</ele>
        <time>2018-07-27T05:11:07Z</time>
      </trkpt>
      <trkpt lat="43.35252" lon="1.26778">
        <ele>197.13</ele>
        <time>2018-07-27T05:11:08Z</time>
      </trkpt>
      <trkpt lat="43.35221" lon="1.26765">
        <ele>197.13</ele>
        <time>2018-07-27T05:11:09Z</time>
      </trkpt>
      <trkpt lat="43.3519" lon="1.26751">
        <ele>197.13</ele>
        <time>2018-07-27T05:11:10Z</time>
      </trkpt>
      <trkpt lat="43.3516" lon="1.26737">
        <ele>197.83</ele>
        <time>2018-07-27T05:11:11Z</time>
      </trkpt>
      <trkpt lat="43.35129" lon="1.26723">
        <ele>198.04</ele>
        <time>2018-07-27T05:11:12Z</time>
      </trkpt>
      <trkpt lat="43.35099" lon="1.26708">
        <ele>198.11</ele>
        <time>2018-07-27T05:11:13Z</time>
      </trkpt>
      <trkpt lat="43.35069" lon="1.26691">
        <ele>198.12</ele>
        <time>2018-07-27T05:11:14Z</time>
      </trkpt>
      <trkpt lat="43.35039" lon="1.26674">
        <ele>198.13</ele>
        <time>2018-07-27T05:11:15Z</time>
      </trkpt>
      <trkpt lat="43.3501" lon="1.26655">
        <ele>198.13</ele>
        <time>2018-07-27T05:11:16Z</time>
      </trkpt>
      <trkpt lat="43.34981" lon="1.26636">
        <ele>198.13</ele>
        <time>2018-07-27T05:11:17Z</time>
      </trkpt>
      <trkpt lat="43.34951" lon="1.26615">
        <ele>198.13</ele>
        <time>2018-07-27T05:11:18Z</time>
      </trkpt>
      <trkpt lat="43.34923" lon="1.26594">
        <ele>198.13</ele>
        <time>2018-07-27T05:11:19Z</time>
      </trkpt>
      <trkpt lat="43.34895" lon="1.26572">
        <ele>198.13</ele>
        <time>2018-07-27T05:11:20Z</time>
      </trkpt>
      <trkpt lat="43.34868" lon="1.26549">
        <ele>198.13</ele>
        <time>2018-07-27T05:11:21Z</time>
      </trkpt>
      <trkpt lat="43.3484" lon="1.26525">
        <ele>198.13</ele>
        <time>2018-07-27T05:11:22Z</time>
      </trkpt>
      <trkpt lat="43.34814" lon="1.265">
        <ele>198.13</ele>
        <time>2018-07-27T05:11:23Z</time>
      </trkpt>
      <trkpt lat="43.34787" lon="1.26474">
        <ele>198.13</ele>
        <time>2018-07-27T05:11:24Z</time>
      </trkpt>
      <trkpt lat="43.34762" lon="1.26447">
        <ele>198.13</ele>
        <time>2018-07-27T05:11:25Z</time>
      </trkpt>
      <trkpt lat="43.34737" lon="1.26419">
        <ele>198.13</ele>
        <time>2018-07-27T05:11:26Z</time>
      </trkpt>
      <trkpt lat="43.34711" lon="1.26391">
        <ele>198.83</ele>
        <time>2018-07-27T05:11:27Z</time>
      </trkpt>
      <trkpt lat="43.34687" lon="1.26361">
        <ele>199.04</ele>
        <time>2018-07-27T05:11:28Z</time>
      </trkpt>
      <trkpt lat="43.34662" lon="1.2633">
        <ele>199.11</ele>
        <time>2018-07-27T05:11:29Z</time>
      </trkpt>
      <trkpt lat="43.34638" lon="1.26299">
        <ele>199.12</ele>
        <time>2018-07-27T05:11:30Z</time>
      </trkpt>
      <trkpt lat="43.34615" lon="1.26267">
        <ele>199.13</ele>
        <time>2018-07-27T05:11:31Z</time>
      </trkpt>
      <trkpt lat="43.34593" lon="1.26234">
        <ele>199.13</ele>
        <time>2018-07-27T05:11:32Z</time>
      </trkpt>
      <trkpt lat="43.34571" lon="1.26202">
        <ele>198.43</ele>
        <time>2018-07-27T05:11:33Z</time>
      </trkpt>
      <trkpt lat="43.3455" lon="1.26169">
        <ele>198.22</ele>
        <time>2018-07-27T05:11:34Z</time>
      </trkpt>
      <trkpt lat="43.3453" lon="1.26136">
        <ele>198.16</ele>
        <time>2018-07-27T05:11:35Z</time>
      </trkpt>
      <trkpt lat="43.34509" lon="1.26102">
        <ele>198.14</ele>
        <time>2018-07-27T05:11:36Z</time>
      </trkpt>
      <trkpt lat="43.34489" lon="1.26068">
        <ele>198.84</ele>
        <time>2018-07-27T05:11:37Z</time>
      </trkpt>
      <trkpt lat="43.3447" lon="1.26035">
        <ele>199.04</ele>
        <time>2018-07-27T05:11:38Z</time>
      </trkpt>
      <trkpt lat="43.3445" lon="1.26001">
        <ele>199.11</ele>
        <time>2018-07-27T05:11:39Z</time>
      </trkpt>
      <trkpt lat="43.34431" lon="1.25968">
        <ele>199.12</ele>
        <time>2018-07-27T05:11:40Z</time>
      </trkpt>
      <trkpt lat="43.34412" lon="1.25935">
        <ele>199.13</ele>
        <time>2018-07-27T05:11:41Z</time>
      </trkpt>
      <trkpt lat="43.34393" lon="1.25902">
        <ele>199.13</ele>
        <time>2018-07-27T05:11:42Z</time>
      </trkpt>
      <trkpt lat="43.34374" lon="1.25869">
        <ele>198.43</ele>
        <time>2018-07-27T05:11:43Z</time>
      </trkpt>
      <trkpt lat="43.34355" lon="1.25834">
        <ele>198.92</ele>
        <time>2018-07-27T05:11:44Z</time>
      </trkpt>
      <trkpt lat="43.34336" lon="1.25799">
        <ele>199.07</ele>
        <time>2018-07-27T05:11:45Z</time>
      </trkpt>
      <trkpt lat="43.34315" lon="1.25763">
        <ele>198.41</ele>
        <time>2018-07-27T05:11:46Z</time>
      </trkpt>
      <trkpt lat="43.34292" lon="1.25727">
        <ele>198.92</ele>
        <time>2018-07-27T05:11:47Z</time>
      </trkpt>
      <trkpt lat="43.3427" lon="1.25691">
        <ele>199.07</ele>
        <time>2018-07-27T05:11:48Z</time>
      </trkpt>
      <trkpt lat="43.34249" lon="1.25654">
        <ele>199.11</ele>
        <time>2018-07-27T05:11:49Z</time>
      </trkpt>
      <trkpt lat="43.34227" lon="1.25617">
        <ele>199.13</ele>
        <time>2018-07-27T05:11:50Z</time>
      </trkpt>
      <trkpt lat="43.34205" lon="1.25581">
        <ele>199.13</ele>
        <time>2018-07-27T05:11:51Z</time>
      </trkpt>
      <trkpt lat="43.34184" lon="1.25545">
        <ele>199.13</ele>
        <time>2018-07-27T05:11:52Z</time>
      </trkpt>
      <trkpt lat="43.34163" lon="1.25508">
        <ele>199.13</ele>
        <time>2018-07-27T05:11:53Z</time>
      </trkpt>
      <trkpt lat="43.34143" lon="1.25471">
        <ele>199.13</ele>
        <time>2018-07-27T05:11:54Z</time>
      </trkpt>
      <trkpt lat="43.3412" lon="1.25434">
        <ele>199.13</ele>
        <time>2018-07-27T05:11:55Z</time>
      </trkpt>
      <trkpt lat="43.34098" lon="1.25397">
        <ele>198.43</ele>
        <time>2018-07-27T05:11:56Z</time>
      </trkpt>
      <trkpt lat="43.34077" lon="1.2536">
        <ele>198.92</ele>
        <time>2018-07-27T05:11:57Z</time>
      </trkpt>
      <trkpt lat="43.34056" lon="1.25323">
        <ele>199.07</ele>
        <time>2018-07-27T05:11:58Z</time>
      </trkpt>
      <trkpt lat="43.34034" lon="1.25286">
        <ele>199.11</ele>
        <time>2018-07-27T05:11:59Z</time>
      </trkpt>
      <trkpt lat="43.34013" lon="1.25249">
        <ele>199.13</ele>
        <time>2018-07-27T05:12:00Z</time>
      </trkpt>
      <trkpt lat="43.33991" lon="1.25212">
        <ele>199.13</ele>
        <time>2018-07-27T05:12:01Z</time>
      </trkpt>
      <trkpt lat="43.3397" lon="1.25176">
        <ele>199.83</ele>
        <time>2018-07-27T05:12:02Z</time>
      </trkpt>
      <trkpt lat="43.3395" lon="1.2514">
        <ele>200.04</ele>
        <time>2018-07-27T05:12:03Z</time>
      </trkpt>
      <trkpt lat="43.33929" lon="1.25105">
        <ele>200.11</ele>
        <time>2018-07-27T05:12:04Z</time>
      </trkpt>
      <trkpt lat="43.33909" lon="1.2507">
        <ele>200.12</ele>
        <time>2018-07-27T05:12:05Z</time>
      </trkpt>
      <trkpt lat="43.3389" lon="1.25035">
        <ele>200.13</ele>
        <time>2018-07-27T05:12:06Z</time>
      </trkpt>
      <trkpt lat="43.3387" lon="1.25">
        <ele>200.83</ele>
        <time>2018-07-27T05:12:07Z</time>
      </trkpt>
      <trkpt lat="43.3385" lon="1.24966">
        <ele>201.96</ele>
        <time>2018-07-27T05:12:08Z</time>
      </trkpt>
      <trkpt lat="43.33831" lon="1.24932">
        <ele>202.3</ele>
        <time>2018-07-27T05:12:09Z</time>
      </trkpt>
      <trkpt lat="43.33812" lon="1.24898">
        <ele>202.4</ele>
        <time>2018-07-27T05:12:10Z</time>
      </trkpt>
      <trkpt lat="43.33793" lon="1.24866">
        <ele>202.43</ele>
        <time>2018-07-27T05:12:11Z</time>
      </trkpt>
      <trkpt lat="43.33774" lon="1.24834">
        <ele>202.44</ele>
        <time>2018-07-27T05:12:12Z</time>
      </trkpt>
      <trkpt lat="43.33755" lon="1.24802">
        <ele>202.45</ele>
        <time>2018-07-27T05:12:13Z</time>
      </trkpt>
      <trkpt lat="43.33736" lon="1.24771">
        <ele>202.45</ele>
        <time>2018-07-27T05:12:14Z</time>
      </trkpt>
      <trkpt lat="43.33718" lon="1.24739">
        <ele>202.45</ele>
        <time>2018-07-27T05:12:15Z</time>
      </trkpt>
      <trkpt lat="43.337" lon="1.24708">
        <ele>202.45</ele>
        <time>2018-07-27T05:12:16Z</time>
      </trkpt>
      <trkpt lat="43.33681" lon="1.24676">
        <ele>202.45</ele>
        <time>2018-07-27T05:12:17Z</time>
      </trkpt>
      <trkpt lat="43.33663" lon="1.24645">
        <ele>202.45</ele>
        <time>2018-07-27T05:12:18Z</time>
      </trkpt>
      <trkpt lat="43.33645" lon="1.24614">
        <ele>202.45</ele>
        <time>2018-07-27T05:12:19Z</time>
      </trkpt>
      <trkpt lat="43.33627" lon="1.24583">
        <ele>202.45</ele>
        <time>2018-07-27T05:12:20Z</time>
      </trkpt>
      <trkpt lat="43.33609" lon="1.24552">
        <ele>202.45</ele>
        <time>2018-07-27T05:12:21Z</time>
      </trkpt>
      <trkpt lat="43.3359" lon="1.2452">
        <ele>202.45</ele>
        <time>2018-07-27T05:12:22Z</time>
      </trkpt>
      <trkpt lat="43.33571" lon="1.24487">
        <ele>202.45</ele>
        <time>2018-07-27T05:12:23Z</time>
      </trkpt>
      <trkpt lat="43.33553" lon="1.24455">
        <ele>203.15</ele>
        <time>2018-07-27T05:12:24Z</time>
      </trkpt>
      <trkpt lat="43.33534" lon="1.24422">
        <ele>203.36</ele>
        <time>2018-07-27T05:12:25Z</time>
      </trkpt>
      <trkpt lat="43.33515" lon="1.24389">
        <ele>203.42</ele>
        <time>2018-07-27T05:12:26Z</time>
      </trkpt>
      <trkpt lat="43.33496" lon="1.24356">
        <ele>203.44</ele>
        <time>2018-07-27T05:12:27Z</time>
      </trkpt>
      <trkpt lat="43.33478" lon="1.24322">
        <ele>203.45</ele>
        <time>2018-07-27T05:12:28Z</time>
      </trkpt>
      <trkpt lat="43.3346" lon="1.24289">
        <ele>204.15</ele>
        <time>2018-07-27T05:12:29Z</time>
      </trkpt>
      <trkpt lat="43.33442" lon="1.24255">
        <ele>204.36</ele>
        <time>2018-07-27T05:12:30Z</time>
      </trkpt>
      <trkpt lat="43.33423" lon="1.24221">
        <ele>204.42</ele>
        <time>2018-07-27T05:12:31Z</time>
      </trkpt>
      <trkpt lat="43.33405" lon="1.24188">
        <ele>205.14</ele>
        <time>2018-07-27T05:12:32Z</time>
      </trkpt>
      <trkpt lat="43.33387" lon="1.24155">
        <ele>205.36</ele>
        <time>2018-07-27T05:12:33Z</time>
      </trkpt>
      <trkpt lat="43.33368" lon="1.24121">
        <ele>205.42</ele>
        <time>2018-07-27T05:12:34Z</time>
      </trkpt>
      <trkpt lat="43.33349" lon="1.24087">
        <ele>206.14</ele>
        <time>2018-07-27T05:12:35Z</time>
      </trkpt>
      <trkpt lat="43.3333" lon="1.24052">
        <ele>207.06</ele>
        <time>2018-07-27T05:12:36Z</time>
      </trkpt>
      <trkpt lat="43.33311" lon="1.24018">
        <ele>208.03</ele>
        <time>2018-07-27T05:12:37Z</time>
      </trkpt>
      <trkpt lat="43.33291" lon="1.23984">
        <ele>209.02</ele>
        <time>2018-07-27T05:12:38Z</time>
      </trkpt>
      <trkpt lat="43.33271" lon="1.2395">
        <ele>209.32</ele>
        <time>2018-07-27T05:12:39Z</time>
      </trkpt>
      <trkpt lat="43.33251" lon="1.23915">
        <ele>210.81</ele>
        <time>2018-07-27T05:12:40Z</time>
      </trkpt>
      <trkpt lat="43.33232" lon="1.23883">
        <ele>211.96</ele>
        <time>2018-07-27T05:12:41Z</time>
      </trkpt>
      <trkpt lat="43.33212" lon="1.2385">
        <ele>212.3</ele>
        <time>2018-07-27T05:12:42Z</time>
      </trkpt>
      <trkpt lat="43.33194" lon="1.23818">
        <ele>212.4</ele>
        <time>2018-07-27T05:12:43Z</time>
      </trkpt>
      <trkpt lat="43.33174" lon="1.23785">
        <ele>212.43</ele>
        <time>2018-07-27T05:12:44Z</time>
      </trkpt>
      <trkpt lat="43.33155" lon="1.23753">
        <ele>212.44</ele>
        <time>2018-07-27T05:12:45Z</time>
      </trkpt>
      <trkpt lat="43.33136" lon="1.2372">
        <ele>212.45</ele>
        <time>2018-07-27T05:12:46Z</time>
      </trkpt>
      <trkpt lat="43.33118" lon="1.23688">
        <ele>211.75</ele>
        <time>2018-07-27T05:12:47Z</time>
      </trkpt>
      <trkpt lat="43.33099" lon="1.23655">
        <ele>211.54</ele>
        <time>2018-07-27T05:12:48Z</time>
      </trkpt>
      <trkpt lat="43.3308" lon="1.23621">
        <ele>210.77</ele>
        <time>2018-07-27T05:12:49Z</time>
      </trkpt>
      <trkpt lat="43.33061" lon="1.23588">
        <ele>209.85</ele>
        <time>2018-07-27T05:12:50Z</time>
      </trkpt>
      <trkpt lat="43.33042" lon="1.23556">
        <ele>208.87</ele>
        <time>2018-07-27T05:12:51Z</time>
      </trkpt>
      <trkpt lat="43.33023" lon="1.23524">
        <ele>207.87</ele>
        <time>2018-07-27T05:12:52Z</time>
      </trkpt>
      <trkpt lat="43.33003" lon="1.23491">
        <ele>207.58</ele>
        <time>2018-07-27T05:12:53Z</time>
      </trkpt>
      <trkpt lat="43.32984" lon="1.23458">
        <ele>207.49</ele>
        <time>2018-07-27T05:12:54Z</time>
      </trkpt>
      <trkpt lat="43.32964" lon="1.23425">
        <ele>207.46</ele>
        <time>2018-07-27T05:12:55Z</time>
      </trkpt>
      <trkpt lat="43.32945" lon="1.23393">
        <ele>207.45</ele>
        <time>2018-07-27T05:12:56Z</time>
      </trkpt>
      <trkpt lat="43.32926" lon="1.2336">
        <ele>207.45</ele>
        <time>2018-07-27T05:12:57Z</time>
      </trkpt>
      <trkpt lat="43.32908" lon="1.23327">
        <ele>207.45</ele>
        <time>2018-07-27T05:12:58Z</time>
      </trkpt>
      <trkpt lat="43.32889" lon="1.23294">
        <ele>207.45</ele>
        <time>2018-07-27T05:12:59Z</time>
      </trkpt>
      <trkpt lat="43.32871" lon="1.2326">
        <ele>208.15</ele>
        <time>2018-07-27T05:13:00Z</time>
      </trkpt>
      <trkpt lat="43.32851" lon="1.23225">
        <ele>208.36</ele>
        <time>2018-07-27T05:13:01Z</time>
      </trkpt>
      <trkpt lat="43.32831" lon="1.23189">
        <ele>208.42</ele>
        <time>2018-07-27T05:13:02Z</time>
      </trkpt>
      <trkpt lat="43.32811" lon="1.23153">
        <ele>208.44</ele>
        <time>2018-07-27T05:13:03Z</time>
      </trkpt>
      <trkpt lat="43.3279" lon="1.23117">
        <ele>208.45</ele>
        <time>2018-07-27T05:13:04Z</time>
      </trkpt>
      <trkpt lat="43.32768" lon="1.23081">
        <ele>208.45</ele>
        <time>2018-07-27T05:13:05Z</time>
      </trkpt>
      <trkpt lat="43.32747" lon="1.23045">
        <ele>208.45</ele>
        <time>2018-07-27T05:13:06Z</time>
      </trkpt>
      <trkpt lat="43.32726" lon="1.23008">
        <ele>208.45</ele>
        <time>2018-07-27T05:13:07Z</time>
      </trkpt>
      <trkpt lat="43.32704" lon="1.22973">
        <ele>208.45</ele>
        <time>2018-07-27T05:13:08Z</time>
      </trkpt>
      <trkpt lat="43.32682" lon="1.22938">
        <ele>208.45</ele>
        <time>2018-07-27T05:13:09Z</time>
      </trkpt>
      <trkpt lat="43.32661" lon="1.22903">
        <ele>208.45</ele>
        <time>2018-07-27T05:13:10Z</time>
      </trkpt>
      <trkpt lat="43.3264" lon="1.22867">
        <ele>208.45</ele>
        <time>2018-07-27T05:13:11Z</time>
      </trkpt>
      <trkpt lat="43.32619" lon="1.22832">
        <ele>208.45</ele>
        <time>2018-07-27T05:13:12Z</time>
      </trkpt>
      <trkpt lat="43.32598" lon="1.22796">
        <ele>208.45</ele>
        <time>2018-07-27T05:13:13Z</time>
      </trkpt>
      <trkpt lat="43.32578" lon="1.22761">
        <ele>208.45</ele>
        <time>2018-07-27T05:13:14Z</time>
      </trkpt>
      <trkpt lat="43.32557" lon="1.22726">
        <ele>208.45</ele>
        <time>2018-07-27T05:13:15Z</time>
      </trkpt>
      <trkpt lat="43.32537" lon="1.2269">
        <ele>208.45</ele>
        <time>2018-07-27T05:13:16Z</time>
      </trkpt>
      <trkpt lat="43.32516" lon="1.22654">
        <ele>208.45</ele>
        <time>2018-07-27T05:13:17Z</time>
      </trkpt>
      <trkpt lat="43.32495" lon="1.22618">
        <ele>208.45</ele>
        <time>2018-07-27T05:13:18Z</time>
      </trkpt>
      <trkpt lat="43.32475" lon="1.22581">
        <ele>208.45</ele>
        <time>2018-07-27T05:13:19Z</time>
      </trkpt>
      <trkpt lat="43.32455" lon="1.22545">
        <ele>208.45</ele>
        <time>2018-07-27T05:13:20Z</time>
      </trkpt>
      <trkpt lat="43.32434" lon="1.22508">
        <ele>209.15</ele>
        <time>2018-07-27T05:13:21Z</time>
      </trkpt>
      <trkpt lat="43.32414" lon="1.22472">
        <ele>208.66</ele>
        <time>2018-07-27T05:13:22Z</time>
      </trkpt>
      <trkpt lat="43.32394" lon="1.22436">
        <ele>209.21</ele>
        <time>2018-07-27T05:13:23Z</time>
      </trkpt>
      <trkpt lat="43.32373" lon="1.224">
        <ele>209.38</ele>
        <time>2018-07-27T05:13:24Z</time>
      </trkpt>
      <trkpt lat="43.32353" lon="1.22365">
        <ele>209.43</ele>
        <time>2018-07-27T05:13:25Z</time>
      </trkpt>
      <trkpt lat="43.32332" lon="1.22329">
        <ele>209.44</ele>
        <time>2018-07-27T05:13:26Z</time>
      </trkpt>
      <trkpt lat="43.32311" lon="1.22294">
        <ele>209.45</ele>
        <time>2018-07-27T05:13:27Z</time>
      </trkpt>
      <trkpt lat="43.3229" lon="1.22258">
        <ele>208.75</ele>
        <time>2018-07-27T05:13:28Z</time>
      </trkpt>
      <trkpt lat="43.3227" lon="1.22223">
        <ele>209.24</ele>
        <time>2018-07-27T05:13:29Z</time>
      </trkpt>
      <trkpt lat="43.32249" lon="1.22188">
        <ele>209.38</ele>
        <time>2018-07-27T05:13:30Z</time>
      </trkpt>
      <trkpt lat="43.32229" lon="1.22152">
        <ele>209.43</ele>
        <time>2018-07-27T05:13:31Z</time>
      </trkpt>
      <trkpt lat="43.32209" lon="1.22117">
        <ele>209.44</ele>
        <time>2018-07-27T05:13:32Z</time>
      </trkpt>
      <trkpt lat="43.32189" lon="1.22082">
        <ele>209.45</ele>
        <time>2018-07-27T05:13:33Z</time>
      </trkpt>
      <trkpt lat="43.32169" lon="1.22046">
        <ele>209.45</ele>
        <time>2018-07-27T05:13:34Z</time>
      </trkpt>
      <trkpt lat="43.32149" lon="1.22011">
        <ele>209.45</ele>
        <time>2018-07-27T05:13:35Z</time>
      </trkpt>
      <trkpt lat="43.32129" lon="1.21976">
        <ele>209.45</ele>
        <time>2018-07-27T05:13:36Z</time>
      </trkpt>
      <trkpt lat="43.32109" lon="1.21941">
        <ele>210.15</ele>
        <time>2018-07-27T05:13:37Z</time>
      </trkpt>
      <trkpt lat="43.32089" lon="1.21907">
        <ele>210.36</ele>
        <time>2018-07-27T05:13:38Z</time>
      </trkpt>
      <trkpt lat="43.32068" lon="1.21873">
        <ele>211.12</ele>
        <time>2018-07-27T05:13:39Z</time>
      </trkpt>
      <trkpt lat="43.32049" lon="1.21839">
        <ele>211.35</ele>
        <time>2018-07-27T05:13:40Z</time>
      </trkpt>
      <trkpt lat="43.32029" lon="1.21805">
        <ele>211.42</ele>
        <time>2018-07-27T05:13:41Z</time>
      </trkpt>
      <trkpt lat="43.32009" lon="1.21771">
        <ele>211.44</ele>
        <time>2018-07-27T05:13:42Z</time>
      </trkpt>
      <trkpt lat="43.31989" lon="1.21737">
        <ele>210.75</ele>
        <time>2018-07-27T05:13:43Z</time>
      </trkpt>
      <trkpt lat="43.3197" lon="1.21703">
        <ele>210.54</ele>
        <time>2018-07-27T05:13:44Z</time>
      </trkpt>
      <trkpt lat="43.3195" lon="1.21669">
        <ele>210.47</ele>
        <time>2018-07-27T05:13:45Z</time>
      </trkpt>
      <trkpt lat="43.31931" lon="1.21634">
        <ele>209.76</ele>
        <time>2018-07-27T05:13:46Z</time>
      </trkpt>
      <trkpt lat="43.31911" lon="1.216">
        <ele>210.24</ele>
        <time>2018-07-27T05:13:47Z</time>
      </trkpt>
      <trkpt lat="43.31892" lon="1.21566">
        <ele>211.09</ele>
        <time>2018-07-27T05:13:48Z</time>
      </trkpt>
      <trkpt lat="43.31871" lon="1.21531">
        <ele>211.34</ele>
        <time>2018-07-27T05:13:49Z</time>
      </trkpt>
      <trkpt lat="43.31852" lon="1.21497">
        <ele>211.42</ele>
        <time>2018-07-27T05:13:50Z</time>
      </trkpt>
      <trkpt lat="43.31831" lon="1.21462">
        <ele>211.44</ele>
        <time>2018-07-27T05:13:51Z</time>
      </trkpt>
      <trkpt lat="43.31812" lon="1.21427">
        <ele>212.15</ele>
        <time>2018-07-27T05:13:52Z</time>
      </trkpt>
      <trkpt lat="43.31792" lon="1.21392">
        <ele>212.36</ele>
        <time>2018-07-27T05:13:53Z</time>
      </trkpt>
      <trkpt lat="43.31772" lon="1.21357">
        <ele>212.42</ele>
        <time>2018-07-27T05:13:54Z</time>
      </trkpt>
      <trkpt lat="43.31751" lon="1.21322">
        <ele>212.44</ele>
        <time>2018-07-27T05:13:55Z</time>
      </trkpt>
      <trkpt lat="43.3173" lon="1.21286">
        <ele>213.15</ele>
        <time>2018-07-27T05:13:56Z</time>
      </trkpt>
      <trkpt lat="43.31709" lon="1.21251">
        <ele>212.66</ele>
        <time>2018-07-27T05:13:57Z</time>
      </trkpt>
      <trkpt lat="43.31689" lon="1.21215">
        <ele>212.51</ele>
        <time>2018-07-27T05:13:58Z</time>
      </trkpt>
      <trkpt lat="43.31668" lon="1.2118">
        <ele>212.47</ele>
        <time>2018-07-27T05:13:59Z</time>
      </trkpt>
      <trkpt lat="43.31647" lon="1.21144">
        <ele>212.45</ele>
        <time>2018-07-27T05:14:00Z</time>
      </trkpt>
      <trkpt lat="43.31627" lon="1.21108">
        <ele>212.45</ele>
        <time>2018-07-27T05:14:01Z</time>
      </trkpt>
      <trkpt lat="43.31606" lon="1.21072">
        <ele>212.45</ele>
        <time>2018-07-27T05:14:02Z</time>
      </trkpt>
      <trkpt lat="43.31585" lon="1.21037">
        <ele>212.45</ele>
        <time>2018-07-27T05:14:03Z</time>
      </trkpt>
      <trkpt lat="43.31565" lon="1.21002">
        <ele>212.45</ele>
        <time>2018-07-27T05:14:04Z</time>
      </trkpt>
      <trkpt lat="43.31545" lon="1.20967">
        <ele>213.15</ele>
        <time>2018-07-27T05:14:05Z</time>
      </trkpt>
      <trkpt lat="43.31524" lon="1.20933">
        <ele>213.36</ele>
        <time>2018-07-27T05:14:06Z</time>
      </trkpt>
      <trkpt lat="43.31504" lon="1.20898">
        <ele>213.42</ele>
        <time>2018-07-27T05:14:07Z</time>
      </trkpt>
      <trkpt lat="43.31484" lon="1.20863">
        <ele>213.44</ele>
        <time>2018-07-27T05:14:08Z</time>
      </trkpt>
      <trkpt lat="43.31463" lon="1.20828">
        <ele>213.45</ele>
        <time>2018-07-27T05:14:09Z</time>
      </trkpt>
      <trkpt lat="43.31443" lon="1.20793">
        <ele>213.45</ele>
        <time>2018-07-27T05:14:10Z</time>
      </trkpt>
      <trkpt lat="43.31422" lon="1.20758">
        <ele>214.15</ele>
        <time>2018-07-27T05:14:11Z</time>
      </trkpt>
      <trkpt lat="43.31402" lon="1.20723">
        <ele>214.36</ele>
        <time>2018-07-27T05:14:12Z</time>
      </trkpt>
      <trkpt lat="43.31381" lon="1.20688">
        <ele>214.42</ele>
        <time>2018-07-27T05:14:13Z</time>
      </trkpt>
      <trkpt lat="43.31361" lon="1.20652">
        <ele>214.44</ele>
        <time>2018-07-27T05:14:14Z</time>
      </trkpt>
      <trkpt lat="43.3134" lon="1.20617">
        <ele>214.45</ele>
        <time>2018-07-27T05:14:15Z</time>
      </trkpt>
      <trkpt lat="43.31319" lon="1.20583">
        <ele>214.45</ele>
        <time>2018-07-27T05:14:16Z</time>
      </trkpt>
      <trkpt lat="43.31299" lon="1.20548">
        <ele>214.45</ele>
        <time>2018-07-27T05:14:17Z</time>
      </trkpt>
      <trkpt lat="43.31278" lon="1.20512">
        <ele>214.45</ele>
        <time>2018-07-27T05:14:18Z</time>
      </trkpt>
      <trkpt lat="43.31258" lon="1.20478">
        <ele>214.45</ele>
        <time>2018-07-27T05:14:19Z</time>
      </trkpt>
      <trkpt lat="43.31238" lon="1.20442">
        <ele>214.45</ele>
        <time>2018-07-27T05:14:20Z</time>
      </trkpt>
      <trkpt lat="43.31217" lon="1.20407">
        <ele>214.45</ele>
        <time>2018-07-27T05:14:21Z</time>
      </trkpt>
      <trkpt lat="43.31197" lon="1.20371">
        <ele>214.45</ele>
        <time>2018-07-27T05:14:22Z</time>
      </trkpt>
      <trkpt lat="43.31177" lon="1.20337">
        <ele>214.45</ele>
        <time>2018-07-27T05:14:23Z</time>
      </trkpt>
      <trkpt lat="43.31156" lon="1.20302">
        <ele>214.45</ele>
        <time>2018-07-27T05:14:24Z</time>
      </trkpt>
      <trkpt lat="43.31136" lon="1.20266">
        <ele>214.45</ele>
        <time>2018-07-27T05:14:25Z</time>
      </trkpt>
      <trkpt lat="43.31116" lon="1.20231">
        <ele>214.45</ele>
        <time>2018-07-27T05:14:26Z</time>
      </trkpt>
      <trkpt lat="43.31096" lon="1.20196">
        <ele>214.45</ele>
        <time>2018-07-27T05:14:27Z</time>
      </trkpt>
      <trkpt lat="43.31075" lon="1.20161">
        <ele>214.45</ele>
        <time>2018-07-27T05:14:28Z</time>
      </trkpt>
      <trkpt lat="43.31055" lon="1.20125">
        <ele>214.45</ele>
        <time>2018-07-27T05:14:29Z</time>
      </trkpt>
      <trkpt lat="43.31034" lon="1.2009">
        <ele>214.45</ele>
        <time>2018-07-27T05:14:30Z</time>
      </trkpt>
      <trkpt lat="43.31013" lon="1.20055">
        <ele>214.45</ele>
        <time>2018-07-27T05:14:31Z</time>
      </trkpt>
      <trkpt lat="43.30993" lon="1.20019">
        <ele>214.45</ele>
        <time>2018-07-27T05:14:32Z</time>
      </trkpt>
      <trkpt lat="43.30972" lon="1.19984">
        <ele>214.45</ele>
        <time>2018-07-27T05:14:33Z</time>
      </trkpt>
      <trkpt lat="43.30952" lon="1.1995">
        <ele>214.45</ele>
        <time>2018-07-27T05:14:34Z</time>
      </trkpt>
      <trkpt lat="43.30931" lon="1.19915">
        <ele>214.45</ele>
        <time>2018-07-27T05:14:35Z</time>
      </trkpt>
      <trkpt lat="43.30911" lon="1.1988">
        <ele>215.15</ele>
        <time>2018-07-27T05:14:36Z</time>
      </trkpt>
      <trkpt lat="43.3089" lon="1.19844">
        <ele>215.36</ele>
        <time>2018-07-27T05:14:37Z</time>
      </trkpt>
      <trkpt lat="43.3087" lon="1.19809">
        <ele>216.12</ele>
        <time>2018-07-27T05:14:38Z</time>
      </trkpt>
      <trkpt lat="43.3085" lon="1.19773">
        <ele>216.35</ele>
        <time>2018-07-27T05:14:39Z</time>
      </trkpt>
      <trkpt lat="43.3083" lon="1.19738">
        <ele>216.42</ele>
        <time>2018-07-27T05:14:40Z</time>
      </trkpt>
      <trkpt lat="43.30809" lon="1.19703">
        <ele>216.44</ele>
        <time>2018-07-27T05:14:41Z</time>
      </trkpt>
      <trkpt lat="43.30789" lon="1.19668">
        <ele>216.45</ele>
        <time>2018-07-27T05:14:42Z</time>
      </trkpt>
      <trkpt lat="43.30768" lon="1.19633">
        <ele>216.45</ele>
        <time>2018-07-27T05:14:43Z</time>
      </trkpt>
      <trkpt lat="43.30747" lon="1.19598">
        <ele>216.45</ele>
        <time>2018-07-27T05:14:44Z</time>
      </trkpt>
      <trkpt lat="43.30727" lon="1.19562">
        <ele>216.45</ele>
        <time>2018-07-27T05:14:45Z</time>
      </trkpt>
      <trkpt lat="43.30706" lon="1.19526">
        <ele>216.45</ele>
        <time>2018-07-27T05:14:46Z</time>
      </trkpt>
      <trkpt lat="43.30685" lon="1.19491">
        <ele>216.45</ele>
        <time>2018-07-27T05:14:47Z</time>
      </trkpt>
      <trkpt lat="43.30665" lon="1.19456">
        <ele>216.45</ele>
        <time>2018-07-27T05:14:48Z</time>
      </trkpt>
      <trkpt lat="43.30644" lon="1.1942">
        <ele>216.45</ele>
        <time>2018-07-27T05:14:49Z</time>
      </trkpt>
      <trkpt lat="43.30623" lon="1.19385">
        <ele>216.45</ele>
        <time>2018-07-27T05:14:50Z</time>
      </trkpt>
      <trkpt lat="43.30603" lon="1.1935">
        <ele>216.45</ele>
        <time>2018-07-27T05:14:51Z</time>
      </trkpt>
      <trkpt lat="43.30582" lon="1.19313">
        <ele>217.15</ele>
        <time>2018-07-27T05:14:52Z</time>
      </trkpt>
      <trkpt lat="43.30561" lon="1.19278">
        <ele>216.66</ele>
        <time>2018-07-27T05:14:53Z</time>
      </trkpt>
      <trkpt lat="43.3054" lon="1.19242">
        <ele>216.51</ele>
        <time>2018-07-27T05:14:54Z</time>
      </trkpt>
      <trkpt lat="43.3052" lon="1.19206">
        <ele>216.47</ele>
        <time>2018-07-27T05:14:55Z</time>
      </trkpt>
      <trkpt lat="43.30498" lon="1.1917">
        <ele>217.15</ele>
        <time>2018-07-27T05:14:56Z</time>
      </trkpt>
      <trkpt lat="43.30477" lon="1.19134">
        <ele>217.36</ele>
        <time>2018-07-27T05:14:57Z</time>
      </trkpt>
      <trkpt lat="43.30456" lon="1.19098">
        <ele>217.42</ele>
        <time>2018-07-27T05:14:58Z</time>
      </trkpt>
      <trkpt lat="43.30436" lon="1.19062">
        <ele>217.44</ele>
        <time>2018-07-27T05:14:59Z</time>
      </trkpt>
      <trkpt lat="43.30415" lon="1.19027">
        <ele>217.45</ele>
        <time>2018-07-27T05:15:00Z</time>
      </trkpt>
      <trkpt lat="43.30394" lon="1.1899">
        <ele>218.15</ele>
        <time>2018-07-27T05:15:01Z</time>
      </trkpt>
      <trkpt lat="43.30373" lon="1.18955">
        <ele>218.36</ele>
        <time>2018-07-27T05:15:02Z</time>
      </trkpt>
      <trkpt lat="43.30352" lon="1.18919">
        <ele>219.12</ele>
        <time>2018-07-27T05:15:03Z</time>
      </trkpt>
      <trkpt lat="43.30331" lon="1.18884">
        <ele>218.65</ele>
        <time>2018-07-27T05:15:04Z</time>
      </trkpt>
      <trkpt lat="43.30309" lon="1.18848">
        <ele>218.51</ele>
        <time>2018-07-27T05:15:05Z</time>
      </trkpt>
      <trkpt lat="43.30288" lon="1.18812">
        <ele>219.17</ele>
        <time>2018-07-27T05:15:06Z</time>
      </trkpt>
      <trkpt lat="43.30268" lon="1.18776">
        <ele>219.36</ele>
        <time>2018-07-27T05:15:07Z</time>
      </trkpt>
      <trkpt lat="43.30247" lon="1.1874">
        <ele>219.42</ele>
        <time>2018-07-27T05:15:08Z</time>
      </trkpt>
      <trkpt lat="43.30227" lon="1.18705">
        <ele>219.44</ele>
        <time>2018-07-27T05:15:09Z</time>
      </trkpt>
      <trkpt lat="43.30208" lon="1.18669">
        <ele>219.45</ele>
        <time>2018-07-27T05:15:10Z</time>
      </trkpt>
      <trkpt lat="43.30188" lon="1.18633">
        <ele>219.45</ele>
        <time>2018-07-27T05:15:11Z</time>
      </trkpt>
      <trkpt lat="43.30167" lon="1.18598">
        <ele>218.75</ele>
        <time>2018-07-27T05:15:12Z</time>
      </trkpt>
      <trkpt lat="43.30147" lon="1.18563">
        <ele>219.24</ele>
        <time>2018-07-27T05:15:13Z</time>
      </trkpt>
      <trkpt lat="43.30126" lon="1.18528">
        <ele>219.38</ele>
        <time>2018-07-27T05:15:14Z</time>
      </trkpt>
      <trkpt lat="43.30105" lon="1.18493">
        <ele>219.43</ele>
        <time>2018-07-27T05:15:15Z</time>
      </trkpt>
      <trkpt lat="43.30085" lon="1.18457">
        <ele>219.44</ele>
        <time>2018-07-27T05:15:16Z</time>
      </trkpt>
      <trkpt lat="43.30064" lon="1.18422">
        <ele>219.45</ele>
        <time>2018-07-27T05:15:17Z</time>
      </trkpt>
      <trkpt lat="43.30043" lon="1.18387">
        <ele>219.45</ele>
        <time>2018-07-27T05:15:18Z</time>
      </trkpt>
      <trkpt lat="43.30023" lon="1.18352">
        <ele>219.45</ele>
        <time>2018-07-27T05:15:19Z</time>
      </trkpt>
      <trkpt lat="43.30002" lon="1.18317">
        <ele>219.45</ele>
        <time>2018-07-27T05:15:20Z</time>
      </trkpt>
      <trkpt lat="43.29981" lon="1.18282">
        <ele>219.45</ele>
        <time>2018-07-27T05:15:21Z</time>
      </trkpt>
      <trkpt lat="43.2996" lon="1.18246">
        <ele>219.45</ele>
        <time>2018-07-27T05:15:22Z</time>
      </trkpt>
      <trkpt lat="43.2994" lon="1.18211">
        <ele>219.45</ele>
        <time>2018-07-27T05:15:23Z</time>
      </trkpt>
      <trkpt lat="43.29919" lon="1.18176">
        <ele>219.45</ele>
        <time>2018-07-27T05:15:24Z</time>
      </trkpt>
      <trkpt lat="43.29898" lon="1.1814">
        <ele>220.15</ele>
        <time>2018-07-27T05:15:25Z</time>
      </trkpt>
      <trkpt lat="43.29878" lon="1.18104">
        <ele>220.36</ele>
        <time>2018-07-27T05:15:26Z</time>
      </trkpt>
      <trkpt lat="43.29858" lon="1.18068">
        <ele>220.42</ele>
        <time>2018-07-27T05:15:27Z</time>
      </trkpt>
      <trkpt lat="43.29837" lon="1.18033">
        <ele>221.14</ele>
        <time>2018-07-27T05:15:28Z</time>
      </trkpt>
      <trkpt lat="43.29816" lon="1.17997">
        <ele>221.36</ele>
        <time>2018-07-27T05:15:29Z</time>
      </trkpt>
      <trkpt lat="43.29795" lon="1.17962">
        <ele>221.42</ele>
        <time>2018-07-27T05:15:30Z</time>
      </trkpt>
      <trkpt lat="43.29774" lon="1.17925">
        <ele>221.44</ele>
        <time>2018-07-27T05:15:31Z</time>
      </trkpt>
      <trkpt lat="43.29753" lon="1.17889">
        <ele>222.15</ele>
        <time>2018-07-27T05:15:32Z</time>
      </trkpt>
      <trkpt lat="43.29732" lon="1.17853">
        <ele>222.36</ele>
        <time>2018-07-27T05:15:33Z</time>
      </trkpt>
      <trkpt lat="43.29712" lon="1.17818">
        <ele>222.42</ele>
        <time>2018-07-27T05:15:34Z</time>
      </trkpt>
      <trkpt lat="43.29691" lon="1.17782">
        <ele>222.44</ele>
        <time>2018-07-27T05:15:35Z</time>
      </trkpt>
      <trkpt lat="43.2967" lon="1.17747">
        <ele>222.45</ele>
        <time>2018-07-27T05:15:36Z</time>
      </trkpt>
      <trkpt lat="43.29649" lon="1.17711">
        <ele>222.45</ele>
        <time>2018-07-27T05:15:37Z</time>
      </trkpt>
      <trkpt lat="43.29628" lon="1.17676">
        <ele>222.45</ele>
        <time>2018-07-27T05:15:38Z</time>
      </trkpt>
      <trkpt lat="43.29607" lon="1.1764">
        <ele>223.15</ele>
        <time>2018-07-27T05:15:39Z</time>
      </trkpt>
      <trkpt lat="43.29586" lon="1.17605">
        <ele>222.66</ele>
        <time>2018-07-27T05:15:40Z</time>
      </trkpt>
      <trkpt lat="43.29565" lon="1.1757">
        <ele>223.21</ele>
        <time>2018-07-27T05:15:41Z</time>
      </trkpt>
      <trkpt lat="43.29544" lon="1.17535">
        <ele>223.38</ele>
        <time>2018-07-27T05:15:42Z</time>
      </trkpt>
      <trkpt lat="43.29523" lon="1.175">
        <ele>224.13</ele>
        <time>2018-07-27T05:15:43Z</time>
      </trkpt>
      <trkpt lat="43.29501" lon="1.17465">
        <ele>224.35</ele>
        <time>2018-07-27T05:15:44Z</time>
      </trkpt>
      <trkpt lat="43.2948" lon="1.1743">
        <ele>224.42</ele>
        <time>2018-07-27T05:15:45Z</time>
      </trkpt>
      <trkpt lat="43.29458" lon="1.17396">
        <ele>224.44</ele>
        <time>2018-07-27T05:15:46Z</time>
      </trkpt>
      <trkpt lat="43.29438" lon="1.17361">
        <ele>225.15</ele>
        <time>2018-07-27T05:15:47Z</time>
      </trkpt>
      <trkpt lat="43.29417" lon="1.17327">
        <ele>225.36</ele>
        <time>2018-07-27T05:15:48Z</time>
      </trkpt>
      <trkpt lat="43.29396" lon="1.17292">
        <ele>226.12</ele>
        <time>2018-07-27T05:15:49Z</time>
      </trkpt>
      <trkpt lat="43.29375" lon="1.17257">
        <ele>226.35</ele>
        <time>2018-07-27T05:15:50Z</time>
      </trkpt>
      <trkpt lat="43.29354" lon="1.17222">
        <ele>225.72</ele>
        <time>2018-07-27T05:15:51Z</time>
      </trkpt>
      <trkpt lat="43.29333" lon="1.17187">
        <ele>226.23</ele>
        <time>2018-07-27T05:15:52Z</time>
      </trkpt>
      <trkpt lat="43.29311" lon="1.17152">
        <ele>226.38</ele>
        <time>2018-07-27T05:15:53Z</time>
      </trkpt>
      <trkpt lat="43.2929" lon="1.17117">
        <ele>226.43</ele>
        <time>2018-07-27T05:15:54Z</time>
      </trkpt>
      <trkpt lat="43.29269" lon="1.17082">
        <ele>226.44</ele>
        <time>2018-07-27T05:15:55Z</time>
      </trkpt>
      <trkpt lat="43.29248" lon="1.17048">
        <ele>227.15</ele>
        <time>2018-07-27T05:15:56Z</time>
      </trkpt>
      <trkpt lat="43.29227" lon="1.17014">
        <ele>226.66</ele>
        <time>2018-07-27T05:15:57Z</time>
      </trkpt>
      <trkpt lat="43.29207" lon="1.16979">
        <ele>226.51</ele>
        <time>2018-07-27T05:15:58Z</time>
      </trkpt>
      <trkpt lat="43.29187" lon="1.16944">
        <ele>226.47</ele>
        <time>2018-07-27T05:15:59Z</time>
      </trkpt>
      <trkpt lat="43.29167" lon="1.16909">
        <ele>226.45</ele>
        <time>2018-07-27T05:16:00Z</time>
      </trkpt>
      <trkpt lat="43.29147" lon="1.16874">
        <ele>226.45</ele>
        <time>2018-07-27T05:16:01Z</time>
      </trkpt>
      <trkpt lat="43.29128" lon="1.1684">
        <ele>226.45</ele>
        <time>2018-07-27T05:16:02Z</time>
      </trkpt>
      <trkpt lat="43.29108" lon="1.16806">
        <ele>227.15</ele>
        <time>2018-07-27T05:16:03Z</time>
      </trkpt>
      <trkpt lat="43.29088" lon="1.16771">
        <ele>226.66</ele>
        <time>2018-07-27T05:16:04Z</time>
      </trkpt>
      <trkpt lat="43.29068" lon="1.16737">
        <ele>226.51</ele>
        <time>2018-07-27T05:16:05Z</time>
      </trkpt>
      <trkpt lat="43.29048" lon="1.16702">
        <ele>226.47</ele>
        <time>2018-07-27T05:16:06Z</time>
      </trkpt>
      <trkpt lat="43.29027" lon="1.16667">
        <ele>227.15</ele>
        <time>2018-07-27T05:16:07Z</time>
      </trkpt>
      <trkpt lat="43.29007" lon="1.16633">
        <ele>227.36</ele>
        <time>2018-07-27T05:16:08Z</time>
      </trkpt>
      <trkpt lat="43.28987" lon="1.16598">
        <ele>227.42</ele>
        <time>2018-07-27T05:16:09Z</time>
      </trkpt>
      <trkpt lat="43.28966" lon="1.16563">
        <ele>227.44</ele>
        <time>2018-07-27T05:16:10Z</time>
      </trkpt>
      <trkpt lat="43.28947" lon="1.16527">
        <ele>226.75</ele>
        <time>2018-07-27T05:16:11Z</time>
      </trkpt>
      <trkpt lat="43.28926" lon="1.16492">
        <ele>226.54</ele>
        <time>2018-07-27T05:16:12Z</time>
      </trkpt>
      <trkpt lat="43.28906" lon="1.16457">
        <ele>226.47</ele>
        <time>2018-07-27T05:16:13Z</time>
      </trkpt>
      <trkpt lat="43.28885" lon="1.16423">
        <ele>226.46</ele>
        <time>2018-07-27T05:16:14Z</time>
      </trkpt>
      <trkpt lat="43.28865" lon="1.16388">
        <ele>227.15</ele>
        <time>2018-07-27T05:16:15Z</time>
      </trkpt>
      <trkpt lat="43.28845" lon="1.16352">
        <ele>227.36</ele>
        <time>2018-07-27T05:16:16Z</time>
      </trkpt>
      <trkpt lat="43.28824" lon="1.16318">
        <ele>227.42</ele>
        <time>2018-07-27T05:16:17Z</time>
      </trkpt>
      <trkpt lat="43.28804" lon="1.16283">
        <ele>227.44</ele>
        <time>2018-07-27T05:16:18Z</time>
      </trkpt>
      <trkpt lat="43.28783" lon="1.16248">
        <ele>226.75</ele>
        <time>2018-07-27T05:16:19Z</time>
      </trkpt>
      <trkpt lat="43.28763" lon="1.16213">
        <ele>227.24</ele>
        <time>2018-07-27T05:16:20Z</time>
      </trkpt>
      <trkpt lat="43.28742" lon="1.16177">
        <ele>227.38</ele>
        <time>2018-07-27T05:16:21Z</time>
      </trkpt>
      <trkpt lat="43.28722" lon="1.16142">
        <ele>226.73</ele>
        <time>2018-07-27T05:16:22Z</time>
      </trkpt>
      <trkpt lat="43.28701" lon="1.16107">
        <ele>226.53</ele>
        <time>2018-07-27T05:16:23Z</time>
      </trkpt>
      <trkpt lat="43.2868" lon="1.16072">
        <ele>226.47</ele>
        <time>2018-07-27T05:16:24Z</time>
      </trkpt>
      <trkpt lat="43.28659" lon="1.16037">
        <ele>226.46</ele>
        <time>2018-07-27T05:16:25Z</time>
      </trkpt>
      <trkpt lat="43.28639" lon="1.16001">
        <ele>226.45</ele>
        <time>2018-07-27T05:16:26Z</time>
      </trkpt>
      <trkpt lat="43.28618" lon="1.15967">
        <ele>226.45</ele>
        <time>2018-07-27T05:16:27Z</time>
      </trkpt>
      <trkpt lat="43.28597" lon="1.15932">
        <ele>226.45</ele>
        <time>2018-07-27T05:16:28Z</time>
      </trkpt>
      <trkpt lat="43.28576" lon="1.15897">
        <ele>226.45</ele>
        <time>2018-07-27T05:16:29Z</time>
      </trkpt>
      <trkpt lat="43.28556" lon="1.15862">
        <ele>227.15</ele>
        <time>2018-07-27T05:16:30Z</time>
      </trkpt>
      <trkpt lat="43.28536" lon="1.15826">
        <ele>227.36</ele>
        <time>2018-07-27T05:16:31Z</time>
      </trkpt>
      <trkpt lat="43.28515" lon="1.15791">
        <ele>227.42</ele>
        <time>2018-07-27T05:16:32Z</time>
      </trkpt>
      <trkpt lat="43.28496" lon="1.15756">
        <ele>227.44</ele>
        <time>2018-07-27T05:16:33Z</time>
      </trkpt>
      <trkpt lat="43.28477" lon="1.1572">
        <ele>227.45</ele>
        <time>2018-07-27T05:16:34Z</time>
      </trkpt>
      <trkpt lat="43.28458" lon="1.15685">
        <ele>227.45</ele>
        <time>2018-07-27T05:16:35Z</time>
      </trkpt>
      <trkpt lat="43.28438" lon="1.1565">
        <ele>227.45</ele>
        <time>2018-07-27T05:16:36Z</time>
      </trkpt>
      <trkpt lat="43.28418" lon="1.15615">
        <ele>228.15</ele>
        <time>2018-07-27T05:16:37Z</time>
      </trkpt>
      <trkpt lat="43.28398" lon="1.1558">
        <ele>228.36</ele>
        <time>2018-07-27T05:16:38Z</time>
      </trkpt>
      <trkpt lat="43.28378" lon="1.15545">
        <ele>228.42</ele>
        <time>2018-07-27T05:16:39Z</time>
      </trkpt>
      <trkpt lat="43.28358" lon="1.15509">
        <ele>228.44</ele>
        <time>2018-07-27T05:16:40Z</time>
      </trkpt>
      <trkpt lat="43.28338" lon="1.15473">
        <ele>229.15</ele>
        <time>2018-07-27T05:16:41Z</time>
      </trkpt>
      <trkpt lat="43.28318" lon="1.15438">
        <ele>230.06</ele>
        <time>2018-07-27T05:16:42Z</time>
      </trkpt>
      <trkpt lat="43.28298" lon="1.15402">
        <ele>230.33</ele>
        <time>2018-07-27T05:16:43Z</time>
      </trkpt>
      <trkpt lat="43.28279" lon="1.15367">
        <ele>230.41</ele>
        <time>2018-07-27T05:16:44Z</time>
      </trkpt>
      <trkpt lat="43.28259" lon="1.15331">
        <ele>230.44</ele>
        <time>2018-07-27T05:16:45Z</time>
      </trkpt>
      <trkpt lat="43.2824" lon="1.15295">
        <ele>230.44</ele>
        <time>2018-07-27T05:16:46Z</time>
      </trkpt>
      <trkpt lat="43.2822" lon="1.15259">
        <ele>230.45</ele>
        <time>2018-07-27T05:16:47Z</time>
      </trkpt>
      <trkpt lat="43.282" lon="1.15223">
        <ele>231.15</ele>
        <time>2018-07-27T05:16:48Z</time>
      </trkpt>
      <trkpt lat="43.2818" lon="1.15188">
        <ele>230.66</ele>
        <time>2018-07-27T05:16:49Z</time>
      </trkpt>
      <trkpt lat="43.2816" lon="1.15153">
        <ele>230.51</ele>
        <time>2018-07-27T05:16:50Z</time>
      </trkpt>
      <trkpt lat="43.28139" lon="1.15117">
        <ele>231.17</ele>
        <time>2018-07-27T05:16:51Z</time>
      </trkpt>
      <trkpt lat="43.28119" lon="1.15082">
        <ele>230.66</ele>
        <time>2018-07-27T05:16:52Z</time>
      </trkpt>
      <trkpt lat="43.28098" lon="1.15046">
        <ele>231.21</ele>
        <time>2018-07-27T05:16:53Z</time>
      </trkpt>
      <trkpt lat="43.28078" lon="1.15011">
        <ele>231.38</ele>
        <time>2018-07-27T05:16:54Z</time>
      </trkpt>
      <trkpt lat="43.28057" lon="1.14975">
        <ele>232.13</ele>
        <time>2018-07-27T05:16:55Z</time>
      </trkpt>
      <trkpt lat="43.28037" lon="1.14939">
        <ele>232.35</ele>
        <time>2018-07-27T05:16:56Z</time>
      </trkpt>
      <trkpt lat="43.28017" lon="1.14904">
        <ele>232.42</ele>
        <time>2018-07-27T05:16:57Z</time>
      </trkpt>
      <trkpt lat="43.27997" lon="1.14868">
        <ele>232.44</ele>
        <time>2018-07-27T05:16:58Z</time>
      </trkpt>
      <trkpt lat="43.27977" lon="1.14834">
        <ele>232.45</ele>
        <time>2018-07-27T05:16:59Z</time>
      </trkpt>
      <trkpt lat="43.27956" lon="1.14799">
        <ele>233.15</ele>
        <time>2018-07-27T05:17:00Z</time>
      </trkpt>
      <trkpt lat="43.27935" lon="1.14764">
        <ele>233.36</ele>
        <time>2018-07-27T05:17:01Z</time>
      </trkpt>
      <trkpt lat="43.27914" lon="1.14729">
        <ele>233.42</ele>
        <time>2018-07-27T05:17:02Z</time>
      </trkpt>
      <trkpt lat="43.27893" lon="1.14695">
        <ele>233.44</ele>
        <time>2018-07-27T05:17:03Z</time>
      </trkpt>
      <trkpt lat="43.27873" lon="1.1466">
        <ele>233.45</ele>
        <time>2018-07-27T05:17:04Z</time>
      </trkpt>
      <trkpt lat="43.27852" lon="1.14624">
        <ele>233.45</ele>
        <time>2018-07-27T05:17:05Z</time>
      </trkpt>
      <trkpt lat="43.27832" lon="1.14589">
        <ele>233.45</ele>
        <time>2018-07-27T05:17:06Z</time>
      </trkpt>
      <trkpt lat="43.2781" lon="1.14554">
        <ele>233.45</ele>
        <time>2018-07-27T05:17:07Z</time>
      </trkpt>
      <trkpt lat="43.2779" lon="1.14518">
        <ele>233.45</ele>
        <time>2018-07-27T05:17:08Z</time>
      </trkpt>
      <trkpt lat="43.27768" lon="1.14482">
        <ele>233.45</ele>
        <time>2018-07-27T05:17:09Z</time>
      </trkpt>
      <trkpt lat="43.27747" lon="1.14445">
        <ele>233.45</ele>
        <time>2018-07-27T05:17:10Z</time>
      </trkpt>
      <trkpt lat="43.27726" lon="1.1441">
        <ele>233.45</ele>
        <time>2018-07-27T05:17:11Z</time>
      </trkpt>
      <trkpt lat="43.27705" lon="1.14373">
        <ele>233.45</ele>
        <time>2018-07-27T05:17:12Z</time>
      </trkpt>
      <trkpt lat="43.27684" lon="1.14337">
        <ele>233.45</ele>
        <time>2018-07-27T05:17:13Z</time>
      </trkpt>
      <trkpt lat="43.27662" lon="1.14301">
        <ele>233.45</ele>
        <time>2018-07-27T05:17:14Z</time>
      </trkpt>
      <trkpt lat="43.27641" lon="1.14264">
        <ele>233.45</ele>
        <time>2018-07-27T05:17:15Z</time>
      </trkpt>
      <trkpt lat="43.27619" lon="1.14227">
        <ele>233.45</ele>
        <time>2018-07-27T05:17:16Z</time>
      </trkpt>
      <trkpt lat="43.27597" lon="1.1419">
        <ele>233.45</ele>
        <time>2018-07-27T05:17:17Z</time>
      </trkpt>
      <trkpt lat="43.27576" lon="1.14153">
        <ele>233.45</ele>
        <time>2018-07-27T05:17:18Z</time>
      </trkpt>
      <trkpt lat="43.27554" lon="1.14116">
        <ele>233.45</ele>
        <time>2018-07-27T05:17:19Z</time>
      </trkpt>
      <trkpt lat="43.27533" lon="1.14079">
        <ele>234.15</ele>
        <time>2018-07-27T05:17:20Z</time>
      </trkpt>
      <trkpt lat="43.27512" lon="1.14042">
        <ele>234.36</ele>
        <time>2018-07-27T05:17:21Z</time>
      </trkpt>
      <trkpt lat="43.2749" lon="1.14006">
        <ele>234.42</ele>
        <time>2018-07-27T05:17:22Z</time>
      </trkpt>
      <trkpt lat="43.27468" lon="1.13969">
        <ele>235.14</ele>
        <time>2018-07-27T05:17:23Z</time>
      </trkpt>
      <trkpt lat="43.27446" lon="1.13932">
        <ele>235.36</ele>
        <time>2018-07-27T05:17:24Z</time>
      </trkpt>
      <trkpt lat="43.27425" lon="1.13896">
        <ele>235.42</ele>
        <time>2018-07-27T05:17:25Z</time>
      </trkpt>
      <trkpt lat="43.27403" lon="1.1386">
        <ele>234.74</ele>
        <time>2018-07-27T05:17:26Z</time>
      </trkpt>
      <trkpt lat="43.27382" lon="1.13824">
        <ele>234.54</ele>
        <time>2018-07-27T05:17:27Z</time>
      </trkpt>
      <trkpt lat="43.27361" lon="1.13788">
        <ele>235.17</ele>
        <time>2018-07-27T05:17:28Z</time>
      </trkpt>
      <trkpt lat="43.2734" lon="1.13751">
        <ele>235.37</ele>
        <time>2018-07-27T05:17:29Z</time>
      </trkpt>
      <trkpt lat="43.27319" lon="1.13715">
        <ele>235.42</ele>
        <time>2018-07-27T05:17:30Z</time>
      </trkpt>
      <trkpt lat="43.27298" lon="1.13678">
        <ele>236.14</ele>
        <time>2018-07-27T05:17:31Z</time>
      </trkpt>
      <trkpt lat="43.27277" lon="1.13641">
        <ele>236.36</ele>
        <time>2018-07-27T05:17:32Z</time>
      </trkpt>
      <trkpt lat="43.27256" lon="1.13605">
        <ele>237.12</ele>
        <time>2018-07-27T05:17:33Z</time>
      </trkpt>
      <trkpt lat="43.27234" lon="1.13568">
        <ele>238.05</ele>
        <time>2018-07-27T05:17:34Z</time>
      </trkpt>
      <trkpt lat="43.27213" lon="1.13532">
        <ele>239.03</ele>
        <time>2018-07-27T05:17:35Z</time>
      </trkpt>
      <trkpt lat="43.27192" lon="1.13496">
        <ele>239.32</ele>
        <time>2018-07-27T05:17:36Z</time>
      </trkpt>
      <trkpt lat="43.27171" lon="1.1346">
        <ele>240.11</ele>
        <time>2018-07-27T05:17:37Z</time>
      </trkpt>
      <trkpt lat="43.2715" lon="1.13424">
        <ele>241.05</ele>
        <time>2018-07-27T05:17:38Z</time>
      </trkpt>
      <trkpt lat="43.27129" lon="1.13388">
        <ele>241.33</ele>
        <time>2018-07-27T05:17:39Z</time>
      </trkpt>
      <trkpt lat="43.27107" lon="1.13352">
        <ele>241.41</ele>
        <time>2018-07-27T05:17:40Z</time>
      </trkpt>
      <trkpt lat="43.27087" lon="1.13316">
        <ele>242.14</ele>
        <time>2018-07-27T05:17:41Z</time>
      </trkpt>
      <trkpt lat="43.27066" lon="1.13281">
        <ele>243.05</ele>
        <time>2018-07-27T05:17:42Z</time>
      </trkpt>
      <trkpt lat="43.27045" lon="1.13244">
        <ele>242.63</ele>
        <time>2018-07-27T05:17:43Z</time>
      </trkpt>
      <trkpt lat="43.27023" lon="1.13208">
        <ele>243.2</ele>
        <time>2018-07-27T05:17:44Z</time>
      </trkpt>
      <trkpt lat="43.27002" lon="1.13172">
        <ele>244.07</ele>
        <time>2018-07-27T05:17:45Z</time>
      </trkpt>
      <trkpt lat="43.2698" lon="1.13136">
        <ele>244.34</ele>
        <time>2018-07-27T05:17:46Z</time>
      </trkpt>
      <trkpt lat="43.26959" lon="1.13099">
        <ele>244.41</ele>
        <time>2018-07-27T05:17:47Z</time>
      </trkpt>
      <trkpt lat="43.26937" lon="1.13063">
        <ele>244.44</ele>
        <time>2018-07-27T05:17:48Z</time>
      </trkpt>
      <trkpt lat="43.26915" lon="1.13026">
        <ele>245.14</ele>
        <time>2018-07-27T05:17:49Z</time>
      </trkpt>
      <trkpt lat="43.26894" lon="1.1299">
        <ele>245.36</ele>
        <time>2018-07-27T05:17:50Z</time>
      </trkpt>
      <trkpt lat="43.26872" lon="1.12955">
        <ele>245.42</ele>
        <time>2018-07-27T05:17:51Z</time>
      </trkpt>
      <trkpt lat="43.26851" lon="1.12919">
        <ele>244.74</ele>
        <time>2018-07-27T05:17:52Z</time>
      </trkpt>
      <trkpt lat="43.2683" lon="1.12883">
        <ele>244.54</ele>
        <time>2018-07-27T05:17:53Z</time>
      </trkpt>
      <trkpt lat="43.26809" lon="1.12846">
        <ele>244.47</ele>
        <time>2018-07-27T05:17:54Z</time>
      </trkpt>
      <trkpt lat="43.26788" lon="1.12811">
        <ele>244.46</ele>
        <time>2018-07-27T05:17:55Z</time>
      </trkpt>
      <trkpt lat="43.26768" lon="1.12775">
        <ele>244.45</ele>
        <time>2018-07-27T05:17:56Z</time>
      </trkpt>
      <trkpt lat="43.26747" lon="1.12738">
        <ele>244.45</ele>
        <time>2018-07-27T05:17:57Z</time>
      </trkpt>
      <trkpt lat="43.26727" lon="1.12702">
        <ele>245.15</ele>
        <time>2018-07-27T05:17:58Z</time>
      </trkpt>
      <trkpt lat="43.26706" lon="1.12666">
        <ele>245.36</ele>
        <time>2018-07-27T05:17:59Z</time>
      </trkpt>
      <trkpt lat="43.26685" lon="1.1263">
        <ele>246.12</ele>
        <time>2018-07-27T05:18:00Z</time>
      </trkpt>
      <trkpt lat="43.26664" lon="1.12594">
        <ele>246.35</ele>
        <time>2018-07-27T05:18:01Z</time>
      </trkpt>
      <trkpt lat="43.26643" lon="1.12557">
        <ele>246.42</ele>
        <time>2018-07-27T05:18:02Z</time>
      </trkpt>
      <trkpt lat="43.26623" lon="1.12521">
        <ele>246.44</ele>
        <time>2018-07-27T05:18:03Z</time>
      </trkpt>
      <trkpt lat="43.26601" lon="1.12485">
        <ele>246.45</ele>
        <time>2018-07-27T05:18:04Z</time>
      </trkpt>
      <trkpt lat="43.26581" lon="1.12448">
        <ele>247.15</ele>
        <time>2018-07-27T05:18:05Z</time>
      </trkpt>
      <trkpt lat="43.2656" lon="1.12412">
        <ele>247.36</ele>
        <time>2018-07-27T05:18:06Z</time>
      </trkpt>
      <trkpt lat="43.26538" lon="1.12376">
        <ele>247.42</ele>
        <time>2018-07-27T05:18:07Z</time>
      </trkpt>
      <trkpt lat="43.26518" lon="1.1234">
        <ele>247.44</ele>
        <time>2018-07-27T05:18:08Z</time>
      </trkpt>
      <trkpt lat="43.26497" lon="1.12304">
        <ele>248.15</ele>
        <time>2018-07-27T05:18:09Z</time>
      </trkpt>
      <trkpt lat="43.26476" lon="1.12271">
        <ele>248.36</ele>
        <time>2018-07-27T05:18:10Z</time>
      </trkpt>
      <trkpt lat="43.26457" lon="1.12238">
        <ele>248.42</ele>
        <time>2018-07-27T05:18:11Z</time>
      </trkpt>
      <trkpt lat="43.26438" lon="1.12206">
        <ele>248.44</ele>
        <time>2018-07-27T05:18:12Z</time>
      </trkpt>
      <trkpt lat="43.26418" lon="1.12173">
        <ele>249.15</ele>
        <time>2018-07-27T05:18:13Z</time>
      </trkpt>
      <trkpt lat="43.26399" lon="1.1214">
        <ele>249.36</ele>
        <time>2018-07-27T05:18:14Z</time>
      </trkpt>
      <trkpt lat="43.26379" lon="1.12108">
        <ele>249.42</ele>
        <time>2018-07-27T05:18:15Z</time>
      </trkpt>
      <trkpt lat="43.2636" lon="1.12074">
        <ele>249.44</ele>
        <time>2018-07-27T05:18:16Z</time>
      </trkpt>
      <trkpt lat="43.26341" lon="1.12042">
        <ele>249.45</ele>
        <time>2018-07-27T05:18:17Z</time>
      </trkpt>
      <trkpt lat="43.26321" lon="1.12009">
        <ele>249.45</ele>
        <time>2018-07-27T05:18:18Z</time>
      </trkpt>
      <trkpt lat="43.26302" lon="1.11975">
        <ele>249.45</ele>
        <time>2018-07-27T05:18:19Z</time>
      </trkpt>
      <trkpt lat="43.26282" lon="1.1194">
        <ele>249.45</ele>
        <time>2018-07-27T05:18:20Z</time>
      </trkpt>
      <trkpt lat="43.26261" lon="1.11905">
        <ele>249.45</ele>
        <time>2018-07-27T05:18:21Z</time>
      </trkpt>
      <trkpt lat="43.26241" lon="1.1187">
        <ele>249.45</ele>
        <time>2018-07-27T05:18:22Z</time>
      </trkpt>
      <trkpt lat="43.2622" lon="1.11835">
        <ele>249.45</ele>
        <time>2018-07-27T05:18:23Z</time>
      </trkpt>
      <trkpt lat="43.26199" lon="1.11799">
        <ele>250.15</ele>
        <time>2018-07-27T05:18:24Z</time>
      </trkpt>
      <trkpt lat="43.26179" lon="1.11762">
        <ele>250.36</ele>
        <time>2018-07-27T05:18:25Z</time>
      </trkpt>
      <trkpt lat="43.26158" lon="1.11725">
        <ele>250.42</ele>
        <time>2018-07-27T05:18:26Z</time>
      </trkpt>
      <trkpt lat="43.26138" lon="1.11689">
        <ele>250.44</ele>
        <time>2018-07-27T05:18:27Z</time>
      </trkpt>
      <trkpt lat="43.26117" lon="1.11652">
        <ele>250.45</ele>
        <time>2018-07-27T05:18:28Z</time>
      </trkpt>
      <trkpt lat="43.26097" lon="1.11616">
        <ele>250.45</ele>
        <time>2018-07-27T05:18:29Z</time>
      </trkpt>
      <trkpt lat="43.26076" lon="1.11581">
        <ele>250.45</ele>
        <time>2018-07-27T05:18:30Z</time>
      </trkpt>
      <trkpt lat="43.26056" lon="1.11546">
        <ele>250.45</ele>
        <time>2018-07-27T05:18:31Z</time>
      </trkpt>
      <trkpt lat="43.26035" lon="1.11511">
        <ele>250.45</ele>
        <time>2018-07-27T05:18:32Z</time>
      </trkpt>
      <trkpt lat="43.26014" lon="1.11477">
        <ele>251.15</ele>
        <time>2018-07-27T05:18:33Z</time>
      </trkpt>
      <trkpt lat="43.25994" lon="1.11442">
        <ele>250.66</ele>
        <time>2018-07-27T05:18:34Z</time>
      </trkpt>
      <trkpt lat="43.25973" lon="1.11406">
        <ele>250.51</ele>
        <time>2018-07-27T05:18:35Z</time>
      </trkpt>
      <trkpt lat="43.25953" lon="1.11371">
        <ele>250.47</ele>
        <time>2018-07-27T05:18:36Z</time>
      </trkpt>
      <trkpt lat="43.25932" lon="1.11336">
        <ele>250.45</ele>
        <time>2018-07-27T05:18:37Z</time>
      </trkpt>
      <trkpt lat="43.25911" lon="1.113">
        <ele>249.75</ele>
        <time>2018-07-27T05:18:38Z</time>
      </trkpt>
      <trkpt lat="43.25891" lon="1.11265">
        <ele>250.24</ele>
        <time>2018-07-27T05:18:39Z</time>
      </trkpt>
      <trkpt lat="43.2587" lon="1.11229">
        <ele>250.39</ele>
        <time>2018-07-27T05:18:40Z</time>
      </trkpt>
      <trkpt lat="43.25849" lon="1.11193">
        <ele>250.43</ele>
        <time>2018-07-27T05:18:41Z</time>
      </trkpt>
      <trkpt lat="43.25829" lon="1.11158">
        <ele>251.14</ele>
        <time>2018-07-27T05:18:42Z</time>
      </trkpt>
      <trkpt lat="43.25808" lon="1.11122">
        <ele>250.66</ele>
        <time>2018-07-27T05:18:43Z</time>
      </trkpt>
      <trkpt lat="43.25787" lon="1.11087">
        <ele>250.51</ele>
        <time>2018-07-27T05:18:44Z</time>
      </trkpt>
      <trkpt lat="43.25766" lon="1.11051">
        <ele>251.17</ele>
        <time>2018-07-27T05:18:45Z</time>
      </trkpt>
      <trkpt lat="43.25745" lon="1.11015">
        <ele>251.36</ele>
        <time>2018-07-27T05:18:46Z</time>
      </trkpt>
      <trkpt lat="43.25724" lon="1.1098">
        <ele>251.42</ele>
        <time>2018-07-27T05:18:47Z</time>
      </trkpt>
      <trkpt lat="43.25704" lon="1.10943">
        <ele>252.14</ele>
        <time>2018-07-27T05:18:48Z</time>
      </trkpt>
      <trkpt lat="43.25682" lon="1.10908">
        <ele>252.36</ele>
        <time>2018-07-27T05:18:49Z</time>
      </trkpt>
      <trkpt lat="43.25662" lon="1.10872">
        <ele>252.42</ele>
        <time>2018-07-27T05:18:50Z</time>
      </trkpt>
      <trkpt lat="43.2564" lon="1.10837">
        <ele>252.44</ele>
        <time>2018-07-27T05:18:51Z</time>
      </trkpt>
      <trkpt lat="43.25619" lon="1.10803">
        <ele>252.45</ele>
        <time>2018-07-27T05:18:52Z</time>
      </trkpt>
      <trkpt lat="43.25598" lon="1.10768">
        <ele>252.45</ele>
        <time>2018-07-27T05:18:53Z</time>
      </trkpt>
      <trkpt lat="43.25577" lon="1.10733">
        <ele>252.45</ele>
        <time>2018-07-27T05:18:54Z</time>
      </trkpt>
      <trkpt lat="43.25557" lon="1.10698">
        <ele>252.45</ele>
        <time>2018-07-27T05:18:55Z</time>
      </trkpt>
      <trkpt lat="43.25536" lon="1.10662">
        <ele>253.15</ele>
        <time>2018-07-27T05:18:56Z</time>
      </trkpt>
      <trkpt lat="43.25516" lon="1.10627">
        <ele>253.36</ele>
        <time>2018-07-27T05:18:57Z</time>
      </trkpt>
      <trkpt lat="43.25495" lon="1.10593">
        <ele>253.42</ele>
        <time>2018-07-27T05:18:58Z</time>
      </trkpt>
      <trkpt lat="43.25476" lon="1.10559">
        <ele>253.44</ele>
        <time>2018-07-27T05:18:59Z</time>
      </trkpt>
      <trkpt lat="43.25456" lon="1.10524">
        <ele>253.45</ele>
        <time>2018-07-27T05:19:00Z</time>
      </trkpt>
      <trkpt lat="43.25436" lon="1.1049">
        <ele>253.45</ele>
        <time>2018-07-27T05:19:01Z</time>
      </trkpt>
      <trkpt lat="43.25416" lon="1.10456">
        <ele>253.45</ele>
        <time>2018-07-27T05:19:02Z</time>
      </trkpt>
      <trkpt lat="43.25396" lon="1.1042">
        <ele>253.45</ele>
        <time>2018-07-27T05:19:03Z</time>
      </trkpt>
      <trkpt lat="43.25376" lon="1.10385">
        <ele>254.15</ele>
        <time>2018-07-27T05:19:04Z</time>
      </trkpt>
      <trkpt lat="43.25356" lon="1.10349">
        <ele>253.66</ele>
        <time>2018-07-27T05:19:05Z</time>
      </trkpt>
      <trkpt lat="43.25336" lon="1.10313">
        <ele>254.21</ele>
        <time>2018-07-27T05:19:06Z</time>
      </trkpt>
      <trkpt lat="43.25316" lon="1.10276">
        <ele>254.38</ele>
        <time>2018-07-27T05:19:07Z</time>
      </trkpt>
      <trkpt lat="43.25295" lon="1.1024">
        <ele>254.43</ele>
        <time>2018-07-27T05:19:08Z</time>
      </trkpt>
      <trkpt lat="43.25274" lon="1.10204">
        <ele>254.44</ele>
        <time>2018-07-27T05:19:09Z</time>
      </trkpt>
      <trkpt lat="43.25253" lon="1.10169">
        <ele>254.45</ele>
        <time>2018-07-27T05:19:10Z</time>
      </trkpt>
      <trkpt lat="43.25232" lon="1.10134">
        <ele>254.45</ele>
        <time>2018-07-27T05:19:11Z</time>
      </trkpt>
      <trkpt lat="43.25211" lon="1.10098">
        <ele>254.45</ele>
        <time>2018-07-27T05:19:12Z</time>
      </trkpt>
      <trkpt lat="43.2519" lon="1.10063">
        <ele>255.15</ele>
        <time>2018-07-27T05:19:13Z</time>
      </trkpt>
      <trkpt lat="43.2517" lon="1.10027">
        <ele>255.36</ele>
        <time>2018-07-27T05:19:14Z</time>
      </trkpt>
      <trkpt lat="43.25149" lon="1.09992">
        <ele>254.72</ele>
        <time>2018-07-27T05:19:15Z</time>
      </trkpt>
      <trkpt lat="43.25128" lon="1.09956">
        <ele>255.23</ele>
        <time>2018-07-27T05:19:16Z</time>
      </trkpt>
      <trkpt lat="43.25107" lon="1.0992">
        <ele>255.38</ele>
        <time>2018-07-27T05:19:17Z</time>
      </trkpt>
      <trkpt lat="43.25087" lon="1.09885">
        <ele>254.73</ele>
        <time>2018-07-27T05:19:18Z</time>
      </trkpt>
      <trkpt lat="43.25066" lon="1.09849">
        <ele>255.23</ele>
        <time>2018-07-27T05:19:19Z</time>
      </trkpt>
      <trkpt lat="43.25046" lon="1.09814">
        <ele>255.38</ele>
        <time>2018-07-27T05:19:20Z</time>
      </trkpt>
      <trkpt lat="43.25025" lon="1.09778">
        <ele>255.43</ele>
        <time>2018-07-27T05:19:21Z</time>
      </trkpt>
      <trkpt lat="43.25004" lon="1.09742">
        <ele>256.14</ele>
        <time>2018-07-27T05:19:22Z</time>
      </trkpt>
      <trkpt lat="43.24983" lon="1.09706">
        <ele>254.11</ele>
        <time>2018-07-27T05:19:23Z</time>
      </trkpt>
      <trkpt lat="43.24962" lon="1.0967">
        <ele>253.5</ele>
        <time>2018-07-27T05:19:24Z</time>
      </trkpt>
      <trkpt lat="43.24941" lon="1.09633">
        <ele>253.31</ele>
        <time>2018-07-27T05:19:25Z</time>
      </trkpt>
      <trkpt lat="43.2492" lon="1.09597">
        <ele>253.96</ele>
        <time>2018-07-27T05:19:26Z</time>
      </trkpt>
      <trkpt lat="43.24899" lon="1.09561">
        <ele>254.15</ele>
        <time>2018-07-27T05:19:27Z</time>
      </trkpt>
      <trkpt lat="43.24877" lon="1.09525">
        <ele>254.21</ele>
        <time>2018-07-27T05:19:28Z</time>
      </trkpt>
      <trkpt lat="43.24856" lon="1.09489">
        <ele>254.23</ele>
        <time>2018-07-27T05:19:29Z</time>
      </trkpt>
      <trkpt lat="43.24835" lon="1.09453">
        <ele>254.23</ele>
        <time>2018-07-27T05:19:30Z</time>
      </trkpt>
      <trkpt lat="43.24813" lon="1.09417">
        <ele>254.23</ele>
        <time>2018-07-27T05:19:31Z</time>
      </trkpt>
      <trkpt lat="43.24792" lon="1.09381">
        <ele>254.23</ele>
        <time>2018-07-27T05:19:32Z</time>
      </trkpt>
      <trkpt lat="43.24771" lon="1.09345">
        <ele>254.23</ele>
        <time>2018-07-27T05:19:33Z</time>
      </trkpt>
      <trkpt lat="43.24749" lon="1.09309">
        <ele>254.23</ele>
        <time>2018-07-27T05:19:34Z</time>
      </trkpt>
      <trkpt lat="43.24728" lon="1.09275">
        <ele>254.23</ele>
        <time>2018-07-27T05:19:35Z</time>
      </trkpt>
      <trkpt lat="43.24707" lon="1.09241">
        <ele>254.93</ele>
        <time>2018-07-27T05:19:36Z</time>
      </trkpt>
      <trkpt lat="43.24686" lon="1.09204">
        <ele>255.14</ele>
        <time>2018-07-27T05:19:37Z</time>
      </trkpt>
      <trkpt lat="43.24664" lon="1.09167">
        <ele>255.21</ele>
        <time>2018-07-27T05:19:38Z</time>
      </trkpt>
      <trkpt lat="43.24641" lon="1.09129">
        <ele>255.23</ele>
        <time>2018-07-27T05:19:39Z</time>
      </trkpt>
      <trkpt lat="43.24619" lon="1.09091">
        <ele>255.23</ele>
        <time>2018-07-27T05:19:40Z</time>
      </trkpt>
      <trkpt lat="43.24597" lon="1.09054">
        <ele>255.23</ele>
        <time>2018-07-27T05:19:41Z</time>
      </trkpt>
      <trkpt lat="43.24576" lon="1.09017">
        <ele>255.23</ele>
        <time>2018-07-27T05:19:42Z</time>
      </trkpt>
      <trkpt lat="43.24555" lon="1.08981">
        <ele>255.23</ele>
        <time>2018-07-27T05:19:43Z</time>
      </trkpt>
      <trkpt lat="43.24534" lon="1.08945">
        <ele>255.93</ele>
        <time>2018-07-27T05:19:44Z</time>
      </trkpt>
      <trkpt lat="43.24514" lon="1.0891">
        <ele>256.14</ele>
        <time>2018-07-27T05:19:45Z</time>
      </trkpt>
      <trkpt lat="43.24494" lon="1.08874">
        <ele>256.21</ele>
        <time>2018-07-27T05:19:46Z</time>
      </trkpt>
      <trkpt lat="43.24474" lon="1.08839">
        <ele>256.23</ele>
        <time>2018-07-27T05:19:47Z</time>
      </trkpt>
      <trkpt lat="43.24453" lon="1.08803">
        <ele>256.23</ele>
        <time>2018-07-27T05:19:48Z</time>
      </trkpt>
      <trkpt lat="43.24433" lon="1.08766">
        <ele>256.23</ele>
        <time>2018-07-27T05:19:49Z</time>
      </trkpt>
      <trkpt lat="43.24412" lon="1.08729">
        <ele>256.23</ele>
        <time>2018-07-27T05:19:50Z</time>
      </trkpt>
      <trkpt lat="43.24391" lon="1.08692">
        <ele>256.93</ele>
        <time>2018-07-27T05:19:51Z</time>
      </trkpt>
      <trkpt lat="43.24369" lon="1.08655">
        <ele>257.14</ele>
        <time>2018-07-27T05:19:52Z</time>
      </trkpt>
      <trkpt lat="43.24348" lon="1.08618">
        <ele>257.21</ele>
        <time>2018-07-27T05:19:53Z</time>
      </trkpt>
      <trkpt lat="43.24327" lon="1.08581">
        <ele>257.23</ele>
        <time>2018-07-27T05:19:54Z</time>
      </trkpt>
      <trkpt lat="43.24306" lon="1.08545">
        <ele>257.23</ele>
        <time>2018-07-27T05:19:55Z</time>
      </trkpt>
      <trkpt lat="43.24284" lon="1.08508">
        <ele>257.23</ele>
        <time>2018-07-27T05:19:56Z</time>
      </trkpt>
      <trkpt lat="43.24263" lon="1.08471">
        <ele>257.23</ele>
        <time>2018-07-27T05:19:57Z</time>
      </trkpt>
      <trkpt lat="43.24241" lon="1.08435">
        <ele>257.23</ele>
        <time>2018-07-27T05:19:58Z</time>
      </trkpt>
      <trkpt lat="43.24219" lon="1.08399">
        <ele>257.23</ele>
        <time>2018-07-27T05:19:59Z</time>
      </trkpt>
      <trkpt lat="43.24198" lon="1.08362">
        <ele>257.23</ele>
        <time>2018-07-27T05:20:00Z</time>
      </trkpt>
      <trkpt lat="43.24176" lon="1.08325">
        <ele>257.23</ele>
        <time>2018-07-27T05:20:01Z</time>
      </trkpt>
      <trkpt lat="43.24155" lon="1.08288">
        <ele>257.23</ele>
        <time>2018-07-27T05:20:02Z</time>
      </trkpt>
      <trkpt lat="43.24133" lon="1.08252">
        <ele>257.23</ele>
        <time>2018-07-27T05:20:03Z</time>
      </trkpt>
      <trkpt lat="43.24112" lon="1.08215">
        <ele>257.23</ele>
        <time>2018-07-27T05:20:04Z</time>
      </trkpt>
      <trkpt lat="43.24091" lon="1.08179">
        <ele>257.23</ele>
        <time>2018-07-27T05:20:05Z</time>
      </trkpt>
      <trkpt lat="43.2407" lon="1.08143">
        <ele>257.93</ele>
        <time>2018-07-27T05:20:06Z</time>
      </trkpt>
      <trkpt lat="43.24048" lon="1.08107">
        <ele>258.14</ele>
        <time>2018-07-27T05:20:07Z</time>
      </trkpt>
      <trkpt lat="43.24027" lon="1.0807">
        <ele>258.21</ele>
        <time>2018-07-27T05:20:08Z</time>
      </trkpt>
      <trkpt lat="43.24006" lon="1.08033">
        <ele>258.23</ele>
        <time>2018-07-27T05:20:09Z</time>
      </trkpt>
      <trkpt lat="43.23985" lon="1.07998">
        <ele>258.23</ele>
        <time>2018-07-27T05:20:10Z</time>
      </trkpt>
      <trkpt lat="43.23964" lon="1.07961">
        <ele>258.23</ele>
        <time>2018-07-27T05:20:11Z</time>
      </trkpt>
      <trkpt lat="43.23943" lon="1.07925">
        <ele>258.93</ele>
        <time>2018-07-27T05:20:12Z</time>
      </trkpt>
      <trkpt lat="43.23922" lon="1.07889">
        <ele>259.14</ele>
        <time>2018-07-27T05:20:13Z</time>
      </trkpt>
      <trkpt lat="43.23901" lon="1.07852">
        <ele>259.21</ele>
        <time>2018-07-27T05:20:14Z</time>
      </trkpt>
      <trkpt lat="43.2388" lon="1.07816">
        <ele>259.23</ele>
        <time>2018-07-27T05:20:15Z</time>
      </trkpt>
      <trkpt lat="43.23859" lon="1.07779">
        <ele>259.93</ele>
        <time>2018-07-27T05:20:16Z</time>
      </trkpt>
      <trkpt lat="43.23838" lon="1.07743">
        <ele>260.14</ele>
        <time>2018-07-27T05:20:17Z</time>
      </trkpt>
      <trkpt lat="43.23816" lon="1.07707">
        <ele>260.21</ele>
        <time>2018-07-27T05:20:18Z</time>
      </trkpt>
      <trkpt lat="43.23796" lon="1.07671">
        <ele>260.23</ele>
        <time>2018-07-27T05:20:19Z</time>
      </trkpt>
      <trkpt lat="43.23775" lon="1.07635">
        <ele>260.93</ele>
        <time>2018-07-27T05:20:20Z</time>
      </trkpt>
      <trkpt lat="43.23753" lon="1.07599">
        <ele>261.14</ele>
        <time>2018-07-27T05:20:21Z</time>
      </trkpt>
      <trkpt lat="43.23732" lon="1.07563">
        <ele>261.21</ele>
        <time>2018-07-27T05:20:22Z</time>
      </trkpt>
      <trkpt lat="43.23711" lon="1.07526">
        <ele>261.23</ele>
        <time>2018-07-27T05:20:23Z</time>
      </trkpt>
      <trkpt lat="43.2369" lon="1.0749">
        <ele>261.23</ele>
        <time>2018-07-27T05:20:24Z</time>
      </trkpt>
      <trkpt lat="43.23668" lon="1.07454">
        <ele>261.23</ele>
        <time>2018-07-27T05:20:25Z</time>
      </trkpt>
      <trkpt lat="43.23647" lon="1.07418">
        <ele>260.53</ele>
        <time>2018-07-27T05:20:26Z</time>
      </trkpt>
      <trkpt lat="43.23625" lon="1.07382">
        <ele>260.32</ele>
        <time>2018-07-27T05:20:27Z</time>
      </trkpt>
      <trkpt lat="43.23604" lon="1.07346">
        <ele>260.96</ele>
        <time>2018-07-27T05:20:28Z</time>
      </trkpt>
      <trkpt lat="43.23582" lon="1.07309">
        <ele>261.15</ele>
        <time>2018-07-27T05:20:29Z</time>
      </trkpt>
      <trkpt lat="43.2356" lon="1.07273">
        <ele>261.21</ele>
        <time>2018-07-27T05:20:30Z</time>
      </trkpt>
      <trkpt lat="43.23538" lon="1.07237">
        <ele>261.23</ele>
        <time>2018-07-27T05:20:31Z</time>
      </trkpt>
      <trkpt lat="43.23517" lon="1.072">
        <ele>261.23</ele>
        <time>2018-07-27T05:20:32Z</time>
      </trkpt>
      <trkpt lat="43.23496" lon="1.07163">
        <ele>261.93</ele>
        <time>2018-07-27T05:20:33Z</time>
      </trkpt>
      <trkpt lat="43.23474" lon="1.07127">
        <ele>262.14</ele>
        <time>2018-07-27T05:20:34Z</time>
      </trkpt>
      <trkpt lat="43.23453" lon="1.0709">
        <ele>262.21</ele>
        <time>2018-07-27T05:20:35Z</time>
      </trkpt>
      <trkpt lat="43.23432" lon="1.07055">
        <ele>262.93</ele>
        <time>2018-07-27T05:20:36Z</time>
      </trkpt>
      <trkpt lat="43.23411" lon="1.07019">
        <ele>263.14</ele>
        <time>2018-07-27T05:20:37Z</time>
      </trkpt>
      <trkpt lat="43.2339" lon="1.06983">
        <ele>263.21</ele>
        <time>2018-07-27T05:20:38Z</time>
      </trkpt>
      <trkpt lat="43.23369" lon="1.06947">
        <ele>263.23</ele>
        <time>2018-07-27T05:20:39Z</time>
      </trkpt>
      <trkpt lat="43.23348" lon="1.06912">
        <ele>263.23</ele>
        <time>2018-07-27T05:20:40Z</time>
      </trkpt>
      <trkpt lat="43.23328" lon="1.06876">
        <ele>263.23</ele>
        <time>2018-07-27T05:20:41Z</time>
      </trkpt>
      <trkpt lat="43.23307" lon="1.06841">
        <ele>263.23</ele>
        <time>2018-07-27T05:20:42Z</time>
      </trkpt>
      <trkpt lat="43.23286" lon="1.06805">
        <ele>263.23</ele>
        <time>2018-07-27T05:20:43Z</time>
      </trkpt>
      <trkpt lat="43.23266" lon="1.0677">
        <ele>263.93</ele>
        <time>2018-07-27T05:20:44Z</time>
      </trkpt>
      <trkpt lat="43.23245" lon="1.06736">
        <ele>263.44</ele>
        <time>2018-07-27T05:20:45Z</time>
      </trkpt>
      <trkpt lat="43.23225" lon="1.06701">
        <ele>264</ele>
        <time>2018-07-27T05:20:46Z</time>
      </trkpt>
      <trkpt lat="43.23205" lon="1.06667">
        <ele>264.16</ele>
        <time>2018-07-27T05:20:47Z</time>
      </trkpt>
      <trkpt lat="43.23184" lon="1.06633">
        <ele>264.21</ele>
        <time>2018-07-27T05:20:48Z</time>
      </trkpt>
      <trkpt lat="43.23164" lon="1.06599">
        <ele>264.23</ele>
        <time>2018-07-27T05:20:49Z</time>
      </trkpt>
      <trkpt lat="43.23144" lon="1.06564">
        <ele>264.23</ele>
        <time>2018-07-27T05:20:50Z</time>
      </trkpt>
      <trkpt lat="43.23124" lon="1.0653">
        <ele>264.23</ele>
        <time>2018-07-27T05:20:51Z</time>
      </trkpt>
      <trkpt lat="43.23104" lon="1.06496">
        <ele>264.23</ele>
        <time>2018-07-27T05:20:52Z</time>
      </trkpt>
      <trkpt lat="43.23084" lon="1.06463">
        <ele>264.23</ele>
        <time>2018-07-27T05:20:53Z</time>
      </trkpt>
      <trkpt lat="43.23065" lon="1.0643">
        <ele>264.93</ele>
        <time>2018-07-27T05:20:54Z</time>
      </trkpt>
      <trkpt lat="43.23046" lon="1.06397">
        <ele>265.14</ele>
        <time>2018-07-27T05:20:55Z</time>
      </trkpt>
      <trkpt lat="43.23027" lon="1.06365">
        <ele>265.21</ele>
        <time>2018-07-27T05:20:56Z</time>
      </trkpt>
      <trkpt lat="43.23008" lon="1.06332">
        <ele>265.93</ele>
        <time>2018-07-27T05:20:57Z</time>
      </trkpt>
      <trkpt lat="43.22989" lon="1.06299">
        <ele>266.14</ele>
        <time>2018-07-27T05:20:58Z</time>
      </trkpt>
      <trkpt lat="43.2297" lon="1.06265">
        <ele>264.81</ele>
        <time>2018-07-27T05:20:59Z</time>
      </trkpt>
      <trkpt lat="43.2295" lon="1.06232">
        <ele>265.11</ele>
        <time>2018-07-27T05:21:00Z</time>
      </trkpt>
      <trkpt lat="43.22931" lon="1.06199">
        <ele>265.2</ele>
        <time>2018-07-27T05:21:01Z</time>
      </trkpt>
      <trkpt lat="43.22911" lon="1.06165">
        <ele>264.52</ele>
        <time>2018-07-27T05:21:02Z</time>
      </trkpt>
      <trkpt lat="43.22891" lon="1.06132">
        <ele>265.02</ele>
        <time>2018-07-27T05:21:03Z</time>
      </trkpt>
      <trkpt lat="43.22872" lon="1.06099">
        <ele>265.17</ele>
        <time>2018-07-27T05:21:04Z</time>
      </trkpt>
      <trkpt lat="43.22853" lon="1.06066">
        <ele>265.21</ele>
        <time>2018-07-27T05:21:05Z</time>
      </trkpt>
      <trkpt lat="43.22834" lon="1.06033">
        <ele>265.23</ele>
        <time>2018-07-27T05:21:06Z</time>
      </trkpt>
      <trkpt lat="43.22814" lon="1.06">
        <ele>265.93</ele>
        <time>2018-07-27T05:21:07Z</time>
      </trkpt>
      <trkpt lat="43.22795" lon="1.05967">
        <ele>266.14</ele>
        <time>2018-07-27T05:21:08Z</time>
      </trkpt>
      <trkpt lat="43.22775" lon="1.05934">
        <ele>266.21</ele>
        <time>2018-07-27T05:21:09Z</time>
      </trkpt>
      <trkpt lat="43.22756" lon="1.05899">
        <ele>266.23</ele>
        <time>2018-07-27T05:21:10Z</time>
      </trkpt>
      <trkpt lat="43.22735" lon="1.05865">
        <ele>265.53</ele>
        <time>2018-07-27T05:21:11Z</time>
      </trkpt>
      <trkpt lat="43.22716" lon="1.0583">
        <ele>265.32</ele>
        <time>2018-07-27T05:21:12Z</time>
      </trkpt>
      <trkpt lat="43.22696" lon="1.05795">
        <ele>265.96</ele>
        <time>2018-07-27T05:21:13Z</time>
      </trkpt>
      <trkpt lat="43.22677" lon="1.0576">
        <ele>266.15</ele>
        <time>2018-07-27T05:21:14Z</time>
      </trkpt>
      <trkpt lat="43.22657" lon="1.05725">
        <ele>266.21</ele>
        <time>2018-07-27T05:21:15Z</time>
      </trkpt>
      <trkpt lat="43.22636" lon="1.0569">
        <ele>266.23</ele>
        <time>2018-07-27T05:21:16Z</time>
      </trkpt>
      <trkpt lat="43.22616" lon="1.05655">
        <ele>266.23</ele>
        <time>2018-07-27T05:21:17Z</time>
      </trkpt>
      <trkpt lat="43.22596" lon="1.05619">
        <ele>265.53</ele>
        <time>2018-07-27T05:21:18Z</time>
      </trkpt>
      <trkpt lat="43.22576" lon="1.05584">
        <ele>264.62</ele>
        <time>2018-07-27T05:21:19Z</time>
      </trkpt>
      <trkpt lat="43.22556" lon="1.0555">
        <ele>264.35</ele>
        <time>2018-07-27T05:21:20Z</time>
      </trkpt>
      <trkpt lat="43.22536" lon="1.05516">
        <ele>263.57</ele>
        <time>2018-07-27T05:21:21Z</time>
      </trkpt>
      <trkpt lat="43.22516" lon="1.05482">
        <ele>262.63</ele>
        <time>2018-07-27T05:21:22Z</time>
      </trkpt>
      <trkpt lat="43.22496" lon="1.05449">
        <ele>262.35</ele>
        <time>2018-07-27T05:21:23Z</time>
      </trkpt>
      <trkpt lat="43.22476" lon="1.05416">
        <ele>261.57</ele>
        <time>2018-07-27T05:21:24Z</time>
      </trkpt>
      <trkpt lat="43.22456" lon="1.05383">
        <ele>261.33</ele>
        <time>2018-07-27T05:21:25Z</time>
      </trkpt>
      <trkpt lat="43.22436" lon="1.0535">
        <ele>261.26</ele>
        <time>2018-07-27T05:21:26Z</time>
      </trkpt>
      <trkpt lat="43.22416" lon="1.05318">
        <ele>261.24</ele>
        <time>2018-07-27T05:21:27Z</time>
      </trkpt>
      <trkpt lat="43.22396" lon="1.05284">
        <ele>260.54</ele>
        <time>2018-07-27T05:21:28Z</time>
      </trkpt>
      <trkpt lat="43.22377" lon="1.05251">
        <ele>260.32</ele>
        <time>2018-07-27T05:21:29Z</time>
      </trkpt>
      <trkpt lat="43.22357" lon="1.05218">
        <ele>260.96</ele>
        <time>2018-07-27T05:21:30Z</time>
      </trkpt>
      <trkpt lat="43.22338" lon="1.05185">
        <ele>261.15</ele>
        <time>2018-07-27T05:21:31Z</time>
      </trkpt>
      <trkpt lat="43.22319" lon="1.05151">
        <ele>260.51</ele>
        <time>2018-07-27T05:21:32Z</time>
      </trkpt>
      <trkpt lat="43.22299" lon="1.05118">
        <ele>260.32</ele>
        <time>2018-07-27T05:21:33Z</time>
      </trkpt>
      <trkpt lat="43.2228" lon="1.05084">
        <ele>260.26</ele>
        <time>2018-07-27T05:21:34Z</time>
      </trkpt>
      <trkpt lat="43.22261" lon="1.05051">
        <ele>260.94</ele>
        <time>2018-07-27T05:21:35Z</time>
      </trkpt>
      <trkpt lat="43.22241" lon="1.05017">
        <ele>261.15</ele>
        <time>2018-07-27T05:21:36Z</time>
      </trkpt>
      <trkpt lat="43.22221" lon="1.04983">
        <ele>260.51</ele>
        <time>2018-07-27T05:21:37Z</time>
      </trkpt>
      <trkpt lat="43.22201" lon="1.04948">
        <ele>260.32</ele>
        <time>2018-07-27T05:21:38Z</time>
      </trkpt>
      <trkpt lat="43.22181" lon="1.04914">
        <ele>260.26</ele>
        <time>2018-07-27T05:21:39Z</time>
      </trkpt>
      <trkpt lat="43.22162" lon="1.04879">
        <ele>260.24</ele>
        <time>2018-07-27T05:21:40Z</time>
      </trkpt>
      <trkpt lat="43.22142" lon="1.04844">
        <ele>260.94</ele>
        <time>2018-07-27T05:21:41Z</time>
      </trkpt>
      <trkpt lat="43.22122" lon="1.0481">
        <ele>261.14</ele>
        <time>2018-07-27T05:21:42Z</time>
      </trkpt>
      <trkpt lat="43.22103" lon="1.04775">
        <ele>261.21</ele>
        <time>2018-07-27T05:21:43Z</time>
      </trkpt>
      <trkpt lat="43.22083" lon="1.04741">
        <ele>261.23</ele>
        <time>2018-07-27T05:21:44Z</time>
      </trkpt>
      <trkpt lat="43.22063" lon="1.04706">
        <ele>261.23</ele>
        <time>2018-07-27T05:21:45Z</time>
      </trkpt>
      <trkpt lat="43.22043" lon="1.04672">
        <ele>261.23</ele>
        <time>2018-07-27T05:21:46Z</time>
      </trkpt>
      <trkpt lat="43.22023" lon="1.04638">
        <ele>261.93</ele>
        <time>2018-07-27T05:21:47Z</time>
      </trkpt>
      <trkpt lat="43.22003" lon="1.04603">
        <ele>262.14</ele>
        <time>2018-07-27T05:21:48Z</time>
      </trkpt>
      <trkpt lat="43.21983" lon="1.04569">
        <ele>262.21</ele>
        <time>2018-07-27T05:21:49Z</time>
      </trkpt>
      <trkpt lat="43.21962" lon="1.04534">
        <ele>262.23</ele>
        <time>2018-07-27T05:21:50Z</time>
      </trkpt>
      <trkpt lat="43.21942" lon="1.04499">
        <ele>262.23</ele>
        <time>2018-07-27T05:21:51Z</time>
      </trkpt>
      <trkpt lat="43.21921" lon="1.04465">
        <ele>262.23</ele>
        <time>2018-07-27T05:21:52Z</time>
      </trkpt>
      <trkpt lat="43.21901" lon="1.0443">
        <ele>262.23</ele>
        <time>2018-07-27T05:21:53Z</time>
      </trkpt>
      <trkpt lat="43.21881" lon="1.04396">
        <ele>262.23</ele>
        <time>2018-07-27T05:21:54Z</time>
      </trkpt>
      <trkpt lat="43.21862" lon="1.04361">
        <ele>262.23</ele>
        <time>2018-07-27T05:21:55Z</time>
      </trkpt>
      <trkpt lat="43.21842" lon="1.04326">
        <ele>262.23</ele>
        <time>2018-07-27T05:21:56Z</time>
      </trkpt>
      <trkpt lat="43.21822" lon="1.04291">
        <ele>262.23</ele>
        <time>2018-07-27T05:21:57Z</time>
      </trkpt>
      <trkpt lat="43.21801" lon="1.04257">
        <ele>262.93</ele>
        <time>2018-07-27T05:21:58Z</time>
      </trkpt>
      <trkpt lat="43.21781" lon="1.04222">
        <ele>263.14</ele>
        <time>2018-07-27T05:21:59Z</time>
      </trkpt>
      <trkpt lat="43.21761" lon="1.04187">
        <ele>263.21</ele>
        <time>2018-07-27T05:22:00Z</time>
      </trkpt>
      <trkpt lat="43.21741" lon="1.04153">
        <ele>263.23</ele>
        <time>2018-07-27T05:22:01Z</time>
      </trkpt>
      <trkpt lat="43.2172" lon="1.04118">
        <ele>263.23</ele>
        <time>2018-07-27T05:22:02Z</time>
      </trkpt>
      <trkpt lat="43.217" lon="1.04083">
        <ele>263.23</ele>
        <time>2018-07-27T05:22:03Z</time>
      </trkpt>
      <trkpt lat="43.21679" lon="1.04048">
        <ele>263.23</ele>
        <time>2018-07-27T05:22:04Z</time>
      </trkpt>
      <trkpt lat="43.21659" lon="1.04013">
        <ele>263.23</ele>
        <time>2018-07-27T05:22:05Z</time>
      </trkpt>
      <trkpt lat="43.21638" lon="1.03979">
        <ele>263.23</ele>
        <time>2018-07-27T05:22:06Z</time>
      </trkpt>
      <trkpt lat="43.21618" lon="1.03944">
        <ele>263.23</ele>
        <time>2018-07-27T05:22:07Z</time>
      </trkpt>
      <trkpt lat="43.21597" lon="1.03908">
        <ele>263.23</ele>
        <time>2018-07-27T05:22:08Z</time>
      </trkpt>
      <trkpt lat="43.21577" lon="1.03873">
        <ele>263.23</ele>
        <time>2018-07-27T05:22:09Z</time>
      </trkpt>
      <trkpt lat="43.21556" lon="1.03838">
        <ele>263.23</ele>
        <time>2018-07-27T05:22:10Z</time>
      </trkpt>
      <trkpt lat="43.21536" lon="1.03803">
        <ele>263.23</ele>
        <time>2018-07-27T05:22:11Z</time>
      </trkpt>
      <trkpt lat="43.21515" lon="1.03768">
        <ele>263.23</ele>
        <time>2018-07-27T05:22:12Z</time>
      </trkpt>
      <trkpt lat="43.21494" lon="1.03733">
        <ele>263.23</ele>
        <time>2018-07-27T05:22:13Z</time>
      </trkpt>
      <trkpt lat="43.21474" lon="1.03699">
        <ele>263.23</ele>
        <time>2018-07-27T05:22:14Z</time>
      </trkpt>
      <trkpt lat="43.21453" lon="1.03664">
        <ele>263.23</ele>
        <time>2018-07-27T05:22:15Z</time>
      </trkpt>
      <trkpt lat="43.21431" lon="1.0363">
        <ele>263.93</ele>
        <time>2018-07-27T05:22:16Z</time>
      </trkpt>
      <trkpt lat="43.21411" lon="1.03595">
        <ele>263.44</ele>
        <time>2018-07-27T05:22:17Z</time>
      </trkpt>
      <trkpt lat="43.2139" lon="1.03561">
        <ele>263.3</ele>
        <time>2018-07-27T05:22:18Z</time>
      </trkpt>
      <trkpt lat="43.2137" lon="1.03526">
        <ele>263.95</ele>
        <time>2018-07-27T05:22:19Z</time>
      </trkpt>
      <trkpt lat="43.21349" lon="1.03491">
        <ele>264.15</ele>
        <time>2018-07-27T05:22:20Z</time>
      </trkpt>
      <trkpt lat="43.21328" lon="1.03456">
        <ele>264.21</ele>
        <time>2018-07-27T05:22:21Z</time>
      </trkpt>
      <trkpt lat="43.21307" lon="1.0342">
        <ele>264.23</ele>
        <time>2018-07-27T05:22:22Z</time>
      </trkpt>
      <trkpt lat="43.21286" lon="1.03384">
        <ele>264.23</ele>
        <time>2018-07-27T05:22:23Z</time>
      </trkpt>
      <trkpt lat="43.21266" lon="1.03349">
        <ele>264.23</ele>
        <time>2018-07-27T05:22:24Z</time>
      </trkpt>
      <trkpt lat="43.21246" lon="1.03314">
        <ele>264.23</ele>
        <time>2018-07-27T05:22:25Z</time>
      </trkpt>
      <trkpt lat="43.21225" lon="1.03279">
        <ele>264.93</ele>
        <time>2018-07-27T05:22:26Z</time>
      </trkpt>
      <trkpt lat="43.21205" lon="1.03245">
        <ele>265.14</ele>
        <time>2018-07-27T05:22:27Z</time>
      </trkpt>
      <trkpt lat="43.21184" lon="1.0321">
        <ele>265.21</ele>
        <time>2018-07-27T05:22:28Z</time>
      </trkpt>
      <trkpt lat="43.21164" lon="1.03176">
        <ele>265.23</ele>
        <time>2018-07-27T05:22:29Z</time>
      </trkpt>
      <trkpt lat="43.21144" lon="1.03141">
        <ele>265.23</ele>
        <time>2018-07-27T05:22:30Z</time>
      </trkpt>
      <trkpt lat="43.21124" lon="1.03107">
        <ele>265.93</ele>
        <time>2018-07-27T05:22:31Z</time>
      </trkpt>
      <trkpt lat="43.21104" lon="1.03073">
        <ele>266.14</ele>
        <time>2018-07-27T05:22:32Z</time>
      </trkpt>
      <trkpt lat="43.21084" lon="1.03038">
        <ele>266.21</ele>
        <time>2018-07-27T05:22:33Z</time>
      </trkpt>
      <trkpt lat="43.21063" lon="1.03004">
        <ele>266.23</ele>
        <time>2018-07-27T05:22:34Z</time>
      </trkpt>
      <trkpt lat="43.21044" lon="1.02969">
        <ele>266.23</ele>
        <time>2018-07-27T05:22:35Z</time>
      </trkpt>
      <trkpt lat="43.21023" lon="1.02934">
        <ele>266.23</ele>
        <time>2018-07-27T05:22:36Z</time>
      </trkpt>
      <trkpt lat="43.21003" lon="1.029">
        <ele>266.23</ele>
        <time>2018-07-27T05:22:37Z</time>
      </trkpt>
      <trkpt lat="43.20984" lon="1.02865">
        <ele>266.23</ele>
        <time>2018-07-27T05:22:38Z</time>
      </trkpt>
      <trkpt lat="43.20965" lon="1.0283">
        <ele>266.93</ele>
        <time>2018-07-27T05:22:39Z</time>
      </trkpt>
      <trkpt lat="43.20946" lon="1.02793">
        <ele>267.14</ele>
        <time>2018-07-27T05:22:40Z</time>
      </trkpt>
      <trkpt lat="43.20929" lon="1.02757">
        <ele>267.21</ele>
        <time>2018-07-27T05:22:41Z</time>
      </trkpt>
      <trkpt lat="43.20911" lon="1.02719">
        <ele>267.23</ele>
        <time>2018-07-27T05:22:42Z</time>
      </trkpt>
      <trkpt lat="43.20895" lon="1.02681">
        <ele>267.23</ele>
        <time>2018-07-27T05:22:43Z</time>
      </trkpt>
      <trkpt lat="43.20879" lon="1.02642">
        <ele>267.23</ele>
        <time>2018-07-27T05:22:44Z</time>
      </trkpt>
      <trkpt lat="43.20865" lon="1.02603">
        <ele>266.53</ele>
        <time>2018-07-27T05:22:45Z</time>
      </trkpt>
      <trkpt lat="43.20851" lon="1.02563">
        <ele>266.32</ele>
        <time>2018-07-27T05:22:46Z</time>
      </trkpt>
      <trkpt lat="43.20838" lon="1.02522">
        <ele>266.26</ele>
        <time>2018-07-27T05:22:47Z</time>
      </trkpt>
      <trkpt lat="43.20826" lon="1.02481">
        <ele>266.94</ele>
        <time>2018-07-27T05:22:48Z</time>
      </trkpt>
      <trkpt lat="43.20815" lon="1.02438">
        <ele>267.85</ele>
        <time>2018-07-27T05:22:49Z</time>
      </trkpt>
      <trkpt lat="43.20805" lon="1.02396">
        <ele>268.12</ele>
        <time>2018-07-27T05:22:50Z</time>
      </trkpt>
      <trkpt lat="43.20795" lon="1.02352">
        <ele>268.2</ele>
        <time>2018-07-27T05:22:51Z</time>
      </trkpt>
      <trkpt lat="43.20786" lon="1.02309">
        <ele>268.22</ele>
        <time>2018-07-27T05:22:52Z</time>
      </trkpt>
      <trkpt lat="43.20778" lon="1.02266">
        <ele>268.23</ele>
        <time>2018-07-27T05:22:53Z</time>
      </trkpt>
      <trkpt lat="43.2077" lon="1.02222">
        <ele>268.23</ele>
        <time>2018-07-27T05:22:54Z</time>
      </trkpt>
      <trkpt lat="43.20762" lon="1.02179">
        <ele>267.53</ele>
        <time>2018-07-27T05:22:55Z</time>
      </trkpt>
      <trkpt lat="43.20755" lon="1.02136">
        <ele>268.02</ele>
        <time>2018-07-27T05:22:56Z</time>
      </trkpt>
      <trkpt lat="43.20747" lon="1.02092">
        <ele>268.17</ele>
        <time>2018-07-27T05:22:57Z</time>
      </trkpt>
      <trkpt lat="43.2074" lon="1.02049">
        <ele>268.22</ele>
        <time>2018-07-27T05:22:58Z</time>
      </trkpt>
      <trkpt lat="43.20732" lon="1.02005">
        <ele>268.23</ele>
        <time>2018-07-27T05:22:59Z</time>
      </trkpt>
      <trkpt lat="43.20724" lon="1.01962">
        <ele>268.23</ele>
        <time>2018-07-27T05:23:00Z</time>
      </trkpt>
      <trkpt lat="43.20715" lon="1.0192">
        <ele>268.23</ele>
        <time>2018-07-27T05:23:01Z</time>
      </trkpt>
      <trkpt lat="43.20706" lon="1.01877">
        <ele>267.53</ele>
        <time>2018-07-27T05:23:02Z</time>
      </trkpt>
      <trkpt lat="43.20695" lon="1.01836">
        <ele>267.32</ele>
        <time>2018-07-27T05:23:03Z</time>
      </trkpt>
      <trkpt lat="43.20684" lon="1.01794">
        <ele>267.96</ele>
        <time>2018-07-27T05:23:04Z</time>
      </trkpt>
      <trkpt lat="43.20673" lon="1.01753">
        <ele>268.15</ele>
        <time>2018-07-27T05:23:05Z</time>
      </trkpt>
      <trkpt lat="43.2066" lon="1.01712">
        <ele>267.51</ele>
        <time>2018-07-27T05:23:06Z</time>
      </trkpt>
      <trkpt lat="43.20646" lon="1.01672">
        <ele>267.32</ele>
        <time>2018-07-27T05:23:07Z</time>
      </trkpt>
      <trkpt lat="43.20631" lon="1.01633">
        <ele>267.26</ele>
        <time>2018-07-27T05:23:08Z</time>
      </trkpt>
      <trkpt lat="43.20615" lon="1.01594">
        <ele>267.24</ele>
        <time>2018-07-27T05:23:09Z</time>
      </trkpt>
      <trkpt lat="43.20599" lon="1.01555">
        <ele>267.94</ele>
        <time>2018-07-27T05:23:10Z</time>
      </trkpt>
      <trkpt lat="43.20582" lon="1.01516">
        <ele>268.14</ele>
        <time>2018-07-27T05:23:11Z</time>
      </trkpt>
      <trkpt lat="43.20564" lon="1.01478">
        <ele>268.21</ele>
        <time>2018-07-27T05:23:12Z</time>
      </trkpt>
      <trkpt lat="43.20546" lon="1.01439">
        <ele>268.93</ele>
        <time>2018-07-27T05:23:13Z</time>
      </trkpt>
      <trkpt lat="43.20528" lon="1.01401">
        <ele>269.14</ele>
        <time>2018-07-27T05:23:14Z</time>
      </trkpt>
      <trkpt lat="43.2051" lon="1.01363">
        <ele>269.21</ele>
        <time>2018-07-27T05:23:15Z</time>
      </trkpt>
      <trkpt lat="43.20492" lon="1.01324">
        <ele>269.23</ele>
        <time>2018-07-27T05:23:16Z</time>
      </trkpt>
      <trkpt lat="43.20474" lon="1.01286">
        <ele>269.23</ele>
        <time>2018-07-27T05:23:17Z</time>
      </trkpt>
      <trkpt lat="43.20456" lon="1.01248">
        <ele>269.23</ele>
        <time>2018-07-27T05:23:18Z</time>
      </trkpt>
      <trkpt lat="43.20438" lon="1.0121">
        <ele>269.23</ele>
        <time>2018-07-27T05:23:19Z</time>
      </trkpt>
      <trkpt lat="43.2042" lon="1.01172">
        <ele>269.23</ele>
        <time>2018-07-27T05:23:20Z</time>
      </trkpt>
      <trkpt lat="43.20402" lon="1.01134">
        <ele>269.23</ele>
        <time>2018-07-27T05:23:21Z</time>
      </trkpt>
      <trkpt lat="43.20384" lon="1.01097">
        <ele>269.23</ele>
        <time>2018-07-27T05:23:22Z</time>
      </trkpt>
      <trkpt lat="43.20366" lon="1.0106">
        <ele>269.23</ele>
        <time>2018-07-27T05:23:23Z</time>
      </trkpt>
      <trkpt lat="43.20349" lon="1.01024">
        <ele>268.53</ele>
        <time>2018-07-27T05:23:24Z</time>
      </trkpt>
      <trkpt lat="43.20332" lon="1.00987">
        <ele>268.32</ele>
        <time>2018-07-27T05:23:25Z</time>
      </trkpt>
      <trkpt lat="43.20314" lon="1.0095">
        <ele>268.26</ele>
        <time>2018-07-27T05:23:26Z</time>
      </trkpt>
      <trkpt lat="43.20297" lon="1.00913">
        <ele>268.24</ele>
        <time>2018-07-27T05:23:27Z</time>
      </trkpt>
      <trkpt lat="43.2028" lon="1.00875">
        <ele>268.24</ele>
        <time>2018-07-27T05:23:28Z</time>
      </trkpt>
      <trkpt lat="43.20263" lon="1.00838">
        <ele>268.93</ele>
        <time>2018-07-27T05:23:29Z</time>
      </trkpt>
      <trkpt lat="43.20246" lon="1.00801">
        <ele>269.14</ele>
        <time>2018-07-27T05:23:30Z</time>
      </trkpt>
      <trkpt lat="43.20228" lon="1.00763">
        <ele>269.21</ele>
        <time>2018-07-27T05:23:31Z</time>
      </trkpt>
      <trkpt lat="43.20211" lon="1.00726">
        <ele>269.23</ele>
        <time>2018-07-27T05:23:32Z</time>
      </trkpt>
      <trkpt lat="43.20194" lon="1.0069">
        <ele>269.23</ele>
        <time>2018-07-27T05:23:33Z</time>
      </trkpt>
      <trkpt lat="43.20177" lon="1.00654">
        <ele>269.23</ele>
        <time>2018-07-27T05:23:34Z</time>
      </trkpt>
      <trkpt lat="43.20159" lon="1.00618">
        <ele>269.23</ele>
        <time>2018-07-27T05:23:35Z</time>
      </trkpt>
      <trkpt lat="43.20142" lon="1.00582">
        <ele>269.23</ele>
        <time>2018-07-27T05:23:36Z</time>
      </trkpt>
      <trkpt lat="43.20125" lon="1.00546">
        <ele>269.93</ele>
        <time>2018-07-27T05:23:37Z</time>
      </trkpt>
      <trkpt lat="43.20108" lon="1.0051">
        <ele>269.44</ele>
        <time>2018-07-27T05:23:38Z</time>
      </trkpt>
      <trkpt lat="43.20091" lon="1.00473">
        <ele>269.3</ele>
        <time>2018-07-27T05:23:39Z</time>
      </trkpt>
      <trkpt lat="43.20073" lon="1.00436">
        <ele>269.95</ele>
        <time>2018-07-27T05:23:40Z</time>
      </trkpt>
      <trkpt lat="43.20056" lon="1.00399">
        <ele>270.15</ele>
        <time>2018-07-27T05:23:41Z</time>
      </trkpt>
      <trkpt lat="43.20038" lon="1.00362">
        <ele>270.21</ele>
        <time>2018-07-27T05:23:42Z</time>
      </trkpt>
      <trkpt lat="43.2002" lon="1.00324">
        <ele>269.53</ele>
        <time>2018-07-27T05:23:43Z</time>
      </trkpt>
      <trkpt lat="43.20003" lon="1.00286">
        <ele>269.32</ele>
        <time>2018-07-27T05:23:44Z</time>
      </trkpt>
      <trkpt lat="43.19984" lon="1.00248">
        <ele>269.96</ele>
        <time>2018-07-27T05:23:45Z</time>
      </trkpt>
      <trkpt lat="43.19966" lon="1.00209">
        <ele>270.15</ele>
        <time>2018-07-27T05:23:46Z</time>
      </trkpt>
      <trkpt lat="43.19949" lon="1.00171">
        <ele>270.91</ele>
        <time>2018-07-27T05:23:47Z</time>
      </trkpt>
      <trkpt lat="43.19931" lon="1.00132">
        <ele>271.14</ele>
        <time>2018-07-27T05:23:48Z</time>
      </trkpt>
      <trkpt lat="43.19912" lon="1.00093">
        <ele>271.2</ele>
        <time>2018-07-27T05:23:49Z</time>
      </trkpt>
      <trkpt lat="43.19894" lon="1.00055">
        <ele>271.23</ele>
        <time>2018-07-27T05:23:50Z</time>
      </trkpt>
      <trkpt lat="43.19876" lon="1.00017">
        <ele>271.23</ele>
        <time>2018-07-27T05:23:51Z</time>
      </trkpt>
      <trkpt lat="43.19857" lon="0.99978">
        <ele>271.23</ele>
        <time>2018-07-27T05:23:52Z</time>
      </trkpt>
      <trkpt lat="43.19839" lon="0.99939">
        <ele>271.23</ele>
        <time>2018-07-27T05:23:53Z</time>
      </trkpt>
      <trkpt lat="43.1982" lon="0.999">
        <ele>271.23</ele>
        <time>2018-07-27T05:23:54Z</time>
      </trkpt>
      <trkpt lat="43.19802" lon="0.99861">
        <ele>271.23</ele>
        <time>2018-07-27T05:23:55Z</time>
      </trkpt>
      <trkpt lat="43.19784" lon="0.99823">
        <ele>271.23</ele>
        <time>2018-07-27T05:23:56Z</time>
      </trkpt>
      <trkpt lat="43.19765" lon="0.99784">
        <ele>271.93</ele>
        <time>2018-07-27T05:23:57Z</time>
      </trkpt>
      <trkpt lat="43.19747" lon="0.99746">
        <ele>272.14</ele>
        <time>2018-07-27T05:23:58Z</time>
      </trkpt>
      <trkpt lat="43.19729" lon="0.99706">
        <ele>272.21</ele>
        <time>2018-07-27T05:23:59Z</time>
      </trkpt>
      <trkpt lat="43.1971" lon="0.99668">
        <ele>272.23</ele>
        <time>2018-07-27T05:24:00Z</time>
      </trkpt>
      <trkpt lat="43.19692" lon="0.99629">
        <ele>272.23</ele>
        <time>2018-07-27T05:24:01Z</time>
      </trkpt>
      <trkpt lat="43.19674" lon="0.99591">
        <ele>272.23</ele>
        <time>2018-07-27T05:24:02Z</time>
      </trkpt>
      <trkpt lat="43.19656" lon="0.99552">
        <ele>272.23</ele>
        <time>2018-07-27T05:24:03Z</time>
      </trkpt>
      <trkpt lat="43.19638" lon="0.99514">
        <ele>272.23</ele>
        <time>2018-07-27T05:24:04Z</time>
      </trkpt>
      <trkpt lat="43.1962" lon="0.99476">
        <ele>272.23</ele>
        <time>2018-07-27T05:24:05Z</time>
      </trkpt>
      <trkpt lat="43.19602" lon="0.99438">
        <ele>272.23</ele>
        <time>2018-07-27T05:24:06Z</time>
      </trkpt>
      <trkpt lat="43.19584" lon="0.994">
        <ele>272.23</ele>
        <time>2018-07-27T05:24:07Z</time>
      </trkpt>
      <trkpt lat="43.19566" lon="0.99362">
        <ele>272.23</ele>
        <time>2018-07-27T05:24:08Z</time>
      </trkpt>
      <trkpt lat="43.19548" lon="0.99324">
        <ele>272.23</ele>
        <time>2018-07-27T05:24:09Z</time>
      </trkpt>
      <trkpt lat="43.1953" lon="0.99286">
        <ele>272.93</ele>
        <time>2018-07-27T05:24:10Z</time>
      </trkpt>
      <trkpt lat="43.19513" lon="0.99248">
        <ele>273.14</ele>
        <time>2018-07-27T05:24:11Z</time>
      </trkpt>
      <trkpt lat="43.19496" lon="0.9921">
        <ele>273.21</ele>
        <time>2018-07-27T05:24:12Z</time>
      </trkpt>
      <trkpt lat="43.19479" lon="0.99171">
        <ele>273.23</ele>
        <time>2018-07-27T05:24:13Z</time>
      </trkpt>
      <trkpt lat="43.19461" lon="0.99133">
        <ele>273.23</ele>
        <time>2018-07-27T05:24:14Z</time>
      </trkpt>
      <trkpt lat="43.19443" lon="0.99096">
        <ele>273.23</ele>
        <time>2018-07-27T05:24:15Z</time>
      </trkpt>
      <trkpt lat="43.19425" lon="0.99058">
        <ele>273.23</ele>
        <time>2018-07-27T05:24:16Z</time>
      </trkpt>
      <trkpt lat="43.19408" lon="0.99021">
        <ele>273.23</ele>
        <time>2018-07-27T05:24:17Z</time>
      </trkpt>
      <trkpt lat="43.19389" lon="0.98983">
        <ele>273.23</ele>
        <time>2018-07-27T05:24:18Z</time>
      </trkpt>
      <trkpt lat="43.19372" lon="0.98945">
        <ele>273.23</ele>
        <time>2018-07-27T05:24:19Z</time>
      </trkpt>
      <trkpt lat="43.19354" lon="0.98907">
        <ele>273.23</ele>
        <time>2018-07-27T05:24:20Z</time>
      </trkpt>
      <trkpt lat="43.19336" lon="0.9887">
        <ele>273.93</ele>
        <time>2018-07-27T05:24:21Z</time>
      </trkpt>
      <trkpt lat="43.19318" lon="0.98831">
        <ele>274.14</ele>
        <time>2018-07-27T05:24:22Z</time>
      </trkpt>
      <trkpt lat="43.19301" lon="0.98793">
        <ele>274.91</ele>
        <time>2018-07-27T05:24:23Z</time>
      </trkpt>
      <trkpt lat="43.19283" lon="0.98755">
        <ele>275.14</ele>
        <time>2018-07-27T05:24:24Z</time>
      </trkpt>
      <trkpt lat="43.19265" lon="0.98718">
        <ele>275.2</ele>
        <time>2018-07-27T05:24:25Z</time>
      </trkpt>
      <trkpt lat="43.19246" lon="0.9868">
        <ele>275.93</ele>
        <time>2018-07-27T05:24:26Z</time>
      </trkpt>
      <trkpt lat="43.19227" lon="0.98644">
        <ele>276.14</ele>
        <time>2018-07-27T05:24:27Z</time>
      </trkpt>
      <trkpt lat="43.19207" lon="0.98608">
        <ele>276.21</ele>
        <time>2018-07-27T05:24:28Z</time>
      </trkpt>
      <trkpt lat="43.19186" lon="0.98573">
        <ele>276.93</ele>
        <time>2018-07-27T05:24:29Z</time>
      </trkpt>
      <trkpt lat="43.19164" lon="0.9854">
        <ele>277.14</ele>
        <time>2018-07-27T05:24:30Z</time>
      </trkpt>
      <trkpt lat="43.19141" lon="0.98508">
        <ele>277.21</ele>
        <time>2018-07-27T05:24:31Z</time>
      </trkpt>
      <trkpt lat="43.19118" lon="0.98476">
        <ele>277.23</ele>
        <time>2018-07-27T05:24:32Z</time>
      </trkpt>
      <trkpt lat="43.19095" lon="0.98446">
        <ele>276.53</ele>
        <time>2018-07-27T05:24:33Z</time>
      </trkpt>
      <trkpt lat="43.19071" lon="0.98416">
        <ele>276.32</ele>
        <time>2018-07-27T05:24:34Z</time>
      </trkpt>
      <trkpt lat="43.19046" lon="0.98387">
        <ele>275.56</ele>
        <time>2018-07-27T05:24:35Z</time>
      </trkpt>
      <trkpt lat="43.19021" lon="0.98359">
        <ele>275.33</ele>
        <time>2018-07-27T05:24:36Z</time>
      </trkpt>
      <trkpt lat="43.18995" lon="0.98331">
        <ele>274.56</ele>
        <time>2018-07-27T05:24:37Z</time>
      </trkpt>
      <trkpt lat="43.1897" lon="0.98303">
        <ele>273.63</ele>
        <time>2018-07-27T05:24:38Z</time>
      </trkpt>
      <trkpt lat="43.18945" lon="0.98274">
        <ele>273.35</ele>
        <time>2018-07-27T05:24:39Z</time>
      </trkpt>
      <trkpt lat="43.1892" lon="0.98247">
        <ele>272.57</ele>
        <time>2018-07-27T05:24:40Z</time>
      </trkpt>
      <trkpt lat="43.18895" lon="0.98219">
        <ele>272.33</ele>
        <time>2018-07-27T05:24:41Z</time>
      </trkpt>
      <trkpt lat="43.18869" lon="0.98192">
        <ele>271.56</ele>
        <time>2018-07-27T05:24:42Z</time>
      </trkpt>
      <trkpt lat="43.18842" lon="0.98167">
        <ele>270.63</ele>
        <time>2018-07-27T05:24:43Z</time>
      </trkpt>
      <trkpt lat="43.18814" lon="0.98144">
        <ele>270.35</ele>
        <time>2018-07-27T05:24:44Z</time>
      </trkpt>
      <trkpt lat="43.18786" lon="0.98122">
        <ele>270.27</ele>
        <time>2018-07-27T05:24:45Z</time>
      </trkpt>
      <trkpt lat="43.18757" lon="0.98102">
        <ele>269.54</ele>
        <time>2018-07-27T05:24:46Z</time>
      </trkpt>
      <trkpt lat="43.18727" lon="0.98084">
        <ele>268.63</ele>
        <time>2018-07-27T05:24:47Z</time>
      </trkpt>
      <trkpt lat="43.18697" lon="0.98067">
        <ele>268.35</ele>
        <time>2018-07-27T05:24:48Z</time>
      </trkpt>
      <trkpt lat="43.18667" lon="0.98051">
        <ele>267.57</ele>
        <time>2018-07-27T05:24:49Z</time>
      </trkpt>
      <trkpt lat="43.18637" lon="0.98038">
        <ele>267.33</ele>
        <time>2018-07-27T05:24:50Z</time>
      </trkpt>
      <trkpt lat="43.18606" lon="0.98024">
        <ele>266.56</ele>
        <time>2018-07-27T05:24:51Z</time>
      </trkpt>
      <trkpt lat="43.18575" lon="0.98013">
        <ele>266.33</ele>
        <time>2018-07-27T05:24:52Z</time>
      </trkpt>
      <trkpt lat="43.18545" lon="0.98004">
        <ele>265.56</ele>
        <time>2018-07-27T05:24:53Z</time>
      </trkpt>
      <trkpt lat="43.18514" lon="0.97994">
        <ele>265.33</ele>
        <time>2018-07-27T05:24:54Z</time>
      </trkpt>
      <trkpt lat="43.18482" lon="0.97988">
        <ele>265.26</ele>
        <time>2018-07-27T05:24:55Z</time>
      </trkpt>
      <trkpt lat="43.18451" lon="0.97981">
        <ele>265.24</ele>
        <time>2018-07-27T05:24:56Z</time>
      </trkpt>
      <trkpt lat="43.18419" lon="0.97973">
        <ele>265.24</ele>
        <time>2018-07-27T05:24:57Z</time>
      </trkpt>
      <trkpt lat="43.18387" lon="0.97967">
        <ele>265.93</ele>
        <time>2018-07-27T05:24:58Z</time>
      </trkpt>
      <trkpt lat="43.18355" lon="0.97962">
        <ele>266.14</ele>
        <time>2018-07-27T05:24:59Z</time>
      </trkpt>
      <trkpt lat="43.18323" lon="0.97957">
        <ele>266.21</ele>
        <time>2018-07-27T05:25:00Z</time>
      </trkpt>
      <trkpt lat="43.18292" lon="0.97952">
        <ele>266.93</ele>
        <time>2018-07-27T05:25:01Z</time>
      </trkpt>
      <trkpt lat="43.1826" lon="0.97948">
        <ele>267.14</ele>
        <time>2018-07-27T05:25:02Z</time>
      </trkpt>
      <trkpt lat="43.18229" lon="0.97943">
        <ele>267.21</ele>
        <time>2018-07-27T05:25:03Z</time>
      </trkpt>
      <trkpt lat="43.18197" lon="0.97938">
        <ele>267.23</ele>
        <time>2018-07-27T05:25:04Z</time>
      </trkpt>
      <trkpt lat="43.18166" lon="0.97933">
        <ele>267.23</ele>
        <time>2018-07-27T05:25:05Z</time>
      </trkpt>
      <trkpt lat="43.18135" lon="0.97929">
        <ele>267.23</ele>
        <time>2018-07-27T05:25:06Z</time>
      </trkpt>
      <trkpt lat="43.18103" lon="0.97926">
        <ele>267.23</ele>
        <time>2018-07-27T05:25:07Z</time>
      </trkpt>
      <trkpt lat="43.18072" lon="0.97922">
        <ele>267.93</ele>
        <time>2018-07-27T05:25:08Z</time>
      </trkpt>
      <trkpt lat="43.18041" lon="0.97917">
        <ele>268.14</ele>
        <time>2018-07-27T05:25:09Z</time>
      </trkpt>
      <trkpt lat="43.1801" lon="0.97912">
        <ele>268.21</ele>
        <time>2018-07-27T05:25:10Z</time>
      </trkpt>
      <trkpt lat="43.17978" lon="0.97906">
        <ele>267.53</ele>
        <time>2018-07-27T05:25:11Z</time>
      </trkpt>
      <trkpt lat="43.17947" lon="0.979">
        <ele>267.32</ele>
        <time>2018-07-27T05:25:12Z</time>
      </trkpt>
      <trkpt lat="43.17916" lon="0.97893">
        <ele>267.96</ele>
        <time>2018-07-27T05:25:13Z</time>
      </trkpt>
      <trkpt lat="43.17885" lon="0.97885">
        <ele>268.15</ele>
        <time>2018-07-27T05:25:14Z</time>
      </trkpt>
      <trkpt lat="43.17855" lon="0.97876">
        <ele>268.21</ele>
        <time>2018-07-27T05:25:15Z</time>
      </trkpt>
      <trkpt lat="43.17824" lon="0.97867">
        <ele>268.93</ele>
        <time>2018-07-27T05:25:16Z</time>
      </trkpt>
      <trkpt lat="43.17793" lon="0.97856">
        <ele>269.14</ele>
        <time>2018-07-27T05:25:17Z</time>
      </trkpt>
      <trkpt lat="43.17762" lon="0.97844">
        <ele>268.51</ele>
        <time>2018-07-27T05:25:18Z</time>
      </trkpt>
      <trkpt lat="43.17731" lon="0.97831">
        <ele>268.32</ele>
        <time>2018-07-27T05:25:19Z</time>
      </trkpt>
      <trkpt lat="43.177" lon="0.97817">
        <ele>268.96</ele>
        <time>2018-07-27T05:25:20Z</time>
      </trkpt>
      <trkpt lat="43.17669" lon="0.97803">
        <ele>269.85</ele>
        <time>2018-07-27T05:25:21Z</time>
      </trkpt>
      <trkpt lat="43.17638" lon="0.97786">
        <ele>270.12</ele>
        <time>2018-07-27T05:25:22Z</time>
      </trkpt>
      <trkpt lat="43.17608" lon="0.97768">
        <ele>270.2</ele>
        <time>2018-07-27T05:25:23Z</time>
      </trkpt>
      <trkpt lat="43.17578" lon="0.97749">
        <ele>270.22</ele>
        <time>2018-07-27T05:25:24Z</time>
      </trkpt>
      <trkpt lat="43.17549" lon="0.97728">
        <ele>270.23</ele>
        <time>2018-07-27T05:25:25Z</time>
      </trkpt>
      <trkpt lat="43.1752" lon="0.97706">
        <ele>270.93</ele>
        <time>2018-07-27T05:25:26Z</time>
      </trkpt>
      <trkpt lat="43.17492" lon="0.97682">
        <ele>271.14</ele>
        <time>2018-07-27T05:25:27Z</time>
      </trkpt>
      <trkpt lat="43.17464" lon="0.97659">
        <ele>271.21</ele>
        <time>2018-07-27T05:25:28Z</time>
      </trkpt>
      <trkpt lat="43.17437" lon="0.97635">
        <ele>270.53</ele>
        <time>2018-07-27T05:25:29Z</time>
      </trkpt>
      <trkpt lat="43.17411" lon="0.97611">
        <ele>270.32</ele>
        <time>2018-07-27T05:25:30Z</time>
      </trkpt>
      <trkpt lat="43.17386" lon="0.97587">
        <ele>270.26</ele>
        <time>2018-07-27T05:25:31Z</time>
      </trkpt>
      <trkpt lat="43.1736" lon="0.97562">
        <ele>270.24</ele>
        <time>2018-07-27T05:25:32Z</time>
      </trkpt>
      <trkpt lat="43.17335" lon="0.97538">
        <ele>270.24</ele>
        <time>2018-07-27T05:25:33Z</time>
      </trkpt>
      <trkpt lat="43.1731" lon="0.97514">
        <ele>269.53</ele>
        <time>2018-07-27T05:25:34Z</time>
      </trkpt>
      <trkpt lat="43.17285" lon="0.97489">
        <ele>269.32</ele>
        <time>2018-07-27T05:25:35Z</time>
      </trkpt>
      <trkpt lat="43.1726" lon="0.97466">
        <ele>269.26</ele>
        <time>2018-07-27T05:25:36Z</time>
      </trkpt>
      <trkpt lat="43.17234" lon="0.97445">
        <ele>269.24</ele>
        <time>2018-07-27T05:25:37Z</time>
      </trkpt>
      <trkpt lat="43.17208" lon="0.97424">
        <ele>268.54</ele>
        <time>2018-07-27T05:25:38Z</time>
      </trkpt>
      <trkpt lat="43.17181" lon="0.97403">
        <ele>268.32</ele>
        <time>2018-07-27T05:25:39Z</time>
      </trkpt>
      <trkpt lat="43.17152" lon="0.97383">
        <ele>267.56</ele>
        <time>2018-07-27T05:25:40Z</time>
      </trkpt>
      <trkpt lat="43.17123" lon="0.97365">
        <ele>267.33</ele>
        <time>2018-07-27T05:25:41Z</time>
      </trkpt>
      <trkpt lat="43.17094" lon="0.97347">
        <ele>267.26</ele>
        <time>2018-07-27T05:25:42Z</time>
      </trkpt>
      <trkpt lat="43.17064" lon="0.97331">
        <ele>267.24</ele>
        <time>2018-07-27T05:25:43Z</time>
      </trkpt>
      <trkpt lat="43.17033" lon="0.97317">
        <ele>267.24</ele>
        <time>2018-07-27T05:25:44Z</time>
      </trkpt>
      <trkpt lat="43.17003" lon="0.97304">
        <ele>267.23</ele>
        <time>2018-07-27T05:25:45Z</time>
      </trkpt>
      <trkpt lat="43.16972" lon="0.97292">
        <ele>267.23</ele>
        <time>2018-07-27T05:25:46Z</time>
      </trkpt>
      <trkpt lat="43.1694" lon="0.97282">
        <ele>267.23</ele>
        <time>2018-07-27T05:25:47Z</time>
      </trkpt>
      <trkpt lat="43.16908" lon="0.97272">
        <ele>267.23</ele>
        <time>2018-07-27T05:25:48Z</time>
      </trkpt>
      <trkpt lat="43.16877" lon="0.97263">
        <ele>267.23</ele>
        <time>2018-07-27T05:25:49Z</time>
      </trkpt>
      <trkpt lat="43.16847" lon="0.97256">
        <ele>267.23</ele>
        <time>2018-07-27T05:25:50Z</time>
      </trkpt>
      <trkpt lat="43.16817" lon="0.97248">
        <ele>267.23</ele>
        <time>2018-07-27T05:25:51Z</time>
      </trkpt>
      <trkpt lat="43.16788" lon="0.97242">
        <ele>267.23</ele>
        <time>2018-07-27T05:25:52Z</time>
      </trkpt>
      <trkpt lat="43.16761" lon="0.97234">
        <ele>267.93</ele>
        <time>2018-07-27T05:25:53Z</time>
      </trkpt>
      <trkpt lat="43.16734" lon="0.97228">
        <ele>268.14</ele>
        <time>2018-07-27T05:25:54Z</time>
      </trkpt>
      <trkpt lat="43.16708" lon="0.97221">
        <ele>268.21</ele>
        <time>2018-07-27T05:25:55Z</time>
      </trkpt>
      <trkpt lat="43.16681" lon="0.97213">
        <ele>268.23</ele>
        <time>2018-07-27T05:25:56Z</time>
      </trkpt>
      <trkpt lat="43.16655" lon="0.97204">
        <ele>268.23</ele>
        <time>2018-07-27T05:25:57Z</time>
      </trkpt>
      <trkpt lat="43.16629" lon="0.97194">
        <ele>268.23</ele>
        <time>2018-07-27T05:25:58Z</time>
      </trkpt>
      <trkpt lat="43.16603" lon="0.97184">
        <ele>268.93</ele>
        <time>2018-07-27T05:25:59Z</time>
      </trkpt>
      <trkpt lat="43.16578" lon="0.97173">
        <ele>268.44</ele>
        <time>2018-07-27T05:26:00Z</time>
      </trkpt>
      <trkpt lat="43.16552" lon="0.97159">
        <ele>268.3</ele>
        <time>2018-07-27T05:26:01Z</time>
      </trkpt>
      <trkpt lat="43.16524" lon="0.97142">
        <ele>268.25</ele>
        <time>2018-07-27T05:26:02Z</time>
      </trkpt>
      <trkpt lat="43.16493" lon="0.97125">
        <ele>268.24</ele>
        <time>2018-07-27T05:26:03Z</time>
      </trkpt>
      <trkpt lat="43.1646" lon="0.97109">
        <ele>268.94</ele>
        <time>2018-07-27T05:26:04Z</time>
      </trkpt>
      <trkpt lat="43.16428" lon="0.97088">
        <ele>268.44</ele>
        <time>2018-07-27T05:26:05Z</time>
      </trkpt>
      <trkpt lat="43.16399" lon="0.97066">
        <ele>268.3</ele>
        <time>2018-07-27T05:26:06Z</time>
      </trkpt>
      <trkpt lat="43.16371" lon="0.97042">
        <ele>268.25</ele>
        <time>2018-07-27T05:26:07Z</time>
      </trkpt>
      <trkpt lat="43.16344" lon="0.97017">
        <ele>268.24</ele>
        <time>2018-07-27T05:26:08Z</time>
      </trkpt>
      <trkpt lat="43.16318" lon="0.96992">
        <ele>268.24</ele>
        <time>2018-07-27T05:26:09Z</time>
      </trkpt>
      <trkpt lat="43.16292" lon="0.96967">
        <ele>268.93</ele>
        <time>2018-07-27T05:26:10Z</time>
      </trkpt>
      <trkpt lat="43.16265" lon="0.96943">
        <ele>269.14</ele>
        <time>2018-07-27T05:26:11Z</time>
      </trkpt>
      <trkpt lat="43.16238" lon="0.96918">
        <ele>269.21</ele>
        <time>2018-07-27T05:26:12Z</time>
      </trkpt>
      <trkpt lat="43.16212" lon="0.96894">
        <ele>269.23</ele>
        <time>2018-07-27T05:26:13Z</time>
      </trkpt>
      <trkpt lat="43.16185" lon="0.9687">
        <ele>269.23</ele>
        <time>2018-07-27T05:26:14Z</time>
      </trkpt>
      <trkpt lat="43.16157" lon="0.96847">
        <ele>269.23</ele>
        <time>2018-07-27T05:26:15Z</time>
      </trkpt>
      <trkpt lat="43.16129" lon="0.96824">
        <ele>269.93</ele>
        <time>2018-07-27T05:26:16Z</time>
      </trkpt>
      <trkpt lat="43.161" lon="0.96802">
        <ele>270.14</ele>
        <time>2018-07-27T05:26:17Z</time>
      </trkpt>
      <trkpt lat="43.1607" lon="0.96782">
        <ele>270.21</ele>
        <time>2018-07-27T05:26:18Z</time>
      </trkpt>
      <trkpt lat="43.16039" lon="0.96764">
        <ele>270.23</ele>
        <time>2018-07-27T05:26:19Z</time>
      </trkpt>
      <trkpt lat="43.16008" lon="0.96746">
        <ele>270.23</ele>
        <time>2018-07-27T05:26:20Z</time>
      </trkpt>
      <trkpt lat="43.15977" lon="0.96729">
        <ele>270.23</ele>
        <time>2018-07-27T05:26:21Z</time>
      </trkpt>
      <trkpt lat="43.15946" lon="0.96714">
        <ele>270.23</ele>
        <time>2018-07-27T05:26:22Z</time>
      </trkpt>
      <trkpt lat="43.15914" lon="0.96699">
        <ele>270.23</ele>
        <time>2018-07-27T05:26:23Z</time>
      </trkpt>
      <trkpt lat="43.15883" lon="0.96684">
        <ele>270.23</ele>
        <time>2018-07-27T05:26:24Z</time>
      </trkpt>
      <trkpt lat="43.15852" lon="0.96671">
        <ele>269.53</ele>
        <time>2018-07-27T05:26:25Z</time>
      </trkpt>
      <trkpt lat="43.1582" lon="0.96658">
        <ele>269.32</ele>
        <time>2018-07-27T05:26:26Z</time>
      </trkpt>
      <trkpt lat="43.1579" lon="0.96644">
        <ele>269.96</ele>
        <time>2018-07-27T05:26:27Z</time>
      </trkpt>
      <trkpt lat="43.15758" lon="0.96631">
        <ele>270.15</ele>
        <time>2018-07-27T05:26:28Z</time>
      </trkpt>
      <trkpt lat="43.15727" lon="0.96618">
        <ele>270.21</ele>
        <time>2018-07-27T05:26:29Z</time>
      </trkpt>
      <trkpt lat="43.15697" lon="0.96604">
        <ele>270.23</ele>
        <time>2018-07-27T05:26:30Z</time>
      </trkpt>
      <trkpt lat="43.15666" lon="0.96591">
        <ele>270.23</ele>
        <time>2018-07-27T05:26:31Z</time>
      </trkpt>
      <trkpt lat="43.15636" lon="0.96578">
        <ele>270.93</ele>
        <time>2018-07-27T05:26:32Z</time>
      </trkpt>
      <trkpt lat="43.15605" lon="0.96566">
        <ele>271.14</ele>
        <time>2018-07-27T05:26:33Z</time>
      </trkpt>
      <trkpt lat="43.15575" lon="0.96553">
        <ele>271.91</ele>
        <time>2018-07-27T05:26:34Z</time>
      </trkpt>
      <trkpt lat="43.15545" lon="0.96541">
        <ele>272.14</ele>
        <time>2018-07-27T05:26:35Z</time>
      </trkpt>
      <trkpt lat="43.15514" lon="0.96528">
        <ele>272.9</ele>
        <time>2018-07-27T05:26:36Z</time>
      </trkpt>
      <trkpt lat="43.15484" lon="0.96515">
        <ele>273.84</ele>
        <time>2018-07-27T05:26:37Z</time>
      </trkpt>
      <trkpt lat="43.15455" lon="0.96501">
        <ele>274.81</ele>
        <time>2018-07-27T05:26:38Z</time>
      </trkpt>
      <trkpt lat="43.15425" lon="0.96488">
        <ele>275.11</ele>
        <time>2018-07-27T05:26:39Z</time>
      </trkpt>
      <trkpt lat="43.15396" lon="0.96474">
        <ele>275.2</ele>
        <time>2018-07-27T05:26:40Z</time>
      </trkpt>
      <trkpt lat="43.15366" lon="0.96461">
        <ele>275.22</ele>
        <time>2018-07-27T05:26:41Z</time>
      </trkpt>
      <trkpt lat="43.15335" lon="0.96448">
        <ele>275.93</ele>
        <time>2018-07-27T05:26:42Z</time>
      </trkpt>
      <trkpt lat="43.15304" lon="0.96434">
        <ele>276.14</ele>
        <time>2018-07-27T05:26:43Z</time>
      </trkpt>
      <trkpt lat="43.15273" lon="0.9642">
        <ele>276.91</ele>
        <time>2018-07-27T05:26:44Z</time>
      </trkpt>
      <trkpt lat="43.15242" lon="0.96406">
        <ele>277.14</ele>
        <time>2018-07-27T05:26:45Z</time>
      </trkpt>
      <trkpt lat="43.1521" lon="0.96393">
        <ele>277.9</ele>
        <time>2018-07-27T05:26:46Z</time>
      </trkpt>
      <trkpt lat="43.15179" lon="0.96379">
        <ele>278.84</ele>
        <time>2018-07-27T05:26:47Z</time>
      </trkpt>
      <trkpt lat="43.15148" lon="0.96365">
        <ele>279.11</ele>
        <time>2018-07-27T05:26:48Z</time>
      </trkpt>
      <trkpt lat="43.15117" lon="0.96352">
        <ele>279.9</ele>
        <time>2018-07-27T05:26:49Z</time>
      </trkpt>
      <trkpt lat="43.15086" lon="0.96339">
        <ele>280.13</ele>
        <time>2018-07-27T05:26:50Z</time>
      </trkpt>
      <trkpt lat="43.15055" lon="0.96326">
        <ele>280.9</ele>
        <time>2018-07-27T05:26:51Z</time>
      </trkpt>
      <trkpt lat="43.15024" lon="0.96313">
        <ele>281.83</ele>
        <time>2018-07-27T05:26:52Z</time>
      </trkpt>
      <trkpt lat="43.14993" lon="0.96299">
        <ele>283.51</ele>
        <time>2018-07-27T05:26:53Z</time>
      </trkpt>
      <trkpt lat="43.14962" lon="0.96285">
        <ele>284.72</ele>
        <time>2018-07-27T05:26:54Z</time>
      </trkpt>
      <trkpt lat="43.14931" lon="0.9627">
        <ele>285.08</ele>
        <time>2018-07-27T05:26:55Z</time>
      </trkpt>
      <trkpt lat="43.14901" lon="0.96256">
        <ele>285.19</ele>
        <time>2018-07-27T05:26:56Z</time>
      </trkpt>
      <trkpt lat="43.1487" lon="0.96242">
        <ele>285.92</ele>
        <time>2018-07-27T05:26:57Z</time>
      </trkpt>
      <trkpt lat="43.14839" lon="0.96228">
        <ele>286.84</ele>
        <time>2018-07-27T05:26:58Z</time>
      </trkpt>
      <trkpt lat="43.14807" lon="0.96214">
        <ele>287.12</ele>
        <time>2018-07-27T05:26:59Z</time>
      </trkpt>
      <trkpt lat="43.14776" lon="0.962">
        <ele>287.9</ele>
        <time>2018-07-27T05:27:00Z</time>
      </trkpt>
      <trkpt lat="43.14744" lon="0.96186">
        <ele>288.83</ele>
        <time>2018-07-27T05:27:01Z</time>
      </trkpt>
      <trkpt lat="43.14713" lon="0.96171">
        <ele>289.81</ele>
        <time>2018-07-27T05:27:02Z</time>
      </trkpt>
      <trkpt lat="43.14682" lon="0.96156">
        <ele>290.11</ele>
        <time>2018-07-27T05:27:03Z</time>
      </trkpt>
      <trkpt lat="43.14651" lon="0.96142">
        <ele>290.9</ele>
        <time>2018-07-27T05:27:04Z</time>
      </trkpt>
      <trkpt lat="43.1462" lon="0.96126">
        <ele>290.43</ele>
        <time>2018-07-27T05:27:05Z</time>
      </trkpt>
      <trkpt lat="43.1459" lon="0.9611">
        <ele>290.99</ele>
        <time>2018-07-27T05:27:06Z</time>
      </trkpt>
      <trkpt lat="43.1456" lon="0.96094">
        <ele>291.16</ele>
        <time>2018-07-27T05:27:07Z</time>
      </trkpt>
      <trkpt lat="43.1453" lon="0.96078">
        <ele>291.91</ele>
        <time>2018-07-27T05:27:08Z</time>
      </trkpt>
      <trkpt lat="43.145" lon="0.96061">
        <ele>291.44</ele>
        <time>2018-07-27T05:27:09Z</time>
      </trkpt>
      <trkpt lat="43.1447" lon="0.96044">
        <ele>291.3</ele>
        <time>2018-07-27T05:27:10Z</time>
      </trkpt>
      <trkpt lat="43.1444" lon="0.96026">
        <ele>291.95</ele>
        <time>2018-07-27T05:27:11Z</time>
      </trkpt>
      <trkpt lat="43.1441" lon="0.96007">
        <ele>292.15</ele>
        <time>2018-07-27T05:27:12Z</time>
      </trkpt>
      <trkpt lat="43.14381" lon="0.95989">
        <ele>292.21</ele>
        <time>2018-07-27T05:27:13Z</time>
      </trkpt>
      <trkpt lat="43.14352" lon="0.9597">
        <ele>292.23</ele>
        <time>2018-07-27T05:27:14Z</time>
      </trkpt>
      <trkpt lat="43.14322" lon="0.95951">
        <ele>292.93</ele>
        <time>2018-07-27T05:27:15Z</time>
      </trkpt>
      <trkpt lat="43.14293" lon="0.95931">
        <ele>293.14</ele>
        <time>2018-07-27T05:27:16Z</time>
      </trkpt>
      <trkpt lat="43.14263" lon="0.95912">
        <ele>293.91</ele>
        <time>2018-07-27T05:27:17Z</time>
      </trkpt>
      <trkpt lat="43.14234" lon="0.95892">
        <ele>294.14</ele>
        <time>2018-07-27T05:27:18Z</time>
      </trkpt>
      <trkpt lat="43.14203" lon="0.95872">
        <ele>294.2</ele>
        <time>2018-07-27T05:27:19Z</time>
      </trkpt>
      <trkpt lat="43.14171" lon="0.9585">
        <ele>294.23</ele>
        <time>2018-07-27T05:27:20Z</time>
      </trkpt>
      <trkpt lat="43.1414" lon="0.95828">
        <ele>294.23</ele>
        <time>2018-07-27T05:27:21Z</time>
      </trkpt>
      <trkpt lat="43.14109" lon="0.95804">
        <ele>294.23</ele>
        <time>2018-07-27T05:27:22Z</time>
      </trkpt>
      <trkpt lat="43.14078" lon="0.95781">
        <ele>294.23</ele>
        <time>2018-07-27T05:27:23Z</time>
      </trkpt>
      <trkpt lat="43.14049" lon="0.95758">
        <ele>294.23</ele>
        <time>2018-07-27T05:27:24Z</time>
      </trkpt>
      <trkpt lat="43.14019" lon="0.95733">
        <ele>294.23</ele>
        <time>2018-07-27T05:27:25Z</time>
      </trkpt>
      <trkpt lat="43.1399" lon="0.95708">
        <ele>294.23</ele>
        <time>2018-07-27T05:27:26Z</time>
      </trkpt>
      <trkpt lat="43.13961" lon="0.95682">
        <ele>294.23</ele>
        <time>2018-07-27T05:27:27Z</time>
      </trkpt>
      <trkpt lat="43.13931" lon="0.95656">
        <ele>294.23</ele>
        <time>2018-07-27T05:27:28Z</time>
      </trkpt>
      <trkpt lat="43.13902" lon="0.95629">
        <ele>294.23</ele>
        <time>2018-07-27T05:27:29Z</time>
      </trkpt>
      <trkpt lat="43.13874" lon="0.95602">
        <ele>294.23</ele>
        <time>2018-07-27T05:27:30Z</time>
      </trkpt>
      <trkpt lat="43.13845" lon="0.95575">
        <ele>294.23</ele>
        <time>2018-07-27T05:27:31Z</time>
      </trkpt>
      <trkpt lat="43.13817" lon="0.95548">
        <ele>294.23</ele>
        <time>2018-07-27T05:27:32Z</time>
      </trkpt>
      <trkpt lat="43.1379" lon="0.95521">
        <ele>294.23</ele>
        <time>2018-07-27T05:27:33Z</time>
      </trkpt>
      <trkpt lat="43.13762" lon="0.95494">
        <ele>294.23</ele>
        <time>2018-07-27T05:27:34Z</time>
      </trkpt>
      <trkpt lat="43.13735" lon="0.95466">
        <ele>293.53</ele>
        <time>2018-07-27T05:27:35Z</time>
      </trkpt>
      <trkpt lat="43.13708" lon="0.95439">
        <ele>293.32</ele>
        <time>2018-07-27T05:27:36Z</time>
      </trkpt>
      <trkpt lat="43.13681" lon="0.95411">
        <ele>293.96</ele>
        <time>2018-07-27T05:27:37Z</time>
      </trkpt>
      <trkpt lat="43.13655" lon="0.95383">
        <ele>294.15</ele>
        <time>2018-07-27T05:27:38Z</time>
      </trkpt>
      <trkpt lat="43.13628" lon="0.95355">
        <ele>294.21</ele>
        <time>2018-07-27T05:27:39Z</time>
      </trkpt>
      <trkpt lat="43.13602" lon="0.95326">
        <ele>294.23</ele>
        <time>2018-07-27T05:27:40Z</time>
      </trkpt>
      <trkpt lat="43.13577" lon="0.95297">
        <ele>294.23</ele>
        <time>2018-07-27T05:27:41Z</time>
      </trkpt>
      <trkpt lat="43.13551" lon="0.95267">
        <ele>294.23</ele>
        <time>2018-07-27T05:27:42Z</time>
      </trkpt>
      <trkpt lat="43.13525" lon="0.95238">
        <ele>294.93</ele>
        <time>2018-07-27T05:27:43Z</time>
      </trkpt>
      <trkpt lat="43.135" lon="0.95208">
        <ele>295.14</ele>
        <time>2018-07-27T05:27:44Z</time>
      </trkpt>
      <trkpt lat="43.13474" lon="0.95177">
        <ele>295.21</ele>
        <time>2018-07-27T05:27:45Z</time>
      </trkpt>
      <trkpt lat="43.13449" lon="0.95146">
        <ele>295.93</ele>
        <time>2018-07-27T05:27:46Z</time>
      </trkpt>
      <trkpt lat="43.13423" lon="0.95116">
        <ele>296.14</ele>
        <time>2018-07-27T05:27:47Z</time>
      </trkpt>
      <trkpt lat="43.13399" lon="0.95084">
        <ele>296.21</ele>
        <time>2018-07-27T05:27:48Z</time>
      </trkpt>
      <trkpt lat="43.13374" lon="0.95051">
        <ele>296.23</ele>
        <time>2018-07-27T05:27:49Z</time>
      </trkpt>
      <trkpt lat="43.1335" lon="0.95019">
        <ele>296.93</ele>
        <time>2018-07-27T05:27:50Z</time>
      </trkpt>
      <trkpt lat="43.13326" lon="0.94987">
        <ele>297.14</ele>
        <time>2018-07-27T05:27:51Z</time>
      </trkpt>
      <trkpt lat="43.13301" lon="0.94954">
        <ele>297.21</ele>
        <time>2018-07-27T05:27:52Z</time>
      </trkpt>
      <trkpt lat="43.13278" lon="0.9492">
        <ele>297.23</ele>
        <time>2018-07-27T05:27:53Z</time>
      </trkpt>
      <trkpt lat="43.13254" lon="0.94887">
        <ele>297.23</ele>
        <time>2018-07-27T05:27:54Z</time>
      </trkpt>
      <trkpt lat="43.13232" lon="0.94854">
        <ele>297.23</ele>
        <time>2018-07-27T05:27:55Z</time>
      </trkpt>
      <trkpt lat="43.13209" lon="0.94821">
        <ele>297.93</ele>
        <time>2018-07-27T05:27:56Z</time>
      </trkpt>
      <trkpt lat="43.13187" lon="0.94787">
        <ele>298.84</ele>
        <time>2018-07-27T05:27:57Z</time>
      </trkpt>
      <trkpt lat="43.13166" lon="0.94753">
        <ele>299.12</ele>
        <time>2018-07-27T05:27:58Z</time>
      </trkpt>
      <trkpt lat="43.13144" lon="0.94719">
        <ele>299.2</ele>
        <time>2018-07-27T05:27:59Z</time>
      </trkpt>
      <trkpt lat="43.13123" lon="0.94686">
        <ele>299.22</ele>
        <time>2018-07-27T05:28:00Z</time>
      </trkpt>
      <trkpt lat="43.13102" lon="0.94652">
        <ele>299.23</ele>
        <time>2018-07-27T05:28:01Z</time>
      </trkpt>
      <trkpt lat="43.13082" lon="0.94618">
        <ele>299.23</ele>
        <time>2018-07-27T05:28:02Z</time>
      </trkpt>
      <trkpt lat="43.13062" lon="0.94584">
        <ele>299.23</ele>
        <time>2018-07-27T05:28:03Z</time>
      </trkpt>
      <trkpt lat="43.13043" lon="0.94549">
        <ele>299.93</ele>
        <time>2018-07-27T05:28:04Z</time>
      </trkpt>
      <trkpt lat="43.13023" lon="0.94514">
        <ele>300.14</ele>
        <time>2018-07-27T05:28:05Z</time>
      </trkpt>
      <trkpt lat="43.13003" lon="0.94479">
        <ele>300.21</ele>
        <time>2018-07-27T05:28:06Z</time>
      </trkpt>
      <trkpt lat="43.12983" lon="0.94444">
        <ele>300.23</ele>
        <time>2018-07-27T05:28:07Z</time>
      </trkpt>
      <trkpt lat="43.12964" lon="0.94408">
        <ele>300.23</ele>
        <time>2018-07-27T05:28:08Z</time>
      </trkpt>
      <trkpt lat="43.12945" lon="0.94372">
        <ele>300.23</ele>
        <time>2018-07-27T05:28:09Z</time>
      </trkpt>
      <trkpt lat="43.12927" lon="0.94336">
        <ele>300.23</ele>
        <time>2018-07-27T05:28:10Z</time>
      </trkpt>
      <trkpt lat="43.12908" lon="0.94299">
        <ele>300.93</ele>
        <time>2018-07-27T05:28:11Z</time>
      </trkpt>
      <trkpt lat="43.12891" lon="0.94262">
        <ele>301.14</ele>
        <time>2018-07-27T05:28:12Z</time>
      </trkpt>
      <trkpt lat="43.12873" lon="0.94225">
        <ele>301.21</ele>
        <time>2018-07-27T05:28:13Z</time>
      </trkpt>
      <trkpt lat="43.12856" lon="0.94188">
        <ele>301.23</ele>
        <time>2018-07-27T05:28:14Z</time>
      </trkpt>
      <trkpt lat="43.12838" lon="0.94151">
        <ele>301.23</ele>
        <time>2018-07-27T05:28:15Z</time>
      </trkpt>
      <trkpt lat="43.12821" lon="0.94114">
        <ele>301.23</ele>
        <time>2018-07-27T05:28:16Z</time>
      </trkpt>
      <trkpt lat="43.12804" lon="0.94077">
        <ele>301.23</ele>
        <time>2018-07-27T05:28:17Z</time>
      </trkpt>
      <trkpt lat="43.12787" lon="0.94039">
        <ele>301.23</ele>
        <time>2018-07-27T05:28:18Z</time>
      </trkpt>
      <trkpt lat="43.12771" lon="0.94001">
        <ele>301.23</ele>
        <time>2018-07-27T05:28:19Z</time>
      </trkpt>
      <trkpt lat="43.12754" lon="0.93963">
        <ele>301.23</ele>
        <time>2018-07-27T05:28:20Z</time>
      </trkpt>
      <trkpt lat="43.12738" lon="0.93924">
        <ele>301.23</ele>
        <time>2018-07-27T05:28:21Z</time>
      </trkpt>
      <trkpt lat="43.12722" lon="0.93886">
        <ele>301.93</ele>
        <time>2018-07-27T05:28:22Z</time>
      </trkpt>
      <trkpt lat="43.12706" lon="0.93847">
        <ele>302.84</ele>
        <time>2018-07-27T05:28:23Z</time>
      </trkpt>
      <trkpt lat="43.12691" lon="0.93808">
        <ele>303.12</ele>
        <time>2018-07-27T05:28:24Z</time>
      </trkpt>
      <trkpt lat="43.12676" lon="0.93769">
        <ele>303.9</ele>
        <time>2018-07-27T05:28:25Z</time>
      </trkpt>
      <trkpt lat="43.1266" lon="0.9373">
        <ele>304.13</ele>
        <time>2018-07-27T05:28:26Z</time>
      </trkpt>
      <trkpt lat="43.12645" lon="0.9369">
        <ele>304.2</ele>
        <time>2018-07-27T05:28:27Z</time>
      </trkpt>
      <trkpt lat="43.12629" lon="0.9365">
        <ele>304.22</ele>
        <time>2018-07-27T05:28:28Z</time>
      </trkpt>
      <trkpt lat="43.12614" lon="0.9361">
        <ele>303.53</ele>
        <time>2018-07-27T05:28:29Z</time>
      </trkpt>
      <trkpt lat="43.12599" lon="0.93571">
        <ele>303.32</ele>
        <time>2018-07-27T05:28:30Z</time>
      </trkpt>
      <trkpt lat="43.12584" lon="0.93531">
        <ele>303.96</ele>
        <time>2018-07-27T05:28:31Z</time>
      </trkpt>
      <trkpt lat="43.12567" lon="0.93491">
        <ele>303.45</ele>
        <time>2018-07-27T05:28:32Z</time>
      </trkpt>
      <trkpt lat="43.12552" lon="0.93451">
        <ele>303.3</ele>
        <time>2018-07-27T05:28:33Z</time>
      </trkpt>
      <trkpt lat="43.12536" lon="0.93411">
        <ele>303.25</ele>
        <time>2018-07-27T05:28:34Z</time>
      </trkpt>
      <trkpt lat="43.1252" lon="0.93371">
        <ele>303.24</ele>
        <time>2018-07-27T05:28:35Z</time>
      </trkpt>
      <trkpt lat="43.12503" lon="0.93331">
        <ele>303.24</ele>
        <time>2018-07-27T05:28:36Z</time>
      </trkpt>
      <trkpt lat="43.12486" lon="0.93292">
        <ele>303.23</ele>
        <time>2018-07-27T05:28:37Z</time>
      </trkpt>
      <trkpt lat="43.12469" lon="0.93252">
        <ele>302.53</ele>
        <time>2018-07-27T05:28:38Z</time>
      </trkpt>
      <trkpt lat="43.12453" lon="0.93212">
        <ele>302.32</ele>
        <time>2018-07-27T05:28:39Z</time>
      </trkpt>
      <trkpt lat="43.12435" lon="0.93173">
        <ele>302.26</ele>
        <time>2018-07-27T05:28:40Z</time>
      </trkpt>
      <trkpt lat="43.12417" lon="0.93135">
        <ele>301.54</ele>
        <time>2018-07-27T05:28:41Z</time>
      </trkpt>
      <trkpt lat="43.12399" lon="0.93096">
        <ele>301.33</ele>
        <time>2018-07-27T05:28:42Z</time>
      </trkpt>
      <trkpt lat="43.1238" lon="0.93058">
        <ele>301.26</ele>
        <time>2018-07-27T05:28:43Z</time>
      </trkpt>
      <trkpt lat="43.1236" lon="0.93021">
        <ele>301.24</ele>
        <time>2018-07-27T05:28:44Z</time>
      </trkpt>
      <trkpt lat="43.12341" lon="0.92983">
        <ele>301.24</ele>
        <time>2018-07-27T05:28:45Z</time>
      </trkpt>
      <trkpt lat="43.12321" lon="0.92946">
        <ele>301.23</ele>
        <time>2018-07-27T05:28:46Z</time>
      </trkpt>
      <trkpt lat="43.123" lon="0.92909">
        <ele>301.23</ele>
        <time>2018-07-27T05:28:47Z</time>
      </trkpt>
      <trkpt lat="43.1228" lon="0.92873">
        <ele>301.23</ele>
        <time>2018-07-27T05:28:48Z</time>
      </trkpt>
      <trkpt lat="43.12259" lon="0.92837">
        <ele>300.53</ele>
        <time>2018-07-27T05:28:49Z</time>
      </trkpt>
      <trkpt lat="43.12239" lon="0.92801">
        <ele>300.32</ele>
        <time>2018-07-27T05:28:50Z</time>
      </trkpt>
      <trkpt lat="43.12218" lon="0.92765">
        <ele>300.26</ele>
        <time>2018-07-27T05:28:51Z</time>
      </trkpt>
      <trkpt lat="43.12197" lon="0.92729">
        <ele>300.24</ele>
        <time>2018-07-27T05:28:52Z</time>
      </trkpt>
      <trkpt lat="43.12177" lon="0.92693">
        <ele>300.24</ele>
        <time>2018-07-27T05:28:53Z</time>
      </trkpt>
      <trkpt lat="43.12156" lon="0.92658">
        <ele>300.23</ele>
        <time>2018-07-27T05:28:54Z</time>
      </trkpt>
      <trkpt lat="43.12135" lon="0.92622">
        <ele>300.93</ele>
        <time>2018-07-27T05:28:55Z</time>
      </trkpt>
      <trkpt lat="43.12114" lon="0.92587">
        <ele>301.14</ele>
        <time>2018-07-27T05:28:56Z</time>
      </trkpt>
      <trkpt lat="43.12094" lon="0.92551">
        <ele>301.21</ele>
        <time>2018-07-27T05:28:57Z</time>
      </trkpt>
      <trkpt lat="43.12072" lon="0.92516">
        <ele>300.53</ele>
        <time>2018-07-27T05:28:58Z</time>
      </trkpt>
      <trkpt lat="43.12051" lon="0.92481">
        <ele>300.32</ele>
        <time>2018-07-27T05:28:59Z</time>
      </trkpt>
      <trkpt lat="43.12031" lon="0.92446">
        <ele>299.56</ele>
        <time>2018-07-27T05:29:00Z</time>
      </trkpt>
      <trkpt lat="43.1201" lon="0.9241">
        <ele>300.03</ele>
        <time>2018-07-27T05:29:01Z</time>
      </trkpt>
      <trkpt lat="43.11989" lon="0.92375">
        <ele>299.47</ele>
        <time>2018-07-27T05:29:02Z</time>
      </trkpt>
      <trkpt lat="43.11969" lon="0.92341">
        <ele>299.31</ele>
        <time>2018-07-27T05:29:03Z</time>
      </trkpt>
      <trkpt lat="43.11948" lon="0.92306">
        <ele>299.26</ele>
        <time>2018-07-27T05:29:04Z</time>
      </trkpt>
      <trkpt lat="43.11928" lon="0.92271">
        <ele>299.24</ele>
        <time>2018-07-27T05:29:05Z</time>
      </trkpt>
      <trkpt lat="43.11908" lon="0.92236">
        <ele>299.24</ele>
        <time>2018-07-27T05:29:06Z</time>
      </trkpt>
      <trkpt lat="43.11887" lon="0.92202">
        <ele>299.23</ele>
        <time>2018-07-27T05:29:07Z</time>
      </trkpt>
      <trkpt lat="43.11868" lon="0.92167">
        <ele>298.53</ele>
        <time>2018-07-27T05:29:08Z</time>
      </trkpt>
      <trkpt lat="43.11848" lon="0.92132">
        <ele>298.32</ele>
        <time>2018-07-27T05:29:09Z</time>
      </trkpt>
      <trkpt lat="43.1183" lon="0.92096">
        <ele>298.26</ele>
        <time>2018-07-27T05:29:10Z</time>
      </trkpt>
      <trkpt lat="43.11811" lon="0.9206">
        <ele>298.94</ele>
        <time>2018-07-27T05:29:11Z</time>
      </trkpt>
      <trkpt lat="43.11794" lon="0.92023">
        <ele>299.15</ele>
        <time>2018-07-27T05:29:12Z</time>
      </trkpt>
      <trkpt lat="43.11777" lon="0.91985">
        <ele>299.21</ele>
        <time>2018-07-27T05:29:13Z</time>
      </trkpt>
      <trkpt lat="43.11759" lon="0.91947">
        <ele>298.53</ele>
        <time>2018-07-27T05:29:14Z</time>
      </trkpt>
      <trkpt lat="43.11744" lon="0.91908">
        <ele>299.02</ele>
        <time>2018-07-27T05:29:15Z</time>
      </trkpt>
      <trkpt lat="43.11729" lon="0.91868">
        <ele>299.17</ele>
        <time>2018-07-27T05:29:16Z</time>
      </trkpt>
      <trkpt lat="43.11715" lon="0.91828">
        <ele>299.21</ele>
        <time>2018-07-27T05:29:17Z</time>
      </trkpt>
      <trkpt lat="43.11703" lon="0.91787">
        <ele>299.93</ele>
        <time>2018-07-27T05:29:18Z</time>
      </trkpt>
      <trkpt lat="43.11691" lon="0.91746">
        <ele>300.14</ele>
        <time>2018-07-27T05:29:19Z</time>
      </trkpt>
      <trkpt lat="43.11679" lon="0.91704">
        <ele>300.21</ele>
        <time>2018-07-27T05:29:20Z</time>
      </trkpt>
      <trkpt lat="43.11669" lon="0.91663">
        <ele>300.93</ele>
        <time>2018-07-27T05:29:21Z</time>
      </trkpt>
      <trkpt lat="43.1166" lon="0.9162">
        <ele>301.84</ele>
        <time>2018-07-27T05:29:22Z</time>
      </trkpt>
      <trkpt lat="43.11652" lon="0.91577">
        <ele>302.82</ele>
        <time>2018-07-27T05:29:23Z</time>
      </trkpt>
      <trkpt lat="43.11644" lon="0.91534">
        <ele>303.81</ele>
        <time>2018-07-27T05:29:24Z</time>
      </trkpt>
      <trkpt lat="43.11637" lon="0.91491">
        <ele>304.81</ele>
        <time>2018-07-27T05:29:25Z</time>
      </trkpt>
      <trkpt lat="43.11631" lon="0.91448">
        <ele>305.81</ele>
        <time>2018-07-27T05:29:26Z</time>
      </trkpt>
      <trkpt lat="43.11626" lon="0.91404">
        <ele>306.11</ele>
        <time>2018-07-27T05:29:27Z</time>
      </trkpt>
      <trkpt lat="43.11622" lon="0.91361">
        <ele>306.9</ele>
        <time>2018-07-27T05:29:28Z</time>
      </trkpt>
      <trkpt lat="43.11618" lon="0.91318">
        <ele>307.13</ele>
        <time>2018-07-27T05:29:29Z</time>
      </trkpt>
      <trkpt lat="43.11615" lon="0.91274">
        <ele>307.9</ele>
        <time>2018-07-27T05:29:30Z</time>
      </trkpt>
      <trkpt lat="43.11612" lon="0.9123">
        <ele>308.83</ele>
        <time>2018-07-27T05:29:31Z</time>
      </trkpt>
      <trkpt lat="43.11611" lon="0.91186">
        <ele>309.11</ele>
        <time>2018-07-27T05:29:32Z</time>
      </trkpt>
      <trkpt lat="43.11611" lon="0.91143">
        <ele>309.9</ele>
        <time>2018-07-27T05:29:33Z</time>
      </trkpt>
      <trkpt lat="43.11613" lon="0.91099">
        <ele>310.83</ele>
        <time>2018-07-27T05:29:34Z</time>
      </trkpt>
      <trkpt lat="43.11616" lon="0.91057">
        <ele>311.11</ele>
        <time>2018-07-27T05:29:35Z</time>
      </trkpt>
      <trkpt lat="43.1162" lon="0.91014">
        <ele>311.2</ele>
        <time>2018-07-27T05:29:36Z</time>
      </trkpt>
      <trkpt lat="43.11624" lon="0.90971">
        <ele>311.22</ele>
        <time>2018-07-27T05:29:37Z</time>
      </trkpt>
      <trkpt lat="43.11629" lon="0.90928">
        <ele>311.93</ele>
        <time>2018-07-27T05:29:38Z</time>
      </trkpt>
      <trkpt lat="43.11633" lon="0.90884">
        <ele>312.14</ele>
        <time>2018-07-27T05:29:39Z</time>
      </trkpt>
      <trkpt lat="43.11639" lon="0.90841">
        <ele>312.21</ele>
        <time>2018-07-27T05:29:40Z</time>
      </trkpt>
      <trkpt lat="43.11646" lon="0.90798">
        <ele>312.93</ele>
        <time>2018-07-27T05:29:41Z</time>
      </trkpt>
      <trkpt lat="43.11653" lon="0.90755">
        <ele>313.14</ele>
        <time>2018-07-27T05:29:42Z</time>
      </trkpt>
      <trkpt lat="43.11661" lon="0.90712">
        <ele>312.51</ele>
        <time>2018-07-27T05:29:43Z</time>
      </trkpt>
      <trkpt lat="43.11668" lon="0.90671">
        <ele>312.32</ele>
        <time>2018-07-27T05:29:44Z</time>
      </trkpt>
      <trkpt lat="43.11676" lon="0.90628">
        <ele>312.26</ele>
        <time>2018-07-27T05:29:45Z</time>
      </trkpt>
      <trkpt lat="43.11684" lon="0.90586">
        <ele>312.24</ele>
        <time>2018-07-27T05:29:46Z</time>
      </trkpt>
      <trkpt lat="43.11694" lon="0.90544">
        <ele>312.24</ele>
        <time>2018-07-27T05:29:47Z</time>
      </trkpt>
      <trkpt lat="43.11703" lon="0.90501">
        <ele>312.23</ele>
        <time>2018-07-27T05:29:48Z</time>
      </trkpt>
      <trkpt lat="43.11713" lon="0.90459">
        <ele>311.53</ele>
        <time>2018-07-27T05:29:49Z</time>
      </trkpt>
      <trkpt lat="43.11721" lon="0.90417">
        <ele>311.32</ele>
        <time>2018-07-27T05:29:50Z</time>
      </trkpt>
      <trkpt lat="43.1173" lon="0.90376">
        <ele>311.26</ele>
        <time>2018-07-27T05:29:51Z</time>
      </trkpt>
      <trkpt lat="43.1174" lon="0.90338">
        <ele>311.24</ele>
        <time>2018-07-27T05:29:52Z</time>
      </trkpt>
      <trkpt lat="43.1175" lon="0.90299">
        <ele>311.24</ele>
        <time>2018-07-27T05:29:53Z</time>
      </trkpt>
      <trkpt lat="43.1176" lon="0.90262">
        <ele>311.23</ele>
        <time>2018-07-27T05:29:54Z</time>
      </trkpt>
      <trkpt lat="43.1177" lon="0.90226">
        <ele>311.23</ele>
        <time>2018-07-27T05:29:55Z</time>
      </trkpt>
      <trkpt lat="43.1178" lon="0.90191">
        <ele>311.23</ele>
        <time>2018-07-27T05:29:56Z</time>
      </trkpt>
      <trkpt lat="43.1179" lon="0.90158">
        <ele>311.23</ele>
        <time>2018-07-27T05:29:57Z</time>
      </trkpt>
      <trkpt lat="43.118" lon="0.90125">
        <ele>311.23</ele>
        <time>2018-07-27T05:29:58Z</time>
      </trkpt>
      <trkpt lat="43.11811" lon="0.90095">
        <ele>311.23</ele>
        <time>2018-07-27T05:29:59Z</time>
      </trkpt>
      <trkpt lat="43.11821" lon="0.90066">
        <ele>311.23</ele>
        <time>2018-07-27T05:30:00Z</time>
      </trkpt>
      <trkpt lat="43.11833" lon="0.90037">
        <ele>311.23</ele>
        <time>2018-07-27T05:30:01Z</time>
      </trkpt>
      <trkpt lat="43.11845" lon="0.90009">
        <ele>311.93</ele>
        <time>2018-07-27T05:30:02Z</time>
      </trkpt>
      <trkpt lat="43.11856" lon="0.89981">
        <ele>312.14</ele>
        <time>2018-07-27T05:30:03Z</time>
      </trkpt>
      <trkpt lat="43.11867" lon="0.89954">
        <ele>312.21</ele>
        <time>2018-07-27T05:30:04Z</time>
      </trkpt>
      <trkpt lat="43.11877" lon="0.8993">
        <ele>312.93</ele>
        <time>2018-07-27T05:30:05Z</time>
      </trkpt>
      <trkpt lat="43.11887" lon="0.89908">
        <ele>313.14</ele>
        <time>2018-07-27T05:30:06Z</time>
      </trkpt>
      <trkpt lat="43.11898" lon="0.89887">
        <ele>313.21</ele>
        <time>2018-07-27T05:30:07Z</time>
      </trkpt>
      <trkpt lat="43.11919" lon="0.89848">
        <ele>313.93</ele>
        <time>2018-07-27T05:30:09Z</time>
      </trkpt>
      <trkpt lat="43.11938" lon="0.89813">
        <ele>314.21</ele>
        <time>2018-07-27T05:30:11Z</time>
      </trkpt>
      <trkpt lat="43.11958" lon="0.89777">
        <ele>314.23</ele>
        <time>2018-07-27T05:30:13Z</time>
      </trkpt>
      <trkpt lat="43.11978" lon="0.89743">
        <ele>314.93</ele>
        <time>2018-07-27T05:30:15Z</time>
      </trkpt>
      <trkpt lat="43.11998" lon="0.89709">
        <ele>315.21</ele>
        <time>2018-07-27T05:30:17Z</time>
      </trkpt>
      <trkpt lat="43.12017" lon="0.89675">
        <ele>315.23</ele>
        <time>2018-07-27T05:30:19Z</time>
      </trkpt>
      <trkpt lat="43.12035" lon="0.89644">
        <ele>316.14</ele>
        <time>2018-07-27T05:30:21Z</time>
      </trkpt>
      <trkpt lat="43.12049" lon="0.89618">
        <ele>316.23</ele>
        <time>2018-07-27T05:30:23Z</time>
      </trkpt>
      <trkpt lat="43.12063" lon="0.89592">
        <ele>315.32</ele>
        <time>2018-07-27T05:30:26Z</time>
      </trkpt>
      <trkpt lat="43.12076" lon="0.89572">
        <ele>315.96</ele>
        <time>2018-07-27T05:30:45Z</time>
      </trkpt>
      <trkpt lat="43.12091" lon="0.89539">
        <ele>316.23</ele>
        <time>2018-07-27T05:30:48Z</time>
      </trkpt>
      <trkpt lat="43.12105" lon="0.89508">
        <ele>317.14</ele>
        <time>2018-07-27T05:30:50Z</time>
      </trkpt>
      <trkpt lat="43.12121" lon="0.89475">
        <ele>316.53</ele>
        <time>2018-07-27T05:30:52Z</time>
      </trkpt>
      <trkpt lat="43.12138" lon="0.89439">
        <ele>316.26</ele>
        <time>2018-07-27T05:30:54Z</time>
      </trkpt>
      <trkpt lat="43.12156" lon="0.89401">
        <ele>316.24</ele>
        <time>2018-07-27T05:30:56Z</time>
      </trkpt>
      <trkpt lat="43.12175" lon="0.89361">
        <ele>317.14</ele>
        <time>2018-07-27T05:30:58Z</time>
      </trkpt>
      <trkpt lat="43.12184" lon="0.89338">
        <ele>317.91</ele>
        <time>2018-07-27T05:30:59Z</time>
      </trkpt>
      <trkpt lat="43.12194" lon="0.89316">
        <ele>318.14</ele>
        <time>2018-07-27T05:31:00Z</time>
      </trkpt>
      <trkpt lat="43.12204" lon="0.89294">
        <ele>318.2</ele>
        <time>2018-07-27T05:31:01Z</time>
      </trkpt>
      <trkpt lat="43.12214" lon="0.89271">
        <ele>318.23</ele>
        <time>2018-07-27T05:31:02Z</time>
      </trkpt>
      <trkpt lat="43.12224" lon="0.89248">
        <ele>318.23</ele>
        <time>2018-07-27T05:31:03Z</time>
      </trkpt>
      <trkpt lat="43.12236" lon="0.8922">
        <ele>318.23</ele>
        <time>2018-07-27T05:31:04Z</time>
      </trkpt>
      <trkpt lat="43.12248" lon="0.89192">
        <ele>318.23</ele>
        <time>2018-07-27T05:31:05Z</time>
      </trkpt>
      <trkpt lat="43.1226" lon="0.89162">
        <ele>318.23</ele>
        <time>2018-07-27T05:31:06Z</time>
      </trkpt>
      <trkpt lat="43.12272" lon="0.89131">
        <ele>318.23</ele>
        <time>2018-07-27T05:31:07Z</time>
      </trkpt>
      <trkpt lat="43.12284" lon="0.891">
        <ele>318.23</ele>
        <time>2018-07-27T05:31:08Z</time>
      </trkpt>
      <trkpt lat="43.12297" lon="0.89066">
        <ele>318.23</ele>
        <time>2018-07-27T05:31:09Z</time>
      </trkpt>
      <trkpt lat="43.12309" lon="0.8903">
        <ele>318.93</ele>
        <time>2018-07-27T05:31:10Z</time>
      </trkpt>
      <trkpt lat="43.12321" lon="0.88996">
        <ele>319.14</ele>
        <time>2018-07-27T05:31:11Z</time>
      </trkpt>
      <trkpt lat="43.12332" lon="0.88962">
        <ele>319.91</ele>
        <time>2018-07-27T05:31:12Z</time>
      </trkpt>
      <trkpt lat="43.12343" lon="0.88931">
        <ele>319.44</ele>
        <time>2018-07-27T05:31:13Z</time>
      </trkpt>
      <trkpt lat="43.12353" lon="0.88899">
        <ele>319.99</ele>
        <time>2018-07-27T05:31:14Z</time>
      </trkpt>
      <trkpt lat="43.12362" lon="0.88866">
        <ele>320.16</ele>
        <time>2018-07-27T05:31:15Z</time>
      </trkpt>
      <trkpt lat="43.12372" lon="0.88831">
        <ele>320.21</ele>
        <time>2018-07-27T05:31:16Z</time>
      </trkpt>
      <trkpt lat="43.1238" lon="0.88795">
        <ele>320.23</ele>
        <time>2018-07-27T05:31:17Z</time>
      </trkpt>
      <trkpt lat="43.12389" lon="0.88756">
        <ele>320.23</ele>
        <time>2018-07-27T05:31:18Z</time>
      </trkpt>
      <trkpt lat="43.12398" lon="0.88716">
        <ele>320.23</ele>
        <time>2018-07-27T05:31:19Z</time>
      </trkpt>
      <trkpt lat="43.12406" lon="0.88675">
        <ele>320.23</ele>
        <time>2018-07-27T05:31:20Z</time>
      </trkpt>
      <trkpt lat="43.12414" lon="0.88633">
        <ele>320.93</ele>
        <time>2018-07-27T05:31:21Z</time>
      </trkpt>
      <trkpt lat="43.12421" lon="0.8859">
        <ele>321.14</ele>
        <time>2018-07-27T05:31:22Z</time>
      </trkpt>
      <trkpt lat="43.12428" lon="0.88548">
        <ele>321.91</ele>
        <time>2018-07-27T05:31:23Z</time>
      </trkpt>
      <trkpt lat="43.12434" lon="0.88503">
        <ele>322.84</ele>
        <time>2018-07-27T05:31:24Z</time>
      </trkpt>
      <trkpt lat="43.12441" lon="0.88459">
        <ele>323.11</ele>
        <time>2018-07-27T05:31:25Z</time>
      </trkpt>
      <trkpt lat="43.12446" lon="0.88414">
        <ele>323.2</ele>
        <time>2018-07-27T05:31:26Z</time>
      </trkpt>
      <trkpt lat="43.1245" lon="0.88368">
        <ele>322.52</ele>
        <time>2018-07-27T05:31:27Z</time>
      </trkpt>
      <trkpt lat="43.12454" lon="0.88323">
        <ele>323.02</ele>
        <time>2018-07-27T05:31:28Z</time>
      </trkpt>
      <trkpt lat="43.12457" lon="0.88277">
        <ele>323.17</ele>
        <time>2018-07-27T05:31:29Z</time>
      </trkpt>
      <trkpt lat="43.1246" lon="0.88231">
        <ele>323.21</ele>
        <time>2018-07-27T05:31:30Z</time>
      </trkpt>
      <trkpt lat="43.12462" lon="0.88185">
        <ele>323.23</ele>
        <time>2018-07-27T05:31:31Z</time>
      </trkpt>
      <trkpt lat="43.12461" lon="0.88138">
        <ele>323.23</ele>
        <time>2018-07-27T05:31:32Z</time>
      </trkpt>
      <trkpt lat="43.12462" lon="0.88093">
        <ele>323.23</ele>
        <time>2018-07-27T05:31:33Z</time>
      </trkpt>
      <trkpt lat="43.12462" lon="0.88046">
        <ele>323.23</ele>
        <time>2018-07-27T05:31:34Z</time>
      </trkpt>
      <trkpt lat="43.12461" lon="0.88">
        <ele>323.93</ele>
        <time>2018-07-27T05:31:35Z</time>
      </trkpt>
      <trkpt lat="43.1246" lon="0.87954">
        <ele>324.84</ele>
        <time>2018-07-27T05:31:36Z</time>
      </trkpt>
      <trkpt lat="43.12458" lon="0.87907">
        <ele>325.12</ele>
        <time>2018-07-27T05:31:37Z</time>
      </trkpt>
      <trkpt lat="43.12457" lon="0.87861">
        <ele>325.2</ele>
        <time>2018-07-27T05:31:38Z</time>
      </trkpt>
      <trkpt lat="43.12456" lon="0.87814">
        <ele>325.92</ele>
        <time>2018-07-27T05:31:39Z</time>
      </trkpt>
      <trkpt lat="43.12455" lon="0.87768">
        <ele>326.14</ele>
        <time>2018-07-27T05:31:40Z</time>
      </trkpt>
      <trkpt lat="43.12455" lon="0.87721">
        <ele>326.91</ele>
        <time>2018-07-27T05:31:41Z</time>
      </trkpt>
      <trkpt lat="43.12455" lon="0.87675">
        <ele>327.84</ele>
        <time>2018-07-27T05:31:42Z</time>
      </trkpt>
      <trkpt lat="43.12456" lon="0.87628">
        <ele>328.11</ele>
        <time>2018-07-27T05:31:43Z</time>
      </trkpt>
      <trkpt lat="43.12456" lon="0.87582">
        <ele>328.2</ele>
        <time>2018-07-27T05:31:44Z</time>
      </trkpt>
      <trkpt lat="43.12457" lon="0.87535">
        <ele>328.22</ele>
        <time>2018-07-27T05:31:45Z</time>
      </trkpt>
      <trkpt lat="43.12458" lon="0.87489">
        <ele>328.23</ele>
        <time>2018-07-27T05:31:46Z</time>
      </trkpt>
      <trkpt lat="43.1246" lon="0.87444">
        <ele>328.23</ele>
        <time>2018-07-27T05:31:47Z</time>
      </trkpt>
      <trkpt lat="43.12463" lon="0.87399">
        <ele>328.93</ele>
        <time>2018-07-27T05:31:48Z</time>
      </trkpt>
      <trkpt lat="43.12466" lon="0.87353">
        <ele>328.44</ele>
        <time>2018-07-27T05:31:49Z</time>
      </trkpt>
      <trkpt lat="43.1247" lon="0.87308">
        <ele>329</ele>
        <time>2018-07-27T05:31:50Z</time>
      </trkpt>
      <trkpt lat="43.12474" lon="0.87262">
        <ele>329.16</ele>
        <time>2018-07-27T05:31:51Z</time>
      </trkpt>
      <trkpt lat="43.12478" lon="0.87216">
        <ele>329.21</ele>
        <time>2018-07-27T05:31:52Z</time>
      </trkpt>
      <trkpt lat="43.12487" lon="0.87175">
        <ele>329.23</ele>
        <time>2018-07-27T05:31:53Z</time>
      </trkpt>
      <trkpt lat="43.12493" lon="0.87131">
        <ele>329.93</ele>
        <time>2018-07-27T05:31:54Z</time>
      </trkpt>
      <trkpt lat="43.12503" lon="0.87091">
        <ele>330.84</ele>
        <time>2018-07-27T05:31:55Z</time>
      </trkpt>
      <trkpt lat="43.1251" lon="0.87047">
        <ele>331.12</ele>
        <time>2018-07-27T05:31:56Z</time>
      </trkpt>
      <trkpt lat="43.12517" lon="0.87003">
        <ele>331.2</ele>
        <time>2018-07-27T05:31:57Z</time>
      </trkpt>
      <trkpt lat="43.12526" lon="0.86958">
        <ele>331.22</ele>
        <time>2018-07-27T05:31:58Z</time>
      </trkpt>
      <trkpt lat="43.12538" lon="0.86917">
        <ele>331.23</ele>
        <time>2018-07-27T05:31:59Z</time>
      </trkpt>
      <trkpt lat="43.1255" lon="0.86875">
        <ele>331.23</ele>
        <time>2018-07-27T05:32:00Z</time>
      </trkpt>
      <trkpt lat="43.12561" lon="0.86834">
        <ele>331.23</ele>
        <time>2018-07-27T05:32:01Z</time>
      </trkpt>
      <trkpt lat="43.12572" lon="0.86791">
        <ele>330.53</ele>
        <time>2018-07-27T05:32:02Z</time>
      </trkpt>
      <trkpt lat="43.12582" lon="0.86747">
        <ele>330.32</ele>
        <time>2018-07-27T05:32:03Z</time>
      </trkpt>
      <trkpt lat="43.12594" lon="0.86705">
        <ele>330.96</ele>
        <time>2018-07-27T05:32:04Z</time>
      </trkpt>
      <trkpt lat="43.12605" lon="0.86662">
        <ele>330.45</ele>
        <time>2018-07-27T05:32:05Z</time>
      </trkpt>
      <trkpt lat="43.12616" lon="0.86619">
        <ele>331</ele>
        <time>2018-07-27T05:32:06Z</time>
      </trkpt>
      <trkpt lat="43.12628" lon="0.86577">
        <ele>331.16</ele>
        <time>2018-07-27T05:32:07Z</time>
      </trkpt>
      <trkpt lat="43.1264" lon="0.86535">
        <ele>331.21</ele>
        <time>2018-07-27T05:32:08Z</time>
      </trkpt>
      <trkpt lat="43.12651" lon="0.86492">
        <ele>331.23</ele>
        <time>2018-07-27T05:32:09Z</time>
      </trkpt>
      <trkpt lat="43.12663" lon="0.86451">
        <ele>331.23</ele>
        <time>2018-07-27T05:32:10Z</time>
      </trkpt>
      <trkpt lat="43.12674" lon="0.86408">
        <ele>331.23</ele>
        <time>2018-07-27T05:32:11Z</time>
      </trkpt>
      <trkpt lat="43.12686" lon="0.86366">
        <ele>331.23</ele>
        <time>2018-07-27T05:32:12Z</time>
      </trkpt>
      <trkpt lat="43.12698" lon="0.86326">
        <ele>331.23</ele>
        <time>2018-07-27T05:32:13Z</time>
      </trkpt>
      <trkpt lat="43.12709" lon="0.86284">
        <ele>331.93</ele>
        <time>2018-07-27T05:32:14Z</time>
      </trkpt>
      <trkpt lat="43.12721" lon="0.86242">
        <ele>332.14</ele>
        <time>2018-07-27T05:32:15Z</time>
      </trkpt>
      <trkpt lat="43.12731" lon="0.862">
        <ele>332.21</ele>
        <time>2018-07-27T05:32:16Z</time>
      </trkpt>
      <trkpt lat="43.12743" lon="0.86158">
        <ele>332.23</ele>
        <time>2018-07-27T05:32:17Z</time>
      </trkpt>
      <trkpt lat="43.12755" lon="0.86117">
        <ele>332.93</ele>
        <time>2018-07-27T05:32:18Z</time>
      </trkpt>
      <trkpt lat="43.12767" lon="0.86075">
        <ele>333.14</ele>
        <time>2018-07-27T05:32:19Z</time>
      </trkpt>
      <trkpt lat="43.12778" lon="0.86034">
        <ele>332.51</ele>
        <time>2018-07-27T05:32:20Z</time>
      </trkpt>
      <trkpt lat="43.12789" lon="0.85991">
        <ele>332.32</ele>
        <time>2018-07-27T05:32:21Z</time>
      </trkpt>
      <trkpt lat="43.12801" lon="0.85948">
        <ele>332.96</ele>
        <time>2018-07-27T05:32:22Z</time>
      </trkpt>
      <trkpt lat="43.12813" lon="0.85906">
        <ele>333.15</ele>
        <time>2018-07-27T05:32:23Z</time>
      </trkpt>
      <trkpt lat="43.12824" lon="0.85864">
        <ele>333.21</ele>
        <time>2018-07-27T05:32:24Z</time>
      </trkpt>
      <trkpt lat="43.12836" lon="0.85823">
        <ele>333.23</ele>
        <time>2018-07-27T05:32:25Z</time>
      </trkpt>
      <trkpt lat="43.12848" lon="0.85782">
        <ele>333.23</ele>
        <time>2018-07-27T05:32:26Z</time>
      </trkpt>
      <trkpt lat="43.1286" lon="0.85739">
        <ele>333.93</ele>
        <time>2018-07-27T05:32:27Z</time>
      </trkpt>
      <trkpt lat="43.12871" lon="0.85698">
        <ele>334.14</ele>
        <time>2018-07-27T05:32:28Z</time>
      </trkpt>
      <trkpt lat="43.12882" lon="0.85656">
        <ele>334.21</ele>
        <time>2018-07-27T05:32:29Z</time>
      </trkpt>
      <trkpt lat="43.12894" lon="0.85614">
        <ele>334.93</ele>
        <time>2018-07-27T05:32:30Z</time>
      </trkpt>
      <trkpt lat="43.12905" lon="0.85572">
        <ele>335.14</ele>
        <time>2018-07-27T05:32:31Z</time>
      </trkpt>
      <trkpt lat="43.12917" lon="0.8553">
        <ele>334.51</ele>
        <time>2018-07-27T05:32:32Z</time>
      </trkpt>
      <trkpt lat="43.12928" lon="0.85488">
        <ele>335.02</ele>
        <time>2018-07-27T05:32:33Z</time>
      </trkpt>
      <trkpt lat="43.12939" lon="0.85445">
        <ele>335.87</ele>
        <time>2018-07-27T05:32:34Z</time>
      </trkpt>
      <trkpt lat="43.1295" lon="0.85403">
        <ele>336.12</ele>
        <time>2018-07-27T05:32:35Z</time>
      </trkpt>
      <trkpt lat="43.12961" lon="0.85359">
        <ele>336.2</ele>
        <time>2018-07-27T05:32:36Z</time>
      </trkpt>
      <trkpt lat="43.12972" lon="0.85316">
        <ele>336.92</ele>
        <time>2018-07-27T05:32:37Z</time>
      </trkpt>
      <trkpt lat="43.12983" lon="0.85273">
        <ele>337.14</ele>
        <time>2018-07-27T05:32:38Z</time>
      </trkpt>
      <trkpt lat="43.12994" lon="0.85229">
        <ele>337.21</ele>
        <time>2018-07-27T05:32:39Z</time>
      </trkpt>
      <trkpt lat="43.13004" lon="0.85185">
        <ele>337.93</ele>
        <time>2018-07-27T05:32:40Z</time>
      </trkpt>
      <trkpt lat="43.13015" lon="0.85141">
        <ele>338.14</ele>
        <time>2018-07-27T05:32:41Z</time>
      </trkpt>
      <trkpt lat="43.13025" lon="0.85097">
        <ele>338.21</ele>
        <time>2018-07-27T05:32:42Z</time>
      </trkpt>
      <trkpt lat="43.13035" lon="0.85054">
        <ele>338.23</ele>
        <time>2018-07-27T05:32:43Z</time>
      </trkpt>
      <trkpt lat="43.13045" lon="0.85009">
        <ele>338.23</ele>
        <time>2018-07-27T05:32:44Z</time>
      </trkpt>
      <trkpt lat="43.13055" lon="0.84965">
        <ele>338.23</ele>
        <time>2018-07-27T05:32:45Z</time>
      </trkpt>
      <trkpt lat="43.13065" lon="0.84922">
        <ele>338.93</ele>
        <time>2018-07-27T05:32:46Z</time>
      </trkpt>
      <trkpt lat="43.13074" lon="0.84877">
        <ele>339.14</ele>
        <time>2018-07-27T05:32:47Z</time>
      </trkpt>
      <trkpt lat="43.13084" lon="0.84833">
        <ele>339.21</ele>
        <time>2018-07-27T05:32:48Z</time>
      </trkpt>
      <trkpt lat="43.13093" lon="0.84789">
        <ele>339.23</ele>
        <time>2018-07-27T05:32:49Z</time>
      </trkpt>
      <trkpt lat="43.13102" lon="0.84745">
        <ele>339.23</ele>
        <time>2018-07-27T05:32:50Z</time>
      </trkpt>
      <trkpt lat="43.13111" lon="0.84701">
        <ele>339.23</ele>
        <time>2018-07-27T05:32:51Z</time>
      </trkpt>
      <trkpt lat="43.1312" lon="0.84657">
        <ele>339.23</ele>
        <time>2018-07-27T05:32:52Z</time>
      </trkpt>
      <trkpt lat="43.13129" lon="0.84613">
        <ele>339.93</ele>
        <time>2018-07-27T05:32:53Z</time>
      </trkpt>
      <trkpt lat="43.13137" lon="0.84569">
        <ele>340.14</ele>
        <time>2018-07-27T05:32:54Z</time>
      </trkpt>
      <trkpt lat="43.13145" lon="0.84526">
        <ele>340.21</ele>
        <time>2018-07-27T05:32:55Z</time>
      </trkpt>
      <trkpt lat="43.13154" lon="0.84481">
        <ele>340.93</ele>
        <time>2018-07-27T05:32:56Z</time>
      </trkpt>
      <trkpt lat="43.13162" lon="0.84438">
        <ele>341.14</ele>
        <time>2018-07-27T05:32:57Z</time>
      </trkpt>
      <trkpt lat="43.1317" lon="0.84393">
        <ele>341.21</ele>
        <time>2018-07-27T05:32:58Z</time>
      </trkpt>
      <trkpt lat="43.13179" lon="0.8435">
        <ele>341.23</ele>
        <time>2018-07-27T05:32:59Z</time>
      </trkpt>
      <trkpt lat="43.13187" lon="0.84306">
        <ele>341.93</ele>
        <time>2018-07-27T05:33:00Z</time>
      </trkpt>
      <trkpt lat="43.13195" lon="0.84262">
        <ele>342.14</ele>
        <time>2018-07-27T05:33:01Z</time>
      </trkpt>
      <trkpt lat="43.13204" lon="0.84218">
        <ele>342.21</ele>
        <time>2018-07-27T05:33:02Z</time>
      </trkpt>
      <trkpt lat="43.13213" lon="0.84175">
        <ele>342.93</ele>
        <time>2018-07-27T05:33:03Z</time>
      </trkpt>
      <trkpt lat="43.13221" lon="0.84131">
        <ele>343.14</ele>
        <time>2018-07-27T05:33:04Z</time>
      </trkpt>
      <trkpt lat="43.1323" lon="0.84087">
        <ele>343.91</ele>
        <time>2018-07-27T05:33:05Z</time>
      </trkpt>
      <trkpt lat="43.13238" lon="0.84043">
        <ele>344.14</ele>
        <time>2018-07-27T05:33:06Z</time>
      </trkpt>
      <trkpt lat="43.13246" lon="0.83999">
        <ele>344.2</ele>
        <time>2018-07-27T05:33:07Z</time>
      </trkpt>
      <trkpt lat="43.13255" lon="0.83957">
        <ele>344.23</ele>
        <time>2018-07-27T05:33:08Z</time>
      </trkpt>
      <trkpt lat="43.13265" lon="0.83913">
        <ele>344.23</ele>
        <time>2018-07-27T05:33:09Z</time>
      </trkpt>
      <trkpt lat="43.13273" lon="0.8387">
        <ele>344.93</ele>
        <time>2018-07-27T05:33:10Z</time>
      </trkpt>
      <trkpt lat="43.13281" lon="0.83826">
        <ele>344.44</ele>
        <time>2018-07-27T05:33:11Z</time>
      </trkpt>
      <trkpt lat="43.1329" lon="0.83783">
        <ele>345</ele>
        <time>2018-07-27T05:33:12Z</time>
      </trkpt>
      <trkpt lat="43.13299" lon="0.83738">
        <ele>345.16</ele>
        <time>2018-07-27T05:33:13Z</time>
      </trkpt>
      <trkpt lat="43.13307" lon="0.83695">
        <ele>345.21</ele>
        <time>2018-07-27T05:33:14Z</time>
      </trkpt>
      <trkpt lat="43.13316" lon="0.8365">
        <ele>345.23</ele>
        <time>2018-07-27T05:33:15Z</time>
      </trkpt>
      <trkpt lat="43.13323" lon="0.83606">
        <ele>345.23</ele>
        <time>2018-07-27T05:33:16Z</time>
      </trkpt>
      <trkpt lat="43.13331" lon="0.83563">
        <ele>345.23</ele>
        <time>2018-07-27T05:33:17Z</time>
      </trkpt>
      <trkpt lat="43.13337" lon="0.83518">
        <ele>345.93</ele>
        <time>2018-07-27T05:33:18Z</time>
      </trkpt>
      <trkpt lat="43.13342" lon="0.83473">
        <ele>346.14</ele>
        <time>2018-07-27T05:33:19Z</time>
      </trkpt>
      <trkpt lat="43.13347" lon="0.83428">
        <ele>346.21</ele>
        <time>2018-07-27T05:33:20Z</time>
      </trkpt>
      <trkpt lat="43.13351" lon="0.83383">
        <ele>346.23</ele>
        <time>2018-07-27T05:33:21Z</time>
      </trkpt>
      <trkpt lat="43.13353" lon="0.83338">
        <ele>346.23</ele>
        <time>2018-07-27T05:33:22Z</time>
      </trkpt>
      <trkpt lat="43.13354" lon="0.83293">
        <ele>346.23</ele>
        <time>2018-07-27T05:33:23Z</time>
      </trkpt>
      <trkpt lat="43.13355" lon="0.83249">
        <ele>346.93</ele>
        <time>2018-07-27T05:33:24Z</time>
      </trkpt>
      <trkpt lat="43.13355" lon="0.83204">
        <ele>347.14</ele>
        <time>2018-07-27T05:33:25Z</time>
      </trkpt>
      <trkpt lat="43.13354" lon="0.83159">
        <ele>347.91</ele>
        <time>2018-07-27T05:33:26Z</time>
      </trkpt>
      <trkpt lat="43.13352" lon="0.83114">
        <ele>348.84</ele>
        <time>2018-07-27T05:33:27Z</time>
      </trkpt>
      <trkpt lat="43.13349" lon="0.8307">
        <ele>349.81</ele>
        <time>2018-07-27T05:33:28Z</time>
      </trkpt>
      <trkpt lat="43.13345" lon="0.83026">
        <ele>350.81</ele>
        <time>2018-07-27T05:33:29Z</time>
      </trkpt>
      <trkpt lat="43.13341" lon="0.82983">
        <ele>351.81</ele>
        <time>2018-07-27T05:33:30Z</time>
      </trkpt>
      <trkpt lat="43.13336" lon="0.82939">
        <ele>352.81</ele>
        <time>2018-07-27T05:33:31Z</time>
      </trkpt>
      <trkpt lat="43.1333" lon="0.82896">
        <ele>354.51</ele>
        <time>2018-07-27T05:33:32Z</time>
      </trkpt>
      <trkpt lat="43.13322" lon="0.82854">
        <ele>355.02</ele>
        <time>2018-07-27T05:33:33Z</time>
      </trkpt>
      <trkpt lat="43.13314" lon="0.82811">
        <ele>356.57</ele>
        <time>2018-07-27T05:33:34Z</time>
      </trkpt>
      <trkpt lat="43.13306" lon="0.8277">
        <ele>357.73</ele>
        <time>2018-07-27T05:33:35Z</time>
      </trkpt>
      <trkpt lat="43.13296" lon="0.82728">
        <ele>359.48</ele>
        <time>2018-07-27T05:33:36Z</time>
      </trkpt>
      <trkpt lat="43.13286" lon="0.82686">
        <ele>360.71</ele>
        <time>2018-07-27T05:33:37Z</time>
      </trkpt>
      <trkpt lat="43.13274" lon="0.82645">
        <ele>361.78</ele>
        <time>2018-07-27T05:33:38Z</time>
      </trkpt>
      <trkpt lat="43.13263" lon="0.82604">
        <ele>362.8</ele>
        <time>2018-07-27T05:33:39Z</time>
      </trkpt>
      <trkpt lat="43.13251" lon="0.82564">
        <ele>363.8</ele>
        <time>2018-07-27T05:33:40Z</time>
      </trkpt>
      <trkpt lat="43.13239" lon="0.82524">
        <ele>364.8</ele>
        <time>2018-07-27T05:33:41Z</time>
      </trkpt>
      <trkpt lat="43.13227" lon="0.82484">
        <ele>365.81</ele>
        <time>2018-07-27T05:33:42Z</time>
      </trkpt>
      <trkpt lat="43.13215" lon="0.82444">
        <ele>366.81</ele>
        <time>2018-07-27T05:33:43Z</time>
      </trkpt>
      <trkpt lat="43.13202" lon="0.82404">
        <ele>368.51</ele>
        <time>2018-07-27T05:33:44Z</time>
      </trkpt>
      <trkpt lat="43.13189" lon="0.82364">
        <ele>369.72</ele>
        <time>2018-07-27T05:33:45Z</time>
      </trkpt>
      <trkpt lat="43.13176" lon="0.82322">
        <ele>370.78</ele>
        <time>2018-07-27T05:33:46Z</time>
      </trkpt>
      <trkpt lat="43.13162" lon="0.82281">
        <ele>371.8</ele>
        <time>2018-07-27T05:33:47Z</time>
      </trkpt>
      <trkpt lat="43.13149" lon="0.82239">
        <ele>372.8</ele>
        <time>2018-07-27T05:33:48Z</time>
      </trkpt>
      <trkpt lat="43.13135" lon="0.82197">
        <ele>374.5</ele>
        <time>2018-07-27T05:33:49Z</time>
      </trkpt>
      <trkpt lat="43.13122" lon="0.82156">
        <ele>375.72</ele>
        <time>2018-07-27T05:33:50Z</time>
      </trkpt>
      <trkpt lat="43.13109" lon="0.82113">
        <ele>376.78</ele>
        <time>2018-07-27T05:33:51Z</time>
      </trkpt>
      <trkpt lat="43.13095" lon="0.82071">
        <ele>377.8</ele>
        <time>2018-07-27T05:33:52Z</time>
      </trkpt>
      <trkpt lat="43.13082" lon="0.82029">
        <ele>378.1</ele>
        <time>2018-07-27T05:33:53Z</time>
      </trkpt>
      <trkpt lat="43.13067" lon="0.81987">
        <ele>378.89</ele>
        <time>2018-07-27T05:33:54Z</time>
      </trkpt>
      <trkpt lat="43.13054" lon="0.81945">
        <ele>379.13</ele>
        <time>2018-07-27T05:33:55Z</time>
      </trkpt>
      <trkpt lat="43.1304" lon="0.81903">
        <ele>379.2</ele>
        <time>2018-07-27T05:33:56Z</time>
      </trkpt>
      <trkpt lat="43.13026" lon="0.81861">
        <ele>379.92</ele>
        <time>2018-07-27T05:33:57Z</time>
      </trkpt>
      <trkpt lat="43.13013" lon="0.81818">
        <ele>380.14</ele>
        <time>2018-07-27T05:33:58Z</time>
      </trkpt>
      <trkpt lat="43.12999" lon="0.81775">
        <ele>380.21</ele>
        <time>2018-07-27T05:33:59Z</time>
      </trkpt>
      <trkpt lat="43.12985" lon="0.81732">
        <ele>379.53</ele>
        <time>2018-07-27T05:34:00Z</time>
      </trkpt>
      <trkpt lat="43.12971" lon="0.8169">
        <ele>379.32</ele>
        <time>2018-07-27T05:34:01Z</time>
      </trkpt>
      <trkpt lat="43.12957" lon="0.81647">
        <ele>379.26</ele>
        <time>2018-07-27T05:34:02Z</time>
      </trkpt>
      <trkpt lat="43.12943" lon="0.81604">
        <ele>378.54</ele>
        <time>2018-07-27T05:34:03Z</time>
      </trkpt>
      <trkpt lat="43.1293" lon="0.81562">
        <ele>378.33</ele>
        <time>2018-07-27T05:34:04Z</time>
      </trkpt>
      <trkpt lat="43.12916" lon="0.8152">
        <ele>377.56</ele>
        <time>2018-07-27T05:34:05Z</time>
      </trkpt>
      <trkpt lat="43.12902" lon="0.81478">
        <ele>376.63</ele>
        <time>2018-07-27T05:34:06Z</time>
      </trkpt>
      <trkpt lat="43.12888" lon="0.81435">
        <ele>375.65</ele>
        <time>2018-07-27T05:34:07Z</time>
      </trkpt>
      <trkpt lat="43.12873" lon="0.81391">
        <ele>374.66</ele>
        <time>2018-07-27T05:34:08Z</time>
      </trkpt>
      <trkpt lat="43.12858" lon="0.81347">
        <ele>373.66</ele>
        <time>2018-07-27T05:34:09Z</time>
      </trkpt>
      <trkpt lat="43.12844" lon="0.81302">
        <ele>372.66</ele>
        <time>2018-07-27T05:34:10Z</time>
      </trkpt>
      <trkpt lat="43.12829" lon="0.81257">
        <ele>370.96</ele>
        <time>2018-07-27T05:34:11Z</time>
      </trkpt>
      <trkpt lat="43.12814" lon="0.81212">
        <ele>369.75</ele>
        <time>2018-07-27T05:34:12Z</time>
      </trkpt>
      <trkpt lat="43.128" lon="0.81167">
        <ele>368.69</ele>
        <time>2018-07-27T05:34:13Z</time>
      </trkpt>
      <trkpt lat="43.12785" lon="0.81122">
        <ele>367.67</ele>
        <time>2018-07-27T05:34:14Z</time>
      </trkpt>
      <trkpt lat="43.1277" lon="0.81076">
        <ele>365.96</ele>
        <time>2018-07-27T05:34:15Z</time>
      </trkpt>
      <trkpt lat="43.12756" lon="0.81031">
        <ele>365.45</ele>
        <time>2018-07-27T05:34:16Z</time>
      </trkpt>
      <trkpt lat="43.12741" lon="0.80986">
        <ele>363.9</ele>
        <time>2018-07-27T05:34:17Z</time>
      </trkpt>
      <trkpt lat="43.12727" lon="0.80941">
        <ele>362.73</ele>
        <time>2018-07-27T05:34:18Z</time>
      </trkpt>
      <trkpt lat="43.12714" lon="0.80897">
        <ele>361.68</ele>
        <time>2018-07-27T05:34:19Z</time>
      </trkpt>
      <trkpt lat="43.12701" lon="0.80852">
        <ele>360.67</ele>
        <time>2018-07-27T05:34:20Z</time>
      </trkpt>
      <trkpt lat="43.12688" lon="0.80806">
        <ele>359.66</ele>
        <time>2018-07-27T05:34:21Z</time>
      </trkpt>
      <trkpt lat="43.12676" lon="0.80762">
        <ele>358.66</ele>
        <time>2018-07-27T05:34:22Z</time>
      </trkpt>
      <trkpt lat="43.12664" lon="0.80717">
        <ele>356.96</ele>
        <time>2018-07-27T05:34:23Z</time>
      </trkpt>
      <trkpt lat="43.12654" lon="0.80671">
        <ele>356.45</ele>
        <time>2018-07-27T05:34:24Z</time>
      </trkpt>
      <trkpt lat="43.12644" lon="0.80625">
        <ele>355.6</ele>
        <time>2018-07-27T05:34:25Z</time>
      </trkpt>
      <trkpt lat="43.12635" lon="0.80578">
        <ele>354.64</ele>
        <time>2018-07-27T05:34:26Z</time>
      </trkpt>
      <trkpt lat="43.12626" lon="0.80531">
        <ele>353.66</ele>
        <time>2018-07-27T05:34:27Z</time>
      </trkpt>
      <trkpt lat="43.12619" lon="0.80484">
        <ele>352.66</ele>
        <time>2018-07-27T05:34:28Z</time>
      </trkpt>
      <trkpt lat="43.12611" lon="0.80437">
        <ele>351.66</ele>
        <time>2018-07-27T05:34:29Z</time>
      </trkpt>
      <trkpt lat="43.12603" lon="0.8039">
        <ele>350.66</ele>
        <time>2018-07-27T05:34:30Z</time>
      </trkpt>
      <trkpt lat="43.12597" lon="0.80344">
        <ele>349.66</ele>
        <time>2018-07-27T05:34:31Z</time>
      </trkpt>
      <trkpt lat="43.12591" lon="0.80298">
        <ele>349.36</ele>
        <time>2018-07-27T05:34:32Z</time>
      </trkpt>
      <trkpt lat="43.12586" lon="0.80251">
        <ele>348.57</ele>
        <time>2018-07-27T05:34:33Z</time>
      </trkpt>
      <trkpt lat="43.12582" lon="0.80204">
        <ele>348.34</ele>
        <time>2018-07-27T05:34:34Z</time>
      </trkpt>
      <trkpt lat="43.12578" lon="0.80158">
        <ele>348.26</ele>
        <time>2018-07-27T05:34:35Z</time>
      </trkpt>
      <trkpt lat="43.12575" lon="0.80112">
        <ele>348.24</ele>
        <time>2018-07-27T05:34:36Z</time>
      </trkpt>
      <trkpt lat="43.12572" lon="0.80066">
        <ele>348.24</ele>
        <time>2018-07-27T05:34:37Z</time>
      </trkpt>
      <trkpt lat="43.12571" lon="0.80022">
        <ele>348.23</ele>
        <time>2018-07-27T05:34:38Z</time>
      </trkpt>
      <trkpt lat="43.12569" lon="0.79976">
        <ele>348.93</ele>
        <time>2018-07-27T05:34:39Z</time>
      </trkpt>
      <trkpt lat="43.12568" lon="0.79932">
        <ele>349.14</ele>
        <time>2018-07-27T05:34:40Z</time>
      </trkpt>
      <trkpt lat="43.12567" lon="0.79887">
        <ele>349.21</ele>
        <time>2018-07-27T05:34:41Z</time>
      </trkpt>
      <trkpt lat="43.12567" lon="0.79841">
        <ele>349.93</ele>
        <time>2018-07-27T05:34:42Z</time>
      </trkpt>
      <trkpt lat="43.12566" lon="0.79796">
        <ele>349.44</ele>
        <time>2018-07-27T05:34:43Z</time>
      </trkpt>
      <trkpt lat="43.12567" lon="0.79751">
        <ele>349.3</ele>
        <time>2018-07-27T05:34:44Z</time>
      </trkpt>
      <trkpt lat="43.12568" lon="0.79706">
        <ele>349.95</ele>
        <time>2018-07-27T05:34:45Z</time>
      </trkpt>
      <trkpt lat="43.12569" lon="0.79661">
        <ele>350.15</ele>
        <time>2018-07-27T05:34:46Z</time>
      </trkpt>
      <trkpt lat="43.12569" lon="0.79616">
        <ele>350.91</ele>
        <time>2018-07-27T05:34:47Z</time>
      </trkpt>
      <trkpt lat="43.12571" lon="0.7957">
        <ele>350.44</ele>
        <time>2018-07-27T05:34:48Z</time>
      </trkpt>
      <trkpt lat="43.12573" lon="0.79524">
        <ele>350.99</ele>
        <time>2018-07-27T05:34:49Z</time>
      </trkpt>
      <trkpt lat="43.12574" lon="0.79478">
        <ele>351.16</ele>
        <time>2018-07-27T05:34:50Z</time>
      </trkpt>
      <trkpt lat="43.12575" lon="0.79432">
        <ele>351.91</ele>
        <time>2018-07-27T05:34:51Z</time>
      </trkpt>
      <trkpt lat="43.12575" lon="0.79386">
        <ele>352.84</ele>
        <time>2018-07-27T05:34:52Z</time>
      </trkpt>
      <trkpt lat="43.12577" lon="0.7934">
        <ele>353.12</ele>
        <time>2018-07-27T05:34:53Z</time>
      </trkpt>
      <trkpt lat="43.12578" lon="0.79295">
        <ele>353.9</ele>
        <time>2018-07-27T05:34:54Z</time>
      </trkpt>
      <trkpt lat="43.12578" lon="0.79248">
        <ele>354.13</ele>
        <time>2018-07-27T05:34:55Z</time>
      </trkpt>
      <trkpt lat="43.12579" lon="0.79202">
        <ele>354.2</ele>
        <time>2018-07-27T05:34:56Z</time>
      </trkpt>
      <trkpt lat="43.1258" lon="0.79155">
        <ele>354.22</ele>
        <time>2018-07-27T05:34:57Z</time>
      </trkpt>
      <trkpt lat="43.12581" lon="0.79109">
        <ele>354.23</ele>
        <time>2018-07-27T05:34:58Z</time>
      </trkpt>
      <trkpt lat="43.12582" lon="0.79062">
        <ele>354.93</ele>
        <time>2018-07-27T05:34:59Z</time>
      </trkpt>
      <trkpt lat="43.12583" lon="0.79016">
        <ele>355.14</ele>
        <time>2018-07-27T05:35:00Z</time>
      </trkpt>
      <trkpt lat="43.12585" lon="0.7897">
        <ele>354.51</ele>
        <time>2018-07-27T05:35:01Z</time>
      </trkpt>
      <trkpt lat="43.12586" lon="0.78923">
        <ele>354.32</ele>
        <time>2018-07-27T05:35:02Z</time>
      </trkpt>
      <trkpt lat="43.12586" lon="0.78877">
        <ele>354.96</ele>
        <time>2018-07-27T05:35:03Z</time>
      </trkpt>
      <trkpt lat="43.12585" lon="0.7883">
        <ele>355.15</ele>
        <time>2018-07-27T05:35:04Z</time>
      </trkpt>
      <trkpt lat="43.12585" lon="0.78783">
        <ele>355.21</ele>
        <time>2018-07-27T05:35:05Z</time>
      </trkpt>
      <trkpt lat="43.12585" lon="0.78737">
        <ele>355.93</ele>
        <time>2018-07-27T05:35:06Z</time>
      </trkpt>
      <trkpt lat="43.12584" lon="0.78689">
        <ele>356.84</ele>
        <time>2018-07-27T05:35:07Z</time>
      </trkpt>
      <trkpt lat="43.12584" lon="0.78642">
        <ele>357.82</ele>
        <time>2018-07-27T05:35:08Z</time>
      </trkpt>
      <trkpt lat="43.12584" lon="0.78596">
        <ele>358.11</ele>
        <time>2018-07-27T05:35:09Z</time>
      </trkpt>
      <trkpt lat="43.12585" lon="0.7855">
        <ele>358.9</ele>
        <time>2018-07-27T05:35:10Z</time>
      </trkpt>
      <trkpt lat="43.12587" lon="0.78504">
        <ele>359.13</ele>
        <time>2018-07-27T05:35:11Z</time>
      </trkpt>
      <trkpt lat="43.12587" lon="0.78458">
        <ele>359.2</ele>
        <time>2018-07-27T05:35:12Z</time>
      </trkpt>
      <trkpt lat="43.12587" lon="0.78412">
        <ele>359.92</ele>
        <time>2018-07-27T05:35:13Z</time>
      </trkpt>
      <trkpt lat="43.12585" lon="0.78366">
        <ele>360.84</ele>
        <time>2018-07-27T05:35:14Z</time>
      </trkpt>
      <trkpt lat="43.12586" lon="0.7832">
        <ele>361.12</ele>
        <time>2018-07-27T05:35:15Z</time>
      </trkpt>
      <trkpt lat="43.12585" lon="0.78274">
        <ele>361.9</ele>
        <time>2018-07-27T05:35:16Z</time>
      </trkpt>
      <trkpt lat="43.12583" lon="0.78227">
        <ele>362.13</ele>
        <time>2018-07-27T05:35:17Z</time>
      </trkpt>
      <trkpt lat="43.12582" lon="0.78181">
        <ele>362.2</ele>
        <time>2018-07-27T05:35:18Z</time>
      </trkpt>
      <trkpt lat="43.1258" lon="0.78134">
        <ele>362.22</ele>
        <time>2018-07-27T05:35:19Z</time>
      </trkpt>
      <trkpt lat="43.12577" lon="0.78088">
        <ele>361.53</ele>
        <time>2018-07-27T05:35:20Z</time>
      </trkpt>
      <trkpt lat="43.12576" lon="0.78041">
        <ele>360.62</ele>
        <time>2018-07-27T05:35:21Z</time>
      </trkpt>
      <trkpt lat="43.12574" lon="0.77995">
        <ele>360.35</ele>
        <time>2018-07-27T05:35:22Z</time>
      </trkpt>
      <trkpt lat="43.12572" lon="0.77948">
        <ele>360.27</ele>
        <time>2018-07-27T05:35:23Z</time>
      </trkpt>
      <trkpt lat="43.1257" lon="0.77902">
        <ele>360.94</ele>
        <time>2018-07-27T05:35:24Z</time>
      </trkpt>
      <trkpt lat="43.12567" lon="0.77856">
        <ele>360.45</ele>
        <time>2018-07-27T05:35:25Z</time>
      </trkpt>
      <trkpt lat="43.12565" lon="0.7781">
        <ele>361</ele>
        <time>2018-07-27T05:35:26Z</time>
      </trkpt>
      <trkpt lat="43.12563" lon="0.77763">
        <ele>361.16</ele>
        <time>2018-07-27T05:35:27Z</time>
      </trkpt>
      <trkpt lat="43.12559" lon="0.77717">
        <ele>361.21</ele>
        <time>2018-07-27T05:35:28Z</time>
      </trkpt>
      <trkpt lat="43.12557" lon="0.7767">
        <ele>361.23</ele>
        <time>2018-07-27T05:35:29Z</time>
      </trkpt>
      <trkpt lat="43.12553" lon="0.77624">
        <ele>361.93</ele>
        <time>2018-07-27T05:35:30Z</time>
      </trkpt>
      <trkpt lat="43.1255" lon="0.77578">
        <ele>362.14</ele>
        <time>2018-07-27T05:35:31Z</time>
      </trkpt>
      <trkpt lat="43.12548" lon="0.77532">
        <ele>362.91</ele>
        <time>2018-07-27T05:35:32Z</time>
      </trkpt>
      <trkpt lat="43.12545" lon="0.77486">
        <ele>363.14</ele>
        <time>2018-07-27T05:35:33Z</time>
      </trkpt>
      <trkpt lat="43.12543" lon="0.77439">
        <ele>362.5</ele>
        <time>2018-07-27T05:35:34Z</time>
      </trkpt>
      <trkpt lat="43.1254" lon="0.77394">
        <ele>362.32</ele>
        <time>2018-07-27T05:35:35Z</time>
      </trkpt>
      <trkpt lat="43.12537" lon="0.77347">
        <ele>362.96</ele>
        <time>2018-07-27T05:35:36Z</time>
      </trkpt>
      <trkpt lat="43.12534" lon="0.77302">
        <ele>363.15</ele>
        <time>2018-07-27T05:35:37Z</time>
      </trkpt>
      <trkpt lat="43.12531" lon="0.77255">
        <ele>363.21</ele>
        <time>2018-07-27T05:35:38Z</time>
      </trkpt>
      <trkpt lat="43.12528" lon="0.77209">
        <ele>363.23</ele>
        <time>2018-07-27T05:35:39Z</time>
      </trkpt>
      <trkpt lat="43.12526" lon="0.77163">
        <ele>363.23</ele>
        <time>2018-07-27T05:35:40Z</time>
      </trkpt>
      <trkpt lat="43.12524" lon="0.77117">
        <ele>363.23</ele>
        <time>2018-07-27T05:35:41Z</time>
      </trkpt>
      <trkpt lat="43.12522" lon="0.77071">
        <ele>363.23</ele>
        <time>2018-07-27T05:35:42Z</time>
      </trkpt>
      <trkpt lat="43.12521" lon="0.77024">
        <ele>363.23</ele>
        <time>2018-07-27T05:35:43Z</time>
      </trkpt>
      <trkpt lat="43.12519" lon="0.76977">
        <ele>363.23</ele>
        <time>2018-07-27T05:35:44Z</time>
      </trkpt>
      <trkpt lat="43.12518" lon="0.76932">
        <ele>363.23</ele>
        <time>2018-07-27T05:35:45Z</time>
      </trkpt>
      <trkpt lat="43.12517" lon="0.76886">
        <ele>363.23</ele>
        <time>2018-07-27T05:35:46Z</time>
      </trkpt>
      <trkpt lat="43.12516" lon="0.7684">
        <ele>363.23</ele>
        <time>2018-07-27T05:35:47Z</time>
      </trkpt>
      <trkpt lat="43.12515" lon="0.76794">
        <ele>363.23</ele>
        <time>2018-07-27T05:35:48Z</time>
      </trkpt>
      <trkpt lat="43.12514" lon="0.76748">
        <ele>363.23</ele>
        <time>2018-07-27T05:35:49Z</time>
      </trkpt>
      <trkpt lat="43.12514" lon="0.76702">
        <ele>363.23</ele>
        <time>2018-07-27T05:35:50Z</time>
      </trkpt>
      <trkpt lat="43.12514" lon="0.76655">
        <ele>363.93</ele>
        <time>2018-07-27T05:35:51Z</time>
      </trkpt>
      <trkpt lat="43.12513" lon="0.7661">
        <ele>364.14</ele>
        <time>2018-07-27T05:35:52Z</time>
      </trkpt>
      <trkpt lat="43.12513" lon="0.76565">
        <ele>364.91</ele>
        <time>2018-07-27T05:35:53Z</time>
      </trkpt>
      <trkpt lat="43.12513" lon="0.76519">
        <ele>365.14</ele>
        <time>2018-07-27T05:35:54Z</time>
      </trkpt>
      <trkpt lat="43.12513" lon="0.76473">
        <ele>365.2</ele>
        <time>2018-07-27T05:35:55Z</time>
      </trkpt>
      <trkpt lat="43.12513" lon="0.76427">
        <ele>365.23</ele>
        <time>2018-07-27T05:35:56Z</time>
      </trkpt>
      <trkpt lat="43.12514" lon="0.76381">
        <ele>365.93</ele>
        <time>2018-07-27T05:35:57Z</time>
      </trkpt>
      <trkpt lat="43.12515" lon="0.76336">
        <ele>366.84</ele>
        <time>2018-07-27T05:35:58Z</time>
      </trkpt>
      <trkpt lat="43.12516" lon="0.76291">
        <ele>366.42</ele>
        <time>2018-07-27T05:35:59Z</time>
      </trkpt>
      <trkpt lat="43.12516" lon="0.76245">
        <ele>366.29</ele>
        <time>2018-07-27T05:36:00Z</time>
      </trkpt>
      <trkpt lat="43.12516" lon="0.762">
        <ele>366.95</ele>
        <time>2018-07-27T05:36:01Z</time>
      </trkpt>
      <trkpt lat="43.12517" lon="0.76155">
        <ele>367.15</ele>
        <time>2018-07-27T05:36:02Z</time>
      </trkpt>
      <trkpt lat="43.12517" lon="0.76109">
        <ele>367.21</ele>
        <time>2018-07-27T05:36:03Z</time>
      </trkpt>
      <trkpt lat="43.12516" lon="0.76063">
        <ele>367.93</ele>
        <time>2018-07-27T05:36:04Z</time>
      </trkpt>
      <trkpt lat="43.12516" lon="0.76017">
        <ele>368.14</ele>
        <time>2018-07-27T05:36:05Z</time>
      </trkpt>
      <trkpt lat="43.12516" lon="0.75971">
        <ele>368.91</ele>
        <time>2018-07-27T05:36:06Z</time>
      </trkpt>
      <trkpt lat="43.12516" lon="0.75925">
        <ele>369.84</ele>
        <time>2018-07-27T05:36:07Z</time>
      </trkpt>
      <trkpt lat="43.12515" lon="0.75878">
        <ele>370.11</ele>
        <time>2018-07-27T05:36:08Z</time>
      </trkpt>
      <trkpt lat="43.12514" lon="0.75832">
        <ele>370.2</ele>
        <time>2018-07-27T05:36:09Z</time>
      </trkpt>
      <trkpt lat="43.12513" lon="0.75785">
        <ele>370.22</ele>
        <time>2018-07-27T05:36:10Z</time>
      </trkpt>
      <trkpt lat="43.12511" lon="0.75738">
        <ele>370.23</ele>
        <time>2018-07-27T05:36:11Z</time>
      </trkpt>
      <trkpt lat="43.12509" lon="0.75692">
        <ele>370.93</ele>
        <time>2018-07-27T05:36:12Z</time>
      </trkpt>
      <trkpt lat="43.12508" lon="0.75645">
        <ele>371.14</ele>
        <time>2018-07-27T05:36:13Z</time>
      </trkpt>
      <trkpt lat="43.12506" lon="0.75598">
        <ele>371.21</ele>
        <time>2018-07-27T05:36:14Z</time>
      </trkpt>
      <trkpt lat="43.12503" lon="0.75552">
        <ele>371.23</ele>
        <time>2018-07-27T05:36:15Z</time>
      </trkpt>
      <trkpt lat="43.12501" lon="0.75506">
        <ele>370.53</ele>
        <time>2018-07-27T05:36:16Z</time>
      </trkpt>
      <trkpt lat="43.125" lon="0.7546">
        <ele>370.32</ele>
        <time>2018-07-27T05:36:17Z</time>
      </trkpt>
      <trkpt lat="43.12498" lon="0.75414">
        <ele>370.96</ele>
        <time>2018-07-27T05:36:18Z</time>
      </trkpt>
      <trkpt lat="43.12496" lon="0.75368">
        <ele>371.15</ele>
        <time>2018-07-27T05:36:19Z</time>
      </trkpt>
      <trkpt lat="43.12493" lon="0.75322">
        <ele>371.21</ele>
        <time>2018-07-27T05:36:20Z</time>
      </trkpt>
      <trkpt lat="43.12491" lon="0.75277">
        <ele>371.23</ele>
        <time>2018-07-27T05:36:21Z</time>
      </trkpt>
      <trkpt lat="43.12488" lon="0.75231">
        <ele>371.93</ele>
        <time>2018-07-27T05:36:22Z</time>
      </trkpt>
      <trkpt lat="43.12486" lon="0.75186">
        <ele>372.14</ele>
        <time>2018-07-27T05:36:23Z</time>
      </trkpt>
      <trkpt lat="43.12482" lon="0.75141">
        <ele>371.51</ele>
        <time>2018-07-27T05:36:24Z</time>
      </trkpt>
      <trkpt lat="43.12478" lon="0.75095">
        <ele>372.02</ele>
        <time>2018-07-27T05:36:25Z</time>
      </trkpt>
      <trkpt lat="43.12474" lon="0.75049">
        <ele>372.17</ele>
        <time>2018-07-27T05:36:26Z</time>
      </trkpt>
      <trkpt lat="43.12469" lon="0.75004">
        <ele>372.21</ele>
        <time>2018-07-27T05:36:27Z</time>
      </trkpt>
      <trkpt lat="43.12464" lon="0.74959">
        <ele>372.25</ele>
        <time>2018-07-27T05:36:28Z</time>
      </trkpt>
      <trkpt lat="43.12458" lon="0.74914">
        <ele>372.26</ele>
        <time>2018-07-27T05:36:29Z</time>
      </trkpt>
      <trkpt lat="43.12452" lon="0.74869">
        <ele>372.27</ele>
        <time>2018-07-27T05:36:30Z</time>
      </trkpt>
      <trkpt lat="43.12446" lon="0.74825">
        <ele>372.97</ele>
        <time>2018-07-27T05:36:31Z</time>
      </trkpt>
      <trkpt lat="43.12439" lon="0.74779">
        <ele>372.48</ele>
        <time>2018-07-27T05:36:32Z</time>
      </trkpt>
      <trkpt lat="43.12432" lon="0.74735">
        <ele>372.33</ele>
        <time>2018-07-27T05:36:33Z</time>
      </trkpt>
      <trkpt lat="43.12425" lon="0.7469">
        <ele>372.29</ele>
        <time>2018-07-27T05:36:34Z</time>
      </trkpt>
      <trkpt lat="43.12417" lon="0.74646">
        <ele>372.97</ele>
        <time>2018-07-27T05:36:35Z</time>
      </trkpt>
      <trkpt lat="43.1241" lon="0.74601">
        <ele>373.18</ele>
        <time>2018-07-27T05:36:36Z</time>
      </trkpt>
      <trkpt lat="43.12401" lon="0.74557">
        <ele>373.24</ele>
        <time>2018-07-27T05:36:37Z</time>
      </trkpt>
      <trkpt lat="43.12394" lon="0.74512">
        <ele>373.26</ele>
        <time>2018-07-27T05:36:38Z</time>
      </trkpt>
      <trkpt lat="43.12386" lon="0.74468">
        <ele>373.26</ele>
        <time>2018-07-27T05:36:39Z</time>
      </trkpt>
      <trkpt lat="43.12379" lon="0.74423">
        <ele>373.27</ele>
        <time>2018-07-27T05:36:40Z</time>
      </trkpt>
      <trkpt lat="43.12371" lon="0.74379">
        <ele>373.27</ele>
        <time>2018-07-27T05:36:41Z</time>
      </trkpt>
      <trkpt lat="43.12364" lon="0.74334">
        <ele>373.27</ele>
        <time>2018-07-27T05:36:42Z</time>
      </trkpt>
      <trkpt lat="43.12357" lon="0.74289">
        <ele>372.57</ele>
        <time>2018-07-27T05:36:43Z</time>
      </trkpt>
      <trkpt lat="43.12351" lon="0.74244">
        <ele>372.36</ele>
        <time>2018-07-27T05:36:44Z</time>
      </trkpt>
      <trkpt lat="43.12345" lon="0.74199">
        <ele>372.99</ele>
        <time>2018-07-27T05:36:45Z</time>
      </trkpt>
      <trkpt lat="43.1234" lon="0.74155">
        <ele>372.49</ele>
        <time>2018-07-27T05:36:46Z</time>
      </trkpt>
      <trkpt lat="43.12336" lon="0.7411">
        <ele>372.33</ele>
        <time>2018-07-27T05:36:47Z</time>
      </trkpt>
      <trkpt lat="43.12332" lon="0.74066">
        <ele>372.99</ele>
        <time>2018-07-27T05:36:48Z</time>
      </trkpt>
      <trkpt lat="43.12329" lon="0.74021">
        <ele>373.18</ele>
        <time>2018-07-27T05:36:49Z</time>
      </trkpt>
      <trkpt lat="43.12327" lon="0.73976">
        <ele>373.94</ele>
        <time>2018-07-27T05:36:50Z</time>
      </trkpt>
      <trkpt lat="43.12326" lon="0.73931">
        <ele>374.17</ele>
        <time>2018-07-27T05:36:51Z</time>
      </trkpt>
      <trkpt lat="43.12325" lon="0.73885">
        <ele>374.24</ele>
        <time>2018-07-27T05:36:52Z</time>
      </trkpt>
      <trkpt lat="43.12325" lon="0.73839">
        <ele>374.26</ele>
        <time>2018-07-27T05:36:53Z</time>
      </trkpt>
      <trkpt lat="43.12325" lon="0.73794">
        <ele>374.26</ele>
        <time>2018-07-27T05:36:54Z</time>
      </trkpt>
      <trkpt lat="43.12326" lon="0.73748">
        <ele>374.97</ele>
        <time>2018-07-27T05:36:55Z</time>
      </trkpt>
      <trkpt lat="43.12328" lon="0.73702">
        <ele>375.18</ele>
        <time>2018-07-27T05:36:56Z</time>
      </trkpt>
      <trkpt lat="43.1233" lon="0.73657">
        <ele>375.24</ele>
        <time>2018-07-27T05:36:57Z</time>
      </trkpt>
      <trkpt lat="43.12333" lon="0.73612">
        <ele>375.26</ele>
        <time>2018-07-27T05:36:58Z</time>
      </trkpt>
      <trkpt lat="43.12337" lon="0.73565">
        <ele>374.56</ele>
        <time>2018-07-27T05:36:59Z</time>
      </trkpt>
      <trkpt lat="43.12341" lon="0.7352">
        <ele>374.36</ele>
        <time>2018-07-27T05:37:00Z</time>
      </trkpt>
      <trkpt lat="43.12347" lon="0.73475">
        <ele>374.99</ele>
        <time>2018-07-27T05:37:01Z</time>
      </trkpt>
      <trkpt lat="43.12353" lon="0.73431">
        <ele>375.19</ele>
        <time>2018-07-27T05:37:02Z</time>
      </trkpt>
      <trkpt lat="43.12359" lon="0.73386">
        <ele>375.94</ele>
        <time>2018-07-27T05:37:03Z</time>
      </trkpt>
      <trkpt lat="43.12366" lon="0.73342">
        <ele>376.17</ele>
        <time>2018-07-27T05:37:04Z</time>
      </trkpt>
      <trkpt lat="43.12374" lon="0.73298">
        <ele>376.24</ele>
        <time>2018-07-27T05:37:05Z</time>
      </trkpt>
      <trkpt lat="43.12382" lon="0.73254">
        <ele>376.96</ele>
        <time>2018-07-27T05:37:06Z</time>
      </trkpt>
      <trkpt lat="43.1239" lon="0.73211">
        <ele>375.77</ele>
        <time>2018-07-27T05:37:07Z</time>
      </trkpt>
      <trkpt lat="43.12398" lon="0.73165">
        <ele>376.12</ele>
        <time>2018-07-27T05:37:08Z</time>
      </trkpt>
      <trkpt lat="43.12406" lon="0.73122">
        <ele>376.22</ele>
        <time>2018-07-27T05:37:09Z</time>
      </trkpt>
      <trkpt lat="43.12414" lon="0.73078">
        <ele>376.25</ele>
        <time>2018-07-27T05:37:10Z</time>
      </trkpt>
      <trkpt lat="43.12422" lon="0.73035">
        <ele>376.96</ele>
        <time>2018-07-27T05:37:11Z</time>
      </trkpt>
      <trkpt lat="43.1243" lon="0.72991">
        <ele>376.48</ele>
        <time>2018-07-27T05:37:12Z</time>
      </trkpt>
      <trkpt lat="43.12436" lon="0.72947">
        <ele>376.33</ele>
        <time>2018-07-27T05:37:13Z</time>
      </trkpt>
      <trkpt lat="43.12442" lon="0.72903">
        <ele>376.29</ele>
        <time>2018-07-27T05:37:14Z</time>
      </trkpt>
      <trkpt lat="43.12447" lon="0.72859">
        <ele>376.97</ele>
        <time>2018-07-27T05:37:15Z</time>
      </trkpt>
      <trkpt lat="43.12452" lon="0.72816">
        <ele>377.18</ele>
        <time>2018-07-27T05:37:16Z</time>
      </trkpt>
      <trkpt lat="43.12456" lon="0.72771">
        <ele>377.24</ele>
        <time>2018-07-27T05:37:17Z</time>
      </trkpt>
      <trkpt lat="43.12459" lon="0.72726">
        <ele>377.26</ele>
        <time>2018-07-27T05:37:18Z</time>
      </trkpt>
      <trkpt lat="43.12462" lon="0.72683">
        <ele>377.26</ele>
        <time>2018-07-27T05:37:19Z</time>
      </trkpt>
      <trkpt lat="43.12464" lon="0.72639">
        <ele>377.27</ele>
        <time>2018-07-27T05:37:20Z</time>
      </trkpt>
      <trkpt lat="43.12465" lon="0.72594">
        <ele>377.27</ele>
        <time>2018-07-27T05:37:21Z</time>
      </trkpt>
      <trkpt lat="43.12465" lon="0.72549">
        <ele>377.97</ele>
        <time>2018-07-27T05:37:22Z</time>
      </trkpt>
      <trkpt lat="43.12465" lon="0.72504">
        <ele>378.18</ele>
        <time>2018-07-27T05:37:23Z</time>
      </trkpt>
      <trkpt lat="43.12465" lon="0.72458">
        <ele>378.24</ele>
        <time>2018-07-27T05:37:24Z</time>
      </trkpt>
      <trkpt lat="43.12463" lon="0.72413">
        <ele>379.66</ele>
        <time>2018-07-27T05:37:25Z</time>
      </trkpt>
      <trkpt lat="43.12461" lon="0.72367">
        <ele>380.08</ele>
        <time>2018-07-27T05:37:26Z</time>
      </trkpt>
      <trkpt lat="43.12458" lon="0.72321">
        <ele>380.21</ele>
        <time>2018-07-27T05:37:27Z</time>
      </trkpt>
      <trkpt lat="43.12454" lon="0.72275">
        <ele>380.95</ele>
        <time>2018-07-27T05:37:28Z</time>
      </trkpt>
      <trkpt lat="43.1245" lon="0.7223">
        <ele>381.17</ele>
        <time>2018-07-27T05:37:29Z</time>
      </trkpt>
      <trkpt lat="43.12445" lon="0.72185">
        <ele>381.24</ele>
        <time>2018-07-27T05:37:30Z</time>
      </trkpt>
      <trkpt lat="43.1244" lon="0.7214">
        <ele>381.96</ele>
        <time>2018-07-27T05:37:31Z</time>
      </trkpt>
      <trkpt lat="43.12434" lon="0.72094">
        <ele>382.87</ele>
        <time>2018-07-27T05:37:32Z</time>
      </trkpt>
      <trkpt lat="43.12427" lon="0.72049">
        <ele>383.85</ele>
        <time>2018-07-27T05:37:33Z</time>
      </trkpt>
      <trkpt lat="43.12419" lon="0.72004">
        <ele>384.14</ele>
        <time>2018-07-27T05:37:34Z</time>
      </trkpt>
      <trkpt lat="43.12412" lon="0.7196">
        <ele>384.93</ele>
        <time>2018-07-27T05:37:35Z</time>
      </trkpt>
      <trkpt lat="43.12403" lon="0.71915">
        <ele>385.17</ele>
        <time>2018-07-27T05:37:36Z</time>
      </trkpt>
      <trkpt lat="43.12393" lon="0.71871">
        <ele>385.94</ele>
        <time>2018-07-27T05:37:37Z</time>
      </trkpt>
      <trkpt lat="43.12383" lon="0.71827">
        <ele>386.87</ele>
        <time>2018-07-27T05:37:38Z</time>
      </trkpt>
      <trkpt lat="43.12373" lon="0.71783">
        <ele>387.15</ele>
        <time>2018-07-27T05:37:39Z</time>
      </trkpt>
      <trkpt lat="43.12362" lon="0.71739">
        <ele>387.93</ele>
        <time>2018-07-27T05:37:40Z</time>
      </trkpt>
      <trkpt lat="43.12351" lon="0.71696">
        <ele>388.87</ele>
        <time>2018-07-27T05:37:41Z</time>
      </trkpt>
      <trkpt lat="43.12341" lon="0.71652">
        <ele>388.45</ele>
        <time>2018-07-27T05:37:42Z</time>
      </trkpt>
      <trkpt lat="43.12331" lon="0.71607">
        <ele>388.32</ele>
        <time>2018-07-27T05:37:43Z</time>
      </trkpt>
      <trkpt lat="43.12321" lon="0.71563">
        <ele>388.28</ele>
        <time>2018-07-27T05:37:44Z</time>
      </trkpt>
      <trkpt lat="43.1231" lon="0.71519">
        <ele>388.97</ele>
        <time>2018-07-27T05:37:45Z</time>
      </trkpt>
      <trkpt lat="43.12299" lon="0.71475">
        <ele>389.18</ele>
        <time>2018-07-27T05:37:46Z</time>
      </trkpt>
      <trkpt lat="43.12288" lon="0.71431">
        <ele>389.94</ele>
        <time>2018-07-27T05:37:47Z</time>
      </trkpt>
      <trkpt lat="43.12278" lon="0.71386">
        <ele>390.17</ele>
        <time>2018-07-27T05:37:48Z</time>
      </trkpt>
      <trkpt lat="43.12267" lon="0.71342">
        <ele>390.94</ele>
        <time>2018-07-27T05:37:49Z</time>
      </trkpt>
      <trkpt lat="43.12256" lon="0.71297">
        <ele>391.17</ele>
        <time>2018-07-27T05:37:50Z</time>
      </trkpt>
      <trkpt lat="43.12245" lon="0.71253">
        <ele>391.24</ele>
        <time>2018-07-27T05:37:51Z</time>
      </trkpt>
      <trkpt lat="43.12235" lon="0.71208">
        <ele>391.96</ele>
        <time>2018-07-27T05:37:52Z</time>
      </trkpt>
      <trkpt lat="43.12225" lon="0.71164">
        <ele>392.17</ele>
        <time>2018-07-27T05:37:53Z</time>
      </trkpt>
      <trkpt lat="43.12215" lon="0.71118">
        <ele>392.24</ele>
        <time>2018-07-27T05:37:54Z</time>
      </trkpt>
      <trkpt lat="43.12206" lon="0.71073">
        <ele>392.26</ele>
        <time>2018-07-27T05:37:55Z</time>
      </trkpt>
      <trkpt lat="43.12197" lon="0.71027">
        <ele>392.26</ele>
        <time>2018-07-27T05:37:56Z</time>
      </trkpt>
      <trkpt lat="43.12188" lon="0.70982">
        <ele>392.27</ele>
        <time>2018-07-27T05:37:57Z</time>
      </trkpt>
      <trkpt lat="43.12178" lon="0.70936">
        <ele>392.97</ele>
        <time>2018-07-27T05:37:58Z</time>
      </trkpt>
      <trkpt lat="43.1217" lon="0.7089">
        <ele>393.18</ele>
        <time>2018-07-27T05:37:59Z</time>
      </trkpt>
      <trkpt lat="43.12161" lon="0.70844">
        <ele>393.24</ele>
        <time>2018-07-27T05:38:00Z</time>
      </trkpt>
      <trkpt lat="43.12153" lon="0.70798">
        <ele>393.26</ele>
        <time>2018-07-27T05:38:01Z</time>
      </trkpt>
      <trkpt lat="43.12145" lon="0.70752">
        <ele>393.26</ele>
        <time>2018-07-27T05:38:02Z</time>
      </trkpt>
      <trkpt lat="43.12137" lon="0.70706">
        <ele>393.27</ele>
        <time>2018-07-27T05:38:03Z</time>
      </trkpt>
      <trkpt lat="43.12128" lon="0.7066">
        <ele>393.27</ele>
        <time>2018-07-27T05:38:04Z</time>
      </trkpt>
      <trkpt lat="43.1212" lon="0.70614">
        <ele>393.27</ele>
        <time>2018-07-27T05:38:05Z</time>
      </trkpt>
      <trkpt lat="43.1211" lon="0.70568">
        <ele>392.57</ele>
        <time>2018-07-27T05:38:06Z</time>
      </trkpt>
      <trkpt lat="43.12101" lon="0.70523">
        <ele>392.36</ele>
        <time>2018-07-27T05:38:07Z</time>
      </trkpt>
      <trkpt lat="43.12091" lon="0.70477">
        <ele>392.29</ele>
        <time>2018-07-27T05:38:08Z</time>
      </trkpt>
      <trkpt lat="43.12082" lon="0.70431">
        <ele>392.28</ele>
        <time>2018-07-27T05:38:09Z</time>
      </trkpt>
      <trkpt lat="43.12071" lon="0.70386">
        <ele>392.27</ele>
        <time>2018-07-27T05:38:10Z</time>
      </trkpt>
      <trkpt lat="43.12062" lon="0.70341">
        <ele>392.27</ele>
        <time>2018-07-27T05:38:11Z</time>
      </trkpt>
      <trkpt lat="43.12052" lon="0.70296">
        <ele>391.57</ele>
        <time>2018-07-27T05:38:12Z</time>
      </trkpt>
      <trkpt lat="43.12041" lon="0.70251">
        <ele>390.66</ele>
        <time>2018-07-27T05:38:13Z</time>
      </trkpt>
      <trkpt lat="43.1203" lon="0.70207">
        <ele>390.38</ele>
        <time>2018-07-27T05:38:14Z</time>
      </trkpt>
      <trkpt lat="43.12018" lon="0.70163">
        <ele>389.6</ele>
        <time>2018-07-27T05:38:15Z</time>
      </trkpt>
      <trkpt lat="43.12006" lon="0.70119">
        <ele>390.07</ele>
        <time>2018-07-27T05:38:16Z</time>
      </trkpt>
      <trkpt lat="43.11993" lon="0.70077">
        <ele>390.21</ele>
        <time>2018-07-27T05:38:17Z</time>
      </trkpt>
      <trkpt lat="43.11981" lon="0.70033">
        <ele>389.55</ele>
        <time>2018-07-27T05:38:18Z</time>
      </trkpt>
      <trkpt lat="43.11967" lon="0.6999">
        <ele>389.35</ele>
        <time>2018-07-27T05:38:19Z</time>
      </trkpt>
      <trkpt lat="43.11954" lon="0.69947">
        <ele>389.29</ele>
        <time>2018-07-27T05:38:20Z</time>
      </trkpt>
      <trkpt lat="43.1194" lon="0.69904">
        <ele>388.57</ele>
        <time>2018-07-27T05:38:21Z</time>
      </trkpt>
      <trkpt lat="43.11925" lon="0.69861">
        <ele>388.36</ele>
        <time>2018-07-27T05:38:22Z</time>
      </trkpt>
      <trkpt lat="43.11911" lon="0.69818">
        <ele>388.29</ele>
        <time>2018-07-27T05:38:23Z</time>
      </trkpt>
      <trkpt lat="43.11896" lon="0.69775">
        <ele>388.28</ele>
        <time>2018-07-27T05:38:24Z</time>
      </trkpt>
      <trkpt lat="43.11882" lon="0.69732">
        <ele>387.57</ele>
        <time>2018-07-27T05:38:25Z</time>
      </trkpt>
      <trkpt lat="43.11867" lon="0.69689">
        <ele>387.36</ele>
        <time>2018-07-27T05:38:26Z</time>
      </trkpt>
      <trkpt lat="43.11853" lon="0.69647">
        <ele>387.29</ele>
        <time>2018-07-27T05:38:27Z</time>
      </trkpt>
      <trkpt lat="43.11838" lon="0.69605">
        <ele>386.58</ele>
        <time>2018-07-27T05:38:28Z</time>
      </trkpt>
      <trkpt lat="43.11824" lon="0.69561">
        <ele>386.36</ele>
        <time>2018-07-27T05:38:29Z</time>
      </trkpt>
      <trkpt lat="43.11809" lon="0.69518">
        <ele>386.29</ele>
        <time>2018-07-27T05:38:30Z</time>
      </trkpt>
      <trkpt lat="43.11795" lon="0.69475">
        <ele>386.28</ele>
        <time>2018-07-27T05:38:31Z</time>
      </trkpt>
      <trkpt lat="43.1178" lon="0.69432">
        <ele>385.57</ele>
        <time>2018-07-27T05:38:32Z</time>
      </trkpt>
      <trkpt lat="43.11766" lon="0.69389">
        <ele>385.36</ele>
        <time>2018-07-27T05:38:33Z</time>
      </trkpt>
      <trkpt lat="43.11752" lon="0.69346">
        <ele>384.59</ele>
        <time>2018-07-27T05:38:34Z</time>
      </trkpt>
      <trkpt lat="43.11738" lon="0.69302">
        <ele>383.67</ele>
        <time>2018-07-27T05:38:35Z</time>
      </trkpt>
      <trkpt lat="43.11725" lon="0.69259">
        <ele>383.39</ele>
        <time>2018-07-27T05:38:36Z</time>
      </trkpt>
      <trkpt lat="43.11712" lon="0.69216">
        <ele>383.3</ele>
        <time>2018-07-27T05:38:37Z</time>
      </trkpt>
      <trkpt lat="43.11699" lon="0.69172">
        <ele>383.28</ele>
        <time>2018-07-27T05:38:38Z</time>
      </trkpt>
      <trkpt lat="43.11687" lon="0.69128">
        <ele>383.27</ele>
        <time>2018-07-27T05:38:39Z</time>
      </trkpt>
      <trkpt lat="43.11676" lon="0.69083">
        <ele>383.27</ele>
        <time>2018-07-27T05:38:40Z</time>
      </trkpt>
      <trkpt lat="43.11665" lon="0.69039">
        <ele>382.57</ele>
        <time>2018-07-27T05:38:41Z</time>
      </trkpt>
      <trkpt lat="43.11655" lon="0.68994">
        <ele>382.36</ele>
        <time>2018-07-27T05:38:42Z</time>
      </trkpt>
      <trkpt lat="43.11646" lon="0.68949">
        <ele>382.29</ele>
        <time>2018-07-27T05:38:43Z</time>
      </trkpt>
      <trkpt lat="43.11637" lon="0.68904">
        <ele>382.28</ele>
        <time>2018-07-27T05:38:44Z</time>
      </trkpt>
      <trkpt lat="43.11628" lon="0.6886">
        <ele>382.27</ele>
        <time>2018-07-27T05:38:45Z</time>
      </trkpt>
      <trkpt lat="43.11619" lon="0.68815">
        <ele>382.27</ele>
        <time>2018-07-27T05:38:46Z</time>
      </trkpt>
      <trkpt lat="43.11611" lon="0.6877">
        <ele>382.27</ele>
        <time>2018-07-27T05:38:47Z</time>
      </trkpt>
      <trkpt lat="43.11603" lon="0.68725">
        <ele>382.27</ele>
        <time>2018-07-27T05:38:48Z</time>
      </trkpt>
      <trkpt lat="43.11595" lon="0.68681">
        <ele>382.27</ele>
        <time>2018-07-27T05:38:49Z</time>
      </trkpt>
      <trkpt lat="43.11588" lon="0.68635">
        <ele>382.27</ele>
        <time>2018-07-27T05:38:50Z</time>
      </trkpt>
      <trkpt lat="43.11581" lon="0.68591">
        <ele>382.27</ele>
        <time>2018-07-27T05:38:51Z</time>
      </trkpt>
      <trkpt lat="43.11574" lon="0.68546">
        <ele>381.57</ele>
        <time>2018-07-27T05:38:52Z</time>
      </trkpt>
      <trkpt lat="43.11568" lon="0.68501">
        <ele>382.06</ele>
        <time>2018-07-27T05:38:53Z</time>
      </trkpt>
      <trkpt lat="43.11561" lon="0.68455">
        <ele>382.2</ele>
        <time>2018-07-27T05:38:54Z</time>
      </trkpt>
      <trkpt lat="43.11555" lon="0.6841">
        <ele>381.55</ele>
        <time>2018-07-27T05:38:55Z</time>
      </trkpt>
      <trkpt lat="43.11549" lon="0.68366">
        <ele>381.35</ele>
        <time>2018-07-27T05:38:56Z</time>
      </trkpt>
      <trkpt lat="43.11543" lon="0.6832">
        <ele>381.29</ele>
        <time>2018-07-27T05:38:57Z</time>
      </trkpt>
      <trkpt lat="43.11536" lon="0.68276">
        <ele>381.27</ele>
        <time>2018-07-27T05:38:58Z</time>
      </trkpt>
      <trkpt lat="43.1153" lon="0.68231">
        <ele>381.27</ele>
        <time>2018-07-27T05:38:59Z</time>
      </trkpt>
      <trkpt lat="43.11524" lon="0.68186">
        <ele>381.27</ele>
        <time>2018-07-27T05:39:00Z</time>
      </trkpt>
      <trkpt lat="43.11517" lon="0.68141">
        <ele>381.27</ele>
        <time>2018-07-27T05:39:01Z</time>
      </trkpt>
      <trkpt lat="43.11511" lon="0.68097">
        <ele>381.27</ele>
        <time>2018-07-27T05:39:02Z</time>
      </trkpt>
      <trkpt lat="43.11504" lon="0.68052">
        <ele>381.27</ele>
        <time>2018-07-27T05:39:03Z</time>
      </trkpt>
      <trkpt lat="43.11498" lon="0.68007">
        <ele>381.27</ele>
        <time>2018-07-27T05:39:04Z</time>
      </trkpt>
      <trkpt lat="43.11492" lon="0.67963">
        <ele>381.27</ele>
        <time>2018-07-27T05:39:05Z</time>
      </trkpt>
      <trkpt lat="43.11486" lon="0.67918">
        <ele>381.27</ele>
        <time>2018-07-27T05:39:06Z</time>
      </trkpt>
      <trkpt lat="43.1148" lon="0.67873">
        <ele>381.27</ele>
        <time>2018-07-27T05:39:07Z</time>
      </trkpt>
      <trkpt lat="43.11475" lon="0.67827">
        <ele>381.27</ele>
        <time>2018-07-27T05:39:08Z</time>
      </trkpt>
      <trkpt lat="43.1147" lon="0.67782">
        <ele>381.97</ele>
        <time>2018-07-27T05:39:09Z</time>
      </trkpt>
      <trkpt lat="43.11464" lon="0.67737">
        <ele>382.18</ele>
        <time>2018-07-27T05:39:10Z</time>
      </trkpt>
      <trkpt lat="43.11459" lon="0.67692">
        <ele>382.24</ele>
        <time>2018-07-27T05:39:11Z</time>
      </trkpt>
      <trkpt lat="43.11453" lon="0.67648">
        <ele>382.26</ele>
        <time>2018-07-27T05:39:12Z</time>
      </trkpt>
      <trkpt lat="43.11448" lon="0.67603">
        <ele>382.26</ele>
        <time>2018-07-27T05:39:13Z</time>
      </trkpt>
      <trkpt lat="43.11443" lon="0.67557">
        <ele>382.27</ele>
        <time>2018-07-27T05:39:14Z</time>
      </trkpt>
      <trkpt lat="43.11437" lon="0.67512">
        <ele>382.27</ele>
        <time>2018-07-27T05:39:15Z</time>
      </trkpt>
      <trkpt lat="43.11433" lon="0.67466">
        <ele>382.97</ele>
        <time>2018-07-27T05:39:16Z</time>
      </trkpt>
      <trkpt lat="43.11428" lon="0.6742">
        <ele>383.18</ele>
        <time>2018-07-27T05:39:17Z</time>
      </trkpt>
      <trkpt lat="43.11423" lon="0.67375">
        <ele>383.24</ele>
        <time>2018-07-27T05:39:18Z</time>
      </trkpt>
      <trkpt lat="43.11419" lon="0.67329">
        <ele>383.96</ele>
        <time>2018-07-27T05:39:19Z</time>
      </trkpt>
      <trkpt lat="43.11416" lon="0.67283">
        <ele>384.17</ele>
        <time>2018-07-27T05:39:20Z</time>
      </trkpt>
      <trkpt lat="43.11413" lon="0.67238">
        <ele>384.24</ele>
        <time>2018-07-27T05:39:21Z</time>
      </trkpt>
      <trkpt lat="43.1141" lon="0.67192">
        <ele>384.26</ele>
        <time>2018-07-27T05:39:22Z</time>
      </trkpt>
      <trkpt lat="43.11407" lon="0.67146">
        <ele>384.96</ele>
        <time>2018-07-27T05:39:23Z</time>
      </trkpt>
      <trkpt lat="43.11404" lon="0.671">
        <ele>385.18</ele>
        <time>2018-07-27T05:39:24Z</time>
      </trkpt>
      <trkpt lat="43.11403" lon="0.67054">
        <ele>385.24</ele>
        <time>2018-07-27T05:39:25Z</time>
      </trkpt>
      <trkpt lat="43.11402" lon="0.67009">
        <ele>385.26</ele>
        <time>2018-07-27T05:39:26Z</time>
      </trkpt>
      <trkpt lat="43.11402" lon="0.66964">
        <ele>385.26</ele>
        <time>2018-07-27T05:39:27Z</time>
      </trkpt>
      <trkpt lat="43.11402" lon="0.66919">
        <ele>385.27</ele>
        <time>2018-07-27T05:39:28Z</time>
      </trkpt>
      <trkpt lat="43.11402" lon="0.66875">
        <ele>385.27</ele>
        <time>2018-07-27T05:39:29Z</time>
      </trkpt>
      <trkpt lat="43.11403" lon="0.6683">
        <ele>385.27</ele>
        <time>2018-07-27T05:39:30Z</time>
      </trkpt>
      <trkpt lat="43.11405" lon="0.66786">
        <ele>385.27</ele>
        <time>2018-07-27T05:39:31Z</time>
      </trkpt>
      <trkpt lat="43.11407" lon="0.66741">
        <ele>385.27</ele>
        <time>2018-07-27T05:39:32Z</time>
      </trkpt>
      <trkpt lat="43.1141" lon="0.66698">
        <ele>385.27</ele>
        <time>2018-07-27T05:39:33Z</time>
      </trkpt>
      <trkpt lat="43.11412" lon="0.66654">
        <ele>385.27</ele>
        <time>2018-07-27T05:39:34Z</time>
      </trkpt>
      <trkpt lat="43.11415" lon="0.66611">
        <ele>385.97</ele>
        <time>2018-07-27T05:39:35Z</time>
      </trkpt>
      <trkpt lat="43.11417" lon="0.66567">
        <ele>386.18</ele>
        <time>2018-07-27T05:39:36Z</time>
      </trkpt>
      <trkpt lat="43.1142" lon="0.66524">
        <ele>386.24</ele>
        <time>2018-07-27T05:39:37Z</time>
      </trkpt>
      <trkpt lat="43.11423" lon="0.66479">
        <ele>386.26</ele>
        <time>2018-07-27T05:39:38Z</time>
      </trkpt>
      <trkpt lat="43.11427" lon="0.66436">
        <ele>386.96</ele>
        <time>2018-07-27T05:39:39Z</time>
      </trkpt>
      <trkpt lat="43.1143" lon="0.66392">
        <ele>387.88</ele>
        <time>2018-07-27T05:39:40Z</time>
      </trkpt>
      <trkpt lat="43.11434" lon="0.66347">
        <ele>388.85</ele>
        <time>2018-07-27T05:39:41Z</time>
      </trkpt>
      <trkpt lat="43.11437" lon="0.66302">
        <ele>389.14</ele>
        <time>2018-07-27T05:39:42Z</time>
      </trkpt>
      <trkpt lat="43.11441" lon="0.66259">
        <ele>389.93</ele>
        <time>2018-07-27T05:39:43Z</time>
      </trkpt>
      <trkpt lat="43.11444" lon="0.66214">
        <ele>390.17</ele>
        <time>2018-07-27T05:39:44Z</time>
      </trkpt>
      <trkpt lat="43.11448" lon="0.6617">
        <ele>390.24</ele>
        <time>2018-07-27T05:39:45Z</time>
      </trkpt>
      <trkpt lat="43.11451" lon="0.66126">
        <ele>390.26</ele>
        <time>2018-07-27T05:39:46Z</time>
      </trkpt>
      <trkpt lat="43.11455" lon="0.66082">
        <ele>390.96</ele>
        <time>2018-07-27T05:39:47Z</time>
      </trkpt>
      <trkpt lat="43.11458" lon="0.66037">
        <ele>391.88</ele>
        <time>2018-07-27T05:39:48Z</time>
      </trkpt>
      <trkpt lat="43.11462" lon="0.65993">
        <ele>391.45</ele>
        <time>2018-07-27T05:39:49Z</time>
      </trkpt>
      <trkpt lat="43.11465" lon="0.65948">
        <ele>391.32</ele>
        <time>2018-07-27T05:39:50Z</time>
      </trkpt>
      <trkpt lat="43.11469" lon="0.65903">
        <ele>390.58</ele>
        <time>2018-07-27T05:39:51Z</time>
      </trkpt>
      <trkpt lat="43.11473" lon="0.65859">
        <ele>390.36</ele>
        <time>2018-07-27T05:39:52Z</time>
      </trkpt>
      <trkpt lat="43.11476" lon="0.65815">
        <ele>391</ele>
        <time>2018-07-27T05:39:53Z</time>
      </trkpt>
      <trkpt lat="43.11479" lon="0.6577">
        <ele>390.49</ele>
        <time>2018-07-27T05:39:54Z</time>
      </trkpt>
      <trkpt lat="43.11481" lon="0.65727">
        <ele>390.33</ele>
        <time>2018-07-27T05:39:55Z</time>
      </trkpt>
      <trkpt lat="43.11485" lon="0.65683">
        <ele>390.29</ele>
        <time>2018-07-27T05:39:56Z</time>
      </trkpt>
      <trkpt lat="43.11487" lon="0.6564">
        <ele>390.97</ele>
        <time>2018-07-27T05:39:57Z</time>
      </trkpt>
      <trkpt lat="43.1149" lon="0.65596">
        <ele>391.18</ele>
        <time>2018-07-27T05:39:58Z</time>
      </trkpt>
      <trkpt lat="43.11493" lon="0.65553">
        <ele>391.94</ele>
        <time>2018-07-27T05:39:59Z</time>
      </trkpt>
      <trkpt lat="43.11496" lon="0.6551">
        <ele>392.17</ele>
        <time>2018-07-27T05:40:00Z</time>
      </trkpt>
      <trkpt lat="43.11498" lon="0.65467">
        <ele>392.94</ele>
        <time>2018-07-27T05:40:01Z</time>
      </trkpt>
      <trkpt lat="43.11501" lon="0.65422">
        <ele>393.17</ele>
        <time>2018-07-27T05:40:02Z</time>
      </trkpt>
      <trkpt lat="43.11503" lon="0.65377">
        <ele>393.94</ele>
        <time>2018-07-27T05:40:03Z</time>
      </trkpt>
      <trkpt lat="43.11505" lon="0.65333">
        <ele>393.47</ele>
        <time>2018-07-27T05:40:04Z</time>
      </trkpt>
      <trkpt lat="43.11507" lon="0.65288">
        <ele>394.03</ele>
        <time>2018-07-27T05:40:05Z</time>
      </trkpt>
      <trkpt lat="43.11508" lon="0.65243">
        <ele>394.2</ele>
        <time>2018-07-27T05:40:06Z</time>
      </trkpt>
      <trkpt lat="43.11509" lon="0.65198">
        <ele>394.95</ele>
        <time>2018-07-27T05:40:07Z</time>
      </trkpt>
      <trkpt lat="43.1151" lon="0.65153">
        <ele>395.17</ele>
        <time>2018-07-27T05:40:08Z</time>
      </trkpt>
      <trkpt lat="43.11511" lon="0.65107">
        <ele>395.24</ele>
        <time>2018-07-27T05:40:09Z</time>
      </trkpt>
      <trkpt lat="43.11511" lon="0.65062">
        <ele>395.96</ele>
        <time>2018-07-27T05:40:10Z</time>
      </trkpt>
      <trkpt lat="43.1151" lon="0.65016">
        <ele>396.17</ele>
        <time>2018-07-27T05:40:11Z</time>
      </trkpt>
      <trkpt lat="43.1151" lon="0.6497">
        <ele>396.94</ele>
        <time>2018-07-27T05:40:12Z</time>
      </trkpt>
      <trkpt lat="43.11509" lon="0.64924">
        <ele>397.17</ele>
        <time>2018-07-27T05:40:13Z</time>
      </trkpt>
      <trkpt lat="43.11508" lon="0.64879">
        <ele>397.24</ele>
        <time>2018-07-27T05:40:14Z</time>
      </trkpt>
      <trkpt lat="43.11507" lon="0.64833">
        <ele>397.96</ele>
        <time>2018-07-27T05:40:15Z</time>
      </trkpt>
      <trkpt lat="43.11505" lon="0.64787">
        <ele>398.17</ele>
        <time>2018-07-27T05:40:16Z</time>
      </trkpt>
      <trkpt lat="43.11504" lon="0.64741">
        <ele>398.24</ele>
        <time>2018-07-27T05:40:17Z</time>
      </trkpt>
      <trkpt lat="43.11502" lon="0.64695">
        <ele>398.26</ele>
        <time>2018-07-27T05:40:18Z</time>
      </trkpt>
      <trkpt lat="43.115" lon="0.64648">
        <ele>397.56</ele>
        <time>2018-07-27T05:40:19Z</time>
      </trkpt>
      <trkpt lat="43.11497" lon="0.64603">
        <ele>397.36</ele>
        <time>2018-07-27T05:40:20Z</time>
      </trkpt>
      <trkpt lat="43.11493" lon="0.64556">
        <ele>397.29</ele>
        <time>2018-07-27T05:40:21Z</time>
      </trkpt>
      <trkpt lat="43.1149" lon="0.6451">
        <ele>397.28</ele>
        <time>2018-07-27T05:40:22Z</time>
      </trkpt>
      <trkpt lat="43.11486" lon="0.64463">
        <ele>397.27</ele>
        <time>2018-07-27T05:40:23Z</time>
      </trkpt>
      <trkpt lat="43.11482" lon="0.64417">
        <ele>397.27</ele>
        <time>2018-07-27T05:40:24Z</time>
      </trkpt>
      <trkpt lat="43.11477" lon="0.6437">
        <ele>397.27</ele>
        <time>2018-07-27T05:40:25Z</time>
      </trkpt>
      <trkpt lat="43.11473" lon="0.64323">
        <ele>397.27</ele>
        <time>2018-07-27T05:40:26Z</time>
      </trkpt>
      <trkpt lat="43.11468" lon="0.64278">
        <ele>397.27</ele>
        <time>2018-07-27T05:40:27Z</time>
      </trkpt>
      <trkpt lat="43.11462" lon="0.64233">
        <ele>397.27</ele>
        <time>2018-07-27T05:40:28Z</time>
      </trkpt>
      <trkpt lat="43.11457" lon="0.64189">
        <ele>397.27</ele>
        <time>2018-07-27T05:40:29Z</time>
      </trkpt>
      <trkpt lat="43.11452" lon="0.64145">
        <ele>397.27</ele>
        <time>2018-07-27T05:40:30Z</time>
      </trkpt>
      <trkpt lat="43.11446" lon="0.641">
        <ele>397.27</ele>
        <time>2018-07-27T05:40:31Z</time>
      </trkpt>
      <trkpt lat="43.11439" lon="0.64055">
        <ele>397.27</ele>
        <time>2018-07-27T05:40:32Z</time>
      </trkpt>
      <trkpt lat="43.11432" lon="0.64011">
        <ele>397.97</ele>
        <time>2018-07-27T05:40:33Z</time>
      </trkpt>
      <trkpt lat="43.11425" lon="0.63967">
        <ele>398.18</ele>
        <time>2018-07-27T05:40:34Z</time>
      </trkpt>
      <trkpt lat="43.11418" lon="0.63923">
        <ele>398.24</ele>
        <time>2018-07-27T05:40:35Z</time>
      </trkpt>
      <trkpt lat="43.11411" lon="0.6388">
        <ele>398.26</ele>
        <time>2018-07-27T05:40:36Z</time>
      </trkpt>
      <trkpt lat="43.11405" lon="0.63835">
        <ele>398.26</ele>
        <time>2018-07-27T05:40:37Z</time>
      </trkpt>
      <trkpt lat="43.11398" lon="0.63792">
        <ele>398.27</ele>
        <time>2018-07-27T05:40:38Z</time>
      </trkpt>
      <trkpt lat="43.1139" lon="0.63749">
        <ele>398.27</ele>
        <time>2018-07-27T05:40:39Z</time>
      </trkpt>
      <trkpt lat="43.11381" lon="0.63706">
        <ele>398.97</ele>
        <time>2018-07-27T05:40:40Z</time>
      </trkpt>
      <trkpt lat="43.11373" lon="0.63663">
        <ele>399.18</ele>
        <time>2018-07-27T05:40:41Z</time>
      </trkpt>
      <trkpt lat="43.11365" lon="0.63621">
        <ele>399.24</ele>
        <time>2018-07-27T05:40:42Z</time>
      </trkpt>
      <trkpt lat="43.11357" lon="0.63578">
        <ele>399.26</ele>
        <time>2018-07-27T05:40:43Z</time>
      </trkpt>
      <trkpt lat="43.11348" lon="0.63536">
        <ele>399.26</ele>
        <time>2018-07-27T05:40:44Z</time>
      </trkpt>
      <trkpt lat="43.11339" lon="0.63493">
        <ele>399.27</ele>
        <time>2018-07-27T05:40:45Z</time>
      </trkpt>
      <trkpt lat="43.11331" lon="0.63451">
        <ele>399.97</ele>
        <time>2018-07-27T05:40:46Z</time>
      </trkpt>
      <trkpt lat="43.11323" lon="0.63408">
        <ele>400.18</ele>
        <time>2018-07-27T05:40:47Z</time>
      </trkpt>
      <trkpt lat="43.11315" lon="0.63366">
        <ele>400.94</ele>
        <time>2018-07-27T05:40:48Z</time>
      </trkpt>
      <trkpt lat="43.11307" lon="0.63322">
        <ele>401.17</ele>
        <time>2018-07-27T05:40:49Z</time>
      </trkpt>
      <trkpt lat="43.11299" lon="0.63279">
        <ele>401.24</ele>
        <time>2018-07-27T05:40:50Z</time>
      </trkpt>
      <trkpt lat="43.1129" lon="0.63236">
        <ele>401.26</ele>
        <time>2018-07-27T05:40:51Z</time>
      </trkpt>
      <trkpt lat="43.11282" lon="0.63192">
        <ele>401.26</ele>
        <time>2018-07-27T05:40:52Z</time>
      </trkpt>
      <trkpt lat="43.11273" lon="0.63149">
        <ele>401.27</ele>
        <time>2018-07-27T05:40:53Z</time>
      </trkpt>
      <trkpt lat="43.11265" lon="0.63105">
        <ele>401.27</ele>
        <time>2018-07-27T05:40:54Z</time>
      </trkpt>
      <trkpt lat="43.11256" lon="0.63061">
        <ele>401.27</ele>
        <time>2018-07-27T05:40:55Z</time>
      </trkpt>
      <trkpt lat="43.11247" lon="0.63018">
        <ele>401.27</ele>
        <time>2018-07-27T05:40:56Z</time>
      </trkpt>
      <trkpt lat="43.11238" lon="0.62974">
        <ele>400.57</ele>
        <time>2018-07-27T05:40:57Z</time>
      </trkpt>
      <trkpt lat="43.1123" lon="0.6293">
        <ele>401.06</ele>
        <time>2018-07-27T05:40:58Z</time>
      </trkpt>
      <trkpt lat="43.1122" lon="0.62884">
        <ele>401.2</ele>
        <time>2018-07-27T05:40:59Z</time>
      </trkpt>
      <trkpt lat="43.1121" lon="0.62839">
        <ele>401.25</ele>
        <time>2018-07-27T05:41:00Z</time>
      </trkpt>
      <trkpt lat="43.112" lon="0.62793">
        <ele>401.26</ele>
        <time>2018-07-27T05:41:01Z</time>
      </trkpt>
      <trkpt lat="43.11191" lon="0.62748">
        <ele>401.27</ele>
        <time>2018-07-27T05:41:02Z</time>
      </trkpt>
      <trkpt lat="43.11182" lon="0.62703">
        <ele>401.97</ele>
        <time>2018-07-27T05:41:03Z</time>
      </trkpt>
      <trkpt lat="43.11173" lon="0.62657">
        <ele>402.18</ele>
        <time>2018-07-27T05:41:04Z</time>
      </trkpt>
      <trkpt lat="43.11164" lon="0.62612">
        <ele>402.24</ele>
        <time>2018-07-27T05:41:05Z</time>
      </trkpt>
      <trkpt lat="43.11155" lon="0.62566">
        <ele>402.26</ele>
        <time>2018-07-27T05:41:06Z</time>
      </trkpt>
      <trkpt lat="43.11146" lon="0.62521">
        <ele>402.26</ele>
        <time>2018-07-27T05:41:07Z</time>
      </trkpt>
      <trkpt lat="43.11137" lon="0.62476">
        <ele>402.97</ele>
        <time>2018-07-27T05:41:08Z</time>
      </trkpt>
      <trkpt lat="43.11128" lon="0.62431">
        <ele>402.48</ele>
        <time>2018-07-27T05:41:09Z</time>
      </trkpt>
      <trkpt lat="43.11119" lon="0.62385">
        <ele>403.03</ele>
        <time>2018-07-27T05:41:10Z</time>
      </trkpt>
      <trkpt lat="43.1111" lon="0.62339">
        <ele>403.2</ele>
        <time>2018-07-27T05:41:11Z</time>
      </trkpt>
      <trkpt lat="43.11102" lon="0.62294">
        <ele>403.25</ele>
        <time>2018-07-27T05:41:12Z</time>
      </trkpt>
      <trkpt lat="43.11092" lon="0.62249">
        <ele>403.26</ele>
        <time>2018-07-27T05:41:13Z</time>
      </trkpt>
      <trkpt lat="43.11082" lon="0.62205">
        <ele>403.27</ele>
        <time>2018-07-27T05:41:14Z</time>
      </trkpt>
      <trkpt lat="43.11072" lon="0.62161">
        <ele>403.97</ele>
        <time>2018-07-27T05:41:15Z</time>
      </trkpt>
      <trkpt lat="43.11062" lon="0.62117">
        <ele>404.18</ele>
        <time>2018-07-27T05:41:16Z</time>
      </trkpt>
      <trkpt lat="43.11052" lon="0.62073">
        <ele>404.24</ele>
        <time>2018-07-27T05:41:17Z</time>
      </trkpt>
      <trkpt lat="43.11042" lon="0.62029">
        <ele>404.26</ele>
        <time>2018-07-27T05:41:18Z</time>
      </trkpt>
      <trkpt lat="43.11031" lon="0.61985">
        <ele>404.26</ele>
        <time>2018-07-27T05:41:19Z</time>
      </trkpt>
      <trkpt lat="43.1102" lon="0.61942">
        <ele>404.27</ele>
        <time>2018-07-27T05:41:20Z</time>
      </trkpt>
      <trkpt lat="43.11009" lon="0.61899">
        <ele>404.27</ele>
        <time>2018-07-27T05:41:21Z</time>
      </trkpt>
      <trkpt lat="43.10997" lon="0.61855">
        <ele>404.97</ele>
        <time>2018-07-27T05:41:22Z</time>
      </trkpt>
      <trkpt lat="43.10986" lon="0.61811">
        <ele>405.18</ele>
        <time>2018-07-27T05:41:23Z</time>
      </trkpt>
      <trkpt lat="43.10974" lon="0.61767">
        <ele>405.24</ele>
        <time>2018-07-27T05:41:24Z</time>
      </trkpt>
      <trkpt lat="43.10962" lon="0.61724">
        <ele>405.96</ele>
        <time>2018-07-27T05:41:25Z</time>
      </trkpt>
      <trkpt lat="43.10951" lon="0.61682">
        <ele>405.47</ele>
        <time>2018-07-27T05:41:26Z</time>
      </trkpt>
      <trkpt lat="43.1094" lon="0.61638">
        <ele>406.03</ele>
        <time>2018-07-27T05:41:27Z</time>
      </trkpt>
      <trkpt lat="43.1093" lon="0.61595">
        <ele>406.2</ele>
        <time>2018-07-27T05:41:28Z</time>
      </trkpt>
      <trkpt lat="43.10919" lon="0.61552">
        <ele>406.25</ele>
        <time>2018-07-27T05:41:29Z</time>
      </trkpt>
      <trkpt lat="43.10908" lon="0.61509">
        <ele>406.26</ele>
        <time>2018-07-27T05:41:30Z</time>
      </trkpt>
      <trkpt lat="43.10897" lon="0.61466">
        <ele>406.27</ele>
        <time>2018-07-27T05:41:31Z</time>
      </trkpt>
      <trkpt lat="43.10886" lon="0.61424">
        <ele>406.27</ele>
        <time>2018-07-27T05:41:32Z</time>
      </trkpt>
      <trkpt lat="43.10874" lon="0.61381">
        <ele>406.27</ele>
        <time>2018-07-27T05:41:33Z</time>
      </trkpt>
      <trkpt lat="43.10861" lon="0.61339">
        <ele>406.27</ele>
        <time>2018-07-27T05:41:34Z</time>
      </trkpt>
      <trkpt lat="43.10849" lon="0.61297">
        <ele>406.27</ele>
        <time>2018-07-27T05:41:35Z</time>
      </trkpt>
      <trkpt lat="43.10836" lon="0.61255">
        <ele>406.27</ele>
        <time>2018-07-27T05:41:36Z</time>
      </trkpt>
      <trkpt lat="43.10824" lon="0.61213">
        <ele>406.97</ele>
        <time>2018-07-27T05:41:37Z</time>
      </trkpt>
      <trkpt lat="43.10812" lon="0.6117">
        <ele>407.18</ele>
        <time>2018-07-27T05:41:38Z</time>
      </trkpt>
      <trkpt lat="43.108" lon="0.61128">
        <ele>407.24</ele>
        <time>2018-07-27T05:41:39Z</time>
      </trkpt>
      <trkpt lat="43.10787" lon="0.61085">
        <ele>407.26</ele>
        <time>2018-07-27T05:41:40Z</time>
      </trkpt>
      <trkpt lat="43.10775" lon="0.61044">
        <ele>407.26</ele>
        <time>2018-07-27T05:41:41Z</time>
      </trkpt>
      <trkpt lat="43.10762" lon="0.61002">
        <ele>407.27</ele>
        <time>2018-07-27T05:41:42Z</time>
      </trkpt>
      <trkpt lat="43.1075" lon="0.60959">
        <ele>407.27</ele>
        <time>2018-07-27T05:41:43Z</time>
      </trkpt>
      <trkpt lat="43.10737" lon="0.60917">
        <ele>407.97</ele>
        <time>2018-07-27T05:41:44Z</time>
      </trkpt>
      <trkpt lat="43.10725" lon="0.60874">
        <ele>408.18</ele>
        <time>2018-07-27T05:41:45Z</time>
      </trkpt>
      <trkpt lat="43.10712" lon="0.6083">
        <ele>407.54</ele>
        <time>2018-07-27T05:41:46Z</time>
      </trkpt>
      <trkpt lat="43.107" lon="0.60787">
        <ele>408.05</ele>
        <time>2018-07-27T05:41:47Z</time>
      </trkpt>
      <trkpt lat="43.10688" lon="0.60744">
        <ele>408.2</ele>
        <time>2018-07-27T05:41:48Z</time>
      </trkpt>
      <trkpt lat="43.10676" lon="0.60701">
        <ele>408.95</ele>
        <time>2018-07-27T05:41:49Z</time>
      </trkpt>
      <trkpt lat="43.10664" lon="0.60657">
        <ele>409.17</ele>
        <time>2018-07-27T05:41:50Z</time>
      </trkpt>
      <trkpt lat="43.10652" lon="0.60614">
        <ele>409.24</ele>
        <time>2018-07-27T05:41:51Z</time>
      </trkpt>
      <trkpt lat="43.1064" lon="0.60571">
        <ele>409.26</ele>
        <time>2018-07-27T05:41:52Z</time>
      </trkpt>
      <trkpt lat="43.10629" lon="0.60528">
        <ele>409.96</ele>
        <time>2018-07-27T05:41:53Z</time>
      </trkpt>
      <trkpt lat="43.10618" lon="0.60484">
        <ele>410.18</ele>
        <time>2018-07-27T05:41:54Z</time>
      </trkpt>
      <trkpt lat="43.10607" lon="0.60442">
        <ele>410.24</ele>
        <time>2018-07-27T05:41:55Z</time>
      </trkpt>
      <trkpt lat="43.10596" lon="0.60398">
        <ele>410.26</ele>
        <time>2018-07-27T05:41:56Z</time>
      </trkpt>
      <trkpt lat="43.10585" lon="0.60355">
        <ele>410.26</ele>
        <time>2018-07-27T05:41:57Z</time>
      </trkpt>
      <trkpt lat="43.10575" lon="0.60311">
        <ele>410.27</ele>
        <time>2018-07-27T05:41:58Z</time>
      </trkpt>
      <trkpt lat="43.10564" lon="0.60268">
        <ele>410.97</ele>
        <time>2018-07-27T05:41:59Z</time>
      </trkpt>
      <trkpt lat="43.10554" lon="0.60224">
        <ele>410.48</ele>
        <time>2018-07-27T05:42:00Z</time>
      </trkpt>
      <trkpt lat="43.10544" lon="0.60181">
        <ele>411.03</ele>
        <time>2018-07-27T05:42:01Z</time>
      </trkpt>
      <trkpt lat="43.10534" lon="0.60137">
        <ele>411.2</ele>
        <time>2018-07-27T05:42:02Z</time>
      </trkpt>
      <trkpt lat="43.10524" lon="0.60094">
        <ele>411.25</ele>
        <time>2018-07-27T05:42:03Z</time>
      </trkpt>
      <trkpt lat="43.10515" lon="0.60051">
        <ele>411.96</ele>
        <time>2018-07-27T05:42:04Z</time>
      </trkpt>
      <trkpt lat="43.10504" lon="0.60007">
        <ele>412.18</ele>
        <time>2018-07-27T05:42:05Z</time>
      </trkpt>
      <trkpt lat="43.10494" lon="0.59964">
        <ele>412.94</ele>
        <time>2018-07-27T05:42:06Z</time>
      </trkpt>
      <trkpt lat="43.10484" lon="0.59921">
        <ele>413.17</ele>
        <time>2018-07-27T05:42:07Z</time>
      </trkpt>
      <trkpt lat="43.10474" lon="0.59879">
        <ele>413.94</ele>
        <time>2018-07-27T05:42:08Z</time>
      </trkpt>
      <trkpt lat="43.10465" lon="0.5984">
        <ele>414.87</ele>
        <time>2018-07-27T05:42:09Z</time>
      </trkpt>
      <trkpt lat="43.10457" lon="0.59803">
        <ele>415.15</ele>
        <time>2018-07-27T05:42:10Z</time>
      </trkpt>
      <trkpt lat="43.10449" lon="0.59769">
        <ele>415.93</ele>
        <time>2018-07-27T05:42:11Z</time>
      </trkpt>
      <trkpt lat="43.10442" lon="0.59737">
        <ele>416.17</ele>
        <time>2018-07-27T05:42:12Z</time>
      </trkpt>
      <trkpt lat="43.10436" lon="0.59707">
        <ele>416.24</ele>
        <time>2018-07-27T05:42:13Z</time>
      </trkpt>
      <trkpt lat="43.10431" lon="0.59678">
        <ele>416.26</ele>
        <time>2018-07-27T05:42:14Z</time>
      </trkpt>
      <trkpt lat="43.10428" lon="0.5965">
        <ele>416.26</ele>
        <time>2018-07-27T05:42:15Z</time>
      </trkpt>
      <trkpt lat="43.10426" lon="0.5962">
        <ele>416.97</ele>
        <time>2018-07-27T05:42:16Z</time>
      </trkpt>
      <trkpt lat="43.10433" lon="0.59595">
        <ele>417.88</ele>
        <time>2018-07-27T05:42:17Z</time>
      </trkpt>
      <trkpt lat="43.10441" lon="0.59571">
        <ele>418.85</ele>
        <time>2018-07-27T05:42:18Z</time>
      </trkpt>
      <trkpt lat="43.10451" lon="0.59547">
        <ele>419.14</ele>
        <time>2018-07-27T05:42:19Z</time>
      </trkpt>
      <trkpt lat="43.10462" lon="0.59525">
        <ele>419.23</ele>
        <time>2018-07-27T05:42:20Z</time>
      </trkpt>
      <trkpt lat="43.10471" lon="0.59504">
        <ele>419.26</ele>
        <time>2018-07-27T05:42:21Z</time>
      </trkpt>
      <trkpt lat="43.10485" lon="0.59463">
        <ele>418.36</ele>
        <time>2018-07-27T05:42:23Z</time>
      </trkpt>
      <trkpt lat="43.1049" lon="0.59432">
        <ele>417.37</ele>
        <time>2018-07-27T05:42:25Z</time>
      </trkpt>
      <trkpt lat="43.10453" lon="0.59414">
        <ele>418</ele>
        <time>2018-07-27T05:42:26Z</time>
      </trkpt>
      <trkpt lat="43.10424" lon="0.59398">
        <ele>418.24</ele>
        <time>2018-07-27T05:42:28Z</time>
      </trkpt>
      <trkpt lat="43.10387" lon="0.59409">
        <ele>416.65</ele>
        <time>2018-07-27T05:42:30Z</time>
      </trkpt>
      <trkpt lat="43.10368" lon="0.59415">
        <ele>416.38</ele>
        <time>2018-07-27T05:42:31Z</time>
      </trkpt>
      <trkpt lat="43.10346" lon="0.59422">
        <ele>416.3</ele>
        <time>2018-07-27T05:42:32Z</time>
      </trkpt>
      <trkpt lat="43.10325" lon="0.59431">
        <ele>415.58</ele>
        <time>2018-07-27T05:42:33Z</time>
      </trkpt>
      <trkpt lat="43.10305" lon="0.59443">
        <ele>415.36</ele>
        <time>2018-07-27T05:42:34Z</time>
      </trkpt>
      <trkpt lat="43.10284" lon="0.59452">
        <ele>415.29</ele>
        <time>2018-07-27T05:42:35Z</time>
      </trkpt>
      <trkpt lat="43.10262" lon="0.59463">
        <ele>415.98</ele>
        <time>2018-07-27T05:42:36Z</time>
      </trkpt>
      <trkpt lat="43.10241" lon="0.5947">
        <ele>416.88</ele>
        <time>2018-07-27T05:42:37Z</time>
      </trkpt>
      <trkpt lat="43.1022" lon="0.59475">
        <ele>417.15</ele>
        <time>2018-07-27T05:42:38Z</time>
      </trkpt>
      <trkpt lat="43.10199" lon="0.59482">
        <ele>417.23</ele>
        <time>2018-07-27T05:42:39Z</time>
      </trkpt>
      <trkpt lat="43.10178" lon="0.59486">
        <ele>416.56</ele>
        <time>2018-07-27T05:42:40Z</time>
      </trkpt>
      <trkpt lat="43.10158" lon="0.59491">
        <ele>416.35</ele>
        <time>2018-07-27T05:42:41Z</time>
      </trkpt>
      <trkpt lat="43.10139" lon="0.59496">
        <ele>416.99</ele>
        <time>2018-07-27T05:42:42Z</time>
      </trkpt>
      <trkpt lat="43.1012" lon="0.595">
        <ele>417.18</ele>
        <time>2018-07-27T05:42:43Z</time>
      </trkpt>
      <trkpt lat="43.10102" lon="0.59503">
        <ele>417.24</ele>
        <time>2018-07-27T05:42:44Z</time>
      </trkpt>
      <trkpt lat="43.10069" lon="0.59505">
        <ele>417.96</ele>
        <time>2018-07-27T05:42:46Z</time>
      </trkpt>
      <trkpt lat="43.10044" lon="0.59506">
        <ele>418.24</ele>
        <time>2018-07-27T05:42:48Z</time>
      </trkpt>
      <trkpt lat="43.10026" lon="0.59511">
        <ele>418.26</ele>
        <time>2018-07-27T05:42:50Z</time>
      </trkpt>
      <trkpt lat="43.10006" lon="0.59518">
        <ele>419.18</ele>
        <time>2018-07-27T05:42:53Z</time>
      </trkpt>
      <trkpt lat="43.09986" lon="0.59509">
        <ele>434.74</ele>
        <time>2018-07-27T05:44:18Z</time>
      </trkpt>
      <trkpt lat="43.09964" lon="0.59527">
        <ele>422.96</ele>
        <time>2018-07-27T05:44:22Z</time>
      </trkpt>
      <trkpt lat="43.09946" lon="0.59537">
        <ele>420.72</ele>
        <time>2018-07-27T05:44:24Z</time>
      </trkpt>
      <trkpt lat="43.09925" lon="0.59546">
        <ele>420.31</ele>
        <time>2018-07-27T05:44:26Z</time>
      </trkpt>
      <trkpt lat="43.09902" lon="0.59555">
        <ele>420.27</ele>
        <time>2018-07-27T05:44:28Z</time>
      </trkpt>
      <trkpt lat="43.09876" lon="0.59566">
        <ele>420.27</ele>
        <time>2018-07-27T05:44:30Z</time>
      </trkpt>
      <trkpt lat="43.09845" lon="0.59576">
        <ele>420.27</ele>
        <time>2018-07-27T05:44:32Z</time>
      </trkpt>
      <trkpt lat="43.09811" lon="0.59585">
        <ele>419.57</ele>
        <time>2018-07-27T05:44:34Z</time>
      </trkpt>
      <trkpt lat="43.09794" lon="0.5959">
        <ele>419.36</ele>
        <time>2018-07-27T05:44:35Z</time>
      </trkpt>
      <trkpt lat="43.09775" lon="0.59596">
        <ele>418.59</ele>
        <time>2018-07-27T05:44:36Z</time>
      </trkpt>
      <trkpt lat="43.09756" lon="0.59602">
        <ele>418.37</ele>
        <time>2018-07-27T05:44:37Z</time>
      </trkpt>
      <trkpt lat="43.09736" lon="0.59607">
        <ele>418.3</ele>
        <time>2018-07-27T05:44:38Z</time>
      </trkpt>
      <trkpt lat="43.09716" lon="0.59612">
        <ele>417.58</ele>
        <time>2018-07-27T05:44:39Z</time>
      </trkpt>
      <trkpt lat="43.09696" lon="0.59618">
        <ele>417.36</ele>
        <time>2018-07-27T05:44:40Z</time>
      </trkpt>
      <trkpt lat="43.09674" lon="0.59624">
        <ele>417.29</ele>
        <time>2018-07-27T05:44:41Z</time>
      </trkpt>
      <trkpt lat="43.09653" lon="0.59629">
        <ele>416.58</ele>
        <time>2018-07-27T05:44:42Z</time>
      </trkpt>
      <trkpt lat="43.09631" lon="0.59636">
        <ele>416.36</ele>
        <time>2018-07-27T05:44:43Z</time>
      </trkpt>
      <trkpt lat="43.09609" lon="0.59643">
        <ele>416.29</ele>
        <time>2018-07-27T05:44:44Z</time>
      </trkpt>
      <trkpt lat="43.09588" lon="0.59649">
        <ele>416.28</ele>
        <time>2018-07-27T05:44:45Z</time>
      </trkpt>
      <trkpt lat="43.09566" lon="0.59655">
        <ele>416.27</ele>
        <time>2018-07-27T05:44:46Z</time>
      </trkpt>
      <trkpt lat="43.09543" lon="0.59662">
        <ele>416.27</ele>
        <time>2018-07-27T05:44:47Z</time>
      </trkpt>
      <trkpt lat="43.09521" lon="0.59668">
        <ele>416.27</ele>
        <time>2018-07-27T05:44:48Z</time>
      </trkpt>
      <trkpt lat="43.09499" lon="0.59674">
        <ele>416.27</ele>
        <time>2018-07-27T05:44:49Z</time>
      </trkpt>
      <trkpt lat="43.09477" lon="0.59679">
        <ele>416.27</ele>
        <time>2018-07-27T05:44:50Z</time>
      </trkpt>
      <trkpt lat="43.09455" lon="0.59685">
        <ele>416.97</ele>
        <time>2018-07-27T05:44:51Z</time>
      </trkpt>
      <trkpt lat="43.09433" lon="0.5969">
        <ele>416.48</ele>
        <time>2018-07-27T05:44:52Z</time>
      </trkpt>
      <trkpt lat="43.0941" lon="0.59699">
        <ele>415.63</ele>
        <time>2018-07-27T05:44:53Z</time>
      </trkpt>
      <trkpt lat="43.09389" lon="0.597">
        <ele>415.38</ele>
        <time>2018-07-27T05:44:54Z</time>
      </trkpt>
      <trkpt lat="43.09366" lon="0.59706">
        <ele>415.3</ele>
        <time>2018-07-27T05:44:55Z</time>
      </trkpt>
      <trkpt lat="43.09344" lon="0.59713">
        <ele>415.28</ele>
        <time>2018-07-27T05:44:56Z</time>
      </trkpt>
      <trkpt lat="43.09322" lon="0.59719">
        <ele>415.27</ele>
        <time>2018-07-27T05:44:57Z</time>
      </trkpt>
      <trkpt lat="43.09301" lon="0.59723">
        <ele>415.27</ele>
        <time>2018-07-27T05:44:58Z</time>
      </trkpt>
      <trkpt lat="43.09279" lon="0.5973">
        <ele>415.27</ele>
        <time>2018-07-27T05:44:59Z</time>
      </trkpt>
      <trkpt lat="43.09258" lon="0.59734">
        <ele>415.27</ele>
        <time>2018-07-27T05:45:00Z</time>
      </trkpt>
      <trkpt lat="43.09235" lon="0.5974">
        <ele>415.97</ele>
        <time>2018-07-27T05:45:01Z</time>
      </trkpt>
      <trkpt lat="43.09213" lon="0.59747">
        <ele>415.48</ele>
        <time>2018-07-27T05:45:02Z</time>
      </trkpt>
      <trkpt lat="43.09191" lon="0.59752">
        <ele>415.33</ele>
        <time>2018-07-27T05:45:03Z</time>
      </trkpt>
      <trkpt lat="43.09169" lon="0.59758">
        <ele>415.29</ele>
        <time>2018-07-27T05:45:04Z</time>
      </trkpt>
      <trkpt lat="43.09147" lon="0.59764">
        <ele>415.27</ele>
        <time>2018-07-27T05:45:05Z</time>
      </trkpt>
      <trkpt lat="43.09125" lon="0.59769">
        <ele>415.27</ele>
        <time>2018-07-27T05:45:06Z</time>
      </trkpt>
      <trkpt lat="43.09102" lon="0.59776">
        <ele>415.27</ele>
        <time>2018-07-27T05:45:07Z</time>
      </trkpt>
      <trkpt lat="43.0908" lon="0.59782">
        <ele>415.27</ele>
        <time>2018-07-27T05:45:08Z</time>
      </trkpt>
      <trkpt lat="43.09058" lon="0.59788">
        <ele>415.27</ele>
        <time>2018-07-27T05:45:09Z</time>
      </trkpt>
      <trkpt lat="43.09035" lon="0.59794">
        <ele>415.27</ele>
        <time>2018-07-27T05:45:10Z</time>
      </trkpt>
      <trkpt lat="43.09013" lon="0.59799">
        <ele>414.57</ele>
        <time>2018-07-27T05:45:11Z</time>
      </trkpt>
      <trkpt lat="43.0899" lon="0.59806">
        <ele>414.36</ele>
        <time>2018-07-27T05:45:12Z</time>
      </trkpt>
      <trkpt lat="43.08967" lon="0.59812">
        <ele>414.29</ele>
        <time>2018-07-27T05:45:13Z</time>
      </trkpt>
      <trkpt lat="43.08945" lon="0.59819">
        <ele>414.28</ele>
        <time>2018-07-27T05:45:14Z</time>
      </trkpt>
      <trkpt lat="43.08923" lon="0.59826">
        <ele>414.27</ele>
        <time>2018-07-27T05:45:15Z</time>
      </trkpt>
      <trkpt lat="43.089" lon="0.59833">
        <ele>414.97</ele>
        <time>2018-07-27T05:45:16Z</time>
      </trkpt>
      <trkpt lat="43.08878" lon="0.5984">
        <ele>414.48</ele>
        <time>2018-07-27T05:45:17Z</time>
      </trkpt>
      <trkpt lat="43.08856" lon="0.59848">
        <ele>414.33</ele>
        <time>2018-07-27T05:45:18Z</time>
      </trkpt>
      <trkpt lat="43.08834" lon="0.59857">
        <ele>414.29</ele>
        <time>2018-07-27T05:45:19Z</time>
      </trkpt>
      <trkpt lat="43.08812" lon="0.59865">
        <ele>414.27</ele>
        <time>2018-07-27T05:45:20Z</time>
      </trkpt>
      <trkpt lat="43.0879" lon="0.59875">
        <ele>414.97</ele>
        <time>2018-07-27T05:45:21Z</time>
      </trkpt>
      <trkpt lat="43.08768" lon="0.59884">
        <ele>415.18</ele>
        <time>2018-07-27T05:45:22Z</time>
      </trkpt>
      <trkpt lat="43.08747" lon="0.59893">
        <ele>415.24</ele>
        <time>2018-07-27T05:45:23Z</time>
      </trkpt>
      <trkpt lat="43.08726" lon="0.59903">
        <ele>415.26</ele>
        <time>2018-07-27T05:45:24Z</time>
      </trkpt>
      <trkpt lat="43.08705" lon="0.59913">
        <ele>415.26</ele>
        <time>2018-07-27T05:45:25Z</time>
      </trkpt>
      <trkpt lat="43.08684" lon="0.59924">
        <ele>415.27</ele>
        <time>2018-07-27T05:45:26Z</time>
      </trkpt>
      <trkpt lat="43.08663" lon="0.59936">
        <ele>415.97</ele>
        <time>2018-07-27T05:45:27Z</time>
      </trkpt>
      <trkpt lat="43.08643" lon="0.59948">
        <ele>416.18</ele>
        <time>2018-07-27T05:45:28Z</time>
      </trkpt>
      <trkpt lat="43.08622" lon="0.5996">
        <ele>415.54</ele>
        <time>2018-07-27T05:45:29Z</time>
      </trkpt>
      <trkpt lat="43.08603" lon="0.59972">
        <ele>415.35</ele>
        <time>2018-07-27T05:45:30Z</time>
      </trkpt>
      <trkpt lat="43.08583" lon="0.59986">
        <ele>415.99</ele>
        <time>2018-07-27T05:45:31Z</time>
      </trkpt>
      <trkpt lat="43.08564" lon="0.6">
        <ele>416.88</ele>
        <time>2018-07-27T05:45:32Z</time>
      </trkpt>
      <trkpt lat="43.08544" lon="0.60013">
        <ele>417.15</ele>
        <time>2018-07-27T05:45:33Z</time>
      </trkpt>
      <trkpt lat="43.08524" lon="0.60028">
        <ele>417.23</ele>
        <time>2018-07-27T05:45:34Z</time>
      </trkpt>
      <trkpt lat="43.08505" lon="0.60042">
        <ele>417.26</ele>
        <time>2018-07-27T05:45:35Z</time>
      </trkpt>
      <trkpt lat="43.08486" lon="0.60056">
        <ele>417.26</ele>
        <time>2018-07-27T05:45:36Z</time>
      </trkpt>
      <trkpt lat="43.08466" lon="0.60071">
        <ele>416.57</ele>
        <time>2018-07-27T05:45:37Z</time>
      </trkpt>
      <trkpt lat="43.08447" lon="0.60087">
        <ele>417.06</ele>
        <time>2018-07-27T05:45:38Z</time>
      </trkpt>
      <trkpt lat="43.08428" lon="0.60103">
        <ele>416.5</ele>
        <time>2018-07-27T05:45:39Z</time>
      </trkpt>
      <trkpt lat="43.08409" lon="0.60119">
        <ele>416.34</ele>
        <time>2018-07-27T05:45:40Z</time>
      </trkpt>
      <trkpt lat="43.0839" lon="0.60135">
        <ele>416.99</ele>
        <time>2018-07-27T05:45:41Z</time>
      </trkpt>
      <trkpt lat="43.08371" lon="0.6015">
        <ele>417.18</ele>
        <time>2018-07-27T05:45:42Z</time>
      </trkpt>
      <trkpt lat="43.08352" lon="0.60166">
        <ele>417.24</ele>
        <time>2018-07-27T05:45:43Z</time>
      </trkpt>
      <trkpt lat="43.08332" lon="0.60182">
        <ele>417.26</ele>
        <time>2018-07-27T05:45:44Z</time>
      </trkpt>
      <trkpt lat="43.08314" lon="0.60198">
        <ele>417.26</ele>
        <time>2018-07-27T05:45:45Z</time>
      </trkpt>
      <trkpt lat="43.08295" lon="0.60213">
        <ele>417.27</ele>
        <time>2018-07-27T05:45:46Z</time>
      </trkpt>
      <trkpt lat="43.08275" lon="0.60229">
        <ele>417.27</ele>
        <time>2018-07-27T05:45:47Z</time>
      </trkpt>
      <trkpt lat="43.08257" lon="0.60245">
        <ele>417.27</ele>
        <time>2018-07-27T05:45:48Z</time>
      </trkpt>
      <trkpt lat="43.08238" lon="0.60261">
        <ele>417.27</ele>
        <time>2018-07-27T05:45:49Z</time>
      </trkpt>
      <trkpt lat="43.08219" lon="0.60277">
        <ele>417.27</ele>
        <time>2018-07-27T05:45:50Z</time>
      </trkpt>
      <trkpt lat="43.08201" lon="0.60293">
        <ele>417.27</ele>
        <time>2018-07-27T05:45:51Z</time>
      </trkpt>
      <trkpt lat="43.08182" lon="0.6031">
        <ele>417.27</ele>
        <time>2018-07-27T05:45:52Z</time>
      </trkpt>
      <trkpt lat="43.08163" lon="0.60326">
        <ele>417.27</ele>
        <time>2018-07-27T05:45:53Z</time>
      </trkpt>
      <trkpt lat="43.08144" lon="0.60341">
        <ele>417.27</ele>
        <time>2018-07-27T05:45:54Z</time>
      </trkpt>
      <trkpt lat="43.08126" lon="0.60357">
        <ele>417.97</ele>
        <time>2018-07-27T05:45:55Z</time>
      </trkpt>
      <trkpt lat="43.08108" lon="0.60371">
        <ele>418.18</ele>
        <time>2018-07-27T05:45:56Z</time>
      </trkpt>
      <trkpt lat="43.08089" lon="0.60387">
        <ele>418.24</ele>
        <time>2018-07-27T05:45:57Z</time>
      </trkpt>
      <trkpt lat="43.08072" lon="0.60401">
        <ele>417.56</ele>
        <time>2018-07-27T05:45:58Z</time>
      </trkpt>
      <trkpt lat="43.08054" lon="0.60417">
        <ele>417.35</ele>
        <time>2018-07-27T05:45:59Z</time>
      </trkpt>
      <trkpt lat="43.08036" lon="0.60431">
        <ele>417.29</ele>
        <time>2018-07-27T05:46:00Z</time>
      </trkpt>
      <trkpt lat="43.08017" lon="0.60447">
        <ele>417.27</ele>
        <time>2018-07-27T05:46:01Z</time>
      </trkpt>
      <trkpt lat="43.07999" lon="0.60462">
        <ele>417.97</ele>
        <time>2018-07-27T05:46:02Z</time>
      </trkpt>
      <trkpt lat="43.07981" lon="0.60478">
        <ele>418.18</ele>
        <time>2018-07-27T05:46:03Z</time>
      </trkpt>
      <trkpt lat="43.07963" lon="0.60494">
        <ele>418.24</ele>
        <time>2018-07-27T05:46:04Z</time>
      </trkpt>
      <trkpt lat="43.07944" lon="0.60509">
        <ele>418.26</ele>
        <time>2018-07-27T05:46:05Z</time>
      </trkpt>
      <trkpt lat="43.07926" lon="0.60525">
        <ele>418.26</ele>
        <time>2018-07-27T05:46:06Z</time>
      </trkpt>
      <trkpt lat="43.07907" lon="0.60541">
        <ele>417.57</ele>
        <time>2018-07-27T05:46:07Z</time>
      </trkpt>
      <trkpt lat="43.07889" lon="0.60556">
        <ele>417.36</ele>
        <time>2018-07-27T05:46:08Z</time>
      </trkpt>
      <trkpt lat="43.0787" lon="0.60572">
        <ele>417.29</ele>
        <time>2018-07-27T05:46:09Z</time>
      </trkpt>
      <trkpt lat="43.07852" lon="0.60588">
        <ele>417.28</ele>
        <time>2018-07-27T05:46:10Z</time>
      </trkpt>
      <trkpt lat="43.07833" lon="0.60603">
        <ele>417.97</ele>
        <time>2018-07-27T05:46:11Z</time>
      </trkpt>
      <trkpt lat="43.07815" lon="0.60619">
        <ele>418.18</ele>
        <time>2018-07-27T05:46:12Z</time>
      </trkpt>
      <trkpt lat="43.07796" lon="0.60634">
        <ele>418.24</ele>
        <time>2018-07-27T05:46:13Z</time>
      </trkpt>
      <trkpt lat="43.07778" lon="0.6065">
        <ele>418.26</ele>
        <time>2018-07-27T05:46:14Z</time>
      </trkpt>
      <trkpt lat="43.0776" lon="0.60665">
        <ele>418.26</ele>
        <time>2018-07-27T05:46:15Z</time>
      </trkpt>
      <trkpt lat="43.07742" lon="0.60681">
        <ele>417.57</ele>
        <time>2018-07-27T05:46:16Z</time>
      </trkpt>
      <trkpt lat="43.07723" lon="0.60696">
        <ele>417.36</ele>
        <time>2018-07-27T05:46:17Z</time>
      </trkpt>
      <trkpt lat="43.07705" lon="0.60711">
        <ele>417.99</ele>
        <time>2018-07-27T05:46:18Z</time>
      </trkpt>
      <trkpt lat="43.07686" lon="0.60726">
        <ele>418.19</ele>
        <time>2018-07-27T05:46:19Z</time>
      </trkpt>
      <trkpt lat="43.0767" lon="0.60743">
        <ele>418.24</ele>
        <time>2018-07-27T05:46:20Z</time>
      </trkpt>
      <trkpt lat="43.07652" lon="0.60757">
        <ele>418.96</ele>
        <time>2018-07-27T05:46:21Z</time>
      </trkpt>
      <trkpt lat="43.07634" lon="0.60772">
        <ele>419.87</ele>
        <time>2018-07-27T05:46:22Z</time>
      </trkpt>
      <trkpt lat="43.07616" lon="0.60787">
        <ele>420.15</ele>
        <time>2018-07-27T05:46:23Z</time>
      </trkpt>
      <trkpt lat="43.07597" lon="0.60801">
        <ele>419.53</ele>
        <time>2018-07-27T05:46:24Z</time>
      </trkpt>
      <trkpt lat="43.07579" lon="0.60815">
        <ele>419.35</ele>
        <time>2018-07-27T05:46:25Z</time>
      </trkpt>
      <trkpt lat="43.0756" lon="0.60829">
        <ele>419.29</ele>
        <time>2018-07-27T05:46:26Z</time>
      </trkpt>
      <trkpt lat="43.07541" lon="0.60841">
        <ele>419.27</ele>
        <time>2018-07-27T05:46:27Z</time>
      </trkpt>
      <trkpt lat="43.07521" lon="0.60852">
        <ele>419.27</ele>
        <time>2018-07-27T05:46:28Z</time>
      </trkpt>
      <trkpt lat="43.07502" lon="0.60863">
        <ele>419.97</ele>
        <time>2018-07-27T05:46:29Z</time>
      </trkpt>
      <trkpt lat="43.07482" lon="0.60874">
        <ele>420.18</ele>
        <time>2018-07-27T05:46:30Z</time>
      </trkpt>
      <trkpt lat="43.07462" lon="0.60884">
        <ele>420.24</ele>
        <time>2018-07-27T05:46:31Z</time>
      </trkpt>
      <trkpt lat="43.07442" lon="0.60891">
        <ele>420.26</ele>
        <time>2018-07-27T05:46:32Z</time>
      </trkpt>
      <trkpt lat="43.07421" lon="0.609">
        <ele>420.96</ele>
        <time>2018-07-27T05:46:33Z</time>
      </trkpt>
      <trkpt lat="43.07401" lon="0.60907">
        <ele>421.18</ele>
        <time>2018-07-27T05:46:34Z</time>
      </trkpt>
      <trkpt lat="43.0738" lon="0.60914">
        <ele>421.94</ele>
        <time>2018-07-27T05:46:35Z</time>
      </trkpt>
      <trkpt lat="43.07359" lon="0.60921">
        <ele>422.87</ele>
        <time>2018-07-27T05:46:36Z</time>
      </trkpt>
      <trkpt lat="43.07338" lon="0.60926">
        <ele>423.15</ele>
        <time>2018-07-27T05:46:37Z</time>
      </trkpt>
      <trkpt lat="43.07316" lon="0.60931">
        <ele>423.93</ele>
        <time>2018-07-27T05:46:38Z</time>
      </trkpt>
      <trkpt lat="43.07295" lon="0.60935">
        <ele>424.17</ele>
        <time>2018-07-27T05:46:39Z</time>
      </trkpt>
      <trkpt lat="43.07274" lon="0.60938">
        <ele>424.24</ele>
        <time>2018-07-27T05:46:40Z</time>
      </trkpt>
      <trkpt lat="43.07253" lon="0.60941">
        <ele>424.96</ele>
        <time>2018-07-27T05:46:41Z</time>
      </trkpt>
      <trkpt lat="43.07231" lon="0.60942">
        <ele>425.17</ele>
        <time>2018-07-27T05:46:42Z</time>
      </trkpt>
      <trkpt lat="43.0721" lon="0.60943">
        <ele>425.94</ele>
        <time>2018-07-27T05:46:43Z</time>
      </trkpt>
      <trkpt lat="43.07189" lon="0.60942">
        <ele>426.17</ele>
        <time>2018-07-27T05:46:44Z</time>
      </trkpt>
      <trkpt lat="43.07168" lon="0.60941">
        <ele>425.54</ele>
        <time>2018-07-27T05:46:45Z</time>
      </trkpt>
      <trkpt lat="43.07146" lon="0.6094">
        <ele>425.35</ele>
        <time>2018-07-27T05:46:46Z</time>
      </trkpt>
      <trkpt lat="43.07125" lon="0.60937">
        <ele>425.29</ele>
        <time>2018-07-27T05:46:47Z</time>
      </trkpt>
      <trkpt lat="43.07104" lon="0.60933">
        <ele>425.27</ele>
        <time>2018-07-27T05:46:48Z</time>
      </trkpt>
      <trkpt lat="43.07083" lon="0.60929">
        <ele>425.27</ele>
        <time>2018-07-27T05:46:49Z</time>
      </trkpt>
      <trkpt lat="43.07061" lon="0.60925">
        <ele>425.27</ele>
        <time>2018-07-27T05:46:50Z</time>
      </trkpt>
      <trkpt lat="43.07039" lon="0.60919">
        <ele>425.97</ele>
        <time>2018-07-27T05:46:51Z</time>
      </trkpt>
      <trkpt lat="43.07017" lon="0.60913">
        <ele>426.18</ele>
        <time>2018-07-27T05:46:52Z</time>
      </trkpt>
      <trkpt lat="43.06996" lon="0.60905">
        <ele>426.24</ele>
        <time>2018-07-27T05:46:53Z</time>
      </trkpt>
      <trkpt lat="43.06975" lon="0.60897">
        <ele>425.56</ele>
        <time>2018-07-27T05:46:54Z</time>
      </trkpt>
      <trkpt lat="43.06953" lon="0.60888">
        <ele>425.35</ele>
        <time>2018-07-27T05:46:55Z</time>
      </trkpt>
      <trkpt lat="43.06932" lon="0.60878">
        <ele>425.99</ele>
        <time>2018-07-27T05:46:56Z</time>
      </trkpt>
      <trkpt lat="43.06912" lon="0.60867">
        <ele>426.18</ele>
        <time>2018-07-27T05:46:57Z</time>
      </trkpt>
      <trkpt lat="43.06891" lon="0.60857">
        <ele>426.24</ele>
        <time>2018-07-27T05:46:58Z</time>
      </trkpt>
      <trkpt lat="43.06871" lon="0.60845">
        <ele>426.96</ele>
        <time>2018-07-27T05:46:59Z</time>
      </trkpt>
      <trkpt lat="43.06851" lon="0.60834">
        <ele>427.17</ele>
        <time>2018-07-27T05:47:00Z</time>
      </trkpt>
      <trkpt lat="43.06831" lon="0.60821">
        <ele>427.24</ele>
        <time>2018-07-27T05:47:01Z</time>
      </trkpt>
      <trkpt lat="43.06812" lon="0.60807">
        <ele>427.96</ele>
        <time>2018-07-27T05:47:02Z</time>
      </trkpt>
      <trkpt lat="43.06793" lon="0.60793">
        <ele>428.17</ele>
        <time>2018-07-27T05:47:03Z</time>
      </trkpt>
      <trkpt lat="43.06774" lon="0.60779">
        <ele>428.24</ele>
        <time>2018-07-27T05:47:04Z</time>
      </trkpt>
      <trkpt lat="43.06756" lon="0.60763">
        <ele>428.96</ele>
        <time>2018-07-27T05:47:05Z</time>
      </trkpt>
      <trkpt lat="43.06739" lon="0.60747">
        <ele>429.17</ele>
        <time>2018-07-27T05:47:06Z</time>
      </trkpt>
      <trkpt lat="43.06722" lon="0.6073">
        <ele>429.24</ele>
        <time>2018-07-27T05:47:07Z</time>
      </trkpt>
      <trkpt lat="43.06705" lon="0.60713">
        <ele>428.56</ele>
        <time>2018-07-27T05:47:08Z</time>
      </trkpt>
      <trkpt lat="43.06689" lon="0.60696">
        <ele>428.35</ele>
        <time>2018-07-27T05:47:09Z</time>
      </trkpt>
      <trkpt lat="43.06673" lon="0.60678">
        <ele>428.29</ele>
        <time>2018-07-27T05:47:10Z</time>
      </trkpt>
      <trkpt lat="43.06658" lon="0.60659">
        <ele>428.27</ele>
        <time>2018-07-27T05:47:11Z</time>
      </trkpt>
      <trkpt lat="43.06643" lon="0.6064">
        <ele>428.27</ele>
        <time>2018-07-27T05:47:12Z</time>
      </trkpt>
      <trkpt lat="43.06628" lon="0.60621">
        <ele>428.27</ele>
        <time>2018-07-27T05:47:13Z</time>
      </trkpt>
      <trkpt lat="43.06614" lon="0.60602">
        <ele>428.97</ele>
        <time>2018-07-27T05:47:14Z</time>
      </trkpt>
      <trkpt lat="43.066" lon="0.60581">
        <ele>429.18</ele>
        <time>2018-07-27T05:47:15Z</time>
      </trkpt>
      <trkpt lat="43.06585" lon="0.60558">
        <ele>429.24</ele>
        <time>2018-07-27T05:47:16Z</time>
      </trkpt>
      <trkpt lat="43.06572" lon="0.60537">
        <ele>429.26</ele>
        <time>2018-07-27T05:47:17Z</time>
      </trkpt>
      <trkpt lat="43.06559" lon="0.60514">
        <ele>429.26</ele>
        <time>2018-07-27T05:47:18Z</time>
      </trkpt>
      <trkpt lat="43.06546" lon="0.60491">
        <ele>429.27</ele>
        <time>2018-07-27T05:47:19Z</time>
      </trkpt>
      <trkpt lat="43.06534" lon="0.60468">
        <ele>429.97</ele>
        <time>2018-07-27T05:47:20Z</time>
      </trkpt>
      <trkpt lat="43.06522" lon="0.60444">
        <ele>430.18</ele>
        <time>2018-07-27T05:47:21Z</time>
      </trkpt>
      <trkpt lat="43.0651" lon="0.60419">
        <ele>430.24</ele>
        <time>2018-07-27T05:47:22Z</time>
      </trkpt>
      <trkpt lat="43.06499" lon="0.60395">
        <ele>430.26</ele>
        <time>2018-07-27T05:47:23Z</time>
      </trkpt>
      <trkpt lat="43.06488" lon="0.60369">
        <ele>430.96</ele>
        <time>2018-07-27T05:47:24Z</time>
      </trkpt>
      <trkpt lat="43.06479" lon="0.60343">
        <ele>430.48</ele>
        <time>2018-07-27T05:47:25Z</time>
      </trkpt>
      <trkpt lat="43.06469" lon="0.60318">
        <ele>431.03</ele>
        <time>2018-07-27T05:47:26Z</time>
      </trkpt>
      <trkpt lat="43.06459" lon="0.60292">
        <ele>431.2</ele>
        <time>2018-07-27T05:47:27Z</time>
      </trkpt>
      <trkpt lat="43.06449" lon="0.60267">
        <ele>431.25</ele>
        <time>2018-07-27T05:47:28Z</time>
      </trkpt>
      <trkpt lat="43.06439" lon="0.60242">
        <ele>431.96</ele>
        <time>2018-07-27T05:47:29Z</time>
      </trkpt>
      <trkpt lat="43.0643" lon="0.60217">
        <ele>432.88</ele>
        <time>2018-07-27T05:47:30Z</time>
      </trkpt>
      <trkpt lat="43.0642" lon="0.60192">
        <ele>433.15</ele>
        <time>2018-07-27T05:47:31Z</time>
      </trkpt>
      <trkpt lat="43.0641" lon="0.60166">
        <ele>433.23</ele>
        <time>2018-07-27T05:47:32Z</time>
      </trkpt>
      <trkpt lat="43.064" lon="0.60141">
        <ele>433.96</ele>
        <time>2018-07-27T05:47:33Z</time>
      </trkpt>
      <trkpt lat="43.06391" lon="0.60116">
        <ele>433.47</ele>
        <time>2018-07-27T05:47:34Z</time>
      </trkpt>
      <trkpt lat="43.06381" lon="0.6009">
        <ele>434.03</ele>
        <time>2018-07-27T05:47:35Z</time>
      </trkpt>
      <trkpt lat="43.06371" lon="0.60065">
        <ele>434.9</ele>
        <time>2018-07-27T05:47:36Z</time>
      </trkpt>
      <trkpt lat="43.06361" lon="0.60039">
        <ele>435.16</ele>
        <time>2018-07-27T05:47:37Z</time>
      </trkpt>
      <trkpt lat="43.06351" lon="0.60013">
        <ele>435.23</ele>
        <time>2018-07-27T05:47:38Z</time>
      </trkpt>
      <trkpt lat="43.06341" lon="0.59987">
        <ele>435.26</ele>
        <time>2018-07-27T05:47:39Z</time>
      </trkpt>
      <trkpt lat="43.0633" lon="0.5996">
        <ele>435.26</ele>
        <time>2018-07-27T05:47:40Z</time>
      </trkpt>
      <trkpt lat="43.0632" lon="0.59933">
        <ele>435.97</ele>
        <time>2018-07-27T05:47:41Z</time>
      </trkpt>
      <trkpt lat="43.06309" lon="0.59906">
        <ele>436.18</ele>
        <time>2018-07-27T05:47:42Z</time>
      </trkpt>
      <trkpt lat="43.06298" lon="0.59879">
        <ele>436.24</ele>
        <time>2018-07-27T05:47:43Z</time>
      </trkpt>
      <trkpt lat="43.06288" lon="0.59853">
        <ele>436.26</ele>
        <time>2018-07-27T05:47:44Z</time>
      </trkpt>
      <trkpt lat="43.06278" lon="0.59826">
        <ele>436.26</ele>
        <time>2018-07-27T05:47:45Z</time>
      </trkpt>
      <trkpt lat="43.06268" lon="0.598">
        <ele>436.27</ele>
        <time>2018-07-27T05:47:46Z</time>
      </trkpt>
      <trkpt lat="43.06257" lon="0.59774">
        <ele>436.97</ele>
        <time>2018-07-27T05:47:47Z</time>
      </trkpt>
      <trkpt lat="43.06247" lon="0.59748">
        <ele>437.18</ele>
        <time>2018-07-27T05:47:48Z</time>
      </trkpt>
      <trkpt lat="43.06237" lon="0.59722">
        <ele>437.24</ele>
        <time>2018-07-27T05:47:49Z</time>
      </trkpt>
      <trkpt lat="43.06227" lon="0.59696">
        <ele>437.26</ele>
        <time>2018-07-27T05:47:50Z</time>
      </trkpt>
      <trkpt lat="43.06217" lon="0.59671">
        <ele>437.26</ele>
        <time>2018-07-27T05:47:51Z</time>
      </trkpt>
      <trkpt lat="43.06207" lon="0.59645">
        <ele>437.27</ele>
        <time>2018-07-27T05:47:52Z</time>
      </trkpt>
      <trkpt lat="43.06197" lon="0.5962">
        <ele>437.27</ele>
        <time>2018-07-27T05:47:53Z</time>
      </trkpt>
      <trkpt lat="43.06187" lon="0.59595">
        <ele>437.97</ele>
        <time>2018-07-27T05:47:54Z</time>
      </trkpt>
      <trkpt lat="43.06177" lon="0.5957">
        <ele>438.18</ele>
        <time>2018-07-27T05:47:55Z</time>
      </trkpt>
      <trkpt lat="43.06168" lon="0.59545">
        <ele>438.24</ele>
        <time>2018-07-27T05:47:56Z</time>
      </trkpt>
      <trkpt lat="43.06158" lon="0.59521">
        <ele>438.26</ele>
        <time>2018-07-27T05:47:57Z</time>
      </trkpt>
      <trkpt lat="43.06147" lon="0.59497">
        <ele>438.26</ele>
        <time>2018-07-27T05:47:58Z</time>
      </trkpt>
      <trkpt lat="43.06135" lon="0.59474">
        <ele>438.27</ele>
        <time>2018-07-27T05:47:59Z</time>
      </trkpt>
      <trkpt lat="43.06123" lon="0.59452">
        <ele>438.97</ele>
        <time>2018-07-27T05:48:00Z</time>
      </trkpt>
      <trkpt lat="43.0611" lon="0.59432">
        <ele>439.18</ele>
        <time>2018-07-27T05:48:01Z</time>
      </trkpt>
      <trkpt lat="43.06097" lon="0.59413">
        <ele>439.24</ele>
        <time>2018-07-27T05:48:02Z</time>
      </trkpt>
      <trkpt lat="43.06084" lon="0.59395">
        <ele>439.96</ele>
        <time>2018-07-27T05:48:03Z</time>
      </trkpt>
      <trkpt lat="43.06058" lon="0.59365">
        <ele>440.94</ele>
        <time>2018-07-27T05:48:05Z</time>
      </trkpt>
      <trkpt lat="43.06034" lon="0.5934">
        <ele>440.54</ele>
        <time>2018-07-27T05:48:07Z</time>
      </trkpt>
      <trkpt lat="43.06011" lon="0.59319">
        <ele>440.29</ele>
        <time>2018-07-27T05:48:09Z</time>
      </trkpt>
      <trkpt lat="43.05994" lon="0.59296">
        <ele>440.27</ele>
        <time>2018-07-27T05:48:11Z</time>
      </trkpt>
      <trkpt lat="43.05986" lon="0.5927">
        <ele>441.18</ele>
        <time>2018-07-27T05:48:13Z</time>
      </trkpt>
      <trkpt lat="43.05974" lon="0.59247">
        <ele>440.56</ele>
        <time>2018-07-27T05:48:15Z</time>
      </trkpt>
      <trkpt lat="43.05952" lon="0.59241">
        <ele>441.9</ele>
        <time>2018-07-27T05:48:17Z</time>
      </trkpt>
      <trkpt lat="43.05929" lon="0.59252">
        <ele>441.32</ele>
        <time>2018-07-27T05:48:19Z</time>
      </trkpt>
      <trkpt lat="43.05903" lon="0.59248">
        <ele>441.97</ele>
        <time>2018-07-27T05:48:21Z</time>
      </trkpt>
      <trkpt lat="43.05873" lon="0.59232">
        <ele>441.33</ele>
        <time>2018-07-27T05:48:23Z</time>
      </trkpt>
      <trkpt lat="43.05839" lon="0.59211">
        <ele>442.88</ele>
        <time>2018-07-27T05:48:25Z</time>
      </trkpt>
      <trkpt lat="43.0582" lon="0.59199">
        <ele>443.15</ele>
        <time>2018-07-27T05:48:26Z</time>
      </trkpt>
      <trkpt lat="43.05801" lon="0.59188">
        <ele>443.23</ele>
        <time>2018-07-27T05:48:27Z</time>
      </trkpt>
      <trkpt lat="43.05782" lon="0.59177">
        <ele>443.26</ele>
        <time>2018-07-27T05:48:28Z</time>
      </trkpt>
      <trkpt lat="43.05761" lon="0.59166">
        <ele>443.96</ele>
        <time>2018-07-27T05:48:29Z</time>
      </trkpt>
      <trkpt lat="43.05741" lon="0.59156">
        <ele>444.88</ele>
        <time>2018-07-27T05:48:30Z</time>
      </trkpt>
      <trkpt lat="43.05721" lon="0.59148">
        <ele>445.85</ele>
        <time>2018-07-27T05:48:31Z</time>
      </trkpt>
      <trkpt lat="43.057" lon="0.59141">
        <ele>446.14</ele>
        <time>2018-07-27T05:48:32Z</time>
      </trkpt>
      <trkpt lat="43.05678" lon="0.59136">
        <ele>446.93</ele>
        <time>2018-07-27T05:48:33Z</time>
      </trkpt>
      <trkpt lat="43.05657" lon="0.59132">
        <ele>447.17</ele>
        <time>2018-07-27T05:48:34Z</time>
      </trkpt>
      <trkpt lat="43.05635" lon="0.5913">
        <ele>447.94</ele>
        <time>2018-07-27T05:48:35Z</time>
      </trkpt>
      <trkpt lat="43.05613" lon="0.5913">
        <ele>448.17</ele>
        <time>2018-07-27T05:48:36Z</time>
      </trkpt>
      <trkpt lat="43.05591" lon="0.59132">
        <ele>448.94</ele>
        <time>2018-07-27T05:48:37Z</time>
      </trkpt>
      <trkpt lat="43.05569" lon="0.59134">
        <ele>449.87</ele>
        <time>2018-07-27T05:48:38Z</time>
      </trkpt>
      <trkpt lat="43.05548" lon="0.59136">
        <ele>450.85</ele>
        <time>2018-07-27T05:48:39Z</time>
      </trkpt>
      <trkpt lat="43.05526" lon="0.59139">
        <ele>451.84</ele>
        <time>2018-07-27T05:48:40Z</time>
      </trkpt>
      <trkpt lat="43.05504" lon="0.59142">
        <ele>452.84</ele>
        <time>2018-07-27T05:48:41Z</time>
      </trkpt>
      <trkpt lat="43.05481" lon="0.59144">
        <ele>453.14</ele>
        <time>2018-07-27T05:48:42Z</time>
      </trkpt>
      <trkpt lat="43.05459" lon="0.59147">
        <ele>454.63</ele>
        <time>2018-07-27T05:48:43Z</time>
      </trkpt>
      <trkpt lat="43.05437" lon="0.5915">
        <ele>455.78</ele>
        <time>2018-07-27T05:48:44Z</time>
      </trkpt>
      <trkpt lat="43.05415" lon="0.59153">
        <ele>456.12</ele>
        <time>2018-07-27T05:48:45Z</time>
      </trkpt>
      <trkpt lat="43.05392" lon="0.59156">
        <ele>456.22</ele>
        <time>2018-07-27T05:48:46Z</time>
      </trkpt>
      <trkpt lat="43.05371" lon="0.59159">
        <ele>456.95</ele>
        <time>2018-07-27T05:48:47Z</time>
      </trkpt>
      <trkpt lat="43.0535" lon="0.59162">
        <ele>457.17</ele>
        <time>2018-07-27T05:48:48Z</time>
      </trkpt>
      <trkpt lat="43.05328" lon="0.59164">
        <ele>457.24</ele>
        <time>2018-07-27T05:48:49Z</time>
      </trkpt>
      <trkpt lat="43.05306" lon="0.59168">
        <ele>457.26</ele>
        <time>2018-07-27T05:48:50Z</time>
      </trkpt>
      <trkpt lat="43.05284" lon="0.5917">
        <ele>457.96</ele>
        <time>2018-07-27T05:48:51Z</time>
      </trkpt>
      <trkpt lat="43.05261" lon="0.59172">
        <ele>458.88</ele>
        <time>2018-07-27T05:48:52Z</time>
      </trkpt>
      <trkpt lat="43.05238" lon="0.59172">
        <ele>461.25</ele>
        <time>2018-07-27T05:48:53Z</time>
      </trkpt>
      <trkpt lat="43.05215" lon="0.59174">
        <ele>462.66</ele>
        <time>2018-07-27T05:48:54Z</time>
      </trkpt>
      <trkpt lat="43.05193" lon="0.59177">
        <ele>463.09</ele>
        <time>2018-07-27T05:48:55Z</time>
      </trkpt>
      <trkpt lat="43.0517" lon="0.5918">
        <ele>463.91</ele>
        <time>2018-07-27T05:48:56Z</time>
      </trkpt>
      <trkpt lat="43.05146" lon="0.59183">
        <ele>464.86</ele>
        <time>2018-07-27T05:48:57Z</time>
      </trkpt>
      <trkpt lat="43.05122" lon="0.59186">
        <ele>465.85</ele>
        <time>2018-07-27T05:48:58Z</time>
      </trkpt>
      <trkpt lat="43.05098" lon="0.59189">
        <ele>466.14</ele>
        <time>2018-07-27T05:48:59Z</time>
      </trkpt>
      <trkpt lat="43.05075" lon="0.59192">
        <ele>466.93</ele>
        <time>2018-07-27T05:49:00Z</time>
      </trkpt>
      <trkpt lat="43.05052" lon="0.59194">
        <ele>467.87</ele>
        <time>2018-07-27T05:49:01Z</time>
      </trkpt>
      <trkpt lat="43.05029" lon="0.59197">
        <ele>468.15</ele>
        <time>2018-07-27T05:49:02Z</time>
      </trkpt>
      <trkpt lat="43.05006" lon="0.59196">
        <ele>468.93</ele>
        <time>2018-07-27T05:49:03Z</time>
      </trkpt>
      <trkpt lat="43.04983" lon="0.59194">
        <ele>469.17</ele>
        <time>2018-07-27T05:49:04Z</time>
      </trkpt>
      <trkpt lat="43.0496" lon="0.59189">
        <ele>469.94</ele>
        <time>2018-07-27T05:49:05Z</time>
      </trkpt>
      <trkpt lat="43.04937" lon="0.59182">
        <ele>472.27</ele>
        <time>2018-07-27T05:49:06Z</time>
      </trkpt>
      <trkpt lat="43.04914" lon="0.59177">
        <ele>473.67</ele>
        <time>2018-07-27T05:49:07Z</time>
      </trkpt>
      <trkpt lat="43.04891" lon="0.59172">
        <ele>474.09</ele>
        <time>2018-07-27T05:49:08Z</time>
      </trkpt>
      <trkpt lat="43.04868" lon="0.59166">
        <ele>474.21</ele>
        <time>2018-07-27T05:49:09Z</time>
      </trkpt>
      <trkpt lat="43.04846" lon="0.59162">
        <ele>472.85</ele>
        <time>2018-07-27T05:49:10Z</time>
      </trkpt>
      <trkpt lat="43.04822" lon="0.59158">
        <ele>471.04</ele>
        <time>2018-07-27T05:49:11Z</time>
      </trkpt>
      <trkpt lat="43.04799" lon="0.59153">
        <ele>470.5</ele>
        <time>2018-07-27T05:49:12Z</time>
      </trkpt>
      <trkpt lat="43.04777" lon="0.59149">
        <ele>469.64</ele>
        <time>2018-07-27T05:49:13Z</time>
      </trkpt>
      <trkpt lat="43.04754" lon="0.59144">
        <ele>469.38</ele>
        <time>2018-07-27T05:49:14Z</time>
      </trkpt>
      <trkpt lat="43.04732" lon="0.59139">
        <ele>469.3</ele>
        <time>2018-07-27T05:49:15Z</time>
      </trkpt>
      <trkpt lat="43.04711" lon="0.59134">
        <ele>469.28</ele>
        <time>2018-07-27T05:49:16Z</time>
      </trkpt>
      <trkpt lat="43.04689" lon="0.59129">
        <ele>468.57</ele>
        <time>2018-07-27T05:49:17Z</time>
      </trkpt>
      <trkpt lat="43.04668" lon="0.59124">
        <ele>468.36</ele>
        <time>2018-07-27T05:49:18Z</time>
      </trkpt>
      <trkpt lat="43.0465" lon="0.5912">
        <ele>468.29</ele>
        <time>2018-07-27T05:49:19Z</time>
      </trkpt>
      <trkpt lat="43.04631" lon="0.59117">
        <ele>467.58</ele>
        <time>2018-07-27T05:49:20Z</time>
      </trkpt>
      <trkpt lat="43.04594" lon="0.59117">
        <ele>465.68</ele>
        <time>2018-07-27T05:49:22Z</time>
      </trkpt>
      <trkpt lat="43.04576" lon="0.59121">
        <ele>466.09</ele>
        <time>2018-07-27T05:49:23Z</time>
      </trkpt>
      <trkpt lat="43.04542" lon="0.59134">
        <ele>464.64</ele>
        <time>2018-07-27T05:49:25Z</time>
      </trkpt>
      <trkpt lat="43.04514" lon="0.59153">
        <ele>464.3</ele>
        <time>2018-07-27T05:49:27Z</time>
      </trkpt>
      <trkpt lat="43.04489" lon="0.59173">
        <ele>464.27</ele>
        <time>2018-07-27T05:49:29Z</time>
      </trkpt>
      <trkpt lat="43.04466" lon="0.59192">
        <ele>464.48</ele>
        <time>2018-07-27T05:49:31Z</time>
      </trkpt>
      <trkpt lat="43.04443" lon="0.5921">
        <ele>464.29</ele>
        <time>2018-07-27T05:49:33Z</time>
      </trkpt>
      <trkpt lat="43.04421" lon="0.59231">
        <ele>462.66</ele>
        <time>2018-07-27T05:49:35Z</time>
      </trkpt>
      <trkpt lat="43.04401" lon="0.59259">
        <ele>461.6</ele>
        <time>2018-07-27T05:49:37Z</time>
      </trkpt>
      <trkpt lat="43.04384" lon="0.59287">
        <ele>460.6</ele>
        <time>2018-07-27T05:49:39Z</time>
      </trkpt>
      <trkpt lat="43.04367" lon="0.59319">
        <ele>459.6</ele>
        <time>2018-07-27T05:49:41Z</time>
      </trkpt>
      <trkpt lat="43.0435" lon="0.59352">
        <ele>460.21</ele>
        <time>2018-07-27T05:49:43Z</time>
      </trkpt>
      <trkpt lat="43.04333" lon="0.59384">
        <ele>460.26</ele>
        <time>2018-07-27T05:49:45Z</time>
      </trkpt>
      <trkpt lat="43.04312" lon="0.59415">
        <ele>460.27</ele>
        <time>2018-07-27T05:49:47Z</time>
      </trkpt>
      <trkpt lat="43.04289" lon="0.59449">
        <ele>460.27</ele>
        <time>2018-07-27T05:49:49Z</time>
      </trkpt>
      <trkpt lat="43.04276" lon="0.59466">
        <ele>459.57</ele>
        <time>2018-07-27T05:49:50Z</time>
      </trkpt>
      <trkpt lat="43.04262" lon="0.59483">
        <ele>459.36</ele>
        <time>2018-07-27T05:49:51Z</time>
      </trkpt>
      <trkpt lat="43.04246" lon="0.59502">
        <ele>459.29</ele>
        <time>2018-07-27T05:49:52Z</time>
      </trkpt>
      <trkpt lat="43.04229" lon="0.59522">
        <ele>459.98</ele>
        <time>2018-07-27T05:49:53Z</time>
      </trkpt>
      <trkpt lat="43.0421" lon="0.59544">
        <ele>460.18</ele>
        <time>2018-07-27T05:49:54Z</time>
      </trkpt>
      <trkpt lat="43.0419" lon="0.59568">
        <ele>459.54</ele>
        <time>2018-07-27T05:49:55Z</time>
      </trkpt>
      <trkpt lat="43.04171" lon="0.59593">
        <ele>459.35</ele>
        <time>2018-07-27T05:49:56Z</time>
      </trkpt>
      <trkpt lat="43.04153" lon="0.59619">
        <ele>459.29</ele>
        <time>2018-07-27T05:49:57Z</time>
      </trkpt>
      <trkpt lat="43.04136" lon="0.59645">
        <ele>459.97</ele>
        <time>2018-07-27T05:49:58Z</time>
      </trkpt>
      <trkpt lat="43.04118" lon="0.5967">
        <ele>459.48</ele>
        <time>2018-07-27T05:49:59Z</time>
      </trkpt>
      <trkpt lat="43.04101" lon="0.59697">
        <ele>457.93</ele>
        <time>2018-07-27T05:50:00Z</time>
      </trkpt>
      <trkpt lat="43.04084" lon="0.59722">
        <ele>457.47</ele>
        <time>2018-07-27T05:50:01Z</time>
      </trkpt>
      <trkpt lat="43.04067" lon="0.59747">
        <ele>457.33</ele>
        <time>2018-07-27T05:50:02Z</time>
      </trkpt>
      <trkpt lat="43.0405" lon="0.59773">
        <ele>456.58</ele>
        <time>2018-07-27T05:50:03Z</time>
      </trkpt>
      <trkpt lat="43.04033" lon="0.59798">
        <ele>456.36</ele>
        <time>2018-07-27T05:50:04Z</time>
      </trkpt>
      <trkpt lat="43.04017" lon="0.59823">
        <ele>457</ele>
        <time>2018-07-27T05:50:05Z</time>
      </trkpt>
      <trkpt lat="43.04" lon="0.59847">
        <ele>457.19</ele>
        <time>2018-07-27T05:50:06Z</time>
      </trkpt>
      <trkpt lat="43.03983" lon="0.59872">
        <ele>457.24</ele>
        <time>2018-07-27T05:50:07Z</time>
      </trkpt>
      <trkpt lat="43.03967" lon="0.59898">
        <ele>457.26</ele>
        <time>2018-07-27T05:50:08Z</time>
      </trkpt>
      <trkpt lat="43.03951" lon="0.59924">
        <ele>457.26</ele>
        <time>2018-07-27T05:50:09Z</time>
      </trkpt>
      <trkpt lat="43.03936" lon="0.5995">
        <ele>457.27</ele>
        <time>2018-07-27T05:50:10Z</time>
      </trkpt>
      <trkpt lat="43.03922" lon="0.59977">
        <ele>456.57</ele>
        <time>2018-07-27T05:50:11Z</time>
      </trkpt>
      <trkpt lat="43.03908" lon="0.60005">
        <ele>454.96</ele>
        <time>2018-07-27T05:50:12Z</time>
      </trkpt>
      <trkpt lat="43.03896" lon="0.60032">
        <ele>454.47</ele>
        <time>2018-07-27T05:50:13Z</time>
      </trkpt>
      <trkpt lat="43.03883" lon="0.6006">
        <ele>454.33</ele>
        <time>2018-07-27T05:50:14Z</time>
      </trkpt>
      <trkpt lat="43.03872" lon="0.60089">
        <ele>454.29</ele>
        <time>2018-07-27T05:50:15Z</time>
      </trkpt>
      <trkpt lat="43.03862" lon="0.60119">
        <ele>454.27</ele>
        <time>2018-07-27T05:50:16Z</time>
      </trkpt>
      <trkpt lat="43.03852" lon="0.60149">
        <ele>454.97</ele>
        <time>2018-07-27T05:50:17Z</time>
      </trkpt>
      <trkpt lat="43.03842" lon="0.6018">
        <ele>455.18</ele>
        <time>2018-07-27T05:50:18Z</time>
      </trkpt>
      <trkpt lat="43.03833" lon="0.60211">
        <ele>455.24</ele>
        <time>2018-07-27T05:50:19Z</time>
      </trkpt>
      <trkpt lat="43.03824" lon="0.60242">
        <ele>455.26</ele>
        <time>2018-07-27T05:50:20Z</time>
      </trkpt>
      <trkpt lat="43.03815" lon="0.60272">
        <ele>455.26</ele>
        <time>2018-07-27T05:50:21Z</time>
      </trkpt>
      <trkpt lat="43.03806" lon="0.60304">
        <ele>455.27</ele>
        <time>2018-07-27T05:50:22Z</time>
      </trkpt>
      <trkpt lat="43.03797" lon="0.60335">
        <ele>455.27</ele>
        <time>2018-07-27T05:50:23Z</time>
      </trkpt>
      <trkpt lat="43.03788" lon="0.60366">
        <ele>455.27</ele>
        <time>2018-07-27T05:50:24Z</time>
      </trkpt>
      <trkpt lat="43.03778" lon="0.60396">
        <ele>455.27</ele>
        <time>2018-07-27T05:50:25Z</time>
      </trkpt>
      <trkpt lat="43.03768" lon="0.60427">
        <ele>455.97</ele>
        <time>2018-07-27T05:50:26Z</time>
      </trkpt>
      <trkpt lat="43.03758" lon="0.60458">
        <ele>456.18</ele>
        <time>2018-07-27T05:50:27Z</time>
      </trkpt>
      <trkpt lat="43.03748" lon="0.60489">
        <ele>456.24</ele>
        <time>2018-07-27T05:50:28Z</time>
      </trkpt>
      <trkpt lat="43.03736" lon="0.60518">
        <ele>456.26</ele>
        <time>2018-07-27T05:50:29Z</time>
      </trkpt>
      <trkpt lat="43.03725" lon="0.60548">
        <ele>456.26</ele>
        <time>2018-07-27T05:50:30Z</time>
      </trkpt>
      <trkpt lat="43.03712" lon="0.60577">
        <ele>456.27</ele>
        <time>2018-07-27T05:50:31Z</time>
      </trkpt>
      <trkpt lat="43.03697" lon="0.60604">
        <ele>456.27</ele>
        <time>2018-07-27T05:50:32Z</time>
      </trkpt>
      <trkpt lat="43.03682" lon="0.6063">
        <ele>456.27</ele>
        <time>2018-07-27T05:50:33Z</time>
      </trkpt>
      <trkpt lat="43.03667" lon="0.60655">
        <ele>456.27</ele>
        <time>2018-07-27T05:50:34Z</time>
      </trkpt>
      <trkpt lat="43.0365" lon="0.60679">
        <ele>456.27</ele>
        <time>2018-07-27T05:50:35Z</time>
      </trkpt>
      <trkpt lat="43.03633" lon="0.60702">
        <ele>456.27</ele>
        <time>2018-07-27T05:50:36Z</time>
      </trkpt>
      <trkpt lat="43.03615" lon="0.60723">
        <ele>455.57</ele>
        <time>2018-07-27T05:50:37Z</time>
      </trkpt>
      <trkpt lat="43.03597" lon="0.60744">
        <ele>455.36</ele>
        <time>2018-07-27T05:50:38Z</time>
      </trkpt>
      <trkpt lat="43.03579" lon="0.60763">
        <ele>454.59</ele>
        <time>2018-07-27T05:50:39Z</time>
      </trkpt>
      <trkpt lat="43.0356" lon="0.60782">
        <ele>454.37</ele>
        <time>2018-07-27T05:50:40Z</time>
      </trkpt>
      <trkpt lat="43.03541" lon="0.608">
        <ele>453.6</ele>
        <time>2018-07-27T05:50:41Z</time>
      </trkpt>
      <trkpt lat="43.03521" lon="0.60816">
        <ele>452.67</ele>
        <time>2018-07-27T05:50:42Z</time>
      </trkpt>
      <trkpt lat="43.035" lon="0.60831">
        <ele>451.69</ele>
        <time>2018-07-27T05:50:43Z</time>
      </trkpt>
      <trkpt lat="43.03478" lon="0.60844">
        <ele>450.69</ele>
        <time>2018-07-27T05:50:44Z</time>
      </trkpt>
      <trkpt lat="43.03457" lon="0.60855">
        <ele>450.39</ele>
        <time>2018-07-27T05:50:45Z</time>
      </trkpt>
      <trkpt lat="43.03434" lon="0.60866">
        <ele>448.21</ele>
        <time>2018-07-27T05:50:46Z</time>
      </trkpt>
      <trkpt lat="43.03411" lon="0.60876">
        <ele>447.55</ele>
        <time>2018-07-27T05:50:47Z</time>
      </trkpt>
      <trkpt lat="43.03388" lon="0.60883">
        <ele>447.35</ele>
        <time>2018-07-27T05:50:48Z</time>
      </trkpt>
      <trkpt lat="43.03364" lon="0.60892">
        <ele>447.29</ele>
        <time>2018-07-27T05:50:49Z</time>
      </trkpt>
      <trkpt lat="43.03342" lon="0.60903">
        <ele>445.87</ele>
        <time>2018-07-27T05:50:50Z</time>
      </trkpt>
      <trkpt lat="43.03319" lon="0.60906">
        <ele>444.05</ele>
        <time>2018-07-27T05:50:51Z</time>
      </trkpt>
      <trkpt lat="43.03296" lon="0.60911">
        <ele>444.2</ele>
        <time>2018-07-27T05:50:52Z</time>
      </trkpt>
      <trkpt lat="43.03271" lon="0.60918">
        <ele>443.55</ele>
        <time>2018-07-27T05:50:53Z</time>
      </trkpt>
      <trkpt lat="43.03248" lon="0.6092">
        <ele>443.35</ele>
        <time>2018-07-27T05:50:54Z</time>
      </trkpt>
      <trkpt lat="43.03226" lon="0.60922">
        <ele>443.99</ele>
        <time>2018-07-27T05:50:55Z</time>
      </trkpt>
      <trkpt lat="43.03203" lon="0.60926">
        <ele>444.18</ele>
        <time>2018-07-27T05:50:56Z</time>
      </trkpt>
      <trkpt lat="43.0318" lon="0.60929">
        <ele>444.24</ele>
        <time>2018-07-27T05:50:57Z</time>
      </trkpt>
      <trkpt lat="43.03158" lon="0.60933">
        <ele>444.26</ele>
        <time>2018-07-27T05:50:58Z</time>
      </trkpt>
      <trkpt lat="43.03135" lon="0.60937">
        <ele>444.26</ele>
        <time>2018-07-27T05:50:59Z</time>
      </trkpt>
      <trkpt lat="43.0311" lon="0.60933">
        <ele>447.07</ele>
        <time>2018-07-27T05:51:00Z</time>
      </trkpt>
      <trkpt lat="43.03089" lon="0.60935">
        <ele>447.21</ele>
        <time>2018-07-27T05:51:01Z</time>
      </trkpt>
      <trkpt lat="43.03067" lon="0.6094">
        <ele>447.25</ele>
        <time>2018-07-27T05:51:02Z</time>
      </trkpt>
      <trkpt lat="43.03045" lon="0.60945">
        <ele>447.96</ele>
        <time>2018-07-27T05:51:03Z</time>
      </trkpt>
      <trkpt lat="43.03023" lon="0.60954">
        <ele>448.18</ele>
        <time>2018-07-27T05:51:04Z</time>
      </trkpt>
      <trkpt lat="43.03002" lon="0.60962">
        <ele>448.24</ele>
        <time>2018-07-27T05:51:05Z</time>
      </trkpt>
      <trkpt lat="43.02982" lon="0.6097">
        <ele>448.26</ele>
        <time>2018-07-27T05:51:06Z</time>
      </trkpt>
      <trkpt lat="43.02962" lon="0.6098">
        <ele>446.86</ele>
        <time>2018-07-27T05:51:07Z</time>
      </trkpt>
      <trkpt lat="43.02941" lon="0.60991">
        <ele>446.45</ele>
        <time>2018-07-27T05:51:08Z</time>
      </trkpt>
      <trkpt lat="43.02922" lon="0.61003">
        <ele>444.92</ele>
        <time>2018-07-27T05:51:09Z</time>
      </trkpt>
      <trkpt lat="43.02903" lon="0.61016">
        <ele>445.16</ele>
        <time>2018-07-27T05:51:10Z</time>
      </trkpt>
      <trkpt lat="43.02885" lon="0.61031">
        <ele>445.24</ele>
        <time>2018-07-27T05:51:11Z</time>
      </trkpt>
      <trkpt lat="43.0287" lon="0.61045">
        <ele>445.26</ele>
        <time>2018-07-27T05:51:12Z</time>
      </trkpt>
      <trkpt lat="43.02855" lon="0.61059">
        <ele>445.26</ele>
        <time>2018-07-27T05:51:13Z</time>
      </trkpt>
      <trkpt lat="43.02826" lon="0.61082">
        <ele>445.97</ele>
        <time>2018-07-27T05:51:15Z</time>
      </trkpt>
      <trkpt lat="43.02796" lon="0.611">
        <ele>446.45</ele>
        <time>2018-07-27T05:51:17Z</time>
      </trkpt>
      <trkpt lat="43.02766" lon="0.6112">
        <ele>446.28</ele>
        <time>2018-07-27T05:51:19Z</time>
      </trkpt>
      <trkpt lat="43.02735" lon="0.61141">
        <ele>446.27</ele>
        <time>2018-07-27T05:51:21Z</time>
      </trkpt>
      <trkpt lat="43.02719" lon="0.61152">
        <ele>445.57</ele>
        <time>2018-07-27T05:51:22Z</time>
      </trkpt>
      <trkpt lat="43.02703" lon="0.61164">
        <ele>445.36</ele>
        <time>2018-07-27T05:51:23Z</time>
      </trkpt>
      <trkpt lat="43.02684" lon="0.61178">
        <ele>445.29</ele>
        <time>2018-07-27T05:51:24Z</time>
      </trkpt>
      <trkpt lat="43.02664" lon="0.61191">
        <ele>445.28</ele>
        <time>2018-07-27T05:51:25Z</time>
      </trkpt>
      <trkpt lat="43.02643" lon="0.61206">
        <ele>445.97</ele>
        <time>2018-07-27T05:51:26Z</time>
      </trkpt>
      <trkpt lat="43.02623" lon="0.6122">
        <ele>444.78</ele>
        <time>2018-07-27T05:51:27Z</time>
      </trkpt>
      <trkpt lat="43.02604" lon="0.61236">
        <ele>444.42</ele>
        <time>2018-07-27T05:51:28Z</time>
      </trkpt>
      <trkpt lat="43.02585" lon="0.61252">
        <ele>443.61</ele>
        <time>2018-07-27T05:51:29Z</time>
      </trkpt>
      <trkpt lat="43.02567" lon="0.6127">
        <ele>443.37</ele>
        <time>2018-07-27T05:51:30Z</time>
      </trkpt>
      <trkpt lat="43.02548" lon="0.61288">
        <ele>443.3</ele>
        <time>2018-07-27T05:51:31Z</time>
      </trkpt>
      <trkpt lat="43.02529" lon="0.61307">
        <ele>443.28</ele>
        <time>2018-07-27T05:51:32Z</time>
      </trkpt>
      <trkpt lat="43.02512" lon="0.61326">
        <ele>443.27</ele>
        <time>2018-07-27T05:51:33Z</time>
      </trkpt>
      <trkpt lat="43.02494" lon="0.61346">
        <ele>443.27</ele>
        <time>2018-07-27T05:51:34Z</time>
      </trkpt>
      <trkpt lat="43.02477" lon="0.61366">
        <ele>443.97</ele>
        <time>2018-07-27T05:51:35Z</time>
      </trkpt>
      <trkpt lat="43.0246" lon="0.61386">
        <ele>444.88</ele>
        <time>2018-07-27T05:51:36Z</time>
      </trkpt>
      <trkpt lat="43.02444" lon="0.61407">
        <ele>445.15</ele>
        <time>2018-07-27T05:51:37Z</time>
      </trkpt>
      <trkpt lat="43.02425" lon="0.61427">
        <ele>445.23</ele>
        <time>2018-07-27T05:51:38Z</time>
      </trkpt>
      <trkpt lat="43.02408" lon="0.61447">
        <ele>446.66</ele>
        <time>2018-07-27T05:51:39Z</time>
      </trkpt>
      <trkpt lat="43.0239" lon="0.61467">
        <ele>447.08</ele>
        <time>2018-07-27T05:51:40Z</time>
      </trkpt>
      <trkpt lat="43.02369" lon="0.61485">
        <ele>447.21</ele>
        <time>2018-07-27T05:51:41Z</time>
      </trkpt>
      <trkpt lat="43.02351" lon="0.61506">
        <ele>447.95</ele>
        <time>2018-07-27T05:51:42Z</time>
      </trkpt>
      <trkpt lat="43.02333" lon="0.61526">
        <ele>448.17</ele>
        <time>2018-07-27T05:51:43Z</time>
      </trkpt>
      <trkpt lat="43.02314" lon="0.61547">
        <ele>448.24</ele>
        <time>2018-07-27T05:51:44Z</time>
      </trkpt>
      <trkpt lat="43.02297" lon="0.61567">
        <ele>448.96</ele>
        <time>2018-07-27T05:51:45Z</time>
      </trkpt>
      <trkpt lat="43.02278" lon="0.61586">
        <ele>449.17</ele>
        <time>2018-07-27T05:51:46Z</time>
      </trkpt>
      <trkpt lat="43.0226" lon="0.61606">
        <ele>449.94</ele>
        <time>2018-07-27T05:51:47Z</time>
      </trkpt>
      <trkpt lat="43.02243" lon="0.61623">
        <ele>450.17</ele>
        <time>2018-07-27T05:51:48Z</time>
      </trkpt>
      <trkpt lat="43.02225" lon="0.61638">
        <ele>450.24</ele>
        <time>2018-07-27T05:51:49Z</time>
      </trkpt>
      <trkpt lat="43.02209" lon="0.61652">
        <ele>448.86</ele>
        <time>2018-07-27T05:51:50Z</time>
      </trkpt>
      <trkpt lat="43.02189" lon="0.61666">
        <ele>448.44</ele>
        <time>2018-07-27T05:51:51Z</time>
      </trkpt>
      <trkpt lat="43.02172" lon="0.61678">
        <ele>447.62</ele>
        <time>2018-07-27T05:51:52Z</time>
      </trkpt>
      <trkpt lat="43.02154" lon="0.61692">
        <ele>447.37</ele>
        <time>2018-07-27T05:51:53Z</time>
      </trkpt>
      <trkpt lat="43.02134" lon="0.61706">
        <ele>446.6</ele>
        <time>2018-07-27T05:51:54Z</time>
      </trkpt>
      <trkpt lat="43.02118" lon="0.61719">
        <ele>446.37</ele>
        <time>2018-07-27T05:51:55Z</time>
      </trkpt>
      <trkpt lat="43.02101" lon="0.61733">
        <ele>444.9</ele>
        <time>2018-07-27T05:51:56Z</time>
      </trkpt>
      <trkpt lat="43.02082" lon="0.6175">
        <ele>445.86</ele>
        <time>2018-07-27T05:51:57Z</time>
      </trkpt>
      <trkpt lat="43.02064" lon="0.61768">
        <ele>446.84</ele>
        <time>2018-07-27T05:51:58Z</time>
      </trkpt>
      <trkpt lat="43.02046" lon="0.61786">
        <ele>446.44</ele>
        <time>2018-07-27T05:51:59Z</time>
      </trkpt>
      <trkpt lat="43.02029" lon="0.61805">
        <ele>446.32</ele>
        <time>2018-07-27T05:52:00Z</time>
      </trkpt>
      <trkpt lat="43.02014" lon="0.61823">
        <ele>447.68</ele>
        <time>2018-07-27T05:52:01Z</time>
      </trkpt>
      <trkpt lat="43.02" lon="0.6184">
        <ele>448.09</ele>
        <time>2018-07-27T05:52:02Z</time>
      </trkpt>
      <trkpt lat="43.01987" lon="0.61858">
        <ele>448.91</ele>
        <time>2018-07-27T05:52:03Z</time>
      </trkpt>
      <trkpt lat="43.01973" lon="0.61877">
        <ele>449.16</ele>
        <time>2018-07-27T05:52:04Z</time>
      </trkpt>
      <trkpt lat="43.0196" lon="0.61896">
        <ele>449.94</ele>
        <time>2018-07-27T05:52:05Z</time>
      </trkpt>
      <trkpt lat="43.01947" lon="0.61915">
        <ele>450.17</ele>
        <time>2018-07-27T05:52:06Z</time>
      </trkpt>
      <trkpt lat="43.01933" lon="0.61933">
        <ele>450.24</ele>
        <time>2018-07-27T05:52:07Z</time>
      </trkpt>
      <trkpt lat="43.01919" lon="0.6195">
        <ele>450.96</ele>
        <time>2018-07-27T05:52:08Z</time>
      </trkpt>
      <trkpt lat="43.01904" lon="0.61966">
        <ele>450.47</ele>
        <time>2018-07-27T05:52:09Z</time>
      </trkpt>
      <trkpt lat="43.01886" lon="0.61972">
        <ele>451.03</ele>
        <time>2018-07-27T05:52:10Z</time>
      </trkpt>
      <trkpt lat="43.01868" lon="0.61979">
        <ele>450.5</ele>
        <time>2018-07-27T05:52:11Z</time>
      </trkpt>
      <trkpt lat="43.0185" lon="0.6198">
        <ele>450.34</ele>
        <time>2018-07-27T05:52:12Z</time>
      </trkpt>
      <trkpt lat="43.01832" lon="0.61975">
        <ele>450.99</ele>
        <time>2018-07-27T05:52:13Z</time>
      </trkpt>
      <trkpt lat="43.01813" lon="0.61968">
        <ele>451.18</ele>
        <time>2018-07-27T05:52:14Z</time>
      </trkpt>
      <trkpt lat="43.01797" lon="0.61956">
        <ele>451.24</ele>
        <time>2018-07-27T05:52:15Z</time>
      </trkpt>
      <trkpt lat="43.0177" lon="0.6192">
        <ele>451.96</ele>
        <time>2018-07-27T05:52:17Z</time>
      </trkpt>
      <trkpt lat="43.01755" lon="0.61902">
        <ele>452.18</ele>
        <time>2018-07-27T05:52:18Z</time>
      </trkpt>
      <trkpt lat="43.01726" lon="0.61873">
        <ele>452.26</ele>
        <time>2018-07-27T05:52:20Z</time>
      </trkpt>
      <trkpt lat="43.01712" lon="0.61856">
        <ele>451.56</ele>
        <time>2018-07-27T05:52:21Z</time>
      </trkpt>
      <trkpt lat="43.01696" lon="0.61842">
        <ele>452.06</ele>
        <time>2018-07-27T05:52:22Z</time>
      </trkpt>
      <trkpt lat="43.0168" lon="0.61827">
        <ele>452.2</ele>
        <time>2018-07-27T05:52:23Z</time>
      </trkpt>
      <trkpt lat="43.01664" lon="0.61811">
        <ele>452.25</ele>
        <time>2018-07-27T05:52:24Z</time>
      </trkpt>
      <trkpt lat="43.01648" lon="0.61794">
        <ele>452.96</ele>
        <time>2018-07-27T05:52:25Z</time>
      </trkpt>
      <trkpt lat="43.01631" lon="0.61778">
        <ele>452.48</ele>
        <time>2018-07-27T05:52:26Z</time>
      </trkpt>
      <trkpt lat="43.01615" lon="0.6176">
        <ele>451.63</ele>
        <time>2018-07-27T05:52:27Z</time>
      </trkpt>
      <trkpt lat="43.01598" lon="0.61745">
        <ele>450.68</ele>
        <time>2018-07-27T05:52:28Z</time>
      </trkpt>
      <trkpt lat="43.01581" lon="0.61729">
        <ele>450.39</ele>
        <time>2018-07-27T05:52:29Z</time>
      </trkpt>
      <trkpt lat="43.01565" lon="0.61714">
        <ele>450.3</ele>
        <time>2018-07-27T05:52:30Z</time>
      </trkpt>
      <trkpt lat="43.01548" lon="0.617">
        <ele>450.28</ele>
        <time>2018-07-27T05:52:31Z</time>
      </trkpt>
      <trkpt lat="43.01529" lon="0.61689">
        <ele>450.27</ele>
        <time>2018-07-27T05:52:32Z</time>
      </trkpt>
      <trkpt lat="43.01508" lon="0.61679">
        <ele>450.27</ele>
        <time>2018-07-27T05:52:33Z</time>
      </trkpt>
      <trkpt lat="43.01486" lon="0.61672">
        <ele>450.97</ele>
        <time>2018-07-27T05:52:34Z</time>
      </trkpt>
      <trkpt lat="43.01462" lon="0.61668">
        <ele>451.18</ele>
        <time>2018-07-27T05:52:35Z</time>
      </trkpt>
      <trkpt lat="43.0144" lon="0.61665">
        <ele>451.94</ele>
        <time>2018-07-27T05:52:36Z</time>
      </trkpt>
      <trkpt lat="43.01419" lon="0.61665">
        <ele>452.87</ele>
        <time>2018-07-27T05:52:37Z</time>
      </trkpt>
      <trkpt lat="43.01397" lon="0.61668">
        <ele>453.15</ele>
        <time>2018-07-27T05:52:38Z</time>
      </trkpt>
      <trkpt lat="43.01377" lon="0.61671">
        <ele>453.23</ele>
        <time>2018-07-27T05:52:39Z</time>
      </trkpt>
      <trkpt lat="43.01356" lon="0.61676">
        <ele>453.26</ele>
        <time>2018-07-27T05:52:40Z</time>
      </trkpt>
      <trkpt lat="43.01335" lon="0.6168">
        <ele>453.26</ele>
        <time>2018-07-27T05:52:41Z</time>
      </trkpt>
      <trkpt lat="43.01315" lon="0.61685">
        <ele>453.27</ele>
        <time>2018-07-27T05:52:42Z</time>
      </trkpt>
      <trkpt lat="43.01294" lon="0.61689">
        <ele>453.97</ele>
        <time>2018-07-27T05:52:43Z</time>
      </trkpt>
      <trkpt lat="43.01274" lon="0.61693">
        <ele>454.18</ele>
        <time>2018-07-27T05:52:44Z</time>
      </trkpt>
      <trkpt lat="43.01255" lon="0.61697">
        <ele>454.24</ele>
        <time>2018-07-27T05:52:45Z</time>
      </trkpt>
      <trkpt lat="43.01235" lon="0.61701">
        <ele>454.26</ele>
        <time>2018-07-27T05:52:46Z</time>
      </trkpt>
      <trkpt lat="43.01214" lon="0.61706">
        <ele>454.96</ele>
        <time>2018-07-27T05:52:47Z</time>
      </trkpt>
      <trkpt lat="43.01195" lon="0.61712">
        <ele>455.18</ele>
        <time>2018-07-27T05:52:48Z</time>
      </trkpt>
      <trkpt lat="43.01176" lon="0.61719">
        <ele>455.94</ele>
        <time>2018-07-27T05:52:49Z</time>
      </trkpt>
      <trkpt lat="43.01157" lon="0.61728">
        <ele>456.17</ele>
        <time>2018-07-27T05:52:50Z</time>
      </trkpt>
      <trkpt lat="43.01138" lon="0.6174">
        <ele>455.54</ele>
        <time>2018-07-27T05:52:51Z</time>
      </trkpt>
      <trkpt lat="43.01119" lon="0.61751">
        <ele>454.65</ele>
        <time>2018-07-27T05:52:52Z</time>
      </trkpt>
      <trkpt lat="43.01101" lon="0.61765">
        <ele>455.08</ele>
        <time>2018-07-27T05:52:53Z</time>
      </trkpt>
      <trkpt lat="43.01083" lon="0.61781">
        <ele>455.21</ele>
        <time>2018-07-27T05:52:54Z</time>
      </trkpt>
      <trkpt lat="43.01066" lon="0.61798">
        <ele>454.55</ele>
        <time>2018-07-27T05:52:55Z</time>
      </trkpt>
      <trkpt lat="43.0105" lon="0.61817">
        <ele>453.65</ele>
        <time>2018-07-27T05:52:56Z</time>
      </trkpt>
      <trkpt lat="43.01035" lon="0.61836">
        <ele>452.68</ele>
        <time>2018-07-27T05:52:57Z</time>
      </trkpt>
      <trkpt lat="43.0102" lon="0.61856">
        <ele>452.39</ele>
        <time>2018-07-27T05:52:58Z</time>
      </trkpt>
      <trkpt lat="43.01006" lon="0.61877">
        <ele>451.6</ele>
        <time>2018-07-27T05:52:59Z</time>
      </trkpt>
      <trkpt lat="43.00992" lon="0.61897">
        <ele>451.37</ele>
        <time>2018-07-27T05:53:00Z</time>
      </trkpt>
      <trkpt lat="43.00977" lon="0.61918">
        <ele>451.3</ele>
        <time>2018-07-27T05:53:01Z</time>
      </trkpt>
      <trkpt lat="43.00963" lon="0.61939">
        <ele>450.58</ele>
        <time>2018-07-27T05:53:02Z</time>
      </trkpt>
      <trkpt lat="43.0095" lon="0.61958">
        <ele>450.36</ele>
        <time>2018-07-27T05:53:03Z</time>
      </trkpt>
      <trkpt lat="43.00936" lon="0.61978">
        <ele>450.99</ele>
        <time>2018-07-27T05:53:04Z</time>
      </trkpt>
      <trkpt lat="43.00922" lon="0.61998">
        <ele>450.49</ele>
        <time>2018-07-27T05:53:05Z</time>
      </trkpt>
      <trkpt lat="43.00909" lon="0.62018">
        <ele>451.03</ele>
        <time>2018-07-27T05:53:06Z</time>
      </trkpt>
      <trkpt lat="43.00895" lon="0.62038">
        <ele>451.2</ele>
        <time>2018-07-27T05:53:07Z</time>
      </trkpt>
      <trkpt lat="43.00882" lon="0.62058">
        <ele>451.25</ele>
        <time>2018-07-27T05:53:08Z</time>
      </trkpt>
      <trkpt lat="43.00868" lon="0.62078">
        <ele>451.26</ele>
        <time>2018-07-27T05:53:09Z</time>
      </trkpt>
      <trkpt lat="43.00854" lon="0.62099">
        <ele>451.27</ele>
        <time>2018-07-27T05:53:10Z</time>
      </trkpt>
      <trkpt lat="43.00839" lon="0.62121">
        <ele>451.97</ele>
        <time>2018-07-27T05:53:11Z</time>
      </trkpt>
      <trkpt lat="43.00824" lon="0.62144">
        <ele>451.48</ele>
        <time>2018-07-27T05:53:12Z</time>
      </trkpt>
      <trkpt lat="43.00806" lon="0.6217">
        <ele>452.03</ele>
        <time>2018-07-27T05:53:13Z</time>
      </trkpt>
      <trkpt lat="43.00789" lon="0.62195">
        <ele>452.2</ele>
        <time>2018-07-27T05:53:14Z</time>
      </trkpt>
      <trkpt lat="43.0077" lon="0.62221">
        <ele>452.95</ele>
        <time>2018-07-27T05:53:15Z</time>
      </trkpt>
      <trkpt lat="43.00752" lon="0.62244">
        <ele>453.87</ele>
        <time>2018-07-27T05:53:16Z</time>
      </trkpt>
      <trkpt lat="43.00735" lon="0.62266">
        <ele>454.15</ele>
        <time>2018-07-27T05:53:17Z</time>
      </trkpt>
      <trkpt lat="43.00719" lon="0.62285">
        <ele>453.53</ele>
        <time>2018-07-27T05:53:18Z</time>
      </trkpt>
      <trkpt lat="43.00701" lon="0.62302">
        <ele>453.35</ele>
        <time>2018-07-27T05:53:19Z</time>
      </trkpt>
      <trkpt lat="43.00684" lon="0.62316">
        <ele>453.29</ele>
        <time>2018-07-27T05:53:20Z</time>
      </trkpt>
      <trkpt lat="43.00665" lon="0.6233">
        <ele>453.27</ele>
        <time>2018-07-27T05:53:21Z</time>
      </trkpt>
      <trkpt lat="43.00644" lon="0.62343">
        <ele>453.27</ele>
        <time>2018-07-27T05:53:22Z</time>
      </trkpt>
      <trkpt lat="43.00622" lon="0.62357">
        <ele>451.87</ele>
        <time>2018-07-27T05:53:23Z</time>
      </trkpt>
      <trkpt lat="43.00598" lon="0.62372">
        <ele>450.75</ele>
        <time>2018-07-27T05:53:24Z</time>
      </trkpt>
      <trkpt lat="43.00575" lon="0.62385">
        <ele>450.41</ele>
        <time>2018-07-27T05:53:25Z</time>
      </trkpt>
      <trkpt lat="43.00554" lon="0.62398">
        <ele>448.91</ele>
        <time>2018-07-27T05:53:26Z</time>
      </trkpt>
      <trkpt lat="43.00536" lon="0.62409">
        <ele>447.76</ele>
        <time>2018-07-27T05:53:27Z</time>
      </trkpt>
      <trkpt lat="43.00516" lon="0.6242">
        <ele>446.71</ele>
        <time>2018-07-27T05:53:28Z</time>
      </trkpt>
      <trkpt lat="43.00498" lon="0.62432">
        <ele>446.4</ele>
        <time>2018-07-27T05:53:29Z</time>
      </trkpt>
      <trkpt lat="43.00478" lon="0.62444">
        <ele>445.61</ele>
        <time>2018-07-27T05:53:30Z</time>
      </trkpt>
      <trkpt lat="43.00459" lon="0.62455">
        <ele>445.37</ele>
        <time>2018-07-27T05:53:31Z</time>
      </trkpt>
      <trkpt lat="43.0044" lon="0.62467">
        <ele>444.6</ele>
        <time>2018-07-27T05:53:32Z</time>
      </trkpt>
      <trkpt lat="43.00421" lon="0.6248">
        <ele>444.37</ele>
        <time>2018-07-27T05:53:33Z</time>
      </trkpt>
      <trkpt lat="43.00402" lon="0.62493">
        <ele>444.3</ele>
        <time>2018-07-27T05:53:34Z</time>
      </trkpt>
      <trkpt lat="43.00383" lon="0.62505">
        <ele>444.28</ele>
        <time>2018-07-27T05:53:35Z</time>
      </trkpt>
      <trkpt lat="43.00363" lon="0.62516">
        <ele>444.97</ele>
        <time>2018-07-27T05:53:36Z</time>
      </trkpt>
      <trkpt lat="43.00343" lon="0.62528">
        <ele>445.18</ele>
        <time>2018-07-27T05:53:37Z</time>
      </trkpt>
      <trkpt lat="43.00322" lon="0.62531">
        <ele>445.94</ele>
        <time>2018-07-27T05:53:38Z</time>
      </trkpt>
      <trkpt lat="43.00302" lon="0.62535">
        <ele>446.17</ele>
        <time>2018-07-27T05:53:39Z</time>
      </trkpt>
      <trkpt lat="43.00279" lon="0.62539">
        <ele>446.24</ele>
        <time>2018-07-27T05:53:40Z</time>
      </trkpt>
      <trkpt lat="43.00258" lon="0.62544">
        <ele>446.26</ele>
        <time>2018-07-27T05:53:41Z</time>
      </trkpt>
      <trkpt lat="43.00238" lon="0.6255">
        <ele>446.96</ele>
        <time>2018-07-27T05:53:42Z</time>
      </trkpt>
      <trkpt lat="43.0022" lon="0.6256">
        <ele>446.48</ele>
        <time>2018-07-27T05:53:43Z</time>
      </trkpt>
      <trkpt lat="43.00205" lon="0.62579">
        <ele>444.23</ele>
        <time>2018-07-27T05:53:44Z</time>
      </trkpt>
      <trkpt lat="43.00191" lon="0.62598">
        <ele>444.96</ele>
        <time>2018-07-27T05:53:45Z</time>
      </trkpt>
      <trkpt lat="43.00176" lon="0.62618">
        <ele>445.87</ele>
        <time>2018-07-27T05:53:46Z</time>
      </trkpt>
      <trkpt lat="43.00161" lon="0.62639">
        <ele>446.15</ele>
        <time>2018-07-27T05:53:47Z</time>
      </trkpt>
      <trkpt lat="43.00146" lon="0.62659">
        <ele>446.23</ele>
        <time>2018-07-27T05:53:48Z</time>
      </trkpt>
      <trkpt lat="43.0013" lon="0.62679">
        <ele>446.26</ele>
        <time>2018-07-27T05:53:49Z</time>
      </trkpt>
      <trkpt lat="43.00113" lon="0.62696">
        <ele>446.26</ele>
        <time>2018-07-27T05:53:50Z</time>
      </trkpt>
      <trkpt lat="43.00096" lon="0.62714">
        <ele>446.97</ele>
        <time>2018-07-27T05:53:51Z</time>
      </trkpt>
      <trkpt lat="43.00077" lon="0.62729">
        <ele>447.18</ele>
        <time>2018-07-27T05:53:52Z</time>
      </trkpt>
      <trkpt lat="43.00057" lon="0.62745">
        <ele>447.24</ele>
        <time>2018-07-27T05:53:53Z</time>
      </trkpt>
      <trkpt lat="43.00038" lon="0.6276">
        <ele>447.96</ele>
        <time>2018-07-27T05:53:54Z</time>
      </trkpt>
      <trkpt lat="43.00018" lon="0.62773">
        <ele>448.17</ele>
        <time>2018-07-27T05:53:55Z</time>
      </trkpt>
      <trkpt lat="42.99998" lon="0.62785">
        <ele>449.64</ele>
        <time>2018-07-27T05:53:56Z</time>
      </trkpt>
      <trkpt lat="42.99978" lon="0.62796">
        <ele>450.78</ele>
        <time>2018-07-27T05:53:57Z</time>
      </trkpt>
      <trkpt lat="42.99957" lon="0.62808">
        <ele>451.82</ele>
        <time>2018-07-27T05:53:58Z</time>
      </trkpt>
      <trkpt lat="42.99936" lon="0.62819">
        <ele>452.83</ele>
        <time>2018-07-27T05:53:59Z</time>
      </trkpt>
      <trkpt lat="42.99917" lon="0.62831">
        <ele>451.74</ele>
        <time>2018-07-27T05:54:00Z</time>
      </trkpt>
      <trkpt lat="42.99897" lon="0.62842">
        <ele>451.41</ele>
        <time>2018-07-27T05:54:01Z</time>
      </trkpt>
      <trkpt lat="42.99877" lon="0.62854">
        <ele>450.61</ele>
        <time>2018-07-27T05:54:02Z</time>
      </trkpt>
      <trkpt lat="42.99857" lon="0.62865">
        <ele>450.37</ele>
        <time>2018-07-27T05:54:03Z</time>
      </trkpt>
      <trkpt lat="42.99837" lon="0.62877">
        <ele>448.9</ele>
        <time>2018-07-27T05:54:04Z</time>
      </trkpt>
      <trkpt lat="42.99817" lon="0.62887">
        <ele>448.46</ele>
        <time>2018-07-27T05:54:05Z</time>
      </trkpt>
      <trkpt lat="42.99797" lon="0.62897">
        <ele>449.02</ele>
        <time>2018-07-27T05:54:06Z</time>
      </trkpt>
      <trkpt lat="42.99777" lon="0.62908">
        <ele>449.19</ele>
        <time>2018-07-27T05:54:07Z</time>
      </trkpt>
      <trkpt lat="42.99757" lon="0.62918">
        <ele>449.95</ele>
        <time>2018-07-27T05:54:08Z</time>
      </trkpt>
      <trkpt lat="42.99738" lon="0.62929">
        <ele>450.17</ele>
        <time>2018-07-27T05:54:09Z</time>
      </trkpt>
      <trkpt lat="42.99718" lon="0.62939">
        <ele>450.94</ele>
        <time>2018-07-27T05:54:10Z</time>
      </trkpt>
      <trkpt lat="42.99698" lon="0.62949">
        <ele>451.17</ele>
        <time>2018-07-27T05:54:11Z</time>
      </trkpt>
      <trkpt lat="42.99679" lon="0.6296">
        <ele>450.54</ele>
        <time>2018-07-27T05:54:12Z</time>
      </trkpt>
      <trkpt lat="42.99658" lon="0.6297">
        <ele>449.65</ele>
        <time>2018-07-27T05:54:13Z</time>
      </trkpt>
      <trkpt lat="42.99639" lon="0.62981">
        <ele>450.08</ele>
        <time>2018-07-27T05:54:14Z</time>
      </trkpt>
      <trkpt lat="42.9962" lon="0.62992">
        <ele>449.51</ele>
        <time>2018-07-27T05:54:15Z</time>
      </trkpt>
      <trkpt lat="42.996" lon="0.63002">
        <ele>448.64</ele>
        <time>2018-07-27T05:54:16Z</time>
      </trkpt>
      <trkpt lat="42.99581" lon="0.63012">
        <ele>449.08</ele>
        <time>2018-07-27T05:54:17Z</time>
      </trkpt>
      <trkpt lat="42.99562" lon="0.63022">
        <ele>448.51</ele>
        <time>2018-07-27T05:54:18Z</time>
      </trkpt>
      <trkpt lat="42.99544" lon="0.63032">
        <ele>448.34</ele>
        <time>2018-07-27T05:54:19Z</time>
      </trkpt>
      <trkpt lat="42.99526" lon="0.63042">
        <ele>447.59</ele>
        <time>2018-07-27T05:54:20Z</time>
      </trkpt>
      <trkpt lat="42.99493" lon="0.63061">
        <ele>447.09</ele>
        <time>2018-07-27T05:54:22Z</time>
      </trkpt>
      <trkpt lat="42.9946" lon="0.63077">
        <ele>447.25</ele>
        <time>2018-07-27T05:54:24Z</time>
      </trkpt>
      <trkpt lat="42.99433" lon="0.63091">
        <ele>449.09</ele>
        <time>2018-07-27T05:54:26Z</time>
      </trkpt>
      <trkpt lat="42.99407" lon="0.63095">
        <ele>449.25</ele>
        <time>2018-07-27T05:54:28Z</time>
      </trkpt>
      <trkpt lat="42.99382" lon="0.63092">
        <ele>449.27</ele>
        <time>2018-07-27T05:54:30Z</time>
      </trkpt>
      <trkpt lat="42.9936" lon="0.63089">
        <ele>449.97</ele>
        <time>2018-07-27T05:54:32Z</time>
      </trkpt>
      <trkpt lat="42.99338" lon="0.63082">
        <ele>450.24</ele>
        <time>2018-07-27T05:54:34Z</time>
      </trkpt>
      <trkpt lat="42.99313" lon="0.63068">
        <ele>450.47</ele>
        <time>2018-07-27T05:54:36Z</time>
      </trkpt>
      <trkpt lat="42.99285" lon="0.63045">
        <ele>451.9</ele>
        <time>2018-07-27T05:54:38Z</time>
      </trkpt>
      <trkpt lat="42.99255" lon="0.63023">
        <ele>452.44</ele>
        <time>2018-07-27T05:54:40Z</time>
      </trkpt>
      <trkpt lat="42.99221" lon="0.6301">
        <ele>452.7</ele>
        <time>2018-07-27T05:54:42Z</time>
      </trkpt>
      <trkpt lat="42.99203" lon="0.63008">
        <ele>453.1</ele>
        <time>2018-07-27T05:54:43Z</time>
      </trkpt>
      <trkpt lat="42.99169" lon="0.63013">
        <ele>454.86</ele>
        <time>2018-07-27T05:54:45Z</time>
      </trkpt>
      <trkpt lat="42.99135" lon="0.63019">
        <ele>455.23</ele>
        <time>2018-07-27T05:54:47Z</time>
      </trkpt>
      <trkpt lat="42.99107" lon="0.63024">
        <ele>456.17</ele>
        <time>2018-07-27T05:54:49Z</time>
      </trkpt>
      <trkpt lat="42.9908" lon="0.6303">
        <ele>458.08</ele>
        <time>2018-07-27T05:54:51Z</time>
      </trkpt>
      <trkpt lat="42.99053" lon="0.63033">
        <ele>459.86</ele>
        <time>2018-07-27T05:54:53Z</time>
      </trkpt>
      <trkpt lat="42.99028" lon="0.63036">
        <ele>461.14</ele>
        <time>2018-07-27T05:54:55Z</time>
      </trkpt>
      <trkpt lat="42.99002" lon="0.6304">
        <ele>461.26</ele>
        <time>2018-07-27T05:54:57Z</time>
      </trkpt>
      <trkpt lat="42.98978" lon="0.63045">
        <ele>461.48</ele>
        <time>2018-07-27T05:54:59Z</time>
      </trkpt>
      <trkpt lat="42.98952" lon="0.63052">
        <ele>461.99</ele>
        <time>2018-07-27T05:55:01Z</time>
      </trkpt>
      <trkpt lat="42.98924" lon="0.63063">
        <ele>462.94</ele>
        <time>2018-07-27T05:55:03Z</time>
      </trkpt>
      <trkpt lat="42.98898" lon="0.63076">
        <ele>463.45</ele>
        <time>2018-07-27T05:55:05Z</time>
      </trkpt>
      <trkpt lat="42.98872" lon="0.63093">
        <ele>462.16</ele>
        <time>2018-07-27T05:55:07Z</time>
      </trkpt>
      <trkpt lat="42.98848" lon="0.63115">
        <ele>460.86</ele>
        <time>2018-07-27T05:55:09Z</time>
      </trkpt>
      <trkpt lat="42.98825" lon="0.63147">
        <ele>457.1</ele>
        <time>2018-07-27T05:55:11Z</time>
      </trkpt>
      <trkpt lat="42.98812" lon="0.63167">
        <ele>456.52</ele>
        <time>2018-07-27T05:55:12Z</time>
      </trkpt>
      <trkpt lat="42.98796" lon="0.63192">
        <ele>456.34</ele>
        <time>2018-07-27T05:55:13Z</time>
      </trkpt>
      <trkpt lat="42.98782" lon="0.63218">
        <ele>456.29</ele>
        <time>2018-07-27T05:55:14Z</time>
      </trkpt>
      <trkpt lat="42.98767" lon="0.63241">
        <ele>456.97</ele>
        <time>2018-07-27T05:55:15Z</time>
      </trkpt>
      <trkpt lat="42.98753" lon="0.63264">
        <ele>457.18</ele>
        <time>2018-07-27T05:55:16Z</time>
      </trkpt>
      <trkpt lat="42.9874" lon="0.63287">
        <ele>455.84</ele>
        <time>2018-07-27T05:55:17Z</time>
      </trkpt>
      <trkpt lat="42.98728" lon="0.63309">
        <ele>455.44</ele>
        <time>2018-07-27T05:55:18Z</time>
      </trkpt>
      <trkpt lat="42.98715" lon="0.6333">
        <ele>455.32</ele>
        <time>2018-07-27T05:55:19Z</time>
      </trkpt>
      <trkpt lat="42.98703" lon="0.6335">
        <ele>455.28</ele>
        <time>2018-07-27T05:55:20Z</time>
      </trkpt>
      <trkpt lat="42.98691" lon="0.63374">
        <ele>455.27</ele>
        <time>2018-07-27T05:55:21Z</time>
      </trkpt>
      <trkpt lat="42.98676" lon="0.63401">
        <ele>455.97</ele>
        <time>2018-07-27T05:55:22Z</time>
      </trkpt>
      <trkpt lat="42.98661" lon="0.63428">
        <ele>455.48</ele>
        <time>2018-07-27T05:55:23Z</time>
      </trkpt>
      <trkpt lat="42.98645" lon="0.63453">
        <ele>456.03</ele>
        <time>2018-07-27T05:55:24Z</time>
      </trkpt>
      <trkpt lat="42.9863" lon="0.63477">
        <ele>456.2</ele>
        <time>2018-07-27T05:55:25Z</time>
      </trkpt>
      <trkpt lat="42.98616" lon="0.635">
        <ele>456.25</ele>
        <time>2018-07-27T05:55:26Z</time>
      </trkpt>
      <trkpt lat="42.98601" lon="0.63525">
        <ele>456.26</ele>
        <time>2018-07-27T05:55:27Z</time>
      </trkpt>
      <trkpt lat="42.98587" lon="0.63548">
        <ele>456.97</ele>
        <time>2018-07-27T05:55:28Z</time>
      </trkpt>
      <trkpt lat="42.98573" lon="0.63572">
        <ele>457.18</ele>
        <time>2018-07-27T05:55:29Z</time>
      </trkpt>
      <trkpt lat="42.98559" lon="0.63595">
        <ele>457.24</ele>
        <time>2018-07-27T05:55:30Z</time>
      </trkpt>
      <trkpt lat="42.98544" lon="0.63618">
        <ele>457.26</ele>
        <time>2018-07-27T05:55:31Z</time>
      </trkpt>
      <trkpt lat="42.98529" lon="0.63639">
        <ele>456.56</ele>
        <time>2018-07-27T05:55:32Z</time>
      </trkpt>
      <trkpt lat="42.98513" lon="0.63659">
        <ele>456.36</ele>
        <time>2018-07-27T05:55:33Z</time>
      </trkpt>
      <trkpt lat="42.98497" lon="0.63681">
        <ele>454.89</ele>
        <time>2018-07-27T05:55:34Z</time>
      </trkpt>
      <trkpt lat="42.98479" lon="0.63699">
        <ele>454.46</ele>
        <time>2018-07-27T05:55:35Z</time>
      </trkpt>
      <trkpt lat="42.9846" lon="0.63716">
        <ele>454.32</ele>
        <time>2018-07-27T05:55:36Z</time>
      </trkpt>
      <trkpt lat="42.9844" lon="0.63732">
        <ele>453.58</ele>
        <time>2018-07-27T05:55:37Z</time>
      </trkpt>
      <trkpt lat="42.98419" lon="0.63746">
        <ele>454.06</ele>
        <time>2018-07-27T05:55:38Z</time>
      </trkpt>
      <trkpt lat="42.984" lon="0.63759">
        <ele>454.21</ele>
        <time>2018-07-27T05:55:39Z</time>
      </trkpt>
      <trkpt lat="42.9838" lon="0.63772">
        <ele>454.25</ele>
        <time>2018-07-27T05:55:40Z</time>
      </trkpt>
      <trkpt lat="42.9836" lon="0.63786">
        <ele>454.26</ele>
        <time>2018-07-27T05:55:41Z</time>
      </trkpt>
      <trkpt lat="42.9834" lon="0.638">
        <ele>454.27</ele>
        <time>2018-07-27T05:55:42Z</time>
      </trkpt>
      <trkpt lat="42.98321" lon="0.63815">
        <ele>454.27</ele>
        <time>2018-07-27T05:55:43Z</time>
      </trkpt>
      <trkpt lat="42.98303" lon="0.63831">
        <ele>453.57</ele>
        <time>2018-07-27T05:55:44Z</time>
      </trkpt>
      <trkpt lat="42.98285" lon="0.6385">
        <ele>453.36</ele>
        <time>2018-07-27T05:55:45Z</time>
      </trkpt>
      <trkpt lat="42.9827" lon="0.6387">
        <ele>452.59</ele>
        <time>2018-07-27T05:55:46Z</time>
      </trkpt>
      <trkpt lat="42.98253" lon="0.6389">
        <ele>452.37</ele>
        <time>2018-07-27T05:55:47Z</time>
      </trkpt>
      <trkpt lat="42.98237" lon="0.63909">
        <ele>452.3</ele>
        <time>2018-07-27T05:55:48Z</time>
      </trkpt>
      <trkpt lat="42.9822" lon="0.63929">
        <ele>452.28</ele>
        <time>2018-07-27T05:55:49Z</time>
      </trkpt>
      <trkpt lat="42.98203" lon="0.63948">
        <ele>452.27</ele>
        <time>2018-07-27T05:55:50Z</time>
      </trkpt>
      <trkpt lat="42.98186" lon="0.63967">
        <ele>451.57</ele>
        <time>2018-07-27T05:55:51Z</time>
      </trkpt>
      <trkpt lat="42.98167" lon="0.63985">
        <ele>451.36</ele>
        <time>2018-07-27T05:55:52Z</time>
      </trkpt>
      <trkpt lat="42.98148" lon="0.64">
        <ele>451.29</ele>
        <time>2018-07-27T05:55:53Z</time>
      </trkpt>
      <trkpt lat="42.98128" lon="0.64014">
        <ele>451.28</ele>
        <time>2018-07-27T05:55:54Z</time>
      </trkpt>
      <trkpt lat="42.98108" lon="0.64025">
        <ele>451.27</ele>
        <time>2018-07-27T05:55:55Z</time>
      </trkpt>
      <trkpt lat="42.98087" lon="0.64034">
        <ele>450.57</ele>
        <time>2018-07-27T05:55:56Z</time>
      </trkpt>
      <trkpt lat="42.98067" lon="0.64043">
        <ele>450.36</ele>
        <time>2018-07-27T05:55:57Z</time>
      </trkpt>
      <trkpt lat="42.98046" lon="0.64054">
        <ele>450.29</ele>
        <time>2018-07-27T05:55:58Z</time>
      </trkpt>
      <trkpt lat="42.98028" lon="0.64064">
        <ele>450.98</ele>
        <time>2018-07-27T05:55:59Z</time>
      </trkpt>
      <trkpt lat="42.98009" lon="0.64077">
        <ele>450.48</ele>
        <time>2018-07-27T05:56:00Z</time>
      </trkpt>
      <trkpt lat="42.9799" lon="0.64092">
        <ele>451.73</ele>
        <time>2018-07-27T05:56:01Z</time>
      </trkpt>
      <trkpt lat="42.97971" lon="0.6411">
        <ele>451.41</ele>
        <time>2018-07-27T05:56:02Z</time>
      </trkpt>
      <trkpt lat="42.97954" lon="0.6413">
        <ele>451.31</ele>
        <time>2018-07-27T05:56:03Z</time>
      </trkpt>
      <trkpt lat="42.97939" lon="0.64151">
        <ele>451.98</ele>
        <time>2018-07-27T05:56:04Z</time>
      </trkpt>
      <trkpt lat="42.97925" lon="0.64174">
        <ele>452.18</ele>
        <time>2018-07-27T05:56:05Z</time>
      </trkpt>
      <trkpt lat="42.97911" lon="0.64198">
        <ele>452.94</ele>
        <time>2018-07-27T05:56:06Z</time>
      </trkpt>
      <trkpt lat="42.97897" lon="0.64222">
        <ele>452.47</ele>
        <time>2018-07-27T05:56:07Z</time>
      </trkpt>
      <trkpt lat="42.97884" lon="0.64247">
        <ele>453.03</ele>
        <time>2018-07-27T05:56:08Z</time>
      </trkpt>
      <trkpt lat="42.97872" lon="0.64273">
        <ele>452.5</ele>
        <time>2018-07-27T05:56:09Z</time>
      </trkpt>
      <trkpt lat="42.97862" lon="0.643">
        <ele>452.34</ele>
        <time>2018-07-27T05:56:10Z</time>
      </trkpt>
      <trkpt lat="42.97852" lon="0.64327">
        <ele>451.59</ele>
        <time>2018-07-27T05:56:11Z</time>
      </trkpt>
      <trkpt lat="42.97842" lon="0.64352">
        <ele>452.06</ele>
        <time>2018-07-27T05:56:12Z</time>
      </trkpt>
      <trkpt lat="42.97828" lon="0.64376">
        <ele>452.91</ele>
        <time>2018-07-27T05:56:13Z</time>
      </trkpt>
      <trkpt lat="42.97816" lon="0.64399">
        <ele>452.46</ele>
        <time>2018-07-27T05:56:14Z</time>
      </trkpt>
      <trkpt lat="42.97803" lon="0.64423">
        <ele>453.72</ele>
        <time>2018-07-27T05:56:15Z</time>
      </trkpt>
      <trkpt lat="42.9779" lon="0.64444">
        <ele>453.4</ele>
        <time>2018-07-27T05:56:16Z</time>
      </trkpt>
      <trkpt lat="42.97774" lon="0.64463">
        <ele>453.31</ele>
        <time>2018-07-27T05:56:17Z</time>
      </trkpt>
      <trkpt lat="42.97757" lon="0.64481">
        <ele>453.28</ele>
        <time>2018-07-27T05:56:18Z</time>
      </trkpt>
      <trkpt lat="42.97739" lon="0.64498">
        <ele>453.97</ele>
        <time>2018-07-27T05:56:19Z</time>
      </trkpt>
      <trkpt lat="42.97721" lon="0.64511">
        <ele>454.88</ele>
        <time>2018-07-27T05:56:20Z</time>
      </trkpt>
      <trkpt lat="42.97702" lon="0.64523">
        <ele>454.45</ele>
        <time>2018-07-27T05:56:21Z</time>
      </trkpt>
      <trkpt lat="42.97683" lon="0.64534">
        <ele>455.02</ele>
        <time>2018-07-27T05:56:22Z</time>
      </trkpt>
      <trkpt lat="42.97662" lon="0.64542">
        <ele>455.89</ele>
        <time>2018-07-27T05:56:23Z</time>
      </trkpt>
      <trkpt lat="42.97642" lon="0.64546">
        <ele>455.45</ele>
        <time>2018-07-27T05:56:24Z</time>
      </trkpt>
      <trkpt lat="42.9762" lon="0.6455">
        <ele>456.72</ele>
        <time>2018-07-27T05:56:25Z</time>
      </trkpt>
      <trkpt lat="42.97601" lon="0.64556">
        <ele>457.1</ele>
        <time>2018-07-27T05:56:26Z</time>
      </trkpt>
      <trkpt lat="42.97581" lon="0.64563">
        <ele>457.22</ele>
        <time>2018-07-27T05:56:27Z</time>
      </trkpt>
      <trkpt lat="42.97561" lon="0.64573">
        <ele>457.95</ele>
        <time>2018-07-27T05:56:28Z</time>
      </trkpt>
      <trkpt lat="42.97543" lon="0.64583">
        <ele>458.17</ele>
        <time>2018-07-27T05:56:29Z</time>
      </trkpt>
      <trkpt lat="42.97525" lon="0.64595">
        <ele>458.24</ele>
        <time>2018-07-27T05:56:30Z</time>
      </trkpt>
      <trkpt lat="42.97506" lon="0.64609">
        <ele>458.26</ele>
        <time>2018-07-27T05:56:31Z</time>
      </trkpt>
      <trkpt lat="42.97488" lon="0.64623">
        <ele>458.26</ele>
        <time>2018-07-27T05:56:32Z</time>
      </trkpt>
      <trkpt lat="42.9747" lon="0.64638">
        <ele>457.57</ele>
        <time>2018-07-27T05:56:33Z</time>
      </trkpt>
      <trkpt lat="42.97452" lon="0.64651">
        <ele>457.36</ele>
        <time>2018-07-27T05:56:34Z</time>
      </trkpt>
      <trkpt lat="42.97433" lon="0.64664">
        <ele>457.99</ele>
        <time>2018-07-27T05:56:35Z</time>
      </trkpt>
      <trkpt lat="42.97414" lon="0.64675">
        <ele>457.49</ele>
        <time>2018-07-27T05:56:36Z</time>
      </trkpt>
      <trkpt lat="42.97394" lon="0.64685">
        <ele>458.03</ele>
        <time>2018-07-27T05:56:37Z</time>
      </trkpt>
      <trkpt lat="42.97374" lon="0.64692">
        <ele>458.2</ele>
        <time>2018-07-27T05:56:38Z</time>
      </trkpt>
      <trkpt lat="42.97354" lon="0.64698">
        <ele>458.25</ele>
        <time>2018-07-27T05:56:39Z</time>
      </trkpt>
      <trkpt lat="42.97333" lon="0.64702">
        <ele>458.96</ele>
        <time>2018-07-27T05:56:40Z</time>
      </trkpt>
      <trkpt lat="42.97311" lon="0.64705">
        <ele>459.88</ele>
        <time>2018-07-27T05:56:41Z</time>
      </trkpt>
      <trkpt lat="42.9729" lon="0.64706">
        <ele>460.15</ele>
        <time>2018-07-27T05:56:42Z</time>
      </trkpt>
      <trkpt lat="42.97269" lon="0.64705">
        <ele>460.23</ele>
        <time>2018-07-27T05:56:43Z</time>
      </trkpt>
      <trkpt lat="42.97247" lon="0.64704">
        <ele>460.26</ele>
        <time>2018-07-27T05:56:44Z</time>
      </trkpt>
      <trkpt lat="42.97224" lon="0.64703">
        <ele>460.96</ele>
        <time>2018-07-27T05:56:45Z</time>
      </trkpt>
      <trkpt lat="42.97202" lon="0.64704">
        <ele>461.18</ele>
        <time>2018-07-27T05:56:46Z</time>
      </trkpt>
      <trkpt lat="42.97179" lon="0.64705">
        <ele>461.94</ele>
        <time>2018-07-27T05:56:47Z</time>
      </trkpt>
      <trkpt lat="42.97156" lon="0.64708">
        <ele>462.87</ele>
        <time>2018-07-27T05:56:48Z</time>
      </trkpt>
      <trkpt lat="42.97133" lon="0.64708">
        <ele>463.85</ele>
        <time>2018-07-27T05:56:49Z</time>
      </trkpt>
      <trkpt lat="42.97111" lon="0.64706">
        <ele>464.14</ele>
        <time>2018-07-27T05:56:50Z</time>
      </trkpt>
      <trkpt lat="42.97089" lon="0.64706">
        <ele>464.23</ele>
        <time>2018-07-27T05:56:51Z</time>
      </trkpt>
      <trkpt lat="42.97068" lon="0.64706">
        <ele>463.56</ele>
        <time>2018-07-27T05:56:52Z</time>
      </trkpt>
      <trkpt lat="42.97046" lon="0.64705">
        <ele>464.05</ele>
        <time>2018-07-27T05:56:53Z</time>
      </trkpt>
      <trkpt lat="42.97025" lon="0.64705">
        <ele>464.2</ele>
        <time>2018-07-27T05:56:54Z</time>
      </trkpt>
      <trkpt lat="42.97004" lon="0.64704">
        <ele>464.95</ele>
        <time>2018-07-27T05:56:55Z</time>
      </trkpt>
      <trkpt lat="42.96983" lon="0.64705">
        <ele>465.17</ele>
        <time>2018-07-27T05:56:56Z</time>
      </trkpt>
      <trkpt lat="42.96963" lon="0.64704">
        <ele>464.54</ele>
        <time>2018-07-27T05:56:57Z</time>
      </trkpt>
      <trkpt lat="42.96944" lon="0.64698">
        <ele>465.05</ele>
        <time>2018-07-27T05:56:58Z</time>
      </trkpt>
      <trkpt lat="42.96923" lon="0.64699">
        <ele>465.2</ele>
        <time>2018-07-27T05:56:59Z</time>
      </trkpt>
      <trkpt lat="42.96902" lon="0.647">
        <ele>465.95</ele>
        <time>2018-07-27T05:57:00Z</time>
      </trkpt>
      <trkpt lat="42.96879" lon="0.64706">
        <ele>465.47</ele>
        <time>2018-07-27T05:57:01Z</time>
      </trkpt>
      <trkpt lat="42.96859" lon="0.64703">
        <ele>464.63</ele>
        <time>2018-07-27T05:57:02Z</time>
      </trkpt>
      <trkpt lat="42.96837" lon="0.64707">
        <ele>464.38</ele>
        <time>2018-07-27T05:57:03Z</time>
      </trkpt>
      <trkpt lat="42.96817" lon="0.64706">
        <ele>463.6</ele>
        <time>2018-07-27T05:57:04Z</time>
      </trkpt>
      <trkpt lat="42.96794" lon="0.6471">
        <ele>463.37</ele>
        <time>2018-07-27T05:57:05Z</time>
      </trkpt>
      <trkpt lat="42.96775" lon="0.64704">
        <ele>463.3</ele>
        <time>2018-07-27T05:57:06Z</time>
      </trkpt>
      <trkpt lat="42.96754" lon="0.64703">
        <ele>463.28</ele>
        <time>2018-07-27T05:57:07Z</time>
      </trkpt>
      <trkpt lat="42.96732" lon="0.64703">
        <ele>463.27</ele>
        <time>2018-07-27T05:57:08Z</time>
      </trkpt>
      <trkpt lat="42.96711" lon="0.64703">
        <ele>463.27</ele>
        <time>2018-07-27T05:57:09Z</time>
      </trkpt>
      <trkpt lat="42.96689" lon="0.64706">
        <ele>464.67</ele>
        <time>2018-07-27T05:57:10Z</time>
      </trkpt>
      <trkpt lat="42.96667" lon="0.64709">
        <ele>465.79</ele>
        <time>2018-07-27T05:57:11Z</time>
      </trkpt>
      <trkpt lat="42.96647" lon="0.64709">
        <ele>466.12</ele>
        <time>2018-07-27T05:57:12Z</time>
      </trkpt>
      <trkpt lat="42.96625" lon="0.64714">
        <ele>466.22</ele>
        <time>2018-07-27T05:57:13Z</time>
      </trkpt>
      <trkpt lat="42.96606" lon="0.64714">
        <ele>467.65</ele>
        <time>2018-07-27T05:57:14Z</time>
      </trkpt>
      <trkpt lat="42.96584" lon="0.64715">
        <ele>468.78</ele>
        <time>2018-07-27T05:57:15Z</time>
      </trkpt>
      <trkpt lat="42.96563" lon="0.64719">
        <ele>469.82</ele>
        <time>2018-07-27T05:57:16Z</time>
      </trkpt>
      <trkpt lat="42.96541" lon="0.64723">
        <ele>470.13</ele>
        <time>2018-07-27T05:57:17Z</time>
      </trkpt>
      <trkpt lat="42.9652" lon="0.64725">
        <ele>470.23</ele>
        <time>2018-07-27T05:57:18Z</time>
      </trkpt>
      <trkpt lat="42.96499" lon="0.64729">
        <ele>469.55</ele>
        <time>2018-07-27T05:57:19Z</time>
      </trkpt>
      <trkpt lat="42.96478" lon="0.64733">
        <ele>469.35</ele>
        <time>2018-07-27T05:57:20Z</time>
      </trkpt>
      <trkpt lat="42.96457" lon="0.64737">
        <ele>469.29</ele>
        <time>2018-07-27T05:57:21Z</time>
      </trkpt>
      <trkpt lat="42.96436" lon="0.64742">
        <ele>469.97</ele>
        <time>2018-07-27T05:57:22Z</time>
      </trkpt>
      <trkpt lat="42.96414" lon="0.64747">
        <ele>470.88</ele>
        <time>2018-07-27T05:57:23Z</time>
      </trkpt>
      <trkpt lat="42.96394" lon="0.64751">
        <ele>471.15</ele>
        <time>2018-07-27T05:57:24Z</time>
      </trkpt>
      <trkpt lat="42.96374" lon="0.64753">
        <ele>470.53</ele>
        <time>2018-07-27T05:57:25Z</time>
      </trkpt>
      <trkpt lat="42.96353" lon="0.64755">
        <ele>470.35</ele>
        <time>2018-07-27T05:57:26Z</time>
      </trkpt>
      <trkpt lat="42.96333" lon="0.64756">
        <ele>470.29</ele>
        <time>2018-07-27T05:57:27Z</time>
      </trkpt>
      <trkpt lat="42.96312" lon="0.64757">
        <ele>470.27</ele>
        <time>2018-07-27T05:57:28Z</time>
      </trkpt>
      <trkpt lat="42.96291" lon="0.64757">
        <ele>470.27</ele>
        <time>2018-07-27T05:57:29Z</time>
      </trkpt>
      <trkpt lat="42.9627" lon="0.64755">
        <ele>470.27</ele>
        <time>2018-07-27T05:57:30Z</time>
      </trkpt>
      <trkpt lat="42.96248" lon="0.64752">
        <ele>470.97</ele>
        <time>2018-07-27T05:57:31Z</time>
      </trkpt>
      <trkpt lat="42.96228" lon="0.64749">
        <ele>470.48</ele>
        <time>2018-07-27T05:57:32Z</time>
      </trkpt>
      <trkpt lat="42.96207" lon="0.64743">
        <ele>470.33</ele>
        <time>2018-07-27T05:57:33Z</time>
      </trkpt>
      <trkpt lat="42.96186" lon="0.64736">
        <ele>470.29</ele>
        <time>2018-07-27T05:57:34Z</time>
      </trkpt>
      <trkpt lat="42.96165" lon="0.64729">
        <ele>469.57</ele>
        <time>2018-07-27T05:57:35Z</time>
      </trkpt>
      <trkpt lat="42.96143" lon="0.64723">
        <ele>470.06</ele>
        <time>2018-07-27T05:57:36Z</time>
      </trkpt>
      <trkpt lat="42.96121" lon="0.64715">
        <ele>469.5</ele>
        <time>2018-07-27T05:57:37Z</time>
      </trkpt>
      <trkpt lat="42.96099" lon="0.64706">
        <ele>469.34</ele>
        <time>2018-07-27T05:57:38Z</time>
      </trkpt>
      <trkpt lat="42.96075" lon="0.64702">
        <ele>469.29</ele>
        <time>2018-07-27T05:57:39Z</time>
      </trkpt>
      <trkpt lat="42.96053" lon="0.64695">
        <ele>469.27</ele>
        <time>2018-07-27T05:57:40Z</time>
      </trkpt>
      <trkpt lat="42.9603" lon="0.64689">
        <ele>469.27</ele>
        <time>2018-07-27T05:57:41Z</time>
      </trkpt>
      <trkpt lat="42.96008" lon="0.64682">
        <ele>469.27</ele>
        <time>2018-07-27T05:57:42Z</time>
      </trkpt>
      <trkpt lat="42.95985" lon="0.64674">
        <ele>468.57</ele>
        <time>2018-07-27T05:57:43Z</time>
      </trkpt>
      <trkpt lat="42.95963" lon="0.64664">
        <ele>468.36</ele>
        <time>2018-07-27T05:57:44Z</time>
      </trkpt>
      <trkpt lat="42.95941" lon="0.64654">
        <ele>468.99</ele>
        <time>2018-07-27T05:57:45Z</time>
      </trkpt>
      <trkpt lat="42.9592" lon="0.64643">
        <ele>469.19</ele>
        <time>2018-07-27T05:57:46Z</time>
      </trkpt>
      <trkpt lat="42.95899" lon="0.6463">
        <ele>469.24</ele>
        <time>2018-07-27T05:57:47Z</time>
      </trkpt>
      <trkpt lat="42.95879" lon="0.64617">
        <ele>469.26</ele>
        <time>2018-07-27T05:57:48Z</time>
      </trkpt>
      <trkpt lat="42.95859" lon="0.64602">
        <ele>469.26</ele>
        <time>2018-07-27T05:57:49Z</time>
      </trkpt>
      <trkpt lat="42.95841" lon="0.64587">
        <ele>469.27</ele>
        <time>2018-07-27T05:57:50Z</time>
      </trkpt>
      <trkpt lat="42.95824" lon="0.64572">
        <ele>469.27</ele>
        <time>2018-07-27T05:57:51Z</time>
      </trkpt>
      <trkpt lat="42.95809" lon="0.64557">
        <ele>469.97</ele>
        <time>2018-07-27T05:57:52Z</time>
      </trkpt>
      <trkpt lat="42.95792" lon="0.64543">
        <ele>470.18</ele>
        <time>2018-07-27T05:57:53Z</time>
      </trkpt>
      <trkpt lat="42.95776" lon="0.64528">
        <ele>470.24</ele>
        <time>2018-07-27T05:57:54Z</time>
      </trkpt>
      <trkpt lat="42.95759" lon="0.64513">
        <ele>470.26</ele>
        <time>2018-07-27T05:57:55Z</time>
      </trkpt>
      <trkpt lat="42.95741" lon="0.64497">
        <ele>470.96</ele>
        <time>2018-07-27T05:57:56Z</time>
      </trkpt>
      <trkpt lat="42.95723" lon="0.64482">
        <ele>471.18</ele>
        <time>2018-07-27T05:57:57Z</time>
      </trkpt>
      <trkpt lat="42.95704" lon="0.64467">
        <ele>471.94</ele>
        <time>2018-07-27T05:57:58Z</time>
      </trkpt>
      <trkpt lat="42.95685" lon="0.64453">
        <ele>472.17</ele>
        <time>2018-07-27T05:57:59Z</time>
      </trkpt>
      <trkpt lat="42.95666" lon="0.64439">
        <ele>472.24</ele>
        <time>2018-07-27T05:58:00Z</time>
      </trkpt>
      <trkpt lat="42.95646" lon="0.64425">
        <ele>472.26</ele>
        <time>2018-07-27T05:58:01Z</time>
      </trkpt>
      <trkpt lat="42.95626" lon="0.64413">
        <ele>472.26</ele>
        <time>2018-07-27T05:58:02Z</time>
      </trkpt>
      <trkpt lat="42.95605" lon="0.64402">
        <ele>472.27</ele>
        <time>2018-07-27T05:58:03Z</time>
      </trkpt>
      <trkpt lat="42.95584" lon="0.64393">
        <ele>471.57</ele>
        <time>2018-07-27T05:58:04Z</time>
      </trkpt>
      <trkpt lat="42.95563" lon="0.64385">
        <ele>472.06</ele>
        <time>2018-07-27T05:58:05Z</time>
      </trkpt>
      <trkpt lat="42.95543" lon="0.64377">
        <ele>472.2</ele>
        <time>2018-07-27T05:58:06Z</time>
      </trkpt>
      <trkpt lat="42.95522" lon="0.6437">
        <ele>472.95</ele>
        <time>2018-07-27T05:58:07Z</time>
      </trkpt>
      <trkpt lat="42.95502" lon="0.64363">
        <ele>473.17</ele>
        <time>2018-07-27T05:58:08Z</time>
      </trkpt>
      <trkpt lat="42.95482" lon="0.64356">
        <ele>473.94</ele>
        <time>2018-07-27T05:58:09Z</time>
      </trkpt>
      <trkpt lat="42.95461" lon="0.64349">
        <ele>474.87</ele>
        <time>2018-07-27T05:58:10Z</time>
      </trkpt>
      <trkpt lat="42.95441" lon="0.64342">
        <ele>475.85</ele>
        <time>2018-07-27T05:58:11Z</time>
      </trkpt>
      <trkpt lat="42.95421" lon="0.64336">
        <ele>476.84</ele>
        <time>2018-07-27T05:58:12Z</time>
      </trkpt>
      <trkpt lat="42.95401" lon="0.64329">
        <ele>477.84</ele>
        <time>2018-07-27T05:58:13Z</time>
      </trkpt>
      <trkpt lat="42.95381" lon="0.64323">
        <ele>478.84</ele>
        <time>2018-07-27T05:58:14Z</time>
      </trkpt>
      <trkpt lat="42.95361" lon="0.64317">
        <ele>479.14</ele>
        <time>2018-07-27T05:58:15Z</time>
      </trkpt>
      <trkpt lat="42.95341" lon="0.64311">
        <ele>479.93</ele>
        <time>2018-07-27T05:58:16Z</time>
      </trkpt>
      <trkpt lat="42.95321" lon="0.64305">
        <ele>480.17</ele>
        <time>2018-07-27T05:58:17Z</time>
      </trkpt>
      <trkpt lat="42.95302" lon="0.64298">
        <ele>480.24</ele>
        <time>2018-07-27T05:58:18Z</time>
      </trkpt>
      <trkpt lat="42.95282" lon="0.64293">
        <ele>480.96</ele>
        <time>2018-07-27T05:58:19Z</time>
      </trkpt>
      <trkpt lat="42.95263" lon="0.64286">
        <ele>481.17</ele>
        <time>2018-07-27T05:58:20Z</time>
      </trkpt>
      <trkpt lat="42.95244" lon="0.64279">
        <ele>480.54</ele>
        <time>2018-07-27T05:58:21Z</time>
      </trkpt>
      <trkpt lat="42.95224" lon="0.64273">
        <ele>480.35</ele>
        <time>2018-07-27T05:58:22Z</time>
      </trkpt>
      <trkpt lat="42.95204" lon="0.64268">
        <ele>480.29</ele>
        <time>2018-07-27T05:58:23Z</time>
      </trkpt>
      <trkpt lat="42.95184" lon="0.64261">
        <ele>480.27</ele>
        <time>2018-07-27T05:58:24Z</time>
      </trkpt>
      <trkpt lat="42.95164" lon="0.64257">
        <ele>479.57</ele>
        <time>2018-07-27T05:58:25Z</time>
      </trkpt>
      <trkpt lat="42.95144" lon="0.64252">
        <ele>479.36</ele>
        <time>2018-07-27T05:58:26Z</time>
      </trkpt>
      <trkpt lat="42.95123" lon="0.6425">
        <ele>478.59</ele>
        <time>2018-07-27T05:58:27Z</time>
      </trkpt>
      <trkpt lat="42.95103" lon="0.6425">
        <ele>477.67</ele>
        <time>2018-07-27T05:58:28Z</time>
      </trkpt>
      <trkpt lat="42.95082" lon="0.64251">
        <ele>476.69</ele>
        <time>2018-07-27T05:58:29Z</time>
      </trkpt>
      <trkpt lat="42.95062" lon="0.64253">
        <ele>476.39</ele>
        <time>2018-07-27T05:58:30Z</time>
      </trkpt>
      <trkpt lat="42.95042" lon="0.64258">
        <ele>475.6</ele>
        <time>2018-07-27T05:58:31Z</time>
      </trkpt>
      <trkpt lat="42.95022" lon="0.64263">
        <ele>475.37</ele>
        <time>2018-07-27T05:58:32Z</time>
      </trkpt>
      <trkpt lat="42.95003" lon="0.64269">
        <ele>474.6</ele>
        <time>2018-07-27T05:58:33Z</time>
      </trkpt>
      <trkpt lat="42.94983" lon="0.64277">
        <ele>474.37</ele>
        <time>2018-07-27T05:58:34Z</time>
      </trkpt>
      <trkpt lat="42.94964" lon="0.64287">
        <ele>473.6</ele>
        <time>2018-07-27T05:58:35Z</time>
      </trkpt>
      <trkpt lat="42.94945" lon="0.64297">
        <ele>474.07</ele>
        <time>2018-07-27T05:58:36Z</time>
      </trkpt>
      <trkpt lat="42.94927" lon="0.64309">
        <ele>473.51</ele>
        <time>2018-07-27T05:58:37Z</time>
      </trkpt>
      <trkpt lat="42.94908" lon="0.64322">
        <ele>474.04</ele>
        <time>2018-07-27T05:58:38Z</time>
      </trkpt>
      <trkpt lat="42.9489" lon="0.64337">
        <ele>474.2</ele>
        <time>2018-07-27T05:58:39Z</time>
      </trkpt>
      <trkpt lat="42.94873" lon="0.64352">
        <ele>473.55</ele>
        <time>2018-07-27T05:58:40Z</time>
      </trkpt>
      <trkpt lat="42.94855" lon="0.64369">
        <ele>473.35</ele>
        <time>2018-07-27T05:58:41Z</time>
      </trkpt>
      <trkpt lat="42.94839" lon="0.64387">
        <ele>472.59</ele>
        <time>2018-07-27T05:58:42Z</time>
      </trkpt>
      <trkpt lat="42.94823" lon="0.64405">
        <ele>472.36</ele>
        <time>2018-07-27T05:58:43Z</time>
      </trkpt>
      <trkpt lat="42.94806" lon="0.64423">
        <ele>472.3</ele>
        <time>2018-07-27T05:58:44Z</time>
      </trkpt>
      <trkpt lat="42.94789" lon="0.6444">
        <ele>472.28</ele>
        <time>2018-07-27T05:58:45Z</time>
      </trkpt>
      <trkpt lat="42.94772" lon="0.64457">
        <ele>472.27</ele>
        <time>2018-07-27T05:58:46Z</time>
      </trkpt>
      <trkpt lat="42.94756" lon="0.64475">
        <ele>472.27</ele>
        <time>2018-07-27T05:58:47Z</time>
      </trkpt>
      <trkpt lat="42.94739" lon="0.64491">
        <ele>472.97</ele>
        <time>2018-07-27T05:58:48Z</time>
      </trkpt>
      <trkpt lat="42.94722" lon="0.64507">
        <ele>473.18</ele>
        <time>2018-07-27T05:58:49Z</time>
      </trkpt>
      <trkpt lat="42.94706" lon="0.64522">
        <ele>473.24</ele>
        <time>2018-07-27T05:58:50Z</time>
      </trkpt>
      <trkpt lat="42.94688" lon="0.64536">
        <ele>472.56</ele>
        <time>2018-07-27T05:58:51Z</time>
      </trkpt>
      <trkpt lat="42.9467" lon="0.64547">
        <ele>472.35</ele>
        <time>2018-07-27T05:58:52Z</time>
      </trkpt>
      <trkpt lat="42.94651" lon="0.64558">
        <ele>472.29</ele>
        <time>2018-07-27T05:58:53Z</time>
      </trkpt>
      <trkpt lat="42.94632" lon="0.64567">
        <ele>472.27</ele>
        <time>2018-07-27T05:58:54Z</time>
      </trkpt>
      <trkpt lat="42.94611" lon="0.64574">
        <ele>472.27</ele>
        <time>2018-07-27T05:58:55Z</time>
      </trkpt>
      <trkpt lat="42.94591" lon="0.6458">
        <ele>472.27</ele>
        <time>2018-07-27T05:58:56Z</time>
      </trkpt>
      <trkpt lat="42.9457" lon="0.64584">
        <ele>472.97</ele>
        <time>2018-07-27T05:58:57Z</time>
      </trkpt>
      <trkpt lat="42.9455" lon="0.64588">
        <ele>473.18</ele>
        <time>2018-07-27T05:58:58Z</time>
      </trkpt>
      <trkpt lat="42.94529" lon="0.64593">
        <ele>473.24</ele>
        <time>2018-07-27T05:58:59Z</time>
      </trkpt>
      <trkpt lat="42.9451" lon="0.64593">
        <ele>473.26</ele>
        <time>2018-07-27T05:59:00Z</time>
      </trkpt>
      <trkpt lat="42.9449" lon="0.64599">
        <ele>473.96</ele>
        <time>2018-07-27T05:59:01Z</time>
      </trkpt>
      <trkpt lat="42.9447" lon="0.64607">
        <ele>474.88</ele>
        <time>2018-07-27T05:59:02Z</time>
      </trkpt>
      <trkpt lat="42.94451" lon="0.64613">
        <ele>476.55</ele>
        <time>2018-07-27T05:59:03Z</time>
      </trkpt>
      <trkpt lat="42.94431" lon="0.64621">
        <ele>477.05</ele>
        <time>2018-07-27T05:59:04Z</time>
      </trkpt>
      <trkpt lat="42.94409" lon="0.6463">
        <ele>477.9</ele>
        <time>2018-07-27T05:59:05Z</time>
      </trkpt>
      <trkpt lat="42.9439" lon="0.64637">
        <ele>478.16</ele>
        <time>2018-07-27T05:59:06Z</time>
      </trkpt>
      <trkpt lat="42.9437" lon="0.64645">
        <ele>478.23</ele>
        <time>2018-07-27T05:59:07Z</time>
      </trkpt>
      <trkpt lat="42.9435" lon="0.64651">
        <ele>478.26</ele>
        <time>2018-07-27T05:59:08Z</time>
      </trkpt>
      <trkpt lat="42.9433" lon="0.64657">
        <ele>476.16</ele>
        <time>2018-07-27T05:59:09Z</time>
      </trkpt>
      <trkpt lat="42.94311" lon="0.64664">
        <ele>475.54</ele>
        <time>2018-07-27T05:59:10Z</time>
      </trkpt>
      <trkpt lat="42.94292" lon="0.64671">
        <ele>475.35</ele>
        <time>2018-07-27T05:59:11Z</time>
      </trkpt>
      <trkpt lat="42.94272" lon="0.64678">
        <ele>475.29</ele>
        <time>2018-07-27T05:59:12Z</time>
      </trkpt>
      <trkpt lat="42.94253" lon="0.64685">
        <ele>475.27</ele>
        <time>2018-07-27T05:59:13Z</time>
      </trkpt>
      <trkpt lat="42.94233" lon="0.64693">
        <ele>475.27</ele>
        <time>2018-07-27T05:59:14Z</time>
      </trkpt>
      <trkpt lat="42.94214" lon="0.647">
        <ele>474.57</ele>
        <time>2018-07-27T05:59:15Z</time>
      </trkpt>
      <trkpt lat="42.94194" lon="0.64708">
        <ele>474.36</ele>
        <time>2018-07-27T05:59:16Z</time>
      </trkpt>
      <trkpt lat="42.94175" lon="0.64715">
        <ele>474.99</ele>
        <time>2018-07-27T05:59:17Z</time>
      </trkpt>
      <trkpt lat="42.94156" lon="0.64722">
        <ele>475.89</ele>
        <time>2018-07-27T05:59:18Z</time>
      </trkpt>
      <trkpt lat="42.94136" lon="0.6473">
        <ele>476.15</ele>
        <time>2018-07-27T05:59:19Z</time>
      </trkpt>
      <trkpt lat="42.94117" lon="0.64737">
        <ele>476.93</ele>
        <time>2018-07-27T05:59:20Z</time>
      </trkpt>
      <trkpt lat="42.94099" lon="0.64744">
        <ele>477.17</ele>
        <time>2018-07-27T05:59:21Z</time>
      </trkpt>
      <trkpt lat="42.94081" lon="0.6475">
        <ele>477.24</ele>
        <time>2018-07-27T05:59:22Z</time>
      </trkpt>
      <trkpt lat="42.94046" lon="0.64763">
        <ele>478.17</ele>
        <time>2018-07-27T05:59:24Z</time>
      </trkpt>
      <trkpt lat="42.94012" lon="0.64776">
        <ele>478.96</ele>
        <time>2018-07-27T05:59:26Z</time>
      </trkpt>
      <trkpt lat="42.93982" lon="0.64789">
        <ele>477.84</ele>
        <time>2018-07-27T05:59:28Z</time>
      </trkpt>
      <trkpt lat="42.93955" lon="0.64805">
        <ele>477.53</ele>
        <time>2018-07-27T05:59:30Z</time>
      </trkpt>
      <trkpt lat="42.93933" lon="0.64824">
        <ele>477.29</ele>
        <time>2018-07-27T05:59:32Z</time>
      </trkpt>
      <trkpt lat="42.93918" lon="0.6484">
        <ele>477.97</ele>
        <time>2018-07-27T05:59:34Z</time>
      </trkpt>
      <trkpt lat="42.93897" lon="0.64842">
        <ele>479.17</ele>
        <time>2018-07-27T05:59:37Z</time>
      </trkpt>
      <trkpt lat="42.93875" lon="0.64835">
        <ele>479.26</ele>
        <time>2018-07-27T05:59:40Z</time>
      </trkpt>
      <trkpt lat="42.93857" lon="0.64852">
        <ele>479.27</ele>
        <time>2018-07-27T05:59:43Z</time>
      </trkpt>
      <trkpt lat="42.93836" lon="0.64865">
        <ele>479.27</ele>
        <time>2018-07-27T05:59:46Z</time>
      </trkpt>
      <trkpt lat="42.93817" lon="0.64872">
        <ele>479.27</ele>
        <time>2018-07-27T05:59:49Z</time>
      </trkpt>
      <trkpt lat="42.93795" lon="0.64882">
        <ele>476.88</ele>
        <time>2018-07-27T06:05:09Z</time>
      </trkpt>
      <trkpt lat="42.93771" lon="0.6489">
        <ele>477.96</ele>
        <time>2018-07-27T06:05:12Z</time>
      </trkpt>
      <trkpt lat="42.93751" lon="0.64896">
        <ele>478.24</ele>
        <time>2018-07-27T06:05:14Z</time>
      </trkpt>
      <trkpt lat="42.9373" lon="0.649">
        <ele>476.65</ele>
        <time>2018-07-27T06:05:16Z</time>
      </trkpt>
      <trkpt lat="42.93705" lon="0.64908">
        <ele>477</ele>
        <time>2018-07-27T06:05:18Z</time>
      </trkpt>
      <trkpt lat="42.93679" lon="0.64915">
        <ele>478.15</ele>
        <time>2018-07-27T06:05:20Z</time>
      </trkpt>
      <trkpt lat="42.9365" lon="0.64928">
        <ele>478.05</ele>
        <time>2018-07-27T06:05:22Z</time>
      </trkpt>
      <trkpt lat="42.93617" lon="0.64945">
        <ele>477.34</ele>
        <time>2018-07-27T06:05:24Z</time>
      </trkpt>
      <trkpt lat="42.93599" lon="0.64955">
        <ele>478.69</ele>
        <time>2018-07-27T06:05:25Z</time>
      </trkpt>
      <trkpt lat="42.93581" lon="0.64967">
        <ele>478.39</ele>
        <time>2018-07-27T06:05:26Z</time>
      </trkpt>
      <trkpt lat="42.93561" lon="0.64978">
        <ele>479</ele>
        <time>2018-07-27T06:05:27Z</time>
      </trkpt>
      <trkpt lat="42.93541" lon="0.64989">
        <ele>479.19</ele>
        <time>2018-07-27T06:05:28Z</time>
      </trkpt>
      <trkpt lat="42.9352" lon="0.65">
        <ele>479.24</ele>
        <time>2018-07-27T06:05:29Z</time>
      </trkpt>
      <trkpt lat="42.93499" lon="0.6501">
        <ele>479.96</ele>
        <time>2018-07-27T06:05:30Z</time>
      </trkpt>
      <trkpt lat="42.93477" lon="0.65021">
        <ele>480.17</ele>
        <time>2018-07-27T06:05:31Z</time>
      </trkpt>
      <trkpt lat="42.93455" lon="0.65032">
        <ele>480.24</ele>
        <time>2018-07-27T06:05:32Z</time>
      </trkpt>
      <trkpt lat="42.93434" lon="0.65044">
        <ele>480.26</ele>
        <time>2018-07-27T06:05:33Z</time>
      </trkpt>
      <trkpt lat="42.93413" lon="0.65055">
        <ele>480.26</ele>
        <time>2018-07-27T06:05:34Z</time>
      </trkpt>
      <trkpt lat="42.93392" lon="0.65066">
        <ele>480.27</ele>
        <time>2018-07-27T06:05:35Z</time>
      </trkpt>
      <trkpt lat="42.9337" lon="0.65078">
        <ele>480.27</ele>
        <time>2018-07-27T06:05:36Z</time>
      </trkpt>
      <trkpt lat="42.93349" lon="0.65088">
        <ele>480.97</ele>
        <time>2018-07-27T06:05:37Z</time>
      </trkpt>
      <trkpt lat="42.93328" lon="0.651">
        <ele>481.18</ele>
        <time>2018-07-27T06:05:38Z</time>
      </trkpt>
      <trkpt lat="42.93307" lon="0.65109">
        <ele>480.54</ele>
        <time>2018-07-27T06:05:39Z</time>
      </trkpt>
      <trkpt lat="42.93287" lon="0.65121">
        <ele>480.35</ele>
        <time>2018-07-27T06:05:40Z</time>
      </trkpt>
      <trkpt lat="42.93266" lon="0.65132">
        <ele>481.69</ele>
        <time>2018-07-27T06:05:41Z</time>
      </trkpt>
      <trkpt lat="42.93244" lon="0.65143">
        <ele>482.79</ele>
        <time>2018-07-27T06:05:42Z</time>
      </trkpt>
      <trkpt lat="42.93224" lon="0.65154">
        <ele>483.13</ele>
        <time>2018-07-27T06:05:43Z</time>
      </trkpt>
      <trkpt lat="42.93203" lon="0.65165">
        <ele>482.52</ele>
        <time>2018-07-27T06:05:44Z</time>
      </trkpt>
      <trkpt lat="42.93182" lon="0.65176">
        <ele>483.04</ele>
        <time>2018-07-27T06:05:45Z</time>
      </trkpt>
      <trkpt lat="42.9316" lon="0.65188">
        <ele>483.2</ele>
        <time>2018-07-27T06:05:46Z</time>
      </trkpt>
      <trkpt lat="42.93139" lon="0.652">
        <ele>483.25</ele>
        <time>2018-07-27T06:05:47Z</time>
      </trkpt>
      <trkpt lat="42.93118" lon="0.65212">
        <ele>483.96</ele>
        <time>2018-07-27T06:05:48Z</time>
      </trkpt>
      <trkpt lat="42.93097" lon="0.65223">
        <ele>484.18</ele>
        <time>2018-07-27T06:05:49Z</time>
      </trkpt>
      <trkpt lat="42.93076" lon="0.65234">
        <ele>484.24</ele>
        <time>2018-07-27T06:05:50Z</time>
      </trkpt>
      <trkpt lat="42.93054" lon="0.65246">
        <ele>484.96</ele>
        <time>2018-07-27T06:05:51Z</time>
      </trkpt>
      <trkpt lat="42.93032" lon="0.65257">
        <ele>485.17</ele>
        <time>2018-07-27T06:05:52Z</time>
      </trkpt>
      <trkpt lat="42.9301" lon="0.65268">
        <ele>485.94</ele>
        <time>2018-07-27T06:05:53Z</time>
      </trkpt>
      <trkpt lat="42.92989" lon="0.65279">
        <ele>486.87</ele>
        <time>2018-07-27T06:05:54Z</time>
      </trkpt>
      <trkpt lat="42.92968" lon="0.6529">
        <ele>487.15</ele>
        <time>2018-07-27T06:05:55Z</time>
      </trkpt>
      <trkpt lat="42.92948" lon="0.65301">
        <ele>487.23</ele>
        <time>2018-07-27T06:05:56Z</time>
      </trkpt>
      <trkpt lat="42.92927" lon="0.65314">
        <ele>487.96</ele>
        <time>2018-07-27T06:05:57Z</time>
      </trkpt>
      <trkpt lat="42.92906" lon="0.65325">
        <ele>488.87</ele>
        <time>2018-07-27T06:05:58Z</time>
      </trkpt>
      <trkpt lat="42.92887" lon="0.65337">
        <ele>489.15</ele>
        <time>2018-07-27T06:05:59Z</time>
      </trkpt>
      <trkpt lat="42.92867" lon="0.65351">
        <ele>489.93</ele>
        <time>2018-07-27T06:06:00Z</time>
      </trkpt>
      <trkpt lat="42.92849" lon="0.65368">
        <ele>489.47</ele>
        <time>2018-07-27T06:06:01Z</time>
      </trkpt>
      <trkpt lat="42.92832" lon="0.65386">
        <ele>490.03</ele>
        <time>2018-07-27T06:06:02Z</time>
      </trkpt>
      <trkpt lat="42.92816" lon="0.65405">
        <ele>490.89</ele>
        <time>2018-07-27T06:06:03Z</time>
      </trkpt>
      <trkpt lat="42.92801" lon="0.65428">
        <ele>491.16</ele>
        <time>2018-07-27T06:06:04Z</time>
      </trkpt>
      <trkpt lat="42.92787" lon="0.65451">
        <ele>491.23</ele>
        <time>2018-07-27T06:06:05Z</time>
      </trkpt>
      <trkpt lat="42.92776" lon="0.65476">
        <ele>491.96</ele>
        <time>2018-07-27T06:06:06Z</time>
      </trkpt>
      <trkpt lat="42.92766" lon="0.65502">
        <ele>491.47</ele>
        <time>2018-07-27T06:06:07Z</time>
      </trkpt>
      <trkpt lat="42.92758" lon="0.65529">
        <ele>491.33</ele>
        <time>2018-07-27T06:06:08Z</time>
      </trkpt>
      <trkpt lat="42.92751" lon="0.65557">
        <ele>490.59</ele>
        <time>2018-07-27T06:06:09Z</time>
      </trkpt>
      <trkpt lat="42.92746" lon="0.65586">
        <ele>489.66</ele>
        <time>2018-07-27T06:06:10Z</time>
      </trkpt>
      <trkpt lat="42.92742" lon="0.65615">
        <ele>488.69</ele>
        <time>2018-07-27T06:06:11Z</time>
      </trkpt>
      <trkpt lat="42.9274" lon="0.65645">
        <ele>488.39</ele>
        <time>2018-07-27T06:06:12Z</time>
      </trkpt>
      <trkpt lat="42.9274" lon="0.65675">
        <ele>487.6</ele>
        <time>2018-07-27T06:06:13Z</time>
      </trkpt>
      <trkpt lat="42.92741" lon="0.65706">
        <ele>487.37</ele>
        <time>2018-07-27T06:06:14Z</time>
      </trkpt>
      <trkpt lat="42.92744" lon="0.65736">
        <ele>486.6</ele>
        <time>2018-07-27T06:06:15Z</time>
      </trkpt>
      <trkpt lat="42.92748" lon="0.65766">
        <ele>485.67</ele>
        <time>2018-07-27T06:06:16Z</time>
      </trkpt>
      <trkpt lat="42.92753" lon="0.65796">
        <ele>486.09</ele>
        <time>2018-07-27T06:06:17Z</time>
      </trkpt>
      <trkpt lat="42.92759" lon="0.65825">
        <ele>486.21</ele>
        <time>2018-07-27T06:06:18Z</time>
      </trkpt>
      <trkpt lat="42.92764" lon="0.65856">
        <ele>486.25</ele>
        <time>2018-07-27T06:06:19Z</time>
      </trkpt>
      <trkpt lat="42.92769" lon="0.65886">
        <ele>486.26</ele>
        <time>2018-07-27T06:06:20Z</time>
      </trkpt>
      <trkpt lat="42.92773" lon="0.65916">
        <ele>486.27</ele>
        <time>2018-07-27T06:06:21Z</time>
      </trkpt>
      <trkpt lat="42.92778" lon="0.65946">
        <ele>486.27</ele>
        <time>2018-07-27T06:06:22Z</time>
      </trkpt>
      <trkpt lat="42.92783" lon="0.65976">
        <ele>486.27</ele>
        <time>2018-07-27T06:06:23Z</time>
      </trkpt>
      <trkpt lat="42.92788" lon="0.66006">
        <ele>486.27</ele>
        <time>2018-07-27T06:06:24Z</time>
      </trkpt>
      <trkpt lat="42.92792" lon="0.66036">
        <ele>486.27</ele>
        <time>2018-07-27T06:06:25Z</time>
      </trkpt>
      <trkpt lat="42.92797" lon="0.66066">
        <ele>486.27</ele>
        <time>2018-07-27T06:06:26Z</time>
      </trkpt>
      <trkpt lat="42.92802" lon="0.66096">
        <ele>486.27</ele>
        <time>2018-07-27T06:06:27Z</time>
      </trkpt>
      <trkpt lat="42.92807" lon="0.66126">
        <ele>486.97</ele>
        <time>2018-07-27T06:06:28Z</time>
      </trkpt>
      <trkpt lat="42.92812" lon="0.66157">
        <ele>487.18</ele>
        <time>2018-07-27T06:06:29Z</time>
      </trkpt>
      <trkpt lat="42.92817" lon="0.66186">
        <ele>487.24</ele>
        <time>2018-07-27T06:06:30Z</time>
      </trkpt>
      <trkpt lat="42.92822" lon="0.66217">
        <ele>487.96</ele>
        <time>2018-07-27T06:06:31Z</time>
      </trkpt>
      <trkpt lat="42.92826" lon="0.66247">
        <ele>488.17</ele>
        <time>2018-07-27T06:06:32Z</time>
      </trkpt>
      <trkpt lat="42.92831" lon="0.66277">
        <ele>488.24</ele>
        <time>2018-07-27T06:06:33Z</time>
      </trkpt>
      <trkpt lat="42.92834" lon="0.66307">
        <ele>488.26</ele>
        <time>2018-07-27T06:06:34Z</time>
      </trkpt>
      <trkpt lat="42.92836" lon="0.66337">
        <ele>488.26</ele>
        <time>2018-07-27T06:06:35Z</time>
      </trkpt>
      <trkpt lat="42.92837" lon="0.66368">
        <ele>488.27</ele>
        <time>2018-07-27T06:06:36Z</time>
      </trkpt>
      <trkpt lat="42.92836" lon="0.66398">
        <ele>488.27</ele>
        <time>2018-07-27T06:06:37Z</time>
      </trkpt>
      <trkpt lat="42.92834" lon="0.66428">
        <ele>488.27</ele>
        <time>2018-07-27T06:06:38Z</time>
      </trkpt>
      <trkpt lat="42.92831" lon="0.66457">
        <ele>488.27</ele>
        <time>2018-07-27T06:06:39Z</time>
      </trkpt>
      <trkpt lat="42.92826" lon="0.66487">
        <ele>488.27</ele>
        <time>2018-07-27T06:06:40Z</time>
      </trkpt>
      <trkpt lat="42.92821" lon="0.66516">
        <ele>488.27</ele>
        <time>2018-07-27T06:06:41Z</time>
      </trkpt>
      <trkpt lat="42.92816" lon="0.66545">
        <ele>488.27</ele>
        <time>2018-07-27T06:06:42Z</time>
      </trkpt>
      <trkpt lat="42.92811" lon="0.66574">
        <ele>488.27</ele>
        <time>2018-07-27T06:06:43Z</time>
      </trkpt>
      <trkpt lat="42.92806" lon="0.66602">
        <ele>488.27</ele>
        <time>2018-07-27T06:06:44Z</time>
      </trkpt>
      <trkpt lat="42.92802" lon="0.66631">
        <ele>488.27</ele>
        <time>2018-07-27T06:06:45Z</time>
      </trkpt>
      <trkpt lat="42.92797" lon="0.6666">
        <ele>488.27</ele>
        <time>2018-07-27T06:06:46Z</time>
      </trkpt>
      <trkpt lat="42.92793" lon="0.66688">
        <ele>488.27</ele>
        <time>2018-07-27T06:06:47Z</time>
      </trkpt>
      <trkpt lat="42.92788" lon="0.66717">
        <ele>488.97</ele>
        <time>2018-07-27T06:06:48Z</time>
      </trkpt>
      <trkpt lat="42.92784" lon="0.66748">
        <ele>488.48</ele>
        <time>2018-07-27T06:06:49Z</time>
      </trkpt>
      <trkpt lat="42.92779" lon="0.66777">
        <ele>488.33</ele>
        <time>2018-07-27T06:06:50Z</time>
      </trkpt>
      <trkpt lat="42.92775" lon="0.66806">
        <ele>488.99</ele>
        <time>2018-07-27T06:06:51Z</time>
      </trkpt>
      <trkpt lat="42.92771" lon="0.66834">
        <ele>489.18</ele>
        <time>2018-07-27T06:06:52Z</time>
      </trkpt>
      <trkpt lat="42.92766" lon="0.66863">
        <ele>489.24</ele>
        <time>2018-07-27T06:06:53Z</time>
      </trkpt>
      <trkpt lat="42.92762" lon="0.66891">
        <ele>489.96</ele>
        <time>2018-07-27T06:06:54Z</time>
      </trkpt>
      <trkpt lat="42.92757" lon="0.66919">
        <ele>490.17</ele>
        <time>2018-07-27T06:06:55Z</time>
      </trkpt>
      <trkpt lat="42.92752" lon="0.66948">
        <ele>490.24</ele>
        <time>2018-07-27T06:06:56Z</time>
      </trkpt>
      <trkpt lat="42.92747" lon="0.66976">
        <ele>490.26</ele>
        <time>2018-07-27T06:06:57Z</time>
      </trkpt>
      <trkpt lat="42.92742" lon="0.67004">
        <ele>490.26</ele>
        <time>2018-07-27T06:06:58Z</time>
      </trkpt>
      <trkpt lat="42.92737" lon="0.67032">
        <ele>490.27</ele>
        <time>2018-07-27T06:06:59Z</time>
      </trkpt>
      <trkpt lat="42.92733" lon="0.67061">
        <ele>490.27</ele>
        <time>2018-07-27T06:07:00Z</time>
      </trkpt>
      <trkpt lat="42.92729" lon="0.6709">
        <ele>490.27</ele>
        <time>2018-07-27T06:07:01Z</time>
      </trkpt>
      <trkpt lat="42.92724" lon="0.67119">
        <ele>490.27</ele>
        <time>2018-07-27T06:07:02Z</time>
      </trkpt>
      <trkpt lat="42.92719" lon="0.67148">
        <ele>490.27</ele>
        <time>2018-07-27T06:07:03Z</time>
      </trkpt>
      <trkpt lat="42.92714" lon="0.67178">
        <ele>490.97</ele>
        <time>2018-07-27T06:07:04Z</time>
      </trkpt>
      <trkpt lat="42.9271" lon="0.67208">
        <ele>491.18</ele>
        <time>2018-07-27T06:07:05Z</time>
      </trkpt>
      <trkpt lat="42.92706" lon="0.67237">
        <ele>491.94</ele>
        <time>2018-07-27T06:07:06Z</time>
      </trkpt>
      <trkpt lat="42.92701" lon="0.67266">
        <ele>492.17</ele>
        <time>2018-07-27T06:07:07Z</time>
      </trkpt>
      <trkpt lat="42.92696" lon="0.67296">
        <ele>492.24</ele>
        <time>2018-07-27T06:07:08Z</time>
      </trkpt>
      <trkpt lat="42.92691" lon="0.67326">
        <ele>492.96</ele>
        <time>2018-07-27T06:07:09Z</time>
      </trkpt>
      <trkpt lat="42.92687" lon="0.67355">
        <ele>493.17</ele>
        <time>2018-07-27T06:07:10Z</time>
      </trkpt>
      <trkpt lat="42.92682" lon="0.67385">
        <ele>493.24</ele>
        <time>2018-07-27T06:07:11Z</time>
      </trkpt>
      <trkpt lat="42.92677" lon="0.67414">
        <ele>493.26</ele>
        <time>2018-07-27T06:07:12Z</time>
      </trkpt>
      <trkpt lat="42.92671" lon="0.67444">
        <ele>493.26</ele>
        <time>2018-07-27T06:07:13Z</time>
      </trkpt>
      <trkpt lat="42.92666" lon="0.67473">
        <ele>493.27</ele>
        <time>2018-07-27T06:07:14Z</time>
      </trkpt>
      <trkpt lat="42.9266" lon="0.67502">
        <ele>493.27</ele>
        <time>2018-07-27T06:07:15Z</time>
      </trkpt>
      <trkpt lat="42.92656" lon="0.67531">
        <ele>493.97</ele>
        <time>2018-07-27T06:07:16Z</time>
      </trkpt>
      <trkpt lat="42.92651" lon="0.6756">
        <ele>493.48</ele>
        <time>2018-07-27T06:07:17Z</time>
      </trkpt>
      <trkpt lat="42.92648" lon="0.67589">
        <ele>494.03</ele>
        <time>2018-07-27T06:07:18Z</time>
      </trkpt>
      <trkpt lat="42.92643" lon="0.67618">
        <ele>494.2</ele>
        <time>2018-07-27T06:07:19Z</time>
      </trkpt>
      <trkpt lat="42.92639" lon="0.67647">
        <ele>494.25</ele>
        <time>2018-07-27T06:07:20Z</time>
      </trkpt>
      <trkpt lat="42.92635" lon="0.67675">
        <ele>494.26</ele>
        <time>2018-07-27T06:07:21Z</time>
      </trkpt>
      <trkpt lat="42.92629" lon="0.67703">
        <ele>494.27</ele>
        <time>2018-07-27T06:07:22Z</time>
      </trkpt>
      <trkpt lat="42.9262" lon="0.67729">
        <ele>494.27</ele>
        <time>2018-07-27T06:07:23Z</time>
      </trkpt>
      <trkpt lat="42.92611" lon="0.67755">
        <ele>494.27</ele>
        <time>2018-07-27T06:07:24Z</time>
      </trkpt>
      <trkpt lat="42.92604" lon="0.67782">
        <ele>493.57</ele>
        <time>2018-07-27T06:07:25Z</time>
      </trkpt>
      <trkpt lat="42.92594" lon="0.67808">
        <ele>494.06</ele>
        <time>2018-07-27T06:07:26Z</time>
      </trkpt>
      <trkpt lat="42.92584" lon="0.67832">
        <ele>494.2</ele>
        <time>2018-07-27T06:07:27Z</time>
      </trkpt>
      <trkpt lat="42.92573" lon="0.67856">
        <ele>494.25</ele>
        <time>2018-07-27T06:07:28Z</time>
      </trkpt>
      <trkpt lat="42.92561" lon="0.6788">
        <ele>494.26</ele>
        <time>2018-07-27T06:07:29Z</time>
      </trkpt>
      <trkpt lat="42.92549" lon="0.67903">
        <ele>494.27</ele>
        <time>2018-07-27T06:07:30Z</time>
      </trkpt>
      <trkpt lat="42.92536" lon="0.67926">
        <ele>494.27</ele>
        <time>2018-07-27T06:07:31Z</time>
      </trkpt>
      <trkpt lat="42.92523" lon="0.67949">
        <ele>494.27</ele>
        <time>2018-07-27T06:07:32Z</time>
      </trkpt>
      <trkpt lat="42.92511" lon="0.67972">
        <ele>494.27</ele>
        <time>2018-07-27T06:07:33Z</time>
      </trkpt>
      <trkpt lat="42.92498" lon="0.67995">
        <ele>494.27</ele>
        <time>2018-07-27T06:07:34Z</time>
      </trkpt>
      <trkpt lat="42.92486" lon="0.68018">
        <ele>494.27</ele>
        <time>2018-07-27T06:07:35Z</time>
      </trkpt>
      <trkpt lat="42.92473" lon="0.68041">
        <ele>494.97</ele>
        <time>2018-07-27T06:07:36Z</time>
      </trkpt>
      <trkpt lat="42.92461" lon="0.68064">
        <ele>495.18</ele>
        <time>2018-07-27T06:07:37Z</time>
      </trkpt>
      <trkpt lat="42.92449" lon="0.68086">
        <ele>495.94</ele>
        <time>2018-07-27T06:07:38Z</time>
      </trkpt>
      <trkpt lat="42.92436" lon="0.68108">
        <ele>496.87</ele>
        <time>2018-07-27T06:07:39Z</time>
      </trkpt>
      <trkpt lat="42.92424" lon="0.6813">
        <ele>497.15</ele>
        <time>2018-07-27T06:07:40Z</time>
      </trkpt>
      <trkpt lat="42.92411" lon="0.68153">
        <ele>497.93</ele>
        <time>2018-07-27T06:07:41Z</time>
      </trkpt>
      <trkpt lat="42.92399" lon="0.68175">
        <ele>498.87</ele>
        <time>2018-07-27T06:07:42Z</time>
      </trkpt>
      <trkpt lat="42.92387" lon="0.68198">
        <ele>500.55</ele>
        <time>2018-07-27T06:07:43Z</time>
      </trkpt>
      <trkpt lat="42.92374" lon="0.68221">
        <ele>500.35</ele>
        <time>2018-07-27T06:07:44Z</time>
      </trkpt>
      <trkpt lat="42.92363" lon="0.68243">
        <ele>500.29</ele>
        <time>2018-07-27T06:07:45Z</time>
      </trkpt>
      <trkpt lat="42.92351" lon="0.68265">
        <ele>500.97</ele>
        <time>2018-07-27T06:07:46Z</time>
      </trkpt>
      <trkpt lat="42.92341" lon="0.68286">
        <ele>501.18</ele>
        <time>2018-07-27T06:07:47Z</time>
      </trkpt>
      <trkpt lat="42.92323" lon="0.68323">
        <ele>501.96</ele>
        <time>2018-07-27T06:07:49Z</time>
      </trkpt>
      <trkpt lat="42.92304" lon="0.68345">
        <ele>502.03</ele>
        <time>2018-07-27T06:07:51Z</time>
      </trkpt>
      <trkpt lat="42.92281" lon="0.68364">
        <ele>502.25</ele>
        <time>2018-07-27T06:07:53Z</time>
      </trkpt>
      <trkpt lat="42.92254" lon="0.68375">
        <ele>502.27</ele>
        <time>2018-07-27T06:07:55Z</time>
      </trkpt>
      <trkpt lat="42.92227" lon="0.68392">
        <ele>502.27</ele>
        <time>2018-07-27T06:07:57Z</time>
      </trkpt>
      <trkpt lat="42.92205" lon="0.68416">
        <ele>502.27</ele>
        <time>2018-07-27T06:07:59Z</time>
      </trkpt>
      <trkpt lat="42.92213" lon="0.68443">
        <ele>501.57</ele>
        <time>2018-07-27T06:08:00Z</time>
      </trkpt>
      <trkpt lat="42.92225" lon="0.68483">
        <ele>500.38</ele>
        <time>2018-07-27T06:08:02Z</time>
      </trkpt>
      <trkpt lat="42.92232" lon="0.6853">
        <ele>499.37</ele>
        <time>2018-07-27T06:08:04Z</time>
      </trkpt>
      <trkpt lat="42.92226" lon="0.68557">
        <ele>498.6</ele>
        <time>2018-07-27T06:08:05Z</time>
      </trkpt>
      <trkpt lat="42.92217" lon="0.68583">
        <ele>497.67</ele>
        <time>2018-07-27T06:08:06Z</time>
      </trkpt>
      <trkpt lat="42.92209" lon="0.6861">
        <ele>497.39</ele>
        <time>2018-07-27T06:08:07Z</time>
      </trkpt>
      <trkpt lat="42.922" lon="0.68636">
        <ele>497.3</ele>
        <time>2018-07-27T06:08:08Z</time>
      </trkpt>
      <trkpt lat="42.92192" lon="0.68662">
        <ele>497.28</ele>
        <time>2018-07-27T06:08:09Z</time>
      </trkpt>
      <trkpt lat="42.92183" lon="0.68687">
        <ele>497.27</ele>
        <time>2018-07-27T06:08:10Z</time>
      </trkpt>
      <trkpt lat="42.92175" lon="0.68712">
        <ele>496.57</ele>
        <time>2018-07-27T06:08:11Z</time>
      </trkpt>
      <trkpt lat="42.92164" lon="0.68735">
        <ele>496.36</ele>
        <time>2018-07-27T06:08:12Z</time>
      </trkpt>
      <trkpt lat="42.92151" lon="0.68755">
        <ele>496.29</ele>
        <time>2018-07-27T06:08:13Z</time>
      </trkpt>
      <trkpt lat="42.92135" lon="0.68772">
        <ele>495.58</ele>
        <time>2018-07-27T06:08:14Z</time>
      </trkpt>
      <trkpt lat="42.9212" lon="0.68787">
        <ele>495.36</ele>
        <time>2018-07-27T06:08:15Z</time>
      </trkpt>
      <trkpt lat="42.92105" lon="0.68803">
        <ele>495.29</ele>
        <time>2018-07-27T06:08:16Z</time>
      </trkpt>
      <trkpt lat="42.92089" lon="0.6882">
        <ele>495.28</ele>
        <time>2018-07-27T06:08:17Z</time>
      </trkpt>
      <trkpt lat="42.92071" lon="0.68833">
        <ele>495.27</ele>
        <time>2018-07-27T06:08:18Z</time>
      </trkpt>
      <trkpt lat="42.92053" lon="0.68843">
        <ele>495.27</ele>
        <time>2018-07-27T06:08:19Z</time>
      </trkpt>
      <trkpt lat="42.92034" lon="0.68851">
        <ele>495.97</ele>
        <time>2018-07-27T06:08:20Z</time>
      </trkpt>
      <trkpt lat="42.92015" lon="0.6886">
        <ele>496.18</ele>
        <time>2018-07-27T06:08:21Z</time>
      </trkpt>
      <trkpt lat="42.91997" lon="0.68868">
        <ele>496.94</ele>
        <time>2018-07-27T06:08:22Z</time>
      </trkpt>
      <trkpt lat="42.91979" lon="0.68876">
        <ele>497.87</ele>
        <time>2018-07-27T06:08:23Z</time>
      </trkpt>
      <trkpt lat="42.91962" lon="0.68886">
        <ele>498.15</ele>
        <time>2018-07-27T06:08:24Z</time>
      </trkpt>
      <trkpt lat="42.91933" lon="0.6891">
        <ele>499.87</ele>
        <time>2018-07-27T06:08:26Z</time>
      </trkpt>
      <trkpt lat="42.91907" lon="0.68941">
        <ele>499.32</ele>
        <time>2018-07-27T06:08:28Z</time>
      </trkpt>
      <trkpt lat="42.91878" lon="0.68962">
        <ele>497.45</ele>
        <time>2018-07-27T06:08:30Z</time>
      </trkpt>
      <trkpt lat="42.91845" lon="0.68978">
        <ele>496.58</ele>
        <time>2018-07-27T06:08:32Z</time>
      </trkpt>
      <trkpt lat="42.91814" lon="0.69004">
        <ele>496.3</ele>
        <time>2018-07-27T06:08:34Z</time>
      </trkpt>
      <trkpt lat="42.91785" lon="0.69028">
        <ele>497.18</ele>
        <time>2018-07-27T06:08:36Z</time>
      </trkpt>
      <trkpt lat="42.91755" lon="0.69041">
        <ele>498.17</ele>
        <time>2018-07-27T06:08:38Z</time>
      </trkpt>
      <trkpt lat="42.91725" lon="0.69045">
        <ele>498.26</ele>
        <time>2018-07-27T06:08:40Z</time>
      </trkpt>
      <trkpt lat="42.91695" lon="0.6905">
        <ele>497.57</ele>
        <time>2018-07-27T06:08:42Z</time>
      </trkpt>
      <trkpt lat="42.91667" lon="0.69062">
        <ele>498.9</ele>
        <time>2018-07-27T06:08:44Z</time>
      </trkpt>
      <trkpt lat="42.91645" lon="0.6909">
        <ele>497.2</ele>
        <time>2018-07-27T06:08:46Z</time>
      </trkpt>
      <trkpt lat="42.91621" lon="0.69114">
        <ele>495.44</ele>
        <time>2018-07-27T06:08:48Z</time>
      </trkpt>
      <trkpt lat="42.91602" lon="0.69145">
        <ele>494.16</ele>
        <time>2018-07-27T06:08:50Z</time>
      </trkpt>
      <trkpt lat="42.91583" lon="0.69176">
        <ele>495.87</ele>
        <time>2018-07-27T06:08:52Z</time>
      </trkpt>
      <trkpt lat="42.91567" lon="0.69199">
        <ele>496.44</ele>
        <time>2018-07-27T06:08:54Z</time>
      </trkpt>
      <trkpt lat="42.91549" lon="0.69207">
        <ele>496.27</ele>
        <time>2018-07-27T06:08:57Z</time>
      </trkpt>
      <trkpt lat="42.91541" lon="0.69183">
        <ele>494.97</ele>
        <time>2018-07-27T06:09:05Z</time>
      </trkpt>
      <trkpt lat="42.91553" lon="0.69151">
        <ele>491.56</ele>
        <time>2018-07-27T06:09:08Z</time>
      </trkpt>
      <trkpt lat="42.91563" lon="0.69118">
        <ele>490.38</ele>
        <time>2018-07-27T06:09:10Z</time>
      </trkpt>
      <trkpt lat="42.91573" lon="0.69096">
        <ele>490.3</ele>
        <time>2018-07-27T06:09:11Z</time>
      </trkpt>
      <trkpt lat="42.91584" lon="0.69075">
        <ele>490.98</ele>
        <time>2018-07-27T06:09:12Z</time>
      </trkpt>
      <trkpt lat="42.91598" lon="0.69053">
        <ele>491.18</ele>
        <time>2018-07-27T06:09:13Z</time>
      </trkpt>
      <trkpt lat="42.91611" lon="0.69028">
        <ele>490.54</ele>
        <time>2018-07-27T06:09:14Z</time>
      </trkpt>
      <trkpt lat="42.91624" lon="0.68999">
        <ele>491.05</ele>
        <time>2018-07-27T06:09:15Z</time>
      </trkpt>
      <trkpt lat="42.91637" lon="0.68972">
        <ele>491.2</ele>
        <time>2018-07-27T06:09:16Z</time>
      </trkpt>
      <trkpt lat="42.91649" lon="0.68946">
        <ele>491.25</ele>
        <time>2018-07-27T06:09:17Z</time>
      </trkpt>
      <trkpt lat="42.9166" lon="0.6892">
        <ele>491.96</ele>
        <time>2018-07-27T06:09:18Z</time>
      </trkpt>
      <trkpt lat="42.91669" lon="0.68895">
        <ele>492.88</ele>
        <time>2018-07-27T06:09:19Z</time>
      </trkpt>
      <trkpt lat="42.91676" lon="0.68869">
        <ele>493.85</ele>
        <time>2018-07-27T06:09:20Z</time>
      </trkpt>
      <trkpt lat="42.91682" lon="0.6884">
        <ele>494.14</ele>
        <time>2018-07-27T06:09:21Z</time>
      </trkpt>
      <trkpt lat="42.91673" lon="0.68804">
        <ele>494.23</ele>
        <time>2018-07-27T06:09:22Z</time>
      </trkpt>
      <trkpt lat="42.91671" lon="0.68772">
        <ele>494.26</ele>
        <time>2018-07-27T06:09:23Z</time>
      </trkpt>
      <trkpt lat="42.91674" lon="0.68741">
        <ele>494.96</ele>
        <time>2018-07-27T06:09:24Z</time>
      </trkpt>
      <trkpt lat="42.91678" lon="0.68708">
        <ele>494.48</ele>
        <time>2018-07-27T06:09:25Z</time>
      </trkpt>
      <trkpt lat="42.91685" lon="0.68675">
        <ele>494.33</ele>
        <time>2018-07-27T06:09:26Z</time>
      </trkpt>
      <trkpt lat="42.91693" lon="0.68643">
        <ele>494.29</ele>
        <time>2018-07-27T06:09:27Z</time>
      </trkpt>
      <trkpt lat="42.91704" lon="0.68615">
        <ele>494.97</ele>
        <time>2018-07-27T06:09:28Z</time>
      </trkpt>
      <trkpt lat="42.91715" lon="0.68588">
        <ele>495.88</ele>
        <time>2018-07-27T06:09:29Z</time>
      </trkpt>
      <trkpt lat="42.91725" lon="0.68559">
        <ele>497.55</ele>
        <time>2018-07-27T06:09:30Z</time>
      </trkpt>
      <trkpt lat="42.91733" lon="0.68529">
        <ele>498.05</ele>
        <time>2018-07-27T06:09:31Z</time>
      </trkpt>
      <trkpt lat="42.91736" lon="0.68495">
        <ele>498.2</ele>
        <time>2018-07-27T06:09:32Z</time>
      </trkpt>
      <trkpt lat="42.91741" lon="0.6846">
        <ele>498.25</ele>
        <time>2018-07-27T06:09:33Z</time>
      </trkpt>
      <trkpt lat="42.91743" lon="0.68425">
        <ele>498.26</ele>
        <time>2018-07-27T06:09:34Z</time>
      </trkpt>
      <trkpt lat="42.91745" lon="0.68387">
        <ele>498.27</ele>
        <time>2018-07-27T06:09:35Z</time>
      </trkpt>
      <trkpt lat="42.91748" lon="0.68348">
        <ele>498.27</ele>
        <time>2018-07-27T06:09:36Z</time>
      </trkpt>
      <trkpt lat="42.91751" lon="0.68309">
        <ele>497.57</ele>
        <time>2018-07-27T06:09:37Z</time>
      </trkpt>
      <trkpt lat="42.91753" lon="0.68269">
        <ele>496.66</ele>
        <time>2018-07-27T06:09:38Z</time>
      </trkpt>
      <trkpt lat="42.91755" lon="0.68228">
        <ele>495.68</ele>
        <time>2018-07-27T06:09:39Z</time>
      </trkpt>
      <trkpt lat="42.91754" lon="0.68187">
        <ele>495.39</ele>
        <time>2018-07-27T06:09:40Z</time>
      </trkpt>
      <trkpt lat="42.91752" lon="0.68147">
        <ele>493.9</ele>
        <time>2018-07-27T06:09:41Z</time>
      </trkpt>
      <trkpt lat="42.91749" lon="0.68107">
        <ele>493.46</ele>
        <time>2018-07-27T06:09:42Z</time>
      </trkpt>
      <trkpt lat="42.91744" lon="0.68066">
        <ele>493.32</ele>
        <time>2018-07-27T06:09:43Z</time>
      </trkpt>
      <trkpt lat="42.9174" lon="0.68026">
        <ele>493.28</ele>
        <time>2018-07-27T06:09:44Z</time>
      </trkpt>
      <trkpt lat="42.91736" lon="0.67986">
        <ele>493.27</ele>
        <time>2018-07-27T06:09:45Z</time>
      </trkpt>
      <trkpt lat="42.91732" lon="0.67947">
        <ele>493.27</ele>
        <time>2018-07-27T06:09:46Z</time>
      </trkpt>
      <trkpt lat="42.91727" lon="0.67908">
        <ele>493.27</ele>
        <time>2018-07-27T06:09:47Z</time>
      </trkpt>
      <trkpt lat="42.91723" lon="0.6787">
        <ele>493.27</ele>
        <time>2018-07-27T06:09:48Z</time>
      </trkpt>
      <trkpt lat="42.91719" lon="0.67833">
        <ele>493.27</ele>
        <time>2018-07-27T06:09:49Z</time>
      </trkpt>
      <trkpt lat="42.91714" lon="0.67796">
        <ele>493.27</ele>
        <time>2018-07-27T06:09:50Z</time>
      </trkpt>
      <trkpt lat="42.91709" lon="0.6776">
        <ele>493.27</ele>
        <time>2018-07-27T06:09:51Z</time>
      </trkpt>
      <trkpt lat="42.91705" lon="0.67725">
        <ele>493.27</ele>
        <time>2018-07-27T06:09:52Z</time>
      </trkpt>
      <trkpt lat="42.917" lon="0.67692">
        <ele>492.57</ele>
        <time>2018-07-27T06:09:53Z</time>
      </trkpt>
      <trkpt lat="42.91698" lon="0.6766">
        <ele>493.06</ele>
        <time>2018-07-27T06:09:54Z</time>
      </trkpt>
      <trkpt lat="42.91697" lon="0.67626">
        <ele>493.9</ele>
        <time>2018-07-27T06:09:55Z</time>
      </trkpt>
      <trkpt lat="42.91695" lon="0.67592">
        <ele>494.16</ele>
        <time>2018-07-27T06:09:56Z</time>
      </trkpt>
      <trkpt lat="42.91699" lon="0.67561">
        <ele>494.93</ele>
        <time>2018-07-27T06:09:57Z</time>
      </trkpt>
      <trkpt lat="42.917" lon="0.67531">
        <ele>495.17</ele>
        <time>2018-07-27T06:09:58Z</time>
      </trkpt>
      <trkpt lat="42.91698" lon="0.67501">
        <ele>495.24</ele>
        <time>2018-07-27T06:09:59Z</time>
      </trkpt>
      <trkpt lat="42.91692" lon="0.67474">
        <ele>495.26</ele>
        <time>2018-07-27T06:10:00Z</time>
      </trkpt>
      <trkpt lat="42.91687" lon="0.67446">
        <ele>495.96</ele>
        <time>2018-07-27T06:10:01Z</time>
      </trkpt>
      <trkpt lat="42.91679" lon="0.67421">
        <ele>495.48</ele>
        <time>2018-07-27T06:10:02Z</time>
      </trkpt>
      <trkpt lat="42.91674" lon="0.67392">
        <ele>494.63</ele>
        <time>2018-07-27T06:10:03Z</time>
      </trkpt>
      <trkpt lat="42.9167" lon="0.67365">
        <ele>495.08</ele>
        <time>2018-07-27T06:10:04Z</time>
      </trkpt>
      <trkpt lat="42.9167" lon="0.67336">
        <ele>495.91</ele>
        <time>2018-07-27T06:10:05Z</time>
      </trkpt>
      <trkpt lat="42.91672" lon="0.67303">
        <ele>496.16</ele>
        <time>2018-07-27T06:10:06Z</time>
      </trkpt>
      <trkpt lat="42.91669" lon="0.67272">
        <ele>494.83</ele>
        <time>2018-07-27T06:10:07Z</time>
      </trkpt>
      <trkpt lat="42.91665" lon="0.67238">
        <ele>493.74</ele>
        <time>2018-07-27T06:10:08Z</time>
      </trkpt>
      <trkpt lat="42.91663" lon="0.67207">
        <ele>494.81</ele>
        <time>2018-07-27T06:10:09Z</time>
      </trkpt>
      <trkpt lat="42.91656" lon="0.67173">
        <ele>495.13</ele>
        <time>2018-07-27T06:10:10Z</time>
      </trkpt>
      <trkpt lat="42.91643" lon="0.67139">
        <ele>495.93</ele>
        <time>2018-07-27T06:10:11Z</time>
      </trkpt>
      <trkpt lat="42.91632" lon="0.67106">
        <ele>496.16</ele>
        <time>2018-07-27T06:10:12Z</time>
      </trkpt>
      <trkpt lat="42.91623" lon="0.67073">
        <ele>497.64</ele>
        <time>2018-07-27T06:10:13Z</time>
      </trkpt>
      <trkpt lat="42.91616" lon="0.67042">
        <ele>498.78</ele>
        <time>2018-07-27T06:10:14Z</time>
      </trkpt>
      <trkpt lat="42.91608" lon="0.6701">
        <ele>499.12</ele>
        <time>2018-07-27T06:10:15Z</time>
      </trkpt>
      <trkpt lat="42.916" lon="0.66979">
        <ele>499.22</ele>
        <time>2018-07-27T06:10:16Z</time>
      </trkpt>
      <trkpt lat="42.9159" lon="0.66948">
        <ele>497.85</ele>
        <time>2018-07-27T06:10:17Z</time>
      </trkpt>
      <trkpt lat="42.91576" lon="0.6692">
        <ele>496.74</ele>
        <time>2018-07-27T06:10:18Z</time>
      </trkpt>
      <trkpt lat="42.91561" lon="0.66892">
        <ele>497.11</ele>
        <time>2018-07-27T06:10:19Z</time>
      </trkpt>
      <trkpt lat="42.91544" lon="0.66867">
        <ele>497.92</ele>
        <time>2018-07-27T06:10:20Z</time>
      </trkpt>
      <trkpt lat="42.91528" lon="0.6685">
        <ele>499.56</ele>
        <time>2018-07-27T06:10:21Z</time>
      </trkpt>
      <trkpt lat="42.91515" lon="0.66832">
        <ele>499.36</ele>
        <time>2018-07-27T06:10:22Z</time>
      </trkpt>
      <trkpt lat="42.91503" lon="0.66811">
        <ele>499.99</ele>
        <time>2018-07-27T06:10:23Z</time>
      </trkpt>
      <trkpt lat="42.91488" lon="0.66768">
        <ele>500.24</ele>
        <time>2018-07-27T06:10:25Z</time>
      </trkpt>
      <trkpt lat="42.91505" lon="0.66716">
        <ele>500.26</ele>
        <time>2018-07-27T06:10:27Z</time>
      </trkpt>
      <trkpt lat="42.91512" lon="0.66686">
        <ele>499.57</ele>
        <time>2018-07-27T06:10:28Z</time>
      </trkpt>
      <trkpt lat="42.91502" lon="0.66653">
        <ele>499.36</ele>
        <time>2018-07-27T06:10:29Z</time>
      </trkpt>
      <trkpt lat="42.91494" lon="0.66619">
        <ele>499.29</ele>
        <time>2018-07-27T06:10:30Z</time>
      </trkpt>
      <trkpt lat="42.91487" lon="0.66584">
        <ele>498.58</ele>
        <time>2018-07-27T06:10:31Z</time>
      </trkpt>
      <trkpt lat="42.91482" lon="0.66551">
        <ele>498.36</ele>
        <time>2018-07-27T06:10:32Z</time>
      </trkpt>
      <trkpt lat="42.91478" lon="0.66519">
        <ele>498.29</ele>
        <time>2018-07-27T06:10:33Z</time>
      </trkpt>
      <trkpt lat="42.91473" lon="0.66488">
        <ele>499.68</ele>
        <time>2018-07-27T06:10:34Z</time>
      </trkpt>
      <trkpt lat="42.91475" lon="0.66462">
        <ele>500.09</ele>
        <time>2018-07-27T06:10:35Z</time>
      </trkpt>
      <trkpt lat="42.91478" lon="0.66434">
        <ele>498.81</ele>
        <time>2018-07-27T06:10:36Z</time>
      </trkpt>
      <trkpt lat="42.91476" lon="0.66405">
        <ele>498.43</ele>
        <time>2018-07-27T06:10:37Z</time>
      </trkpt>
      <trkpt lat="42.91475" lon="0.66376">
        <ele>498.32</ele>
        <time>2018-07-27T06:10:38Z</time>
      </trkpt>
      <trkpt lat="42.91471" lon="0.66348">
        <ele>497.58</ele>
        <time>2018-07-27T06:10:39Z</time>
      </trkpt>
      <trkpt lat="42.91462" lon="0.66317">
        <ele>498.06</ele>
        <time>2018-07-27T06:10:40Z</time>
      </trkpt>
      <trkpt lat="42.91455" lon="0.66288">
        <ele>499.61</ele>
        <time>2018-07-27T06:10:41Z</time>
      </trkpt>
      <trkpt lat="42.91449" lon="0.66258">
        <ele>500.77</ele>
        <time>2018-07-27T06:10:42Z</time>
      </trkpt>
      <trkpt lat="42.91442" lon="0.66229">
        <ele>501.82</ele>
        <time>2018-07-27T06:10:43Z</time>
      </trkpt>
      <trkpt lat="42.91436" lon="0.66201">
        <ele>502.13</ele>
        <time>2018-07-27T06:10:44Z</time>
      </trkpt>
      <trkpt lat="42.91429" lon="0.66173">
        <ele>503.63</ele>
        <time>2018-07-27T06:10:45Z</time>
      </trkpt>
      <trkpt lat="42.91422" lon="0.66144">
        <ele>504.77</ele>
        <time>2018-07-27T06:10:46Z</time>
      </trkpt>
      <trkpt lat="42.91416" lon="0.66116">
        <ele>505.82</ele>
        <time>2018-07-27T06:10:47Z</time>
      </trkpt>
      <trkpt lat="42.9141" lon="0.66089">
        <ele>506.83</ele>
        <time>2018-07-27T06:10:48Z</time>
      </trkpt>
      <trkpt lat="42.91404" lon="0.66061">
        <ele>507.14</ele>
        <time>2018-07-27T06:10:49Z</time>
      </trkpt>
      <trkpt lat="42.91399" lon="0.66037">
        <ele>507.93</ele>
        <time>2018-07-27T06:10:50Z</time>
      </trkpt>
      <trkpt lat="42.91393" lon="0.66011">
        <ele>508.17</ele>
        <time>2018-07-27T06:10:51Z</time>
      </trkpt>
      <trkpt lat="42.91383" lon="0.65969">
        <ele>508.26</ele>
        <time>2018-07-27T06:10:53Z</time>
      </trkpt>
      <trkpt lat="42.91374" lon="0.6593">
        <ele>508.97</ele>
        <time>2018-07-27T06:10:55Z</time>
      </trkpt>
      <trkpt lat="42.91359" lon="0.65893">
        <ele>510.64</ele>
        <time>2018-07-27T06:10:57Z</time>
      </trkpt>
      <trkpt lat="42.91344" lon="0.65854">
        <ele>512.12</ele>
        <time>2018-07-27T06:10:59Z</time>
      </trkpt>
      <trkpt lat="42.91334" lon="0.65812">
        <ele>514.07</ele>
        <time>2018-07-27T06:11:01Z</time>
      </trkpt>
      <trkpt lat="42.91333" lon="0.65766">
        <ele>513.55</ele>
        <time>2018-07-27T06:11:03Z</time>
      </trkpt>
      <trkpt lat="42.91336" lon="0.65717">
        <ele>512.59</ele>
        <time>2018-07-27T06:11:05Z</time>
      </trkpt>
      <trkpt lat="42.91337" lon="0.65691">
        <ele>511.66</ele>
        <time>2018-07-27T06:11:06Z</time>
      </trkpt>
      <trkpt lat="42.91336" lon="0.65665">
        <ele>511.39</ele>
        <time>2018-07-27T06:11:07Z</time>
      </trkpt>
      <trkpt lat="42.91334" lon="0.65639">
        <ele>511.3</ele>
        <time>2018-07-27T06:11:08Z</time>
      </trkpt>
      <trkpt lat="42.91332" lon="0.65614">
        <ele>511.28</ele>
        <time>2018-07-27T06:11:09Z</time>
      </trkpt>
      <trkpt lat="42.9133" lon="0.65588">
        <ele>511.27</ele>
        <time>2018-07-27T06:11:10Z</time>
      </trkpt>
      <trkpt lat="42.91329" lon="0.65562">
        <ele>511.27</ele>
        <time>2018-07-27T06:11:11Z</time>
      </trkpt>
      <trkpt lat="42.91328" lon="0.65537">
        <ele>511.27</ele>
        <time>2018-07-27T06:11:12Z</time>
      </trkpt>
      <trkpt lat="42.91328" lon="0.65511">
        <ele>511.27</ele>
        <time>2018-07-27T06:11:13Z</time>
      </trkpt>
      <trkpt lat="42.91328" lon="0.65487">
        <ele>511.27</ele>
        <time>2018-07-27T06:11:14Z</time>
      </trkpt>
      <trkpt lat="42.91331" lon="0.65461">
        <ele>509.87</ele>
        <time>2018-07-27T06:11:15Z</time>
      </trkpt>
      <trkpt lat="42.91335" lon="0.65435">
        <ele>509.45</ele>
        <time>2018-07-27T06:11:16Z</time>
      </trkpt>
      <trkpt lat="42.91338" lon="0.65409">
        <ele>509.32</ele>
        <time>2018-07-27T06:11:17Z</time>
      </trkpt>
      <trkpt lat="42.91343" lon="0.65382">
        <ele>508.58</ele>
        <time>2018-07-27T06:11:18Z</time>
      </trkpt>
      <trkpt lat="42.91347" lon="0.65356">
        <ele>506.96</ele>
        <time>2018-07-27T06:11:19Z</time>
      </trkpt>
      <trkpt lat="42.91352" lon="0.65329">
        <ele>505.78</ele>
        <time>2018-07-27T06:11:20Z</time>
      </trkpt>
      <trkpt lat="42.91355" lon="0.65302">
        <ele>505.42</ele>
        <time>2018-07-27T06:11:21Z</time>
      </trkpt>
      <trkpt lat="42.91359" lon="0.65275">
        <ele>504.61</ele>
        <time>2018-07-27T06:11:22Z</time>
      </trkpt>
      <trkpt lat="42.91362" lon="0.65248">
        <ele>503.67</ele>
        <time>2018-07-27T06:11:23Z</time>
      </trkpt>
      <trkpt lat="42.91366" lon="0.65222">
        <ele>503.39</ele>
        <time>2018-07-27T06:11:24Z</time>
      </trkpt>
      <trkpt lat="42.91369" lon="0.65196">
        <ele>503.3</ele>
        <time>2018-07-27T06:11:25Z</time>
      </trkpt>
      <trkpt lat="42.91373" lon="0.6517">
        <ele>502.58</ele>
        <time>2018-07-27T06:11:26Z</time>
      </trkpt>
      <trkpt lat="42.91376" lon="0.65144">
        <ele>502.36</ele>
        <time>2018-07-27T06:11:27Z</time>
      </trkpt>
      <trkpt lat="42.9138" lon="0.65119">
        <ele>501.59</ele>
        <time>2018-07-27T06:11:28Z</time>
      </trkpt>
      <trkpt lat="42.91387" lon="0.65073">
        <ele>501.3</ele>
        <time>2018-07-27T06:11:30Z</time>
      </trkpt>
      <trkpt lat="42.91393" lon="0.65026">
        <ele>499.87</ele>
        <time>2018-07-27T06:11:32Z</time>
      </trkpt>
      <trkpt lat="42.91397" lon="0.65">
        <ele>498.05</ele>
        <time>2018-07-27T06:11:33Z</time>
      </trkpt>
      <trkpt lat="42.91401" lon="0.64972">
        <ele>496.8</ele>
        <time>2018-07-27T06:11:34Z</time>
      </trkpt>
      <trkpt lat="42.91406" lon="0.64944">
        <ele>495.03</ele>
        <time>2018-07-27T06:11:35Z</time>
      </trkpt>
      <trkpt lat="42.9141" lon="0.64915">
        <ele>493.8</ele>
        <time>2018-07-27T06:11:36Z</time>
      </trkpt>
      <trkpt lat="42.91414" lon="0.64887">
        <ele>492.73</ele>
        <time>2018-07-27T06:11:37Z</time>
      </trkpt>
      <trkpt lat="42.91418" lon="0.64861">
        <ele>492.4</ele>
        <time>2018-07-27T06:11:38Z</time>
      </trkpt>
      <trkpt lat="42.91424" lon="0.64818">
        <ele>492.98</ele>
        <time>2018-07-27T06:11:40Z</time>
      </trkpt>
      <trkpt lat="42.91429" lon="0.64787">
        <ele>493.24</ele>
        <time>2018-07-27T06:11:42Z</time>
      </trkpt>
      <trkpt lat="42.91437" lon="0.64764">
        <ele>490.54</ele>
        <time>2018-07-27T06:11:45Z</time>
      </trkpt>
      <trkpt lat="42.91446" lon="0.64739">
        <ele>488.39</ele>
        <time>2018-07-27T06:11:48Z</time>
      </trkpt>
      <trkpt lat="42.91421" lon="0.64729">
        <ele>486.66</ele>
        <time>2018-07-27T06:11:51Z</time>
      </trkpt>
      <trkpt lat="42.91393" lon="0.64722">
        <ele>486.51</ele>
        <time>2018-07-27T06:11:53Z</time>
      </trkpt>
      <trkpt lat="42.91375" lon="0.64709">
        <ele>487.04</ele>
        <time>2018-07-27T06:11:54Z</time>
      </trkpt>
      <trkpt lat="42.91356" lon="0.64697">
        <ele>487.9</ele>
        <time>2018-07-27T06:11:55Z</time>
      </trkpt>
      <trkpt lat="42.91336" lon="0.64681">
        <ele>488.86</ele>
        <time>2018-07-27T06:11:56Z</time>
      </trkpt>
      <trkpt lat="42.91318" lon="0.64661">
        <ele>489.14</ele>
        <time>2018-07-27T06:11:57Z</time>
      </trkpt>
      <trkpt lat="42.913" lon="0.64639">
        <ele>488.53</ele>
        <time>2018-07-27T06:11:58Z</time>
      </trkpt>
      <trkpt lat="42.91283" lon="0.64615">
        <ele>488.35</ele>
        <time>2018-07-27T06:11:59Z</time>
      </trkpt>
      <trkpt lat="42.91272" lon="0.6458">
        <ele>489.69</ele>
        <time>2018-07-27T06:12:00Z</time>
      </trkpt>
      <trkpt lat="42.91263" lon="0.64546">
        <ele>490.09</ele>
        <time>2018-07-27T06:12:01Z</time>
      </trkpt>
      <trkpt lat="42.91255" lon="0.64511">
        <ele>490.92</ele>
        <time>2018-07-27T06:12:02Z</time>
      </trkpt>
      <trkpt lat="42.91249" lon="0.64476">
        <ele>491.86</ele>
        <time>2018-07-27T06:12:03Z</time>
      </trkpt>
      <trkpt lat="42.91243" lon="0.64442">
        <ele>492.15</ele>
        <time>2018-07-27T06:12:04Z</time>
      </trkpt>
      <trkpt lat="42.91236" lon="0.64408">
        <ele>493.63</ele>
        <time>2018-07-27T06:12:05Z</time>
      </trkpt>
      <trkpt lat="42.91226" lon="0.64373">
        <ele>494.08</ele>
        <time>2018-07-27T06:12:06Z</time>
      </trkpt>
      <trkpt lat="42.91216" lon="0.64336">
        <ele>494.21</ele>
        <time>2018-07-27T06:12:07Z</time>
      </trkpt>
      <trkpt lat="42.91204" lon="0.64296">
        <ele>494.25</ele>
        <time>2018-07-27T06:12:08Z</time>
      </trkpt>
      <trkpt lat="42.91192" lon="0.64256">
        <ele>494.26</ele>
        <time>2018-07-27T06:12:09Z</time>
      </trkpt>
      <trkpt lat="42.91182" lon="0.64216">
        <ele>494.27</ele>
        <time>2018-07-27T06:12:10Z</time>
      </trkpt>
      <trkpt lat="42.9117" lon="0.64176">
        <ele>494.97</ele>
        <time>2018-07-27T06:12:11Z</time>
      </trkpt>
      <trkpt lat="42.91159" lon="0.64138">
        <ele>495.18</ele>
        <time>2018-07-27T06:12:12Z</time>
      </trkpt>
      <trkpt lat="42.91148" lon="0.64101">
        <ele>496.64</ele>
        <time>2018-07-27T06:12:13Z</time>
      </trkpt>
      <trkpt lat="42.91135" lon="0.64065">
        <ele>497.78</ele>
        <time>2018-07-27T06:12:14Z</time>
      </trkpt>
      <trkpt lat="42.91121" lon="0.64029">
        <ele>498.82</ele>
        <time>2018-07-27T06:12:15Z</time>
      </trkpt>
      <trkpt lat="42.91106" lon="0.63994">
        <ele>499.83</ele>
        <time>2018-07-27T06:12:16Z</time>
      </trkpt>
      <trkpt lat="42.9109" lon="0.6396">
        <ele>501.54</ele>
        <time>2018-07-27T06:12:17Z</time>
      </trkpt>
      <trkpt lat="42.91072" lon="0.63928">
        <ele>502.05</ele>
        <time>2018-07-27T06:12:18Z</time>
      </trkpt>
      <trkpt lat="42.91054" lon="0.63897">
        <ele>502.9</ele>
        <time>2018-07-27T06:12:19Z</time>
      </trkpt>
      <trkpt lat="42.91033" lon="0.63869">
        <ele>503.16</ele>
        <time>2018-07-27T06:12:20Z</time>
      </trkpt>
      <trkpt lat="42.91012" lon="0.63842">
        <ele>503.93</ele>
        <time>2018-07-27T06:12:21Z</time>
      </trkpt>
      <trkpt lat="42.9099" lon="0.63816">
        <ele>504.17</ele>
        <time>2018-07-27T06:12:22Z</time>
      </trkpt>
      <trkpt lat="42.90967" lon="0.63791">
        <ele>504.24</ele>
        <time>2018-07-27T06:12:23Z</time>
      </trkpt>
      <trkpt lat="42.90943" lon="0.63767">
        <ele>504.26</ele>
        <time>2018-07-27T06:12:24Z</time>
      </trkpt>
      <trkpt lat="42.90917" lon="0.63744">
        <ele>504.26</ele>
        <time>2018-07-27T06:12:25Z</time>
      </trkpt>
      <trkpt lat="42.90892" lon="0.63722">
        <ele>504.27</ele>
        <time>2018-07-27T06:12:26Z</time>
      </trkpt>
      <trkpt lat="42.90867" lon="0.63702">
        <ele>504.27</ele>
        <time>2018-07-27T06:12:27Z</time>
      </trkpt>
      <trkpt lat="42.9084" lon="0.63685">
        <ele>504.97</ele>
        <time>2018-07-27T06:12:28Z</time>
      </trkpt>
      <trkpt lat="42.90813" lon="0.63669">
        <ele>505.18</ele>
        <time>2018-07-27T06:12:29Z</time>
      </trkpt>
      <trkpt lat="42.90786" lon="0.63655">
        <ele>504.54</ele>
        <time>2018-07-27T06:12:30Z</time>
      </trkpt>
      <trkpt lat="42.90759" lon="0.63642">
        <ele>504.35</ele>
        <time>2018-07-27T06:12:31Z</time>
      </trkpt>
      <trkpt lat="42.90731" lon="0.63628">
        <ele>504.29</ele>
        <time>2018-07-27T06:12:32Z</time>
      </trkpt>
      <trkpt lat="42.90704" lon="0.63614">
        <ele>504.27</ele>
        <time>2018-07-27T06:12:33Z</time>
      </trkpt>
      <trkpt lat="42.90676" lon="0.63598">
        <ele>504.27</ele>
        <time>2018-07-27T06:12:34Z</time>
      </trkpt>
      <trkpt lat="42.90649" lon="0.63583">
        <ele>505.67</ele>
        <time>2018-07-27T06:12:35Z</time>
      </trkpt>
      <trkpt lat="42.90624" lon="0.63566">
        <ele>505.39</ele>
        <time>2018-07-27T06:12:36Z</time>
      </trkpt>
      <trkpt lat="42.90597" lon="0.63547">
        <ele>506</ele>
        <time>2018-07-27T06:12:37Z</time>
      </trkpt>
      <trkpt lat="42.90572" lon="0.63529">
        <ele>506.89</ele>
        <time>2018-07-27T06:12:38Z</time>
      </trkpt>
      <trkpt lat="42.90549" lon="0.63508">
        <ele>507.85</ele>
        <time>2018-07-27T06:12:39Z</time>
      </trkpt>
      <trkpt lat="42.90529" lon="0.63481">
        <ele>508.84</ele>
        <time>2018-07-27T06:12:40Z</time>
      </trkpt>
      <trkpt lat="42.90509" lon="0.63454">
        <ele>509.84</ele>
        <time>2018-07-27T06:12:41Z</time>
      </trkpt>
      <trkpt lat="42.9049" lon="0.63427">
        <ele>509.44</ele>
        <time>2018-07-27T06:12:42Z</time>
      </trkpt>
      <trkpt lat="42.9047" lon="0.63398">
        <ele>509.32</ele>
        <time>2018-07-27T06:12:43Z</time>
      </trkpt>
      <trkpt lat="42.9045" lon="0.6337">
        <ele>509.28</ele>
        <time>2018-07-27T06:12:44Z</time>
      </trkpt>
      <trkpt lat="42.90437" lon="0.63345">
        <ele>509.27</ele>
        <time>2018-07-27T06:12:45Z</time>
      </trkpt>
      <trkpt lat="42.90427" lon="0.6332">
        <ele>508.57</ele>
        <time>2018-07-27T06:12:46Z</time>
      </trkpt>
      <trkpt lat="42.90411" lon="0.63299">
        <ele>509.06</ele>
        <time>2018-07-27T06:12:47Z</time>
      </trkpt>
      <trkpt lat="42.90396" lon="0.63276">
        <ele>509.2</ele>
        <time>2018-07-27T06:12:48Z</time>
      </trkpt>
      <trkpt lat="42.90377" lon="0.63265">
        <ele>509.25</ele>
        <time>2018-07-27T06:12:49Z</time>
      </trkpt>
      <trkpt lat="42.90357" lon="0.63262">
        <ele>509.96</ele>
        <time>2018-07-27T06:12:50Z</time>
      </trkpt>
      <trkpt lat="42.90339" lon="0.63258">
        <ele>510.18</ele>
        <time>2018-07-27T06:12:51Z</time>
      </trkpt>
      <trkpt lat="42.9032" lon="0.63263">
        <ele>510.94</ele>
        <time>2018-07-27T06:12:52Z</time>
      </trkpt>
      <trkpt lat="42.90277" lon="0.63296">
        <ele>511.94</ele>
        <time>2018-07-27T06:12:54Z</time>
      </trkpt>
      <trkpt lat="42.90254" lon="0.63319">
        <ele>512.17</ele>
        <time>2018-07-27T06:12:55Z</time>
      </trkpt>
      <trkpt lat="42.90233" lon="0.63356">
        <ele>512.94</ele>
        <time>2018-07-27T06:12:56Z</time>
      </trkpt>
      <trkpt lat="42.90219" lon="0.63376">
        <ele>514.57</ele>
        <time>2018-07-27T06:12:57Z</time>
      </trkpt>
      <trkpt lat="42.90203" lon="0.63392">
        <ele>516.46</ele>
        <time>2018-07-27T06:12:58Z</time>
      </trkpt>
      <trkpt lat="42.90184" lon="0.63394">
        <ele>517.72</ele>
        <time>2018-07-27T06:12:59Z</time>
      </trkpt>
      <trkpt lat="42.90166" lon="0.63398">
        <ele>518.8</ele>
        <time>2018-07-27T06:13:00Z</time>
      </trkpt>
      <trkpt lat="42.9013" lon="0.63389">
        <ele>519.23</ele>
        <time>2018-07-27T06:13:02Z</time>
      </trkpt>
      <trkpt lat="42.90107" lon="0.63382">
        <ele>520.65</ele>
        <time>2018-07-27T06:13:03Z</time>
      </trkpt>
      <trkpt lat="42.90082" lon="0.6337">
        <ele>523.18</ele>
        <time>2018-07-27T06:13:04Z</time>
      </trkpt>
      <trkpt lat="42.90054" lon="0.63352">
        <ele>523.94</ele>
        <time>2018-07-27T06:13:05Z</time>
      </trkpt>
      <trkpt lat="42.90028" lon="0.63338">
        <ele>524.87</ele>
        <time>2018-07-27T06:13:06Z</time>
      </trkpt>
      <trkpt lat="42.90003" lon="0.63326">
        <ele>525.15</ele>
        <time>2018-07-27T06:13:07Z</time>
      </trkpt>
      <trkpt lat="42.89982" lon="0.63315">
        <ele>525.23</ele>
        <time>2018-07-27T06:13:08Z</time>
      </trkpt>
      <trkpt lat="42.89963" lon="0.633">
        <ele>525.26</ele>
        <time>2018-07-27T06:13:09Z</time>
      </trkpt>
      <trkpt lat="42.89949" lon="0.63282">
        <ele>526.66</ele>
        <time>2018-07-27T06:13:10Z</time>
      </trkpt>
      <trkpt lat="42.89936" lon="0.63265">
        <ele>527.79</ele>
        <time>2018-07-27T06:13:11Z</time>
      </trkpt>
      <trkpt lat="42.89922" lon="0.63244">
        <ele>528.82</ele>
        <time>2018-07-27T06:13:12Z</time>
      </trkpt>
      <trkpt lat="42.89907" lon="0.6321">
        <ele>528.43</ele>
        <time>2018-07-27T06:13:13Z</time>
      </trkpt>
      <trkpt lat="42.89899" lon="0.63182">
        <ele>526.22</ele>
        <time>2018-07-27T06:13:14Z</time>
      </trkpt>
      <trkpt lat="42.8989" lon="0.63151">
        <ele>524.85</ele>
        <time>2018-07-27T06:13:15Z</time>
      </trkpt>
      <trkpt lat="42.89907" lon="0.63119">
        <ele>524.44</ele>
        <time>2018-07-27T06:13:16Z</time>
      </trkpt>
      <trkpt lat="42.89908" lon="0.63091">
        <ele>524.32</ele>
        <time>2018-07-27T06:13:17Z</time>
      </trkpt>
      <trkpt lat="42.89911" lon="0.63046">
        <ele>521.96</ele>
        <time>2018-07-27T06:13:19Z</time>
      </trkpt>
      <trkpt lat="42.8993" lon="0.63038">
        <ele>521.48</ele>
        <time>2018-07-27T06:13:20Z</time>
      </trkpt>
      <trkpt lat="42.89948" lon="0.63006">
        <ele>520.59</ele>
        <time>2018-07-27T06:13:22Z</time>
      </trkpt>
      <trkpt lat="42.89944" lon="0.62963">
        <ele>521</ele>
        <time>2018-07-27T06:13:24Z</time>
      </trkpt>
      <trkpt lat="42.89924" lon="0.62907">
        <ele>521.24</ele>
        <time>2018-07-27T06:13:26Z</time>
      </trkpt>
      <trkpt lat="42.89912" lon="0.62872">
        <ele>521.96</ele>
        <time>2018-07-27T06:13:27Z</time>
      </trkpt>
      <trkpt lat="42.89902" lon="0.62839">
        <ele>522.87</ele>
        <time>2018-07-27T06:13:28Z</time>
      </trkpt>
      <trkpt lat="42.89893" lon="0.62805">
        <ele>524.55</ele>
        <time>2018-07-27T06:13:29Z</time>
      </trkpt>
      <trkpt lat="42.89883" lon="0.6277">
        <ele>526.45</ele>
        <time>2018-07-27T06:13:30Z</time>
      </trkpt>
      <trkpt lat="42.89873" lon="0.62736">
        <ele>527.72</ele>
        <time>2018-07-27T06:13:31Z</time>
      </trkpt>
      <trkpt lat="42.89862" lon="0.62702">
        <ele>528.8</ele>
        <time>2018-07-27T06:13:32Z</time>
      </trkpt>
      <trkpt lat="42.89851" lon="0.62671">
        <ele>529.83</ele>
        <time>2018-07-27T06:13:33Z</time>
      </trkpt>
      <trkpt lat="42.89838" lon="0.62641">
        <ele>529.44</ele>
        <time>2018-07-27T06:13:34Z</time>
      </trkpt>
      <trkpt lat="42.89826" lon="0.62617">
        <ele>529.32</ele>
        <time>2018-07-27T06:13:35Z</time>
      </trkpt>
      <trkpt lat="42.8981" lon="0.62592">
        <ele>529.98</ele>
        <time>2018-07-27T06:13:36Z</time>
      </trkpt>
      <trkpt lat="42.89792" lon="0.62565">
        <ele>531.15</ele>
        <time>2018-07-27T06:13:38Z</time>
      </trkpt>
      <trkpt lat="42.89788" lon="0.6253">
        <ele>533.08</ele>
        <time>2018-07-27T06:13:40Z</time>
      </trkpt>
      <trkpt lat="42.8977" lon="0.62496">
        <ele>535.56</ele>
        <time>2018-07-27T06:13:42Z</time>
      </trkpt>
      <trkpt lat="42.8974" lon="0.62464">
        <ele>535.29</ele>
        <time>2018-07-27T06:13:44Z</time>
      </trkpt>
      <trkpt lat="42.89722" lon="0.62446">
        <ele>535.97</ele>
        <time>2018-07-27T06:13:45Z</time>
      </trkpt>
      <trkpt lat="42.897" lon="0.62427">
        <ele>536.18</ele>
        <time>2018-07-27T06:13:46Z</time>
      </trkpt>
      <trkpt lat="42.89677" lon="0.62407">
        <ele>537.64</ele>
        <time>2018-07-27T06:13:47Z</time>
      </trkpt>
      <trkpt lat="42.89655" lon="0.62386">
        <ele>538.78</ele>
        <time>2018-07-27T06:13:48Z</time>
      </trkpt>
      <trkpt lat="42.89632" lon="0.62366">
        <ele>539.82</ele>
        <time>2018-07-27T06:13:49Z</time>
      </trkpt>
      <trkpt lat="42.8961" lon="0.62346">
        <ele>541.53</ele>
        <time>2018-07-27T06:13:50Z</time>
      </trkpt>
      <trkpt lat="42.89588" lon="0.62327">
        <ele>542.75</ele>
        <time>2018-07-27T06:13:51Z</time>
      </trkpt>
      <trkpt lat="42.89566" lon="0.62307">
        <ele>542.41</ele>
        <time>2018-07-27T06:13:52Z</time>
      </trkpt>
      <trkpt lat="42.89546" lon="0.62287">
        <ele>542.31</ele>
        <time>2018-07-27T06:13:53Z</time>
      </trkpt>
      <trkpt lat="42.89532" lon="0.62265">
        <ele>542.28</ele>
        <time>2018-07-27T06:13:54Z</time>
      </trkpt>
      <trkpt lat="42.89518" lon="0.62246">
        <ele>542.97</ele>
        <time>2018-07-27T06:13:55Z</time>
      </trkpt>
      <trkpt lat="42.89505" lon="0.62227">
        <ele>543.18</ele>
        <time>2018-07-27T06:13:56Z</time>
      </trkpt>
      <trkpt lat="42.89479" lon="0.622">
        <ele>543.96</ele>
        <time>2018-07-27T06:13:58Z</time>
      </trkpt>
      <trkpt lat="42.89451" lon="0.62178">
        <ele>544.24</ele>
        <time>2018-07-27T06:14:00Z</time>
      </trkpt>
      <trkpt lat="42.89417" lon="0.62156">
        <ele>542.86</ele>
        <time>2018-07-27T06:14:02Z</time>
      </trkpt>
      <trkpt lat="42.89396" lon="0.62142">
        <ele>543.15</ele>
        <time>2018-07-27T06:14:03Z</time>
      </trkpt>
      <trkpt lat="42.89376" lon="0.62126">
        <ele>542.53</ele>
        <time>2018-07-27T06:14:04Z</time>
      </trkpt>
      <trkpt lat="42.89356" lon="0.62112">
        <ele>543.05</ele>
        <time>2018-07-27T06:14:05Z</time>
      </trkpt>
      <trkpt lat="42.89338" lon="0.62098">
        <ele>543.2</ele>
        <time>2018-07-27T06:14:06Z</time>
      </trkpt>
      <trkpt lat="42.89322" lon="0.62087">
        <ele>544.65</ele>
        <time>2018-07-27T06:14:07Z</time>
      </trkpt>
      <trkpt lat="42.89304" lon="0.62077">
        <ele>545.08</ele>
        <time>2018-07-27T06:14:08Z</time>
      </trkpt>
      <trkpt lat="42.89271" lon="0.62075">
        <ele>545.25</ele>
        <time>2018-07-27T06:14:10Z</time>
      </trkpt>
      <trkpt lat="42.89247" lon="0.6209">
        <ele>546.67</ele>
        <time>2018-07-27T06:14:12Z</time>
      </trkpt>
      <trkpt lat="42.89228" lon="0.62109">
        <ele>547.09</ele>
        <time>2018-07-27T06:14:13Z</time>
      </trkpt>
      <trkpt lat="42.8921" lon="0.62126">
        <ele>547.91</ele>
        <time>2018-07-27T06:14:14Z</time>
      </trkpt>
      <trkpt lat="42.89188" lon="0.62141">
        <ele>548.16</ele>
        <time>2018-07-27T06:14:15Z</time>
      </trkpt>
      <trkpt lat="42.8917" lon="0.62148">
        <ele>548.24</ele>
        <time>2018-07-27T06:14:16Z</time>
      </trkpt>
      <trkpt lat="42.89153" lon="0.62157">
        <ele>548.96</ele>
        <time>2018-07-27T06:14:17Z</time>
      </trkpt>
      <trkpt lat="42.8912" lon="0.62155">
        <ele>549.03</ele>
        <time>2018-07-27T06:14:19Z</time>
      </trkpt>
      <trkpt lat="42.89089" lon="0.62131">
        <ele>549.25</ele>
        <time>2018-07-27T06:14:21Z</time>
      </trkpt>
      <trkpt lat="42.89076" lon="0.6211">
        <ele>549.96</ele>
        <time>2018-07-27T06:14:22Z</time>
      </trkpt>
      <trkpt lat="42.89072" lon="0.62059">
        <ele>550.18</ele>
        <time>2018-07-27T06:14:23Z</time>
      </trkpt>
      <trkpt lat="42.89063" lon="0.6203">
        <ele>550.24</ele>
        <time>2018-07-27T06:14:24Z</time>
      </trkpt>
      <trkpt lat="42.8905" lon="0.61995">
        <ele>550.05</ele>
        <time>2018-07-27T06:14:26Z</time>
      </trkpt>
      <trkpt lat="42.89031" lon="0.61972">
        <ele>549.29</ele>
        <time>2018-07-27T06:14:29Z</time>
      </trkpt>
      <trkpt lat="42.89007" lon="0.61974">
        <ele>549.97</ele>
        <time>2018-07-27T06:14:31Z</time>
      </trkpt>
      <trkpt lat="42.88983" lon="0.61986">
        <ele>550.88</ele>
        <time>2018-07-27T06:14:32Z</time>
      </trkpt>
      <trkpt lat="42.88955" lon="0.62005">
        <ele>551.15</ele>
        <time>2018-07-27T06:14:33Z</time>
      </trkpt>
      <trkpt lat="42.8893" lon="0.62008">
        <ele>552.63</ele>
        <time>2018-07-27T06:14:34Z</time>
      </trkpt>
      <trkpt lat="42.88902" lon="0.62005">
        <ele>552.38</ele>
        <time>2018-07-27T06:14:35Z</time>
      </trkpt>
      <trkpt lat="42.88875" lon="0.61995">
        <ele>553.7</ele>
        <time>2018-07-27T06:14:36Z</time>
      </trkpt>
      <trkpt lat="42.88849" lon="0.61989">
        <ele>554.1</ele>
        <time>2018-07-27T06:14:37Z</time>
      </trkpt>
      <trkpt lat="42.88824" lon="0.61981">
        <ele>553.52</ele>
        <time>2018-07-27T06:14:38Z</time>
      </trkpt>
      <trkpt lat="42.88801" lon="0.61973">
        <ele>554.04</ele>
        <time>2018-07-27T06:14:39Z</time>
      </trkpt>
      <trkpt lat="42.88779" lon="0.61962">
        <ele>553.5</ele>
        <time>2018-07-27T06:14:40Z</time>
      </trkpt>
      <trkpt lat="42.88753" lon="0.61959">
        <ele>556.02</ele>
        <time>2018-07-27T06:14:42Z</time>
      </trkpt>
      <trkpt lat="42.88726" lon="0.61943">
        <ele>556.94</ele>
        <time>2018-07-27T06:14:44Z</time>
      </trkpt>
      <trkpt lat="42.88711" lon="0.61927">
        <ele>555.77</ele>
        <time>2018-07-27T06:14:45Z</time>
      </trkpt>
      <trkpt lat="42.88696" lon="0.61908">
        <ele>556.12</ele>
        <time>2018-07-27T06:14:46Z</time>
      </trkpt>
      <trkpt lat="42.88679" lon="0.61888">
        <ele>556.22</ele>
        <time>2018-07-27T06:14:47Z</time>
      </trkpt>
      <trkpt lat="42.88662" lon="0.61869">
        <ele>556.25</ele>
        <time>2018-07-27T06:14:48Z</time>
      </trkpt>
      <trkpt lat="42.88641" lon="0.6185">
        <ele>556.26</ele>
        <time>2018-07-27T06:14:49Z</time>
      </trkpt>
      <trkpt lat="42.88619" lon="0.61835">
        <ele>556.27</ele>
        <time>2018-07-27T06:14:50Z</time>
      </trkpt>
      <trkpt lat="42.88598" lon="0.61819">
        <ele>556.27</ele>
        <time>2018-07-27T06:14:51Z</time>
      </trkpt>
      <trkpt lat="42.88578" lon="0.61798">
        <ele>556.97</ele>
        <time>2018-07-27T06:14:52Z</time>
      </trkpt>
      <trkpt lat="42.88563" lon="0.6177">
        <ele>557.88</ele>
        <time>2018-07-27T06:14:53Z</time>
      </trkpt>
      <trkpt lat="42.88547" lon="0.61743">
        <ele>559.55</ele>
        <time>2018-07-27T06:14:54Z</time>
      </trkpt>
      <trkpt lat="42.88532" lon="0.61716">
        <ele>560.75</ele>
        <time>2018-07-27T06:14:55Z</time>
      </trkpt>
      <trkpt lat="42.88515" lon="0.61694">
        <ele>561.81</ele>
        <time>2018-07-27T06:14:56Z</time>
      </trkpt>
      <trkpt lat="42.88499" lon="0.61673">
        <ele>562.83</ele>
        <time>2018-07-27T06:14:57Z</time>
      </trkpt>
      <trkpt lat="42.8848" lon="0.61654">
        <ele>563.14</ele>
        <time>2018-07-27T06:14:58Z</time>
      </trkpt>
      <trkpt lat="42.88457" lon="0.61643">
        <ele>563.93</ele>
        <time>2018-07-27T06:14:59Z</time>
      </trkpt>
      <trkpt lat="42.88434" lon="0.61631">
        <ele>564.17</ele>
        <time>2018-07-27T06:15:00Z</time>
      </trkpt>
      <trkpt lat="42.88412" lon="0.61614">
        <ele>565.64</ele>
        <time>2018-07-27T06:15:01Z</time>
      </trkpt>
      <trkpt lat="42.88394" lon="0.61594">
        <ele>566.08</ele>
        <time>2018-07-27T06:15:02Z</time>
      </trkpt>
      <trkpt lat="42.8838" lon="0.61566">
        <ele>566.21</ele>
        <time>2018-07-27T06:15:03Z</time>
      </trkpt>
      <trkpt lat="42.88364" lon="0.61539">
        <ele>566.95</ele>
        <time>2018-07-27T06:15:04Z</time>
      </trkpt>
      <trkpt lat="42.8835" lon="0.61509">
        <ele>567.17</ele>
        <time>2018-07-27T06:15:05Z</time>
      </trkpt>
      <trkpt lat="42.88336" lon="0.61481">
        <ele>567.94</ele>
        <time>2018-07-27T06:15:06Z</time>
      </trkpt>
      <trkpt lat="42.88323" lon="0.61454">
        <ele>568.17</ele>
        <time>2018-07-27T06:15:07Z</time>
      </trkpt>
      <trkpt lat="42.88308" lon="0.61431">
        <ele>568.94</ele>
        <time>2018-07-27T06:15:08Z</time>
      </trkpt>
      <trkpt lat="42.88292" lon="0.61408">
        <ele>568.47</ele>
        <time>2018-07-27T06:15:09Z</time>
      </trkpt>
      <trkpt lat="42.88274" lon="0.6139">
        <ele>568.33</ele>
        <time>2018-07-27T06:15:10Z</time>
      </trkpt>
      <trkpt lat="42.88255" lon="0.61372">
        <ele>568.99</ele>
        <time>2018-07-27T06:15:11Z</time>
      </trkpt>
      <trkpt lat="42.8823" lon="0.61366">
        <ele>569.18</ele>
        <time>2018-07-27T06:15:12Z</time>
      </trkpt>
      <trkpt lat="42.88208" lon="0.61354">
        <ele>569.24</ele>
        <time>2018-07-27T06:15:13Z</time>
      </trkpt>
      <trkpt lat="42.88184" lon="0.61343">
        <ele>569.26</ele>
        <time>2018-07-27T06:15:14Z</time>
      </trkpt>
      <trkpt lat="42.88155" lon="0.6134">
        <ele>569.26</ele>
        <time>2018-07-27T06:15:15Z</time>
      </trkpt>
      <trkpt lat="42.88119" lon="0.61352">
        <ele>569.97</ele>
        <time>2018-07-27T06:15:16Z</time>
      </trkpt>
      <trkpt lat="42.88089" lon="0.61352">
        <ele>570.88</ele>
        <time>2018-07-27T06:15:17Z</time>
      </trkpt>
      <trkpt lat="42.8806" lon="0.6135">
        <ele>571.15</ele>
        <time>2018-07-27T06:15:18Z</time>
      </trkpt>
      <trkpt lat="42.88032" lon="0.61348">
        <ele>571.93</ele>
        <time>2018-07-27T06:15:19Z</time>
      </trkpt>
      <trkpt lat="42.88003" lon="0.61348">
        <ele>572.87</ele>
        <time>2018-07-27T06:15:20Z</time>
      </trkpt>
      <trkpt lat="42.87975" lon="0.61353">
        <ele>575.25</ele>
        <time>2018-07-27T06:15:21Z</time>
      </trkpt>
      <trkpt lat="42.87949" lon="0.6136">
        <ele>575.96</ele>
        <time>2018-07-27T06:15:22Z</time>
      </trkpt>
      <trkpt lat="42.87923" lon="0.61371">
        <ele>576.88</ele>
        <time>2018-07-27T06:15:23Z</time>
      </trkpt>
      <trkpt lat="42.87897" lon="0.61381">
        <ele>577.85</ele>
        <time>2018-07-27T06:15:24Z</time>
      </trkpt>
      <trkpt lat="42.8787" lon="0.61392">
        <ele>578.14</ele>
        <time>2018-07-27T06:15:25Z</time>
      </trkpt>
      <trkpt lat="42.87843" lon="0.61402">
        <ele>578.23</ele>
        <time>2018-07-27T06:15:26Z</time>
      </trkpt>
      <trkpt lat="42.87817" lon="0.61409">
        <ele>578.26</ele>
        <time>2018-07-27T06:15:27Z</time>
      </trkpt>
      <trkpt lat="42.87791" lon="0.61414">
        <ele>578.26</ele>
        <time>2018-07-27T06:15:28Z</time>
      </trkpt>
      <trkpt lat="42.87765" lon="0.61413">
        <ele>577.57</ele>
        <time>2018-07-27T06:15:29Z</time>
      </trkpt>
      <trkpt lat="42.87739" lon="0.61405">
        <ele>577.36</ele>
        <time>2018-07-27T06:15:30Z</time>
      </trkpt>
      <trkpt lat="42.87714" lon="0.61393">
        <ele>577.99</ele>
        <time>2018-07-27T06:15:31Z</time>
      </trkpt>
      <trkpt lat="42.87688" lon="0.61377">
        <ele>578.19</ele>
        <time>2018-07-27T06:15:32Z</time>
      </trkpt>
      <trkpt lat="42.87661" lon="0.61366">
        <ele>578.94</ele>
        <time>2018-07-27T06:15:33Z</time>
      </trkpt>
      <trkpt lat="42.87635" lon="0.61353">
        <ele>579.17</ele>
        <time>2018-07-27T06:15:34Z</time>
      </trkpt>
      <trkpt lat="42.87608" lon="0.61341">
        <ele>579.24</ele>
        <time>2018-07-27T06:15:35Z</time>
      </trkpt>
      <trkpt lat="42.87582" lon="0.61329">
        <ele>579.96</ele>
        <time>2018-07-27T06:15:36Z</time>
      </trkpt>
      <trkpt lat="42.87555" lon="0.61315">
        <ele>579.47</ele>
        <time>2018-07-27T06:15:37Z</time>
      </trkpt>
      <trkpt lat="42.87528" lon="0.61303">
        <ele>580.03</ele>
        <time>2018-07-27T06:15:38Z</time>
      </trkpt>
      <trkpt lat="42.87502" lon="0.6129">
        <ele>580.2</ele>
        <time>2018-07-27T06:15:39Z</time>
      </trkpt>
      <trkpt lat="42.87476" lon="0.6128">
        <ele>580.25</ele>
        <time>2018-07-27T06:15:40Z</time>
      </trkpt>
      <trkpt lat="42.8745" lon="0.61268">
        <ele>580.26</ele>
        <time>2018-07-27T06:15:41Z</time>
      </trkpt>
      <trkpt lat="42.87423" lon="0.61256">
        <ele>580.97</ele>
        <time>2018-07-27T06:15:42Z</time>
      </trkpt>
      <trkpt lat="42.87397" lon="0.61244">
        <ele>581.88</ele>
        <time>2018-07-27T06:15:43Z</time>
      </trkpt>
      <trkpt lat="42.87371" lon="0.61231">
        <ele>582.15</ele>
        <time>2018-07-27T06:15:44Z</time>
      </trkpt>
      <trkpt lat="42.87346" lon="0.61217">
        <ele>582.23</ele>
        <time>2018-07-27T06:15:45Z</time>
      </trkpt>
      <trkpt lat="42.87322" lon="0.61201">
        <ele>582.96</ele>
        <time>2018-07-27T06:15:46Z</time>
      </trkpt>
      <trkpt lat="42.87297" lon="0.61183">
        <ele>583.17</ele>
        <time>2018-07-27T06:15:47Z</time>
      </trkpt>
      <trkpt lat="42.87274" lon="0.61166">
        <ele>583.24</ele>
        <time>2018-07-27T06:15:48Z</time>
      </trkpt>
      <trkpt lat="42.87249" lon="0.6115">
        <ele>583.96</ele>
        <time>2018-07-27T06:15:49Z</time>
      </trkpt>
      <trkpt lat="42.87224" lon="0.61135">
        <ele>585.57</ele>
        <time>2018-07-27T06:15:50Z</time>
      </trkpt>
      <trkpt lat="42.87199" lon="0.61121">
        <ele>586.76</ele>
        <time>2018-07-27T06:15:51Z</time>
      </trkpt>
      <trkpt lat="42.87175" lon="0.61108">
        <ele>585.01</ele>
        <time>2018-07-27T06:15:52Z</time>
      </trkpt>
      <trkpt lat="42.87148" lon="0.611">
        <ele>583.79</ele>
        <time>2018-07-27T06:15:53Z</time>
      </trkpt>
      <trkpt lat="42.87121" lon="0.61089">
        <ele>583.42</ele>
        <time>2018-07-27T06:15:54Z</time>
      </trkpt>
      <trkpt lat="42.87096" lon="0.61079">
        <ele>583.31</ele>
        <time>2018-07-27T06:15:55Z</time>
      </trkpt>
      <trkpt lat="42.87071" lon="0.61063">
        <ele>584.68</ele>
        <time>2018-07-27T06:15:56Z</time>
      </trkpt>
      <trkpt lat="42.87048" lon="0.61046">
        <ele>584.39</ele>
        <time>2018-07-27T06:15:57Z</time>
      </trkpt>
      <trkpt lat="42.87025" lon="0.61028">
        <ele>586.4</ele>
        <time>2018-07-27T06:15:58Z</time>
      </trkpt>
      <trkpt lat="42.87002" lon="0.61013">
        <ele>587.71</ele>
        <time>2018-07-27T06:15:59Z</time>
      </trkpt>
      <trkpt lat="42.86979" lon="0.60999">
        <ele>588.1</ele>
        <time>2018-07-27T06:16:00Z</time>
      </trkpt>
      <trkpt lat="42.86955" lon="0.60991">
        <ele>591.72</ele>
        <time>2018-07-27T06:16:01Z</time>
      </trkpt>
      <trkpt lat="42.86931" lon="0.60981">
        <ele>594.2</ele>
        <time>2018-07-27T06:16:02Z</time>
      </trkpt>
      <trkpt lat="42.86906" lon="0.60972">
        <ele>596.35</ele>
        <time>2018-07-27T06:16:03Z</time>
      </trkpt>
      <trkpt lat="42.86881" lon="0.60967">
        <ele>597.69</ele>
        <time>2018-07-27T06:16:04Z</time>
      </trkpt>
      <trkpt lat="42.86857" lon="0.60957">
        <ele>598.79</ele>
        <time>2018-07-27T06:16:05Z</time>
      </trkpt>
      <trkpt lat="42.86833" lon="0.60946">
        <ele>599.83</ele>
        <time>2018-07-27T06:16:06Z</time>
      </trkpt>
      <trkpt lat="42.86811" lon="0.60934">
        <ele>600.13</ele>
        <time>2018-07-27T06:16:07Z</time>
      </trkpt>
      <trkpt lat="42.86789" lon="0.6092">
        <ele>600.93</ele>
        <time>2018-07-27T06:16:08Z</time>
      </trkpt>
      <trkpt lat="42.86768" lon="0.60899">
        <ele>601.17</ele>
        <time>2018-07-27T06:16:09Z</time>
      </trkpt>
      <trkpt lat="42.86753" lon="0.60867">
        <ele>601.24</ele>
        <time>2018-07-27T06:16:10Z</time>
      </trkpt>
      <trkpt lat="42.86735" lon="0.60841">
        <ele>601.96</ele>
        <time>2018-07-27T06:16:11Z</time>
      </trkpt>
      <trkpt lat="42.86715" lon="0.60816">
        <ele>602.17</ele>
        <time>2018-07-27T06:16:12Z</time>
      </trkpt>
      <trkpt lat="42.86694" lon="0.60792">
        <ele>602.94</ele>
        <time>2018-07-27T06:16:13Z</time>
      </trkpt>
      <trkpt lat="42.86671" lon="0.60768">
        <ele>602.47</ele>
        <time>2018-07-27T06:16:14Z</time>
      </trkpt>
      <trkpt lat="42.86648" lon="0.60747">
        <ele>602.33</ele>
        <time>2018-07-27T06:16:15Z</time>
      </trkpt>
      <trkpt lat="42.86626" lon="0.60726">
        <ele>602.29</ele>
        <time>2018-07-27T06:16:16Z</time>
      </trkpt>
      <trkpt lat="42.86603" lon="0.60706">
        <ele>602.97</ele>
        <time>2018-07-27T06:16:17Z</time>
      </trkpt>
      <trkpt lat="42.8658" lon="0.60685">
        <ele>603.18</ele>
        <time>2018-07-27T06:16:18Z</time>
      </trkpt>
      <trkpt lat="42.86559" lon="0.60665">
        <ele>603.94</ele>
        <time>2018-07-27T06:16:19Z</time>
      </trkpt>
      <trkpt lat="42.86538" lon="0.60645">
        <ele>604.17</ele>
        <time>2018-07-27T06:16:20Z</time>
      </trkpt>
      <trkpt lat="42.86515" lon="0.60625">
        <ele>604.94</ele>
        <time>2018-07-27T06:16:21Z</time>
      </trkpt>
      <trkpt lat="42.86494" lon="0.60603">
        <ele>603.77</ele>
        <time>2018-07-27T06:16:22Z</time>
      </trkpt>
      <trkpt lat="42.86472" lon="0.60582">
        <ele>604.12</ele>
        <time>2018-07-27T06:16:23Z</time>
      </trkpt>
      <trkpt lat="42.8645" lon="0.60562">
        <ele>603.52</ele>
        <time>2018-07-27T06:16:24Z</time>
      </trkpt>
      <trkpt lat="42.86428" lon="0.60543">
        <ele>602.64</ele>
        <time>2018-07-27T06:16:25Z</time>
      </trkpt>
      <trkpt lat="42.86405" lon="0.60527">
        <ele>602.38</ele>
        <time>2018-07-27T06:16:26Z</time>
      </trkpt>
      <trkpt lat="42.86381" lon="0.60514">
        <ele>602.3</ele>
        <time>2018-07-27T06:16:27Z</time>
      </trkpt>
      <trkpt lat="42.86355" lon="0.60506">
        <ele>601.58</ele>
        <time>2018-07-27T06:16:28Z</time>
      </trkpt>
      <trkpt lat="42.86327" lon="0.60503">
        <ele>601.36</ele>
        <time>2018-07-27T06:16:29Z</time>
      </trkpt>
      <trkpt lat="42.86298" lon="0.60515">
        <ele>601.99</ele>
        <time>2018-07-27T06:16:30Z</time>
      </trkpt>
      <trkpt lat="42.86271" lon="0.60521">
        <ele>601.49</ele>
        <time>2018-07-27T06:16:31Z</time>
      </trkpt>
      <trkpt lat="42.86244" lon="0.60529">
        <ele>600.63</ele>
        <time>2018-07-27T06:16:32Z</time>
      </trkpt>
      <trkpt lat="42.86217" lon="0.60538">
        <ele>600.38</ele>
        <time>2018-07-27T06:16:33Z</time>
      </trkpt>
      <trkpt lat="42.86186" lon="0.60546">
        <ele>601</ele>
        <time>2018-07-27T06:16:34Z</time>
      </trkpt>
      <trkpt lat="42.86157" lon="0.60554">
        <ele>601.19</ele>
        <time>2018-07-27T06:16:35Z</time>
      </trkpt>
      <trkpt lat="42.86127" lon="0.60561">
        <ele>600.54</ele>
        <time>2018-07-27T06:16:36Z</time>
      </trkpt>
      <trkpt lat="42.86099" lon="0.60571">
        <ele>601.05</ele>
        <time>2018-07-27T06:16:37Z</time>
      </trkpt>
      <trkpt lat="42.86071" lon="0.60579">
        <ele>601.9</ele>
        <time>2018-07-27T06:16:38Z</time>
      </trkpt>
      <trkpt lat="42.86044" lon="0.60584">
        <ele>601.46</ele>
        <time>2018-07-27T06:16:39Z</time>
      </trkpt>
      <trkpt lat="42.86016" lon="0.6059">
        <ele>602.02</ele>
        <time>2018-07-27T06:16:40Z</time>
      </trkpt>
      <trkpt lat="42.85989" lon="0.60585">
        <ele>600.79</ele>
        <time>2018-07-27T06:16:41Z</time>
      </trkpt>
      <trkpt lat="42.85962" lon="0.60578">
        <ele>600.43</ele>
        <time>2018-07-27T06:16:42Z</time>
      </trkpt>
      <trkpt lat="42.85934" lon="0.60572">
        <ele>600.31</ele>
        <time>2018-07-27T06:16:43Z</time>
      </trkpt>
      <trkpt lat="42.85906" lon="0.60567">
        <ele>599.58</ele>
        <time>2018-07-27T06:16:44Z</time>
      </trkpt>
      <trkpt lat="42.85878" lon="0.60562">
        <ele>599.36</ele>
        <time>2018-07-27T06:16:45Z</time>
      </trkpt>
      <trkpt lat="42.85849" lon="0.6056">
        <ele>598.6</ele>
        <time>2018-07-27T06:16:46Z</time>
      </trkpt>
      <trkpt lat="42.85822" lon="0.60566">
        <ele>599.07</ele>
        <time>2018-07-27T06:16:47Z</time>
      </trkpt>
      <trkpt lat="42.85795" lon="0.60571">
        <ele>598.51</ele>
        <time>2018-07-27T06:16:48Z</time>
      </trkpt>
      <trkpt lat="42.85768" lon="0.60576">
        <ele>598.34</ele>
        <time>2018-07-27T06:16:49Z</time>
      </trkpt>
      <trkpt lat="42.85742" lon="0.60587">
        <ele>598.29</ele>
        <time>2018-07-27T06:16:50Z</time>
      </trkpt>
      <trkpt lat="42.85716" lon="0.60596">
        <ele>597.57</ele>
        <time>2018-07-27T06:16:51Z</time>
      </trkpt>
      <trkpt lat="42.8569" lon="0.60605">
        <ele>598.06</ele>
        <time>2018-07-27T06:16:52Z</time>
      </trkpt>
      <trkpt lat="42.85663" lon="0.60609">
        <ele>598.2</ele>
        <time>2018-07-27T06:16:53Z</time>
      </trkpt>
      <trkpt lat="42.85633" lon="0.60608">
        <ele>598.25</ele>
        <time>2018-07-27T06:16:54Z</time>
      </trkpt>
      <trkpt lat="42.85609" lon="0.60599">
        <ele>596.16</ele>
        <time>2018-07-27T06:16:55Z</time>
      </trkpt>
      <trkpt lat="42.85584" lon="0.60585">
        <ele>596.24</ele>
        <time>2018-07-27T06:16:56Z</time>
      </trkpt>
      <trkpt lat="42.85561" lon="0.60568">
        <ele>596.26</ele>
        <time>2018-07-27T06:16:57Z</time>
      </trkpt>
      <trkpt lat="42.85536" lon="0.60553">
        <ele>595.56</ele>
        <time>2018-07-27T06:16:58Z</time>
      </trkpt>
      <trkpt lat="42.85513" lon="0.60539">
        <ele>595.36</ele>
        <time>2018-07-27T06:16:59Z</time>
      </trkpt>
      <trkpt lat="42.85489" lon="0.60524">
        <ele>595.29</ele>
        <time>2018-07-27T06:17:00Z</time>
      </trkpt>
      <trkpt lat="42.85466" lon="0.6051">
        <ele>595.28</ele>
        <time>2018-07-27T06:17:01Z</time>
      </trkpt>
      <trkpt lat="42.85442" lon="0.60497">
        <ele>595.27</ele>
        <time>2018-07-27T06:17:02Z</time>
      </trkpt>
      <trkpt lat="42.8542" lon="0.60481">
        <ele>595.97</ele>
        <time>2018-07-27T06:17:03Z</time>
      </trkpt>
      <trkpt lat="42.85402" lon="0.60453">
        <ele>592.68</ele>
        <time>2018-07-27T06:17:04Z</time>
      </trkpt>
      <trkpt lat="42.85382" lon="0.60433">
        <ele>591.69</ele>
        <time>2018-07-27T06:17:05Z</time>
      </trkpt>
      <trkpt lat="42.85367" lon="0.60409">
        <ele>591.39</ele>
        <time>2018-07-27T06:17:06Z</time>
      </trkpt>
      <trkpt lat="42.85349" lon="0.60389">
        <ele>592.01</ele>
        <time>2018-07-27T06:17:07Z</time>
      </trkpt>
      <trkpt lat="42.85334" lon="0.6037">
        <ele>592.89</ele>
        <time>2018-07-27T06:17:08Z</time>
      </trkpt>
      <trkpt lat="42.85319" lon="0.60352">
        <ele>593.85</ele>
        <time>2018-07-27T06:17:09Z</time>
      </trkpt>
      <trkpt lat="42.85305" lon="0.60334">
        <ele>594.14</ele>
        <time>2018-07-27T06:17:10Z</time>
      </trkpt>
      <trkpt lat="42.85289" lon="0.60318">
        <ele>594.23</ele>
        <time>2018-07-27T06:17:11Z</time>
      </trkpt>
      <trkpt lat="42.85272" lon="0.60302">
        <ele>593.56</ele>
        <time>2018-07-27T06:17:12Z</time>
      </trkpt>
      <trkpt lat="42.85249" lon="0.6029">
        <ele>594.75</ele>
        <time>2018-07-27T06:17:13Z</time>
      </trkpt>
      <trkpt lat="42.85228" lon="0.60277">
        <ele>595.81</ele>
        <time>2018-07-27T06:17:14Z</time>
      </trkpt>
      <trkpt lat="42.85207" lon="0.60264">
        <ele>596.13</ele>
        <time>2018-07-27T06:17:15Z</time>
      </trkpt>
      <trkpt lat="42.85186" lon="0.60255">
        <ele>596.93</ele>
        <time>2018-07-27T06:17:16Z</time>
      </trkpt>
      <trkpt lat="42.85162" lon="0.60251">
        <ele>597.86</ele>
        <time>2018-07-27T06:17:17Z</time>
      </trkpt>
      <trkpt lat="42.85135" lon="0.60249">
        <ele>597.45</ele>
        <time>2018-07-27T06:17:18Z</time>
      </trkpt>
      <trkpt lat="42.85109" lon="0.6025">
        <ele>598.02</ele>
        <time>2018-07-27T06:17:19Z</time>
      </trkpt>
      <trkpt lat="42.85082" lon="0.60253">
        <ele>598.19</ele>
        <time>2018-07-27T06:17:20Z</time>
      </trkpt>
      <trkpt lat="42.85055" lon="0.60254">
        <ele>598.24</ele>
        <time>2018-07-27T06:17:21Z</time>
      </trkpt>
      <trkpt lat="42.85029" lon="0.60255">
        <ele>598.26</ele>
        <time>2018-07-27T06:17:22Z</time>
      </trkpt>
      <trkpt lat="42.85003" lon="0.60255">
        <ele>598.27</ele>
        <time>2018-07-27T06:17:23Z</time>
      </trkpt>
      <trkpt lat="42.84978" lon="0.60258">
        <ele>596.87</ele>
        <time>2018-07-27T06:17:24Z</time>
      </trkpt>
      <trkpt lat="42.84953" lon="0.60262">
        <ele>596.45</ele>
        <time>2018-07-27T06:17:25Z</time>
      </trkpt>
      <trkpt lat="42.84929" lon="0.60267">
        <ele>597.02</ele>
        <time>2018-07-27T06:17:26Z</time>
      </trkpt>
      <trkpt lat="42.84905" lon="0.60272">
        <ele>597.89</ele>
        <time>2018-07-27T06:17:27Z</time>
      </trkpt>
      <trkpt lat="42.84882" lon="0.60277">
        <ele>598.15</ele>
        <time>2018-07-27T06:17:28Z</time>
      </trkpt>
      <trkpt lat="42.8486" lon="0.60283">
        <ele>598.23</ele>
        <time>2018-07-27T06:17:29Z</time>
      </trkpt>
      <trkpt lat="42.84837" lon="0.60288">
        <ele>598.96</ele>
        <time>2018-07-27T06:17:30Z</time>
      </trkpt>
      <trkpt lat="42.84815" lon="0.60294">
        <ele>599.17</ele>
        <time>2018-07-27T06:17:31Z</time>
      </trkpt>
      <trkpt lat="42.84793" lon="0.60299">
        <ele>599.94</ele>
        <time>2018-07-27T06:17:32Z</time>
      </trkpt>
      <trkpt lat="42.84771" lon="0.60305">
        <ele>600.87</ele>
        <time>2018-07-27T06:17:33Z</time>
      </trkpt>
      <trkpt lat="42.84748" lon="0.6031">
        <ele>601.85</ele>
        <time>2018-07-27T06:17:34Z</time>
      </trkpt>
      <trkpt lat="42.84725" lon="0.60316">
        <ele>602.14</ele>
        <time>2018-07-27T06:17:35Z</time>
      </trkpt>
      <trkpt lat="42.84703" lon="0.60322">
        <ele>602.23</ele>
        <time>2018-07-27T06:17:36Z</time>
      </trkpt>
      <trkpt lat="42.84682" lon="0.60327">
        <ele>602.96</ele>
        <time>2018-07-27T06:17:37Z</time>
      </trkpt>
      <trkpt lat="42.8466" lon="0.60332">
        <ele>603.17</ele>
        <time>2018-07-27T06:17:38Z</time>
      </trkpt>
      <trkpt lat="42.84638" lon="0.60338">
        <ele>603.94</ele>
        <time>2018-07-27T06:17:39Z</time>
      </trkpt>
      <trkpt lat="42.84617" lon="0.60342">
        <ele>603.47</ele>
        <time>2018-07-27T06:17:40Z</time>
      </trkpt>
      <trkpt lat="42.84595" lon="0.60347">
        <ele>604.03</ele>
        <time>2018-07-27T06:17:41Z</time>
      </trkpt>
      <trkpt lat="42.84574" lon="0.60351">
        <ele>604.2</ele>
        <time>2018-07-27T06:17:42Z</time>
      </trkpt>
      <trkpt lat="42.84552" lon="0.60357">
        <ele>604.25</ele>
        <time>2018-07-27T06:17:43Z</time>
      </trkpt>
      <trkpt lat="42.84531" lon="0.60362">
        <ele>604.26</ele>
        <time>2018-07-27T06:17:44Z</time>
      </trkpt>
      <trkpt lat="42.8451" lon="0.60366">
        <ele>604.27</ele>
        <time>2018-07-27T06:17:45Z</time>
      </trkpt>
      <trkpt lat="42.84489" lon="0.60371">
        <ele>604.97</ele>
        <time>2018-07-27T06:17:46Z</time>
      </trkpt>
      <trkpt lat="42.84468" lon="0.60375">
        <ele>605.88</ele>
        <time>2018-07-27T06:17:47Z</time>
      </trkpt>
      <trkpt lat="42.84447" lon="0.6038">
        <ele>605.45</ele>
        <time>2018-07-27T06:17:48Z</time>
      </trkpt>
      <trkpt lat="42.84426" lon="0.60383">
        <ele>605.32</ele>
        <time>2018-07-27T06:17:49Z</time>
      </trkpt>
      <trkpt lat="42.84404" lon="0.60387">
        <ele>605.98</ele>
        <time>2018-07-27T06:17:50Z</time>
      </trkpt>
      <trkpt lat="42.84383" lon="0.60391">
        <ele>606.18</ele>
        <time>2018-07-27T06:17:51Z</time>
      </trkpt>
      <trkpt lat="42.84361" lon="0.60395">
        <ele>606.24</ele>
        <time>2018-07-27T06:17:52Z</time>
      </trkpt>
      <trkpt lat="42.84339" lon="0.60399">
        <ele>606.26</ele>
        <time>2018-07-27T06:17:53Z</time>
      </trkpt>
      <trkpt lat="42.84318" lon="0.60403">
        <ele>606.26</ele>
        <time>2018-07-27T06:17:54Z</time>
      </trkpt>
      <trkpt lat="42.84296" lon="0.60408">
        <ele>605.57</ele>
        <time>2018-07-27T06:17:55Z</time>
      </trkpt>
      <trkpt lat="42.84275" lon="0.60413">
        <ele>605.36</ele>
        <time>2018-07-27T06:17:56Z</time>
      </trkpt>
      <trkpt lat="42.84253" lon="0.60418">
        <ele>604.59</ele>
        <time>2018-07-27T06:17:57Z</time>
      </trkpt>
      <trkpt lat="42.84232" lon="0.60424">
        <ele>604.37</ele>
        <time>2018-07-27T06:17:58Z</time>
      </trkpt>
      <trkpt lat="42.84211" lon="0.60432">
        <ele>604.3</ele>
        <time>2018-07-27T06:17:59Z</time>
      </trkpt>
      <trkpt lat="42.8419" lon="0.6044">
        <ele>603.58</ele>
        <time>2018-07-27T06:18:00Z</time>
      </trkpt>
      <trkpt lat="42.8417" lon="0.60448">
        <ele>604.06</ele>
        <time>2018-07-27T06:18:01Z</time>
      </trkpt>
      <trkpt lat="42.84149" lon="0.60454">
        <ele>604.2</ele>
        <time>2018-07-27T06:18:02Z</time>
      </trkpt>
      <trkpt lat="42.84129" lon="0.60458">
        <ele>604.95</ele>
        <time>2018-07-27T06:18:03Z</time>
      </trkpt>
      <trkpt lat="42.84108" lon="0.60461">
        <ele>605.17</ele>
        <time>2018-07-27T06:18:04Z</time>
      </trkpt>
      <trkpt lat="42.84087" lon="0.60461">
        <ele>605.24</ele>
        <time>2018-07-27T06:18:05Z</time>
      </trkpt>
      <trkpt lat="42.84067" lon="0.60459">
        <ele>605.96</ele>
        <time>2018-07-27T06:18:06Z</time>
      </trkpt>
      <trkpt lat="42.84047" lon="0.60456">
        <ele>606.87</ele>
        <time>2018-07-27T06:18:07Z</time>
      </trkpt>
      <trkpt lat="42.84027" lon="0.60451">
        <ele>607.85</ele>
        <time>2018-07-27T06:18:08Z</time>
      </trkpt>
      <trkpt lat="42.84006" lon="0.60445">
        <ele>608.14</ele>
        <time>2018-07-27T06:18:09Z</time>
      </trkpt>
      <trkpt lat="42.83985" lon="0.60439">
        <ele>608.23</ele>
        <time>2018-07-27T06:18:10Z</time>
      </trkpt>
      <trkpt lat="42.83964" lon="0.60433">
        <ele>608.26</ele>
        <time>2018-07-27T06:18:11Z</time>
      </trkpt>
      <trkpt lat="42.83943" lon="0.60427">
        <ele>609.66</ele>
        <time>2018-07-27T06:18:12Z</time>
      </trkpt>
      <trkpt lat="42.83921" lon="0.60421">
        <ele>610.09</ele>
        <time>2018-07-27T06:18:13Z</time>
      </trkpt>
      <trkpt lat="42.839" lon="0.60414">
        <ele>610.91</ele>
        <time>2018-07-27T06:18:14Z</time>
      </trkpt>
      <trkpt lat="42.83878" lon="0.60408">
        <ele>611.16</ele>
        <time>2018-07-27T06:18:15Z</time>
      </trkpt>
      <trkpt lat="42.83857" lon="0.60402">
        <ele>611.24</ele>
        <time>2018-07-27T06:18:16Z</time>
      </trkpt>
      <trkpt lat="42.83836" lon="0.60396">
        <ele>611.96</ele>
        <time>2018-07-27T06:18:17Z</time>
      </trkpt>
      <trkpt lat="42.83815" lon="0.6039">
        <ele>611.47</ele>
        <time>2018-07-27T06:18:18Z</time>
      </trkpt>
      <trkpt lat="42.83794" lon="0.60384">
        <ele>611.33</ele>
        <time>2018-07-27T06:18:19Z</time>
      </trkpt>
      <trkpt lat="42.83773" lon="0.60378">
        <ele>611.29</ele>
        <time>2018-07-27T06:18:20Z</time>
      </trkpt>
      <trkpt lat="42.83752" lon="0.60372">
        <ele>610.57</ele>
        <time>2018-07-27T06:18:21Z</time>
      </trkpt>
      <trkpt lat="42.8373" lon="0.60366">
        <ele>609.66</ele>
        <time>2018-07-27T06:18:22Z</time>
      </trkpt>
      <trkpt lat="42.83708" lon="0.60359">
        <ele>608.68</ele>
        <time>2018-07-27T06:18:23Z</time>
      </trkpt>
      <trkpt lat="42.83686" lon="0.60353">
        <ele>608.39</ele>
        <time>2018-07-27T06:18:24Z</time>
      </trkpt>
      <trkpt lat="42.83665" lon="0.60347">
        <ele>607.6</ele>
        <time>2018-07-27T06:18:25Z</time>
      </trkpt>
      <trkpt lat="42.83643" lon="0.6034">
        <ele>607.37</ele>
        <time>2018-07-27T06:18:26Z</time>
      </trkpt>
      <trkpt lat="42.83621" lon="0.60334">
        <ele>606.6</ele>
        <time>2018-07-27T06:18:27Z</time>
      </trkpt>
      <trkpt lat="42.83599" lon="0.60328">
        <ele>606.37</ele>
        <time>2018-07-27T06:18:28Z</time>
      </trkpt>
      <trkpt lat="42.83576" lon="0.60323">
        <ele>605.6</ele>
        <time>2018-07-27T06:18:29Z</time>
      </trkpt>
      <trkpt lat="42.83554" lon="0.60317">
        <ele>606.07</ele>
        <time>2018-07-27T06:18:30Z</time>
      </trkpt>
      <trkpt lat="42.83532" lon="0.60312">
        <ele>606.91</ele>
        <time>2018-07-27T06:18:31Z</time>
      </trkpt>
      <trkpt lat="42.83511" lon="0.60306">
        <ele>607.16</ele>
        <time>2018-07-27T06:18:32Z</time>
      </trkpt>
      <trkpt lat="42.83491" lon="0.603">
        <ele>607.23</ele>
        <time>2018-07-27T06:18:33Z</time>
      </trkpt>
      <trkpt lat="42.83471" lon="0.60295">
        <ele>607.26</ele>
        <time>2018-07-27T06:18:34Z</time>
      </trkpt>
      <trkpt lat="42.8345" lon="0.60289">
        <ele>607.26</ele>
        <time>2018-07-27T06:18:35Z</time>
      </trkpt>
      <trkpt lat="42.83429" lon="0.60283">
        <ele>607.27</ele>
        <time>2018-07-27T06:18:36Z</time>
      </trkpt>
      <trkpt lat="42.83408" lon="0.60277">
        <ele>607.27</ele>
        <time>2018-07-27T06:18:37Z</time>
      </trkpt>
      <trkpt lat="42.83387" lon="0.60272">
        <ele>607.27</ele>
        <time>2018-07-27T06:18:38Z</time>
      </trkpt>
      <trkpt lat="42.83366" lon="0.60267">
        <ele>607.27</ele>
        <time>2018-07-27T06:18:39Z</time>
      </trkpt>
      <trkpt lat="42.83345" lon="0.60261">
        <ele>607.27</ele>
        <time>2018-07-27T06:18:40Z</time>
      </trkpt>
      <trkpt lat="42.83325" lon="0.60255">
        <ele>607.27</ele>
        <time>2018-07-27T06:18:41Z</time>
      </trkpt>
      <trkpt lat="42.83305" lon="0.6025">
        <ele>607.27</ele>
        <time>2018-07-27T06:18:42Z</time>
      </trkpt>
      <trkpt lat="42.83285" lon="0.60245">
        <ele>607.97</ele>
        <time>2018-07-27T06:18:43Z</time>
      </trkpt>
      <trkpt lat="42.83266" lon="0.60239">
        <ele>607.48</ele>
        <time>2018-07-27T06:18:44Z</time>
      </trkpt>
      <trkpt lat="42.83246" lon="0.60234">
        <ele>608.03</ele>
        <time>2018-07-27T06:18:45Z</time>
      </trkpt>
      <trkpt lat="42.83227" lon="0.60227">
        <ele>606.8</ele>
        <time>2018-07-27T06:18:46Z</time>
      </trkpt>
      <trkpt lat="42.83207" lon="0.60222">
        <ele>607.83</ele>
        <time>2018-07-27T06:18:47Z</time>
      </trkpt>
      <trkpt lat="42.83187" lon="0.60217">
        <ele>607.43</ele>
        <time>2018-07-27T06:18:48Z</time>
      </trkpt>
      <trkpt lat="42.83167" lon="0.60211">
        <ele>607.32</ele>
        <time>2018-07-27T06:18:49Z</time>
      </trkpt>
      <trkpt lat="42.83148" lon="0.60205">
        <ele>607.28</ele>
        <time>2018-07-27T06:18:50Z</time>
      </trkpt>
      <trkpt lat="42.83129" lon="0.60199">
        <ele>607.27</ele>
        <time>2018-07-27T06:18:51Z</time>
      </trkpt>
      <trkpt lat="42.8311" lon="0.60194">
        <ele>607.27</ele>
        <time>2018-07-27T06:18:52Z</time>
      </trkpt>
      <trkpt lat="42.83091" lon="0.60189">
        <ele>607.27</ele>
        <time>2018-07-27T06:18:53Z</time>
      </trkpt>
      <trkpt lat="42.83073" lon="0.60184">
        <ele>605.87</ele>
        <time>2018-07-27T06:18:54Z</time>
      </trkpt>
      <trkpt lat="42.8304" lon="0.60175">
        <ele>605.32</ele>
        <time>2018-07-27T06:18:56Z</time>
      </trkpt>
      <trkpt lat="42.83009" lon="0.60167">
        <ele>606.18</ele>
        <time>2018-07-27T06:18:58Z</time>
      </trkpt>
      <trkpt lat="42.82982" lon="0.60162">
        <ele>607.17</ele>
        <time>2018-07-27T06:19:00Z</time>
      </trkpt>
      <trkpt lat="42.82955" lon="0.60162">
        <ele>605.86</ele>
        <time>2018-07-27T06:19:02Z</time>
      </trkpt>
      <trkpt lat="42.82934" lon="0.60165">
        <ele>606.02</ele>
        <time>2018-07-27T06:19:04Z</time>
      </trkpt>
      <trkpt lat="42.82909" lon="0.60159">
        <ele>608.84</ele>
        <time>2018-07-27T06:19:07Z</time>
      </trkpt>
      <trkpt lat="42.82889" lon="0.6016">
        <ele>608.77</ele>
        <time>2018-07-27T06:19:10Z</time>
      </trkpt>
      <trkpt lat="42.82867" lon="0.60174">
        <ele>610.23</ele>
        <time>2018-07-27T06:19:13Z</time>
      </trkpt>
      <trkpt lat="42.82841" lon="0.60181">
        <ele>611.17</ele>
        <time>2018-07-27T06:19:15Z</time>
      </trkpt>
      <trkpt lat="42.82808" lon="0.60189">
        <ele>611.96</ele>
        <time>2018-07-27T06:19:17Z</time>
      </trkpt>
      <trkpt lat="42.8279" lon="0.60193">
        <ele>612.17</ele>
        <time>2018-07-27T06:19:18Z</time>
      </trkpt>
      <trkpt lat="42.82771" lon="0.60197">
        <ele>612.24</ele>
        <time>2018-07-27T06:19:19Z</time>
      </trkpt>
      <trkpt lat="42.82753" lon="0.60202">
        <ele>612.26</ele>
        <time>2018-07-27T06:19:20Z</time>
      </trkpt>
      <trkpt lat="42.82734" lon="0.60207">
        <ele>612.26</ele>
        <time>2018-07-27T06:19:21Z</time>
      </trkpt>
      <trkpt lat="42.82715" lon="0.60213">
        <ele>611.57</ele>
        <time>2018-07-27T06:19:22Z</time>
      </trkpt>
      <trkpt lat="42.82696" lon="0.60219">
        <ele>611.36</ele>
        <time>2018-07-27T06:19:23Z</time>
      </trkpt>
      <trkpt lat="42.82675" lon="0.60227">
        <ele>611.99</ele>
        <time>2018-07-27T06:19:24Z</time>
      </trkpt>
      <trkpt lat="42.82652" lon="0.60236">
        <ele>611.49</ele>
        <time>2018-07-27T06:19:25Z</time>
      </trkpt>
      <trkpt lat="42.82627" lon="0.60248">
        <ele>609.93</ele>
        <time>2018-07-27T06:19:26Z</time>
      </trkpt>
      <trkpt lat="42.82602" lon="0.60257">
        <ele>610.17</ele>
        <time>2018-07-27T06:19:27Z</time>
      </trkpt>
      <trkpt lat="42.82577" lon="0.60268">
        <ele>610.24</ele>
        <time>2018-07-27T06:19:28Z</time>
      </trkpt>
      <trkpt lat="42.82552" lon="0.60279">
        <ele>610.26</ele>
        <time>2018-07-27T06:19:29Z</time>
      </trkpt>
      <trkpt lat="42.82527" lon="0.6029">
        <ele>610.26</ele>
        <time>2018-07-27T06:19:30Z</time>
      </trkpt>
      <trkpt lat="42.82502" lon="0.60302">
        <ele>610.97</ele>
        <time>2018-07-27T06:19:31Z</time>
      </trkpt>
      <trkpt lat="42.82477" lon="0.60314">
        <ele>611.18</ele>
        <time>2018-07-27T06:19:32Z</time>
      </trkpt>
      <trkpt lat="42.82452" lon="0.60325">
        <ele>611.24</ele>
        <time>2018-07-27T06:19:33Z</time>
      </trkpt>
      <trkpt lat="42.82428" lon="0.60335">
        <ele>611.96</ele>
        <time>2018-07-27T06:19:34Z</time>
      </trkpt>
      <trkpt lat="42.82403" lon="0.60345">
        <ele>612.87</ele>
        <time>2018-07-27T06:19:35Z</time>
      </trkpt>
      <trkpt lat="42.82379" lon="0.60354">
        <ele>612.45</ele>
        <time>2018-07-27T06:19:36Z</time>
      </trkpt>
      <trkpt lat="42.82354" lon="0.60362">
        <ele>612.32</ele>
        <time>2018-07-27T06:19:37Z</time>
      </trkpt>
      <trkpt lat="42.82329" lon="0.60369">
        <ele>612.28</ele>
        <time>2018-07-27T06:19:38Z</time>
      </trkpt>
      <trkpt lat="42.82304" lon="0.60375">
        <ele>612.27</ele>
        <time>2018-07-27T06:19:39Z</time>
      </trkpt>
      <trkpt lat="42.82279" lon="0.60379">
        <ele>612.27</ele>
        <time>2018-07-27T06:19:40Z</time>
      </trkpt>
      <trkpt lat="42.82254" lon="0.60383">
        <ele>612.97</ele>
        <time>2018-07-27T06:19:41Z</time>
      </trkpt>
      <trkpt lat="42.82228" lon="0.60386">
        <ele>611.78</ele>
        <time>2018-07-27T06:19:42Z</time>
      </trkpt>
      <trkpt lat="42.82203" lon="0.60387">
        <ele>612.12</ele>
        <time>2018-07-27T06:19:43Z</time>
      </trkpt>
      <trkpt lat="42.82177" lon="0.60385">
        <ele>611.52</ele>
        <time>2018-07-27T06:19:44Z</time>
      </trkpt>
      <trkpt lat="42.82152" lon="0.60381">
        <ele>611.34</ele>
        <time>2018-07-27T06:19:45Z</time>
      </trkpt>
      <trkpt lat="42.82127" lon="0.60377">
        <ele>611.29</ele>
        <time>2018-07-27T06:19:46Z</time>
      </trkpt>
      <trkpt lat="42.82101" lon="0.60372">
        <ele>611.27</ele>
        <time>2018-07-27T06:19:47Z</time>
      </trkpt>
      <trkpt lat="42.82075" lon="0.60368">
        <ele>611.27</ele>
        <time>2018-07-27T06:19:48Z</time>
      </trkpt>
      <trkpt lat="42.8205" lon="0.60362">
        <ele>611.97</ele>
        <time>2018-07-27T06:19:49Z</time>
      </trkpt>
      <trkpt lat="42.82025" lon="0.60356">
        <ele>612.88</ele>
        <time>2018-07-27T06:19:50Z</time>
      </trkpt>
      <trkpt lat="42.82" lon="0.60351">
        <ele>613.15</ele>
        <time>2018-07-27T06:19:51Z</time>
      </trkpt>
      <trkpt lat="42.81975" lon="0.60346">
        <ele>613.23</ele>
        <time>2018-07-27T06:19:52Z</time>
      </trkpt>
      <trkpt lat="42.81951" lon="0.6034">
        <ele>613.26</ele>
        <time>2018-07-27T06:19:53Z</time>
      </trkpt>
      <trkpt lat="42.81926" lon="0.60334">
        <ele>613.26</ele>
        <time>2018-07-27T06:19:54Z</time>
      </trkpt>
      <trkpt lat="42.81901" lon="0.60328">
        <ele>612.57</ele>
        <time>2018-07-27T06:19:55Z</time>
      </trkpt>
      <trkpt lat="42.81877" lon="0.60322">
        <ele>613.06</ele>
        <time>2018-07-27T06:19:56Z</time>
      </trkpt>
      <trkpt lat="42.81853" lon="0.60317">
        <ele>613.2</ele>
        <time>2018-07-27T06:19:57Z</time>
      </trkpt>
      <trkpt lat="42.81828" lon="0.60311">
        <ele>613.95</ele>
        <time>2018-07-27T06:19:58Z</time>
      </trkpt>
      <trkpt lat="42.81803" lon="0.60305">
        <ele>614.87</ele>
        <time>2018-07-27T06:19:59Z</time>
      </trkpt>
      <trkpt lat="42.81779" lon="0.603">
        <ele>613.75</ele>
        <time>2018-07-27T06:20:00Z</time>
      </trkpt>
      <trkpt lat="42.81755" lon="0.60294">
        <ele>612.71</ele>
        <time>2018-07-27T06:20:01Z</time>
      </trkpt>
      <trkpt lat="42.8173" lon="0.60289">
        <ele>612.4</ele>
        <time>2018-07-27T06:20:02Z</time>
      </trkpt>
      <trkpt lat="42.81705" lon="0.60284">
        <ele>612.31</ele>
        <time>2018-07-27T06:20:03Z</time>
      </trkpt>
      <trkpt lat="42.81681" lon="0.60279">
        <ele>612.28</ele>
        <time>2018-07-27T06:20:04Z</time>
      </trkpt>
      <trkpt lat="42.81657" lon="0.60273">
        <ele>612.97</ele>
        <time>2018-07-27T06:20:05Z</time>
      </trkpt>
      <trkpt lat="42.81632" lon="0.60268">
        <ele>613.18</ele>
        <time>2018-07-27T06:20:06Z</time>
      </trkpt>
      <trkpt lat="42.81608" lon="0.60262">
        <ele>613.24</ele>
        <time>2018-07-27T06:20:07Z</time>
      </trkpt>
      <trkpt lat="42.81584" lon="0.60257">
        <ele>613.26</ele>
        <time>2018-07-27T06:20:08Z</time>
      </trkpt>
      <trkpt lat="42.8156" lon="0.60251">
        <ele>612.56</ele>
        <time>2018-07-27T06:20:09Z</time>
      </trkpt>
      <trkpt lat="42.81536" lon="0.60245">
        <ele>612.36</ele>
        <time>2018-07-27T06:20:10Z</time>
      </trkpt>
      <trkpt lat="42.81512" lon="0.6024">
        <ele>612.99</ele>
        <time>2018-07-27T06:20:11Z</time>
      </trkpt>
      <trkpt lat="42.81488" lon="0.60234">
        <ele>613.89</ele>
        <time>2018-07-27T06:20:12Z</time>
      </trkpt>
      <trkpt lat="42.81464" lon="0.60229">
        <ele>614.15</ele>
        <time>2018-07-27T06:20:13Z</time>
      </trkpt>
      <trkpt lat="42.8144" lon="0.60224">
        <ele>612.83</ele>
        <time>2018-07-27T06:20:14Z</time>
      </trkpt>
      <trkpt lat="42.81416" lon="0.6022">
        <ele>613.14</ele>
        <time>2018-07-27T06:20:15Z</time>
      </trkpt>
      <trkpt lat="42.81393" lon="0.60215">
        <ele>613.93</ele>
        <time>2018-07-27T06:20:16Z</time>
      </trkpt>
      <trkpt lat="42.81369" lon="0.60209">
        <ele>614.17</ele>
        <time>2018-07-27T06:20:17Z</time>
      </trkpt>
      <trkpt lat="42.81346" lon="0.60204">
        <ele>614.24</ele>
        <time>2018-07-27T06:20:18Z</time>
      </trkpt>
      <trkpt lat="42.81323" lon="0.60199">
        <ele>614.26</ele>
        <time>2018-07-27T06:20:19Z</time>
      </trkpt>
      <trkpt lat="42.81301" lon="0.60194">
        <ele>614.26</ele>
        <time>2018-07-27T06:20:20Z</time>
      </trkpt>
      <trkpt lat="42.8128" lon="0.60189">
        <ele>614.97</ele>
        <time>2018-07-27T06:20:21Z</time>
      </trkpt>
      <trkpt lat="42.81259" lon="0.60184">
        <ele>615.18</ele>
        <time>2018-07-27T06:20:22Z</time>
      </trkpt>
      <trkpt lat="42.81238" lon="0.6018">
        <ele>615.94</ele>
        <time>2018-07-27T06:20:23Z</time>
      </trkpt>
      <trkpt lat="42.81218" lon="0.60175">
        <ele>615.47</ele>
        <time>2018-07-27T06:20:24Z</time>
      </trkpt>
      <trkpt lat="42.81198" lon="0.60171">
        <ele>614.63</ele>
        <time>2018-07-27T06:20:25Z</time>
      </trkpt>
      <trkpt lat="42.81178" lon="0.60167">
        <ele>615.08</ele>
        <time>2018-07-27T06:20:26Z</time>
      </trkpt>
      <trkpt lat="42.81158" lon="0.60163">
        <ele>615.21</ele>
        <time>2018-07-27T06:20:27Z</time>
      </trkpt>
      <trkpt lat="42.81138" lon="0.60159">
        <ele>615.25</ele>
        <time>2018-07-27T06:20:28Z</time>
      </trkpt>
      <trkpt lat="42.81118" lon="0.60155">
        <ele>615.26</ele>
        <time>2018-07-27T06:20:29Z</time>
      </trkpt>
      <trkpt lat="42.81099" lon="0.6015">
        <ele>615.27</ele>
        <time>2018-07-27T06:20:30Z</time>
      </trkpt>
      <trkpt lat="42.8108" lon="0.60146">
        <ele>615.27</ele>
        <time>2018-07-27T06:20:31Z</time>
      </trkpt>
      <trkpt lat="42.81061" lon="0.60141">
        <ele>615.27</ele>
        <time>2018-07-27T06:20:32Z</time>
      </trkpt>
      <trkpt lat="42.81041" lon="0.60137">
        <ele>615.27</ele>
        <time>2018-07-27T06:20:33Z</time>
      </trkpt>
      <trkpt lat="42.81021" lon="0.60132">
        <ele>615.97</ele>
        <time>2018-07-27T06:20:34Z</time>
      </trkpt>
      <trkpt lat="42.81001" lon="0.60127">
        <ele>616.18</ele>
        <time>2018-07-27T06:20:35Z</time>
      </trkpt>
      <trkpt lat="42.80981" lon="0.60123">
        <ele>616.94</ele>
        <time>2018-07-27T06:20:36Z</time>
      </trkpt>
      <trkpt lat="42.80961" lon="0.60118">
        <ele>616.47</ele>
        <time>2018-07-27T06:20:37Z</time>
      </trkpt>
      <trkpt lat="42.80941" lon="0.60114">
        <ele>617.03</ele>
        <time>2018-07-27T06:20:38Z</time>
      </trkpt>
      <trkpt lat="42.8092" lon="0.6011">
        <ele>617.9</ele>
        <time>2018-07-27T06:20:39Z</time>
      </trkpt>
      <trkpt lat="42.80899" lon="0.60105">
        <ele>618.16</ele>
        <time>2018-07-27T06:20:40Z</time>
      </trkpt>
      <trkpt lat="42.80879" lon="0.601">
        <ele>618.23</ele>
        <time>2018-07-27T06:20:41Z</time>
      </trkpt>
      <trkpt lat="42.80859" lon="0.60095">
        <ele>618.96</ele>
        <time>2018-07-27T06:20:42Z</time>
      </trkpt>
      <trkpt lat="42.80839" lon="0.6009">
        <ele>619.17</ele>
        <time>2018-07-27T06:20:43Z</time>
      </trkpt>
      <trkpt lat="42.80819" lon="0.60086">
        <ele>619.24</ele>
        <time>2018-07-27T06:20:44Z</time>
      </trkpt>
      <trkpt lat="42.80799" lon="0.60081">
        <ele>619.26</ele>
        <time>2018-07-27T06:20:45Z</time>
      </trkpt>
      <trkpt lat="42.80779" lon="0.60077">
        <ele>619.26</ele>
        <time>2018-07-27T06:20:46Z</time>
      </trkpt>
      <trkpt lat="42.80759" lon="0.60072">
        <ele>619.27</ele>
        <time>2018-07-27T06:20:47Z</time>
      </trkpt>
      <trkpt lat="42.8074" lon="0.60067">
        <ele>619.27</ele>
        <time>2018-07-27T06:20:48Z</time>
      </trkpt>
      <trkpt lat="42.8072" lon="0.60062">
        <ele>619.27</ele>
        <time>2018-07-27T06:20:49Z</time>
      </trkpt>
      <trkpt lat="42.80702" lon="0.60058">
        <ele>619.97</ele>
        <time>2018-07-27T06:20:50Z</time>
      </trkpt>
      <trkpt lat="42.80684" lon="0.60054">
        <ele>619.48</ele>
        <time>2018-07-27T06:20:51Z</time>
      </trkpt>
      <trkpt lat="42.80652" lon="0.60048">
        <ele>620.2</ele>
        <time>2018-07-27T06:20:53Z</time>
      </trkpt>
      <trkpt lat="42.8062" lon="0.6004">
        <ele>620.96</ele>
        <time>2018-07-27T06:20:55Z</time>
      </trkpt>
      <trkpt lat="42.80593" lon="0.60032">
        <ele>619.63</ele>
        <time>2018-07-27T06:20:57Z</time>
      </trkpt>
      <trkpt lat="42.80572" lon="0.60025">
        <ele>620.21</ele>
        <time>2018-07-27T06:20:59Z</time>
      </trkpt>
      <trkpt lat="42.80553" lon="0.60023">
        <ele>620.26</ele>
        <time>2018-07-27T06:21:01Z</time>
      </trkpt>
      <trkpt lat="42.80532" lon="0.60013">
        <ele>621.18</ele>
        <time>2018-07-27T06:21:04Z</time>
      </trkpt>
      <trkpt lat="42.80514" lon="0.60011">
        <ele>619.23</ele>
        <time>2018-07-27T06:21:07Z</time>
      </trkpt>
      <trkpt lat="42.80519" lon="0.60038">
        <ele>621.85</ele>
        <time>2018-07-27T06:21:10Z</time>
      </trkpt>
      <trkpt lat="42.80529" lon="0.60065">
        <ele>622.26</ele>
        <time>2018-07-27T06:21:14Z</time>
      </trkpt>
      <trkpt lat="42.80538" lon="0.60095">
        <ele>619</ele>
        <time>2018-07-27T06:21:18Z</time>
      </trkpt>
      <trkpt lat="42.80543" lon="0.60123">
        <ele>618.33</ele>
        <time>2018-07-27T06:21:20Z</time>
      </trkpt>
      <trkpt lat="42.80548" lon="0.60149">
        <ele>618.27</ele>
        <time>2018-07-27T06:21:22Z</time>
      </trkpt>
      <trkpt lat="42.80553" lon="0.60177">
        <ele>619.88</ele>
        <time>2018-07-27T06:21:24Z</time>
      </trkpt>
      <trkpt lat="42.8056" lon="0.60209">
        <ele>620.93</ele>
        <time>2018-07-27T06:21:26Z</time>
      </trkpt>
      <trkpt lat="42.80565" lon="0.60244">
        <ele>621.94</ele>
        <time>2018-07-27T06:21:28Z</time>
      </trkpt>
      <trkpt lat="42.8057" lon="0.6028">
        <ele>622.94</ele>
        <time>2018-07-27T06:21:30Z</time>
      </trkpt>
      <trkpt lat="42.80575" lon="0.60315">
        <ele>622.54</ele>
        <time>2018-07-27T06:21:32Z</time>
      </trkpt>
      <trkpt lat="42.80579" lon="0.60351">
        <ele>620.68</ele>
        <time>2018-07-27T06:21:34Z</time>
      </trkpt>
      <trkpt lat="42.80586" lon="0.60382">
        <ele>618.9</ele>
        <time>2018-07-27T06:21:36Z</time>
      </trkpt>
      <trkpt lat="42.80602" lon="0.60406">
        <ele>619.44</ele>
        <time>2018-07-27T06:21:38Z</time>
      </trkpt>
      <trkpt lat="42.80626" lon="0.60422">
        <ele>620.19</ele>
        <time>2018-07-27T06:21:40Z</time>
      </trkpt>
      <trkpt lat="42.80651" lon="0.60439">
        <ele>620.96</ele>
        <time>2018-07-27T06:21:42Z</time>
      </trkpt>
      <trkpt lat="42.80671" lon="0.60465">
        <ele>622.15</ele>
        <time>2018-07-27T06:21:44Z</time>
      </trkpt>
      <trkpt lat="42.8069" lon="0.60492">
        <ele>623.17</ele>
        <time>2018-07-27T06:21:46Z</time>
      </trkpt>
      <trkpt lat="42.80705" lon="0.60519">
        <ele>624.66</ele>
        <time>2018-07-27T06:21:48Z</time>
      </trkpt>
      <trkpt lat="42.80713" lon="0.60551">
        <ele>625.21</ele>
        <time>2018-07-27T06:21:50Z</time>
      </trkpt>
      <trkpt lat="42.80711" lon="0.60586">
        <ele>625.96</ele>
        <time>2018-07-27T06:21:52Z</time>
      </trkpt>
      <trkpt lat="42.80711" lon="0.6062">
        <ele>626.24</ele>
        <time>2018-07-27T06:21:54Z</time>
      </trkpt>
      <trkpt lat="42.80711" lon="0.60654">
        <ele>627.87</ele>
        <time>2018-07-27T06:21:56Z</time>
      </trkpt>
      <trkpt lat="42.80712" lon="0.60684">
        <ele>627.53</ele>
        <time>2018-07-27T06:21:58Z</time>
      </trkpt>
      <trkpt lat="42.80714" lon="0.60717">
        <ele>627.99</ele>
        <time>2018-07-27T06:22:00Z</time>
      </trkpt>
      <trkpt lat="42.80717" lon="0.60746">
        <ele>629.15</ele>
        <time>2018-07-27T06:22:02Z</time>
      </trkpt>
      <trkpt lat="42.80723" lon="0.60774">
        <ele>630.17</ele>
        <time>2018-07-27T06:22:05Z</time>
      </trkpt>
      <trkpt lat="42.8073" lon="0.60799">
        <ele>630.96</ele>
        <time>2018-07-27T06:22:07Z</time>
      </trkpt>
      <trkpt lat="42.80739" lon="0.60823">
        <ele>631.94</ele>
        <time>2018-07-27T06:22:09Z</time>
      </trkpt>
      <trkpt lat="42.80753" lon="0.60844">
        <ele>632.24</ele>
        <time>2018-07-27T06:22:11Z</time>
      </trkpt>
      <trkpt lat="42.80769" lon="0.60866">
        <ele>632.96</ele>
        <time>2018-07-27T06:22:13Z</time>
      </trkpt>
      <trkpt lat="42.80782" lon="0.60886">
        <ele>634.15</ele>
        <time>2018-07-27T06:22:15Z</time>
      </trkpt>
      <trkpt lat="42.80799" lon="0.60902">
        <ele>635.17</ele>
        <time>2018-07-27T06:22:17Z</time>
      </trkpt>
      <trkpt lat="42.80815" lon="0.60916">
        <ele>634.35</ele>
        <time>2018-07-27T06:22:19Z</time>
      </trkpt>
      <trkpt lat="42.80841" lon="0.60915">
        <ele>634.97</ele>
        <time>2018-07-27T06:22:22Z</time>
      </trkpt>
      <trkpt lat="42.80865" lon="0.60905">
        <ele>634.35</ele>
        <time>2018-07-27T06:22:25Z</time>
      </trkpt>
      <trkpt lat="42.80885" lon="0.60892">
        <ele>633.3</ele>
        <time>2018-07-27T06:22:28Z</time>
      </trkpt>
      <trkpt lat="42.809" lon="0.60874">
        <ele>632.29</ele>
        <time>2018-07-27T06:22:31Z</time>
      </trkpt>
      <trkpt lat="42.80922" lon="0.60873">
        <ele>630.59</ele>
        <time>2018-07-27T06:22:34Z</time>
      </trkpt>
      <trkpt lat="42.80942" lon="0.60876">
        <ele>630.54</ele>
        <time>2018-07-27T06:22:38Z</time>
      </trkpt>
      <trkpt lat="42.80955" lon="0.60895">
        <ele>630.27</ele>
        <time>2018-07-27T06:22:44Z</time>
      </trkpt>
      <trkpt lat="42.8097" lon="0.60918">
        <ele>630.25</ele>
        <time>2018-07-27T06:22:48Z</time>
      </trkpt>
      <trkpt lat="42.80983" lon="0.60937">
        <ele>629.29</ele>
        <time>2018-07-27T06:22:52Z</time>
      </trkpt>
      <trkpt lat="42.80969" lon="0.60915">
        <ele>630.34</ele>
        <time>2018-07-27T06:23:28Z</time>
      </trkpt>
      <trkpt lat="42.80954" lon="0.60894">
        <ele>630.27</ele>
        <time>2018-07-27T06:23:32Z</time>
      </trkpt>
      <trkpt lat="42.80939" lon="0.60876">
        <ele>630.97</ele>
        <time>2018-07-27T06:23:36Z</time>
      </trkpt>
      <trkpt lat="42.80917" lon="0.60871">
        <ele>634.76</ele>
        <time>2018-07-27T06:23:40Z</time>
      </trkpt>
      <trkpt lat="42.80895" lon="0.60872">
        <ele>636.17</ele>
        <time>2018-07-27T06:23:44Z</time>
      </trkpt>
      <trkpt lat="42.80875" lon="0.60873">
        <ele>638.24</ele>
        <time>2018-07-27T06:23:50Z</time>
      </trkpt>
      <trkpt lat="42.80894" lon="0.60871">
        <ele>629.39</ele>
        <time>2018-07-27T06:30:44Z</time>
      </trkpt>
      <trkpt lat="42.80915" lon="0.60873">
        <ele>629.41</ele>
        <time>2018-07-27T06:30:53Z</time>
      </trkpt>
      <trkpt lat="42.80934" lon="0.60877">
        <ele>630.11</ele>
        <time>2018-07-27T06:31:02Z</time>
      </trkpt>
      <trkpt lat="42.8095" lon="0.60889">
        <ele>631.57</ele>
        <time>2018-07-27T06:31:28Z</time>
      </trkpt>
      <trkpt lat="42.80964" lon="0.60908">
        <ele>625.04</ele>
        <time>2018-07-27T06:31:46Z</time>
      </trkpt>
      <trkpt lat="42.80977" lon="0.60925">
        <ele>627.24</ele>
        <time>2018-07-27T06:32:15Z</time>
      </trkpt>
      <trkpt lat="42.80963" lon="0.60908">
        <ele>624.22</ele>
        <time>2018-07-27T06:39:50Z</time>
      </trkpt>
      <trkpt lat="42.8095" lon="0.60891">
        <ele>628.8</ele>
        <time>2018-07-27T06:40:19Z</time>
      </trkpt>
      <trkpt lat="42.80935" lon="0.60876">
        <ele>637.25</ele>
        <time>2018-07-27T06:43:44Z</time>
      </trkpt>
      <trkpt lat="42.80916" lon="0.60876">
        <ele>629.57</ele>
        <time>2018-07-27T06:44:18Z</time>
      </trkpt>
      <trkpt lat="42.80897" lon="0.60878">
        <ele>630.07</ele>
        <time>2018-07-27T06:44:33Z</time>
      </trkpt>
      <trkpt lat="42.80879" lon="0.60873">
        <ele>641.21</ele>
        <time>2018-07-27T06:44:49Z</time>
      </trkpt>
      <trkpt lat="42.80907" lon="0.60872">
        <ele>644.54</ele>
        <time>2018-07-27T06:46:22Z</time>
      </trkpt>
      <trkpt lat="42.80927" lon="0.60874">
        <ele>645.18</ele>
        <time>2018-07-27T06:46:25Z</time>
      </trkpt>
      <trkpt lat="42.80947" lon="0.60881">
        <ele>643.59</ele>
        <time>2018-07-27T06:46:28Z</time>
      </trkpt>
      <trkpt lat="42.80964" lon="0.60897">
        <ele>643.98</ele>
        <time>2018-07-27T06:46:31Z</time>
      </trkpt>
      <trkpt lat="42.80984" lon="0.60919">
        <ele>640.77</ele>
        <time>2018-07-27T06:46:34Z</time>
      </trkpt>
      <trkpt lat="42.80996" lon="0.60943">
        <ele>638.7</ele>
        <time>2018-07-27T06:46:36Z</time>
      </trkpt>
      <trkpt lat="42.81022" lon="0.60955">
        <ele>638.98</ele>
        <time>2018-07-27T06:46:39Z</time>
      </trkpt>
      <trkpt lat="42.81048" lon="0.60963">
        <ele>637.1</ele>
        <time>2018-07-27T06:46:42Z</time>
      </trkpt>
      <trkpt lat="42.81068" lon="0.60962">
        <ele>636.34</ele>
        <time>2018-07-27T06:46:44Z</time>
      </trkpt>
      <trkpt lat="42.81096" lon="0.60968">
        <ele>636.27</ele>
        <time>2018-07-27T06:46:47Z</time>
      </trkpt>
      <trkpt lat="42.81113" lon="0.60984">
        <ele>640.4</ele>
        <time>2018-07-27T06:46:49Z</time>
      </trkpt>
      <trkpt lat="42.81133" lon="0.60991">
        <ele>641.19</ele>
        <time>2018-07-27T06:46:51Z</time>
      </trkpt>
      <trkpt lat="42.81152" lon="0.60993">
        <ele>642.17</ele>
        <time>2018-07-27T06:46:53Z</time>
      </trkpt>
      <trkpt lat="42.81171" lon="0.61005">
        <ele>641.14</ele>
        <time>2018-07-27T06:46:55Z</time>
      </trkpt>
      <trkpt lat="42.81191" lon="0.6101">
        <ele>642.87</ele>
        <time>2018-07-27T06:46:57Z</time>
      </trkpt>
      <trkpt lat="42.81217" lon="0.61002">
        <ele>645.14</ele>
        <time>2018-07-27T06:47:00Z</time>
      </trkpt>
      <trkpt lat="42.81236" lon="0.61001">
        <ele>644.56</ele>
        <time>2018-07-27T06:47:02Z</time>
      </trkpt>
      <trkpt lat="42.81217" lon="0.61006">
        <ele>645.51</ele>
        <time>2018-07-27T06:47:07Z</time>
      </trkpt>
      <trkpt lat="42.81198" lon="0.61003">
        <ele>644.59</ele>
        <time>2018-07-27T06:47:12Z</time>
      </trkpt>
      <trkpt lat="42.81179" lon="0.61022">
        <ele>643.97</ele>
        <time>2018-07-27T06:48:04Z</time>
      </trkpt>
      <trkpt lat="42.81158" lon="0.61026">
        <ele>647.27</ele>
        <time>2018-07-27T06:48:07Z</time>
      </trkpt>
      <trkpt lat="42.81139" lon="0.61027">
        <ele>648.88</ele>
        <time>2018-07-27T06:48:09Z</time>
      </trkpt>
      <trkpt lat="42.81116" lon="0.61023">
        <ele>649.93</ele>
        <time>2018-07-27T06:48:11Z</time>
      </trkpt>
      <trkpt lat="42.81091" lon="0.61025">
        <ele>650.24</ele>
        <time>2018-07-27T06:48:13Z</time>
      </trkpt>
      <trkpt lat="42.8107" lon="0.61024">
        <ele>654.39</ele>
        <time>2018-07-27T06:48:15Z</time>
      </trkpt>
      <trkpt lat="42.81061" lon="0.61048">
        <ele>657.71</ele>
        <time>2018-07-27T06:48:19Z</time>
      </trkpt>
      <trkpt lat="42.81082" lon="0.61063">
        <ele>653.63</ele>
        <time>2018-07-27T06:48:23Z</time>
      </trkpt>
      <trkpt lat="42.81108" lon="0.61069">
        <ele>654.08</ele>
        <time>2018-07-27T06:48:24Z</time>
      </trkpt>
      <trkpt lat="42.81133" lon="0.61071">
        <ele>654.04</ele>
        <time>2018-07-27T06:48:26Z</time>
      </trkpt>
      <trkpt lat="42.81161" lon="0.61081">
        <ele>656.07</ele>
        <time>2018-07-27T06:48:28Z</time>
      </trkpt>
      <trkpt lat="42.81186" lon="0.61085">
        <ele>657.86</ele>
        <time>2018-07-27T06:48:30Z</time>
      </trkpt>
      <trkpt lat="42.81211" lon="0.61097">
        <ele>658.23</ele>
        <time>2018-07-27T06:48:32Z</time>
      </trkpt>
      <trkpt lat="42.81231" lon="0.61109">
        <ele>659.87</ele>
        <time>2018-07-27T06:48:34Z</time>
      </trkpt>
      <trkpt lat="42.8125" lon="0.61126">
        <ele>660.02</ele>
        <time>2018-07-27T06:48:36Z</time>
      </trkpt>
      <trkpt lat="42.81273" lon="0.61129">
        <ele>659.54</ele>
        <time>2018-07-27T06:48:38Z</time>
      </trkpt>
      <trkpt lat="42.81302" lon="0.61141">
        <ele>659.5</ele>
        <time>2018-07-27T06:48:40Z</time>
      </trkpt>
      <trkpt lat="42.81321" lon="0.61148">
        <ele>658.59</ele>
        <time>2018-07-27T06:48:42Z</time>
      </trkpt>
      <trkpt lat="42.81346" lon="0.61161">
        <ele>658.09</ele>
        <time>2018-07-27T06:48:44Z</time>
      </trkpt>
      <trkpt lat="42.81366" lon="0.61168">
        <ele>658.25</ele>
        <time>2018-07-27T06:48:46Z</time>
      </trkpt>
      <trkpt lat="42.81347" lon="0.6117">
        <ele>662.1</ele>
        <time>2018-07-27T06:48:49Z</time>
      </trkpt>
      <trkpt lat="42.81313" lon="0.61169">
        <ele>662.26</ele>
        <time>2018-07-27T06:48:52Z</time>
      </trkpt>
      <trkpt lat="42.81283" lon="0.61176">
        <ele>663.18</ele>
        <time>2018-07-27T06:48:54Z</time>
      </trkpt>
      <trkpt lat="42.8126" lon="0.61189">
        <ele>662.35</ele>
        <time>2018-07-27T06:48:56Z</time>
      </trkpt>
      <trkpt lat="42.81235" lon="0.61182">
        <ele>662.27</ele>
        <time>2018-07-27T06:48:58Z</time>
      </trkpt>
      <trkpt lat="42.81209" lon="0.61181">
        <ele>662.97</ele>
        <time>2018-07-27T06:49:00Z</time>
      </trkpt>
      <trkpt lat="42.81189" lon="0.61173">
        <ele>664.64</ele>
        <time>2018-07-27T06:49:02Z</time>
      </trkpt>
      <trkpt lat="42.81167" lon="0.61189">
        <ele>665.91</ele>
        <time>2018-07-27T06:49:04Z</time>
      </trkpt>
      <trkpt lat="42.81143" lon="0.612">
        <ele>667.84</ele>
        <time>2018-07-27T06:49:06Z</time>
      </trkpt>
      <trkpt lat="42.81115" lon="0.61193">
        <ele>669.14</ele>
        <time>2018-07-27T06:49:08Z</time>
      </trkpt>
      <trkpt lat="42.81091" lon="0.61189">
        <ele>669.26</ele>
        <time>2018-07-27T06:49:10Z</time>
      </trkpt>
      <trkpt lat="42.81068" lon="0.61193">
        <ele>670.39</ele>
        <time>2018-07-27T06:49:12Z</time>
      </trkpt>
      <trkpt lat="42.81042" lon="0.61195">
        <ele>671.19</ele>
        <time>2018-07-27T06:49:14Z</time>
      </trkpt>
      <trkpt lat="42.81022" lon="0.61197">
        <ele>674.48</ele>
        <time>2018-07-27T06:49:16Z</time>
      </trkpt>
      <trkpt lat="42.81001" lon="0.61197">
        <ele>677.51</ele>
        <time>2018-07-27T06:49:18Z</time>
      </trkpt>
      <trkpt lat="42.80972" lon="0.61212">
        <ele>681.42</ele>
        <time>2018-07-27T06:49:20Z</time>
      </trkpt>
      <trkpt lat="42.80971" lon="0.61239">
        <ele>685.59</ele>
        <time>2018-07-27T06:49:23Z</time>
      </trkpt>
      <trkpt lat="42.80985" lon="0.61266">
        <ele>701.2</ele>
        <time>2018-07-27T06:49:27Z</time>
      </trkpt>
      <trkpt lat="42.81011" lon="0.61245">
        <ele>704.76</ele>
        <time>2018-07-27T06:49:30Z</time>
      </trkpt>
      <trkpt lat="42.81029" lon="0.61243">
        <ele>706.51</ele>
        <time>2018-07-27T06:49:31Z</time>
      </trkpt>
      <trkpt lat="42.81054" lon="0.61246">
        <ele>712.24</ele>
        <time>2018-07-27T06:49:33Z</time>
      </trkpt>
      <trkpt lat="42.81072" lon="0.61263">
        <ele>719.33</ele>
        <time>2018-07-27T06:49:35Z</time>
      </trkpt>
      <trkpt lat="42.81088" lon="0.6128">
        <ele>720.18</ele>
        <time>2018-07-27T06:49:37Z</time>
      </trkpt>
      <trkpt lat="42.81109" lon="0.61292">
        <ele>720.96</ele>
        <time>2018-07-27T06:49:39Z</time>
      </trkpt>
      <trkpt lat="42.8113" lon="0.61306">
        <ele>723.76</ele>
        <time>2018-07-27T06:49:41Z</time>
      </trkpt>
      <trkpt lat="42.81148" lon="0.61319">
        <ele>725.62</ele>
        <time>2018-07-27T06:49:43Z</time>
      </trkpt>
      <trkpt lat="42.81168" lon="0.61331">
        <ele>726.42</ele>
        <time>2018-07-27T06:49:45Z</time>
      </trkpt>
      <trkpt lat="42.81196" lon="0.61342">
        <ele>728.1</ele>
        <time>2018-07-27T06:49:47Z</time>
      </trkpt>
      <trkpt lat="42.81216" lon="0.61344">
        <ele>730.35</ele>
        <time>2018-07-27T06:49:49Z</time>
      </trkpt>
      <trkpt lat="42.81237" lon="0.61347">
        <ele>736.41</ele>
        <time>2018-07-27T06:49:52Z</time>
      </trkpt>
      <trkpt lat="42.81221" lon="0.61362">
        <ele>740.84</ele>
        <time>2018-07-27T06:49:59Z</time>
      </trkpt>
      <trkpt lat="42.81199" lon="0.61362">
        <ele>741.23</ele>
        <time>2018-07-27T06:50:01Z</time>
      </trkpt>
      <trkpt lat="42.81173" lon="0.61368">
        <ele>741.96</ele>
        <time>2018-07-27T06:50:03Z</time>
      </trkpt>
      <trkpt lat="42.81139" lon="0.61373">
        <ele>741.54</ele>
        <time>2018-07-27T06:50:05Z</time>
      </trkpt>
      <trkpt lat="42.8111" lon="0.61358">
        <ele>742.9</ele>
        <time>2018-07-27T06:50:07Z</time>
      </trkpt>
      <trkpt lat="42.8108" lon="0.61341">
        <ele>743.44</ele>
        <time>2018-07-27T06:50:09Z</time>
      </trkpt>
      <trkpt lat="42.81055" lon="0.6134">
        <ele>744.19</ele>
        <time>2018-07-27T06:50:11Z</time>
      </trkpt>
      <trkpt lat="42.81033" lon="0.61334">
        <ele>746.57</ele>
        <time>2018-07-27T06:50:13Z</time>
      </trkpt>
      <trkpt lat="42.81019" lon="0.61315">
        <ele>752.03</ele>
        <time>2018-07-27T06:50:15Z</time>
      </trkpt>
      <trkpt lat="42.81023" lon="0.61342">
        <ele>759.84</ele>
        <time>2018-07-27T06:50:19Z</time>
      </trkpt>
      <trkpt lat="42.81043" lon="0.61365">
        <ele>764.36</ele>
        <time>2018-07-27T06:50:21Z</time>
      </trkpt>
      <trkpt lat="42.81064" lon="0.61382">
        <ele>765.69</ele>
        <time>2018-07-27T06:50:22Z</time>
      </trkpt>
      <trkpt lat="42.81084" lon="0.61401">
        <ele>769.23</ele>
        <time>2018-07-27T06:50:24Z</time>
      </trkpt>
      <trkpt lat="42.81107" lon="0.61415">
        <ele>775.49</ele>
        <time>2018-07-27T06:50:26Z</time>
      </trkpt>
      <trkpt lat="42.8114" lon="0.61427">
        <ele>784.95</ele>
        <time>2018-07-27T06:50:28Z</time>
      </trkpt>
      <trkpt lat="42.81158" lon="0.61434">
        <ele>790.77</ele>
        <time>2018-07-27T06:50:29Z</time>
      </trkpt>
      <trkpt lat="42.81175" lon="0.61442">
        <ele>793.92</ele>
        <time>2018-07-27T06:50:30Z</time>
      </trkpt>
      <trkpt lat="42.81209" lon="0.6146">
        <ele>796.55</ele>
        <time>2018-07-27T06:50:32Z</time>
      </trkpt>
      <trkpt lat="42.81227" lon="0.6147">
        <ele>798.45</ele>
        <time>2018-07-27T06:50:33Z</time>
      </trkpt>
      <trkpt lat="42.81259" lon="0.61488">
        <ele>802.2</ele>
        <time>2018-07-27T06:50:35Z</time>
      </trkpt>
      <trkpt lat="42.81293" lon="0.61506">
        <ele>804.57</ele>
        <time>2018-07-27T06:50:37Z</time>
      </trkpt>
      <trkpt lat="42.81327" lon="0.61513">
        <ele>806.81</ele>
        <time>2018-07-27T06:50:39Z</time>
      </trkpt>
      <trkpt lat="42.81347" lon="0.61509">
        <ele>807.83</ele>
        <time>2018-07-27T06:50:40Z</time>
      </trkpt>
      <trkpt lat="42.81364" lon="0.61505">
        <ele>808.84</ele>
        <time>2018-07-27T06:50:41Z</time>
      </trkpt>
      <trkpt lat="42.814" lon="0.61501">
        <ele>811.54</ele>
        <time>2018-07-27T06:50:43Z</time>
      </trkpt>
      <trkpt lat="42.81418" lon="0.61501">
        <ele>813.45</ele>
        <time>2018-07-27T06:50:44Z</time>
      </trkpt>
      <trkpt lat="42.81436" lon="0.61503">
        <ele>816.82</ele>
        <time>2018-07-27T06:50:45Z</time>
      </trkpt>
      <trkpt lat="42.81469" lon="0.61511">
        <ele>821.85</ele>
        <time>2018-07-27T06:50:47Z</time>
      </trkpt>
      <trkpt lat="42.81499" lon="0.61516">
        <ele>825.45</ele>
        <time>2018-07-27T06:50:49Z</time>
      </trkpt>
      <trkpt lat="42.81521" lon="0.61535">
        <ele>828.71</ele>
        <time>2018-07-27T06:50:51Z</time>
      </trkpt>
      <trkpt lat="42.8154" lon="0.61551">
        <ele>830.13</ele>
        <time>2018-07-27T06:50:53Z</time>
      </trkpt>
      <trkpt lat="42.81557" lon="0.61566">
        <ele>830.95</ele>
        <time>2018-07-27T06:50:55Z</time>
      </trkpt>
      <trkpt lat="42.8158" lon="0.61577">
        <ele>831.24</ele>
        <time>2018-07-27T06:50:57Z</time>
      </trkpt>
      <trkpt lat="42.81603" lon="0.61564">
        <ele>833.57</ele>
        <time>2018-07-27T06:50:59Z</time>
      </trkpt>
      <trkpt lat="42.81623" lon="0.61555">
        <ele>836.72</ele>
        <time>2018-07-27T06:51:01Z</time>
      </trkpt>
      <trkpt lat="42.81605" lon="0.61551">
        <ele>856.22</ele>
        <time>2018-07-27T06:51:09Z</time>
      </trkpt>
      <trkpt lat="42.81584" lon="0.61563">
        <ele>857.17</ele>
        <time>2018-07-27T06:51:11Z</time>
      </trkpt>
      <trkpt lat="42.81562" lon="0.61567">
        <ele>858.87</ele>
        <time>2018-07-27T06:51:13Z</time>
      </trkpt>
      <trkpt lat="42.81539" lon="0.6157">
        <ele>860.84</ele>
        <time>2018-07-27T06:51:15Z</time>
      </trkpt>
      <trkpt lat="42.81515" lon="0.61571">
        <ele>863.54</ele>
        <time>2018-07-27T06:51:17Z</time>
      </trkpt>
      <trkpt lat="42.81492" lon="0.61579">
        <ele>866.02</ele>
        <time>2018-07-27T06:51:19Z</time>
      </trkpt>
      <trkpt lat="42.81461" lon="0.61591">
        <ele>866.94</ele>
        <time>2018-07-27T06:51:21Z</time>
      </trkpt>
      <trkpt lat="42.81443" lon="0.61598">
        <ele>867.17</ele>
        <time>2018-07-27T06:51:22Z</time>
      </trkpt>
      <trkpt lat="42.81425" lon="0.61602">
        <ele>867.24</ele>
        <time>2018-07-27T06:51:23Z</time>
      </trkpt>
      <trkpt lat="42.81405" lon="0.61605">
        <ele>867.26</ele>
        <time>2018-07-27T06:51:24Z</time>
      </trkpt>
      <trkpt lat="42.81387" lon="0.6161">
        <ele>867.96</ele>
        <time>2018-07-27T06:51:25Z</time>
      </trkpt>
      <trkpt lat="42.81359" lon="0.61608">
        <ele>871.67</ele>
        <time>2018-07-27T06:51:27Z</time>
      </trkpt>
      <trkpt lat="42.81323" lon="0.61606">
        <ele>873.12</ele>
        <time>2018-07-27T06:51:29Z</time>
      </trkpt>
      <trkpt lat="42.81297" lon="0.61606">
        <ele>873.92</ele>
        <time>2018-07-27T06:51:30Z</time>
      </trkpt>
      <trkpt lat="42.81262" lon="0.61605">
        <ele>875.15</ele>
        <time>2018-07-27T06:51:32Z</time>
      </trkpt>
      <trkpt lat="42.81243" lon="0.61601">
        <ele>874.53</ele>
        <time>2018-07-27T06:51:33Z</time>
      </trkpt>
      <trkpt lat="42.81223" lon="0.61595">
        <ele>877.72</ele>
        <time>2018-07-27T06:51:35Z</time>
      </trkpt>
      <trkpt lat="42.812" lon="0.61605">
        <ele>883.26</ele>
        <time>2018-07-27T06:51:37Z</time>
      </trkpt>
      <trkpt lat="42.81179" lon="0.61615">
        <ele>890.62</ele>
        <time>2018-07-27T06:51:39Z</time>
      </trkpt>
      <trkpt lat="42.81166" lon="0.61632">
        <ele>897.86</ele>
        <time>2018-07-27T06:51:41Z</time>
      </trkpt>
      <trkpt lat="42.81174" lon="0.61665">
        <ele>909.34</ele>
        <time>2018-07-27T06:51:45Z</time>
      </trkpt>
      <trkpt lat="42.81205" lon="0.61688">
        <ele>914.77</ele>
        <time>2018-07-27T06:51:48Z</time>
      </trkpt>
      <trkpt lat="42.81225" lon="0.61683">
        <ele>915.82</ele>
        <time>2018-07-27T06:51:49Z</time>
      </trkpt>
      <trkpt lat="42.81256" lon="0.61682">
        <ele>918.75</ele>
        <time>2018-07-27T06:51:51Z</time>
      </trkpt>
      <trkpt lat="42.81281" lon="0.61696">
        <ele>922.23</ele>
        <time>2018-07-27T06:51:53Z</time>
      </trkpt>
      <trkpt lat="42.8131" lon="0.61714">
        <ele>931.01</ele>
        <time>2018-07-27T06:51:55Z</time>
      </trkpt>
      <trkpt lat="42.81343" lon="0.6173">
        <ele>940.27</ele>
        <time>2018-07-27T06:51:57Z</time>
      </trkpt>
      <trkpt lat="42.81373" lon="0.61746">
        <ele>945.31</ele>
        <time>2018-07-27T06:51:59Z</time>
      </trkpt>
      <trkpt lat="42.81405" lon="0.61764">
        <ele>948.7</ele>
        <time>2018-07-27T06:52:01Z</time>
      </trkpt>
      <trkpt lat="42.81438" lon="0.6178">
        <ele>958.18</ele>
        <time>2018-07-27T06:52:03Z</time>
      </trkpt>
      <trkpt lat="42.81456" lon="0.61788">
        <ele>960.34</ele>
        <time>2018-07-27T06:52:04Z</time>
      </trkpt>
      <trkpt lat="42.81474" lon="0.61796">
        <ele>963.09</ele>
        <time>2018-07-27T06:52:05Z</time>
      </trkpt>
      <trkpt lat="42.81492" lon="0.61806">
        <ele>968.11</ele>
        <time>2018-07-27T06:52:06Z</time>
      </trkpt>
      <trkpt lat="42.81522" lon="0.61828">
        <ele>972.38</ele>
        <time>2018-07-27T06:52:08Z</time>
      </trkpt>
      <trkpt lat="42.81549" lon="0.61857">
        <ele>978.23</ele>
        <time>2018-07-27T06:52:10Z</time>
      </trkpt>
      <trkpt lat="42.8156" lon="0.61877">
        <ele>981.76</ele>
        <time>2018-07-27T06:52:11Z</time>
      </trkpt>
      <trkpt lat="42.81583" lon="0.61914">
        <ele>984.25</ele>
        <time>2018-07-27T06:52:13Z</time>
      </trkpt>
      <trkpt lat="42.81602" lon="0.61943">
        <ele>987.28</ele>
        <time>2018-07-27T06:52:15Z</time>
      </trkpt>
      <trkpt lat="42.81625" lon="0.61957">
        <ele>992.31</ele>
        <time>2018-07-27T06:52:17Z</time>
      </trkpt>
      <trkpt lat="42.81652" lon="0.61968">
        <ele>995.49</ele>
        <time>2018-07-27T06:52:19Z</time>
      </trkpt>
      <trkpt lat="42.81683" lon="0.61979">
        <ele>996.2</ele>
        <time>2018-07-27T06:52:21Z</time>
      </trkpt>
      <trkpt lat="42.8171" lon="0.61982">
        <ele>995.56</ele>
        <time>2018-07-27T06:52:23Z</time>
      </trkpt>
      <trkpt lat="42.81739" lon="0.6197">
        <ele>996.2</ele>
        <time>2018-07-27T06:52:25Z</time>
      </trkpt>
      <trkpt lat="42.81766" lon="0.61953">
        <ele>996.47</ele>
        <time>2018-07-27T06:52:27Z</time>
      </trkpt>
      <trkpt lat="42.81794" lon="0.61919">
        <ele>997.9</ele>
        <time>2018-07-27T06:52:29Z</time>
      </trkpt>
      <trkpt lat="42.81809" lon="0.61897">
        <ele>998.16</ele>
        <time>2018-07-27T06:52:30Z</time>
      </trkpt>
      <trkpt lat="42.81825" lon="0.61882">
        <ele>998.93</ele>
        <time>2018-07-27T06:52:31Z</time>
      </trkpt>
      <trkpt lat="42.8184" lon="0.61867">
        <ele>999.17</ele>
        <time>2018-07-27T06:52:32Z</time>
      </trkpt>
      <trkpt lat="42.81853" lon="0.61851">
        <ele>999.24</ele>
        <time>2018-07-27T06:52:33Z</time>
      </trkpt>
      <trkpt lat="42.81867" lon="0.61831">
        <ele>999.26</ele>
        <time>2018-07-27T06:52:34Z</time>
      </trkpt>
      <trkpt lat="42.8188" lon="0.61814">
        <ele>999.96</ele>
        <time>2018-07-27T06:52:35Z</time>
      </trkpt>
      <trkpt lat="42.81899" lon="0.61797">
        <ele>1000.88</ele>
        <time>2018-07-27T06:52:36Z</time>
      </trkpt>
      <trkpt lat="42.81912" lon="0.61777">
        <ele>1001.85</ele>
        <time>2018-07-27T06:52:37Z</time>
      </trkpt>
      <trkpt lat="42.81923" lon="0.61756">
        <ele>1002.14</ele>
        <time>2018-07-27T06:52:38Z</time>
      </trkpt>
      <trkpt lat="42.81934" lon="0.61734">
        <ele>1002.23</ele>
        <time>2018-07-27T06:52:39Z</time>
      </trkpt>
      <trkpt lat="42.81941" lon="0.6171">
        <ele>1002.96</ele>
        <time>2018-07-27T06:52:40Z</time>
      </trkpt>
      <trkpt lat="42.81952" lon="0.61687">
        <ele>1004.57</ele>
        <time>2018-07-27T06:52:41Z</time>
      </trkpt>
      <trkpt lat="42.81962" lon="0.61664">
        <ele>1005.76</ele>
        <time>2018-07-27T06:52:42Z</time>
      </trkpt>
      <trkpt lat="42.81975" lon="0.61641">
        <ele>1007.51</ele>
        <time>2018-07-27T06:52:43Z</time>
      </trkpt>
      <trkpt lat="42.81986" lon="0.61618">
        <ele>1010.14</ele>
        <time>2018-07-27T06:52:44Z</time>
      </trkpt>
      <trkpt lat="42.81996" lon="0.61596">
        <ele>1011.63</ele>
        <time>2018-07-27T06:52:45Z</time>
      </trkpt>
      <trkpt lat="42.8201" lon="0.61577">
        <ele>1014.18</ele>
        <time>2018-07-27T06:52:46Z</time>
      </trkpt>
      <trkpt lat="42.82022" lon="0.61557">
        <ele>1016.34</ele>
        <time>2018-07-27T06:52:47Z</time>
      </trkpt>
      <trkpt lat="42.82042" lon="0.61524">
        <ele>1018.58</ele>
        <time>2018-07-27T06:52:49Z</time>
      </trkpt>
      <trkpt lat="42.82056" lon="0.61498">
        <ele>1020.82</ele>
        <time>2018-07-27T06:52:51Z</time>
      </trkpt>
      <trkpt lat="42.82072" lon="0.61487">
        <ele>1024.45</ele>
        <time>2018-07-27T06:52:53Z</time>
      </trkpt>
      <trkpt lat="42.82092" lon="0.61493">
        <ele>1028.2</ele>
        <time>2018-07-27T06:52:55Z</time>
      </trkpt>
      <trkpt lat="42.82104" lon="0.61526">
        <ele>1029.65</ele>
        <time>2018-07-27T06:52:56Z</time>
      </trkpt>
      <trkpt lat="42.82131" lon="0.6155">
        <ele>1034.13</ele>
        <time>2018-07-27T06:52:58Z</time>
      </trkpt>
      <trkpt lat="42.8216" lon="0.61579">
        <ele>1036.77</ele>
        <time>2018-07-27T06:53:00Z</time>
      </trkpt>
      <trkpt lat="42.82189" lon="0.61614">
        <ele>1036.1</ele>
        <time>2018-07-27T06:53:02Z</time>
      </trkpt>
      <trkpt lat="42.82219" lon="0.61645">
        <ele>1038.77</ele>
        <time>2018-07-27T06:53:04Z</time>
      </trkpt>
      <trkpt lat="42.82233" lon="0.61674">
        <ele>1039.43</ele>
        <time>2018-07-27T06:53:06Z</time>
      </trkpt>
      <trkpt lat="42.82252" lon="0.61704">
        <ele>1043.2</ele>
        <time>2018-07-27T06:53:08Z</time>
      </trkpt>
      <trkpt lat="42.82271" lon="0.61746">
        <ele>1045.99</ele>
        <time>2018-07-27T06:53:10Z</time>
      </trkpt>
      <trkpt lat="42.82292" lon="0.61785">
        <ele>1050.58</ele>
        <time>2018-07-27T06:53:12Z</time>
      </trkpt>
      <trkpt lat="42.823" lon="0.6181">
        <ele>1048.96</ele>
        <time>2018-07-27T06:53:13Z</time>
      </trkpt>
      <trkpt lat="42.82313" lon="0.61847">
        <ele>1051.76</ele>
        <time>2018-07-27T06:53:15Z</time>
      </trkpt>
      <trkpt lat="42.82328" lon="0.61886">
        <ele>1058.66</ele>
        <time>2018-07-27T06:53:17Z</time>
      </trkpt>
      <trkpt lat="42.82326" lon="0.61922">
        <ele>1063.13</ele>
        <time>2018-07-27T06:53:19Z</time>
      </trkpt>
      <trkpt lat="42.8233" lon="0.61965">
        <ele>1068.08</ele>
        <time>2018-07-27T06:53:21Z</time>
      </trkpt>
      <trkpt lat="42.82326" lon="0.62009">
        <ele>1073.29</ele>
        <time>2018-07-27T06:53:23Z</time>
      </trkpt>
      <trkpt lat="42.82324" lon="0.62034">
        <ele>1074.67</ele>
        <time>2018-07-27T06:53:24Z</time>
      </trkpt>
      <trkpt lat="42.82326" lon="0.62059">
        <ele>1076.49</ele>
        <time>2018-07-27T06:53:25Z</time>
      </trkpt>
      <trkpt lat="42.82321" lon="0.62105">
        <ele>1078.81</ele>
        <time>2018-07-27T06:53:27Z</time>
      </trkpt>
      <trkpt lat="42.82327" lon="0.62152">
        <ele>1085.25</ele>
        <time>2018-07-27T06:53:29Z</time>
      </trkpt>
      <trkpt lat="42.82339" lon="0.62197">
        <ele>1090.1</ele>
        <time>2018-07-27T06:53:31Z</time>
      </trkpt>
      <trkpt lat="42.82345" lon="0.62239">
        <ele>1093.68</ele>
        <time>2018-07-27T06:53:33Z</time>
      </trkpt>
      <trkpt lat="42.82358" lon="0.62266">
        <ele>1100.45</ele>
        <time>2018-07-27T06:53:36Z</time>
      </trkpt>
      <trkpt lat="42.82377" lon="0.62261">
        <ele>1103.12</ele>
        <time>2018-07-27T06:53:37Z</time>
      </trkpt>
      <trkpt lat="42.82401" lon="0.62279">
        <ele>1105.77</ele>
        <time>2018-07-27T06:53:39Z</time>
      </trkpt>
      <trkpt lat="42.82422" lon="0.62275">
        <ele>1108.74</ele>
        <time>2018-07-27T06:53:41Z</time>
      </trkpt>
      <trkpt lat="42.82446" lon="0.6227">
        <ele>1109.22</ele>
        <time>2018-07-27T06:53:43Z</time>
      </trkpt>
      <trkpt lat="42.82465" lon="0.62249">
        <ele>1111.08</ele>
        <time>2018-07-27T06:53:45Z</time>
      </trkpt>
      <trkpt lat="42.82493" lon="0.62234">
        <ele>1112.16</ele>
        <time>2018-07-27T06:53:47Z</time>
      </trkpt>
      <trkpt lat="42.82512" lon="0.6223">
        <ele>1112.23</ele>
        <time>2018-07-27T06:53:48Z</time>
      </trkpt>
      <trkpt lat="42.82539" lon="0.62241">
        <ele>1108.41</ele>
        <time>2018-07-27T06:53:50Z</time>
      </trkpt>
      <trkpt lat="42.82565" lon="0.62248">
        <ele>1110.1</ele>
        <time>2018-07-27T06:53:52Z</time>
      </trkpt>
      <trkpt lat="42.82593" lon="0.62255">
        <ele>1113.47</ele>
        <time>2018-07-27T06:53:54Z</time>
      </trkpt>
      <trkpt lat="42.82615" lon="0.62244">
        <ele>1116.51</ele>
        <time>2018-07-27T06:53:56Z</time>
      </trkpt>
      <trkpt lat="42.82629" lon="0.62218">
        <ele>1120.63</ele>
        <time>2018-07-27T06:53:58Z</time>
      </trkpt>
      <trkpt lat="42.82638" lon="0.62186">
        <ele>1121.91</ele>
        <time>2018-07-27T06:54:00Z</time>
      </trkpt>
      <trkpt lat="42.82644" lon="0.62147">
        <ele>1126.36</ele>
        <time>2018-07-27T06:54:02Z</time>
      </trkpt>
      <trkpt lat="42.82654" lon="0.6211">
        <ele>1132.23</ele>
        <time>2018-07-27T06:54:04Z</time>
      </trkpt>
      <trkpt lat="42.82667" lon="0.62092">
        <ele>1140.31</ele>
        <time>2018-07-27T06:54:06Z</time>
      </trkpt>
      <trkpt lat="42.82689" lon="0.62095">
        <ele>1144.8</ele>
        <time>2018-07-27T06:54:09Z</time>
      </trkpt>
      <trkpt lat="42.82707" lon="0.62108">
        <ele>1150.54</ele>
        <time>2018-07-27T06:54:11Z</time>
      </trkpt>
      <trkpt lat="42.82732" lon="0.6212">
        <ele>1151.9</ele>
        <time>2018-07-27T06:54:13Z</time>
      </trkpt>
      <trkpt lat="42.82755" lon="0.62133">
        <ele>1155.66</ele>
        <time>2018-07-27T06:54:15Z</time>
      </trkpt>
      <trkpt lat="42.82786" lon="0.62135">
        <ele>1159.22</ele>
        <time>2018-07-27T06:54:17Z</time>
      </trkpt>
      <trkpt lat="42.82816" lon="0.62142">
        <ele>1161.99</ele>
        <time>2018-07-27T06:54:19Z</time>
      </trkpt>
      <trkpt lat="42.82845" lon="0.62151">
        <ele>1163.36</ele>
        <time>2018-07-27T06:54:21Z</time>
      </trkpt>
      <trkpt lat="42.82866" lon="0.6215">
        <ele>1164.19</ele>
        <time>2018-07-27T06:54:23Z</time>
      </trkpt>
      <trkpt lat="42.82884" lon="0.62129">
        <ele>1164.96</ele>
        <time>2018-07-27T06:54:25Z</time>
      </trkpt>
      <trkpt lat="42.82905" lon="0.62101">
        <ele>1166.15</ele>
        <time>2018-07-27T06:54:27Z</time>
      </trkpt>
      <trkpt lat="42.82929" lon="0.62067">
        <ele>1167.87</ele>
        <time>2018-07-27T06:54:29Z</time>
      </trkpt>
      <trkpt lat="42.82948" lon="0.62029">
        <ele>1169.84</ele>
        <time>2018-07-27T06:54:31Z</time>
      </trkpt>
      <trkpt lat="42.82959" lon="0.62004">
        <ele>1171.54</ele>
        <time>2018-07-27T06:54:32Z</time>
      </trkpt>
      <trkpt lat="42.82967" lon="0.61978">
        <ele>1172.75</ele>
        <time>2018-07-27T06:54:33Z</time>
      </trkpt>
      <trkpt lat="42.82979" lon="0.61956">
        <ele>1174.83</ele>
        <time>2018-07-27T06:54:35Z</time>
      </trkpt>
      <trkpt lat="42.83" lon="0.61954">
        <ele>1177.31</ele>
        <time>2018-07-27T06:54:39Z</time>
      </trkpt>
      <trkpt lat="42.83018" lon="0.61964">
        <ele>1184.74</ele>
        <time>2018-07-27T06:54:42Z</time>
      </trkpt>
      <trkpt lat="42.83039" lon="0.61974">
        <ele>1191.66</ele>
        <time>2018-07-27T06:54:44Z</time>
      </trkpt>
      <trkpt lat="42.83065" lon="0.61984">
        <ele>1197.95</ele>
        <time>2018-07-27T06:54:46Z</time>
      </trkpt>
      <trkpt lat="42.8309" lon="0.61985">
        <ele>1200.76</ele>
        <time>2018-07-27T06:54:48Z</time>
      </trkpt>
      <trkpt lat="42.83114" lon="0.61985">
        <ele>1201.92</ele>
        <time>2018-07-27T06:54:50Z</time>
      </trkpt>
      <trkpt lat="42.83135" lon="0.61986">
        <ele>1204.06</ele>
        <time>2018-07-27T06:54:52Z</time>
      </trkpt>
      <trkpt lat="42.83159" lon="0.61982">
        <ele>1204.26</ele>
        <time>2018-07-27T06:54:55Z</time>
      </trkpt>
      <trkpt lat="42.83183" lon="0.6199">
        <ele>1204.54</ele>
        <time>2018-07-27T06:54:58Z</time>
      </trkpt>
      <trkpt lat="42.83205" lon="0.61999">
        <ele>1203.85</ele>
        <time>2018-07-27T06:55:01Z</time>
      </trkpt>
      <trkpt lat="42.83227" lon="0.62004">
        <ele>1205.87</ele>
        <time>2018-07-27T06:55:04Z</time>
      </trkpt>
      <trkpt lat="42.83245" lon="0.61992">
        <ele>1206.05</ele>
        <time>2018-07-27T06:55:08Z</time>
      </trkpt>
      <trkpt lat="42.83256" lon="0.61968">
        <ele>1207.24</ele>
        <time>2018-07-27T06:55:12Z</time>
      </trkpt>
      <trkpt lat="42.83267" lon="0.61942">
        <ele>1207.54</ele>
        <time>2018-07-27T06:55:15Z</time>
      </trkpt>
      <trkpt lat="42.83278" lon="0.6192">
        <ele>1209.52</ele>
        <time>2018-07-27T06:55:18Z</time>
      </trkpt>
      <trkpt lat="42.83297" lon="0.61923">
        <ele>1211.02</ele>
        <time>2018-07-27T06:55:22Z</time>
      </trkpt>
      <trkpt lat="42.83317" lon="0.61931">
        <ele>1211.26</ele>
        <time>2018-07-27T06:55:25Z</time>
      </trkpt>
      <trkpt lat="42.83332" lon="0.61952">
        <ele>1208.37</ele>
        <time>2018-07-27T06:55:30Z</time>
      </trkpt>
      <trkpt lat="42.83343" lon="0.61971">
        <ele>1219.99</ele>
        <time>2018-07-27T06:56:56Z</time>
      </trkpt>
    </trkseg>
  </trk>
</gpx>